<?xml version="1.0" encoding="UTF-8" standalone="no" ?>
<gpx xmlns="http://www.topografix.com/GPX/1/1" xmlns:xsi="http://www.w3.org/2001/XMLSchema-instance" xsi:schemaLocation="http://www.topografix.com/GPX/1/1 http://www.topografix.com/GPX/1/1/gpx.xsd" version="1.1" creator="VisuGPX - https://www.visugpx.com">
  <metadata>
    <name>MaXi-Night 2020 V3 sur TraceDeTrail.fr</name>
  </metadata>
  <trk>
    <name><![CDATA[MaXi-Night 2020 V3 sur TraceDeTrail.fr]]></name>
    <trkseg>
      <trkpt lat="45.79328" lon="6.10188">
        <ele>1640</ele>
        <time>2000-01-01T01:35:44.000Z</time>
      </trkpt>
      <trkpt lat="45.79325" lon="6.10183">
        <ele>1642.6</ele>
        <time>2000-01-01T01:35:54.000Z</time>
      </trkpt>
      <trkpt lat="45.79322" lon="6.10178">
        <ele>1642.4</ele>
        <time>2000-01-01T01:36:04.000Z</time>
      </trkpt>
      <trkpt lat="45.79317" lon="6.10173">
        <ele>1642</ele>
        <time>2000-01-01T01:36:14.000Z</time>
      </trkpt>
      <trkpt lat="45.79311" lon="6.10171">
        <ele>1637</ele>
        <time>2000-01-01T01:36:24.000Z</time>
      </trkpt>
      <trkpt lat="45.79306" lon="6.10164">
        <ele>1640.9</ele>
        <time>2000-01-01T01:36:34.000Z</time>
      </trkpt>
      <trkpt lat="45.79299" lon="6.10163">
        <ele>1640.6</ele>
        <time>2000-01-01T01:36:44.000Z</time>
      </trkpt>
      <trkpt lat="45.79286" lon="6.10155">
        <ele>1636</ele>
        <time>2000-01-01T01:36:54.000Z</time>
      </trkpt>
      <trkpt lat="45.7927" lon="6.10145">
        <ele>1639.2</ele>
        <time>2000-01-01T01:37:04.000Z</time>
      </trkpt>
      <trkpt lat="45.79256" lon="6.10137">
        <ele>1636</ele>
        <time>2000-01-01T01:37:14.000Z</time>
      </trkpt>
      <trkpt lat="45.79249" lon="6.10134">
        <ele>1639</ele>
        <time>2000-01-01T01:37:24.000Z</time>
      </trkpt>
      <trkpt lat="45.79238" lon="6.10134">
        <ele>1639.1</ele>
        <time>2000-01-01T01:37:34.000Z</time>
      </trkpt>
      <trkpt lat="45.79237" lon="6.10135">
        <ele>1637</ele>
        <time>2000-01-01T01:37:44.000Z</time>
      </trkpt>
      <trkpt lat="45.79215" lon="6.10121">
        <ele>1637</ele>
        <time>2000-01-01T01:37:54.000Z</time>
      </trkpt>
      <trkpt lat="45.79192" lon="6.10106">
        <ele>1637</ele>
        <time>2000-01-01T01:38:04.000Z</time>
      </trkpt>
      <trkpt lat="45.79178" lon="6.1009">
        <ele>1639.9</ele>
        <time>2000-01-01T01:38:14.000Z</time>
      </trkpt>
      <trkpt lat="45.79153" lon="6.10064">
        <ele>1637</ele>
        <time>2000-01-01T01:38:24.000Z</time>
      </trkpt>
      <trkpt lat="45.79123" lon="6.10036">
        <ele>1642</ele>
        <time>2000-01-01T01:38:34.000Z</time>
      </trkpt>
      <trkpt lat="45.79099" lon="6.10012">
        <ele>1643</ele>
        <time>2000-01-01T01:38:44.000Z</time>
      </trkpt>
      <trkpt lat="45.79088" lon="6.10001">
        <ele>1637.1</ele>
        <time>2000-01-01T01:38:54.000Z</time>
      </trkpt>
      <trkpt lat="45.79079" lon="6.09993">
        <ele>1643</ele>
        <time>2000-01-01T01:39:04.000Z</time>
      </trkpt>
      <trkpt lat="45.7907" lon="6.09985">
        <ele>1637.6</ele>
        <time>2000-01-01T01:39:14.000Z</time>
      </trkpt>
      <trkpt lat="45.79058" lon="6.09976">
        <ele>1643</ele>
        <time>2000-01-01T01:39:24.000Z</time>
      </trkpt>
      <trkpt lat="45.7904" lon="6.09965">
        <ele>1643</ele>
        <time>2000-01-01T01:39:34.000Z</time>
      </trkpt>
      <trkpt lat="45.79027" lon="6.09955">
        <ele>1639.2</ele>
        <time>2000-01-01T01:39:44.000Z</time>
      </trkpt>
      <trkpt lat="45.79014" lon="6.09947">
        <ele>1645</ele>
        <time>2000-01-01T01:39:54.000Z</time>
      </trkpt>
      <trkpt lat="45.79004" lon="6.0994">
        <ele>1640.1</ele>
        <time>2000-01-01T01:40:04.000Z</time>
      </trkpt>
      <trkpt lat="45.78994" lon="6.09932">
        <ele>1644</ele>
        <time>2000-01-01T01:40:14.000Z</time>
      </trkpt>
      <trkpt lat="45.7899" lon="6.09929">
        <ele>1640.2</ele>
        <time>2000-01-01T01:40:24.000Z</time>
      </trkpt>
      <trkpt lat="45.78989" lon="6.09929">
        <ele>1640.2</ele>
        <time>2000-01-01T01:40:34.000Z</time>
      </trkpt>
      <trkpt lat="45.78983" lon="6.09925">
        <ele>1640.3</ele>
        <time>2000-01-01T01:40:44.000Z</time>
      </trkpt>
      <trkpt lat="45.78979" lon="6.09922">
        <ele>1640.5</ele>
        <time>2000-01-01T01:40:54.000Z</time>
      </trkpt>
      <trkpt lat="45.78973" lon="6.09918">
        <ele>1644</ele>
        <time>2000-01-01T01:41:04.000Z</time>
      </trkpt>
      <trkpt lat="45.78969" lon="6.09916">
        <ele>1640.9</ele>
        <time>2000-01-01T01:41:14.000Z</time>
      </trkpt>
      <trkpt lat="45.78965" lon="6.09913">
        <ele>1640.9</ele>
        <time>2000-01-01T01:41:24.000Z</time>
      </trkpt>
      <trkpt lat="45.78959" lon="6.09911">
        <ele>1640.9</ele>
        <time>2000-01-01T01:41:34.000Z</time>
      </trkpt>
      <trkpt lat="45.78955" lon="6.09909">
        <ele>1645</ele>
        <time>2000-01-01T01:41:44.000Z</time>
      </trkpt>
      <trkpt lat="45.78948" lon="6.09907">
        <ele>1641.1</ele>
        <time>2000-01-01T01:41:54.000Z</time>
      </trkpt>
      <trkpt lat="45.78943" lon="6.09906">
        <ele>1641.1</ele>
        <time>2000-01-01T01:42:04.000Z</time>
      </trkpt>
      <trkpt lat="45.78937" lon="6.09905">
        <ele>1641.1</ele>
        <time>2000-01-01T01:42:14.000Z</time>
      </trkpt>
      <trkpt lat="45.78929" lon="6.09905">
        <ele>1645</ele>
        <time>2000-01-01T01:42:24.000Z</time>
      </trkpt>
      <trkpt lat="45.7892" lon="6.09905">
        <ele>1640.7</ele>
        <time>2000-01-01T01:42:34.000Z</time>
      </trkpt>
      <trkpt lat="45.78911" lon="6.09906">
        <ele>1640.3</ele>
        <time>2000-01-01T01:42:44.000Z</time>
      </trkpt>
      <trkpt lat="45.78905" lon="6.09906">
        <ele>1645</ele>
        <time>2000-01-01T01:42:54.000Z</time>
      </trkpt>
      <trkpt lat="45.789" lon="6.09906">
        <ele>1639.7</ele>
        <time>2000-01-01T01:43:04.000Z</time>
      </trkpt>
      <trkpt lat="45.78895" lon="6.09905">
        <ele>1639.6</ele>
        <time>2000-01-01T01:43:14.000Z</time>
      </trkpt>
      <trkpt lat="45.78891" lon="6.09904">
        <ele>1639.5</ele>
        <time>2000-01-01T01:43:24.000Z</time>
      </trkpt>
      <trkpt lat="45.78886" lon="6.09903">
        <ele>1645</ele>
        <time>2000-01-01T01:43:34.000Z</time>
      </trkpt>
      <trkpt lat="45.78881" lon="6.099">
        <ele>1639.3</ele>
        <time>2000-01-01T01:43:44.000Z</time>
      </trkpt>
      <trkpt lat="45.78875" lon="6.09896">
        <ele>1639.4</ele>
        <time>2000-01-01T01:43:54.000Z</time>
      </trkpt>
      <trkpt lat="45.78869" lon="6.0989">
        <ele>1645</ele>
        <time>2000-01-01T01:44:04.000Z</time>
      </trkpt>
      <trkpt lat="45.78862" lon="6.09884">
        <ele>1639.8</ele>
        <time>2000-01-01T01:44:14.000Z</time>
      </trkpt>
      <trkpt lat="45.78854" lon="6.09876">
        <ele>1640.5</ele>
        <time>2000-01-01T01:44:24.000Z</time>
      </trkpt>
      <trkpt lat="45.78847" lon="6.09868">
        <ele>1645</ele>
        <time>2000-01-01T01:44:34.000Z</time>
      </trkpt>
      <trkpt lat="45.78841" lon="6.0986">
        <ele>1641</ele>
        <time>2000-01-01T01:44:44.000Z</time>
      </trkpt>
      <trkpt lat="45.78834" lon="6.0985">
        <ele>1641.3</ele>
        <time>2000-01-01T01:44:54.000Z</time>
      </trkpt>
      <trkpt lat="45.78828" lon="6.09842">
        <ele>1644</ele>
        <time>2000-01-01T01:45:04.000Z</time>
      </trkpt>
      <trkpt lat="45.7882" lon="6.09829">
        <ele>1642.6</ele>
        <time>2000-01-01T01:45:14.000Z</time>
      </trkpt>
      <trkpt lat="45.78815" lon="6.09821">
        <ele>1644</ele>
        <time>2000-01-01T01:45:24.000Z</time>
      </trkpt>
      <trkpt lat="45.78811" lon="6.09813">
        <ele>1643.3</ele>
        <time>2000-01-01T01:45:34.000Z</time>
      </trkpt>
      <trkpt lat="45.78808" lon="6.09808">
        <ele>1643.2</ele>
        <time>2000-01-01T01:45:44.000Z</time>
      </trkpt>
      <trkpt lat="45.78805" lon="6.09804">
        <ele>1643.2</ele>
        <time>2000-01-01T01:45:54.000Z</time>
      </trkpt>
      <trkpt lat="45.78802" lon="6.09801">
        <ele>1643</ele>
        <time>2000-01-01T01:46:04.000Z</time>
      </trkpt>
      <trkpt lat="45.78799" lon="6.098">
        <ele>1643.5</ele>
        <time>2000-01-01T01:46:14.000Z</time>
      </trkpt>
      <trkpt lat="45.78795" lon="6.09799">
        <ele>1643.5</ele>
        <time>2000-01-01T01:46:24.000Z</time>
      </trkpt>
      <trkpt lat="45.78792" lon="6.09798">
        <ele>1643.5</ele>
        <time>2000-01-01T01:46:34.000Z</time>
      </trkpt>
      <trkpt lat="45.78789" lon="6.09797">
        <ele>1643.5</ele>
        <time>2000-01-01T01:46:44.000Z</time>
      </trkpt>
      <trkpt lat="45.78785" lon="6.09797">
        <ele>1643.3</ele>
        <time>2000-01-01T01:46:54.000Z</time>
      </trkpt>
      <trkpt lat="45.78781" lon="6.09796">
        <ele>1642</ele>
        <time>2000-01-01T01:47:04.000Z</time>
      </trkpt>
      <trkpt lat="45.78777" lon="6.09795">
        <ele>1643.1</ele>
        <time>2000-01-01T01:47:14.000Z</time>
      </trkpt>
      <trkpt lat="45.78776" lon="6.09789">
        <ele>1643.7</ele>
        <time>2000-01-01T01:47:24.000Z</time>
      </trkpt>
      <trkpt lat="45.78774" lon="6.09784">
        <ele>1644.2</ele>
        <time>2000-01-01T01:47:34.000Z</time>
      </trkpt>
      <trkpt lat="45.78772" lon="6.0978">
        <ele>1644.6</ele>
        <time>2000-01-01T01:47:44.000Z</time>
      </trkpt>
      <trkpt lat="45.7877" lon="6.09777">
        <ele>1635</ele>
        <time>2000-01-01T01:47:54.000Z</time>
      </trkpt>
      <trkpt lat="45.78768" lon="6.09775">
        <ele>1645.2</ele>
        <time>2000-01-01T01:48:04.000Z</time>
      </trkpt>
      <trkpt lat="45.78765" lon="6.09774">
        <ele>1645.2</ele>
        <time>2000-01-01T01:48:14.000Z</time>
      </trkpt>
      <trkpt lat="45.78762" lon="6.09774">
        <ele>1645.1</ele>
        <time>2000-01-01T01:48:24.000Z</time>
      </trkpt>
      <trkpt lat="45.7876" lon="6.09774">
        <ele>1645</ele>
        <time>2000-01-01T01:48:34.000Z</time>
      </trkpt>
      <trkpt lat="45.78757" lon="6.09775">
        <ele>1644.7</ele>
        <time>2000-01-01T01:48:44.000Z</time>
      </trkpt>
      <trkpt lat="45.78753" lon="6.09777">
        <ele>1644.2</ele>
        <time>2000-01-01T01:48:54.000Z</time>
      </trkpt>
      <trkpt lat="45.7875" lon="6.09779">
        <ele>1635</ele>
        <time>2000-01-01T01:49:04.000Z</time>
      </trkpt>
      <trkpt lat="45.78747" lon="6.0978">
        <ele>1643.7</ele>
        <time>2000-01-01T01:49:14.000Z</time>
      </trkpt>
      <trkpt lat="45.78744" lon="6.0978">
        <ele>1643.6</ele>
        <time>2000-01-01T01:49:24.000Z</time>
      </trkpt>
      <trkpt lat="45.7874" lon="6.09779">
        <ele>1643.6</ele>
        <time>2000-01-01T01:49:34.000Z</time>
      </trkpt>
      <trkpt lat="45.78735" lon="6.09779">
        <ele>1643.4</ele>
        <time>2000-01-01T01:49:44.000Z</time>
      </trkpt>
      <trkpt lat="45.7873" lon="6.09777">
        <ele>1635</ele>
        <time>2000-01-01T01:49:54.000Z</time>
      </trkpt>
      <trkpt lat="45.78723" lon="6.09776">
        <ele>1643.2</ele>
        <time>2000-01-01T01:50:04.000Z</time>
      </trkpt>
      <trkpt lat="45.78718" lon="6.09773">
        <ele>1643.3</ele>
        <time>2000-01-01T01:50:14.000Z</time>
      </trkpt>
      <trkpt lat="45.78711" lon="6.09769">
        <ele>1639</ele>
        <time>2000-01-01T01:50:24.000Z</time>
      </trkpt>
      <trkpt lat="45.78704" lon="6.09764">
        <ele>1643.5</ele>
        <time>2000-01-01T01:50:34.000Z</time>
      </trkpt>
      <trkpt lat="45.78696" lon="6.09757">
        <ele>1643.6</ele>
        <time>2000-01-01T01:50:44.000Z</time>
      </trkpt>
      <trkpt lat="45.78686" lon="6.09749">
        <ele>1647</ele>
        <time>2000-01-01T01:50:54.000Z</time>
      </trkpt>
      <trkpt lat="45.78677" lon="6.09741">
        <ele>1643.2</ele>
        <time>2000-01-01T01:51:04.000Z</time>
      </trkpt>
      <trkpt lat="45.78668" lon="6.09732">
        <ele>1644</ele>
        <time>2000-01-01T01:51:14.000Z</time>
      </trkpt>
      <trkpt lat="45.78657" lon="6.09722">
        <ele>1641.6</ele>
        <time>2000-01-01T01:51:24.000Z</time>
      </trkpt>
      <trkpt lat="45.78647" lon="6.09712">
        <ele>1642</ele>
        <time>2000-01-01T01:51:34.000Z</time>
      </trkpt>
      <trkpt lat="45.78639" lon="6.09702">
        <ele>1640.5</ele>
        <time>2000-01-01T01:51:44.000Z</time>
      </trkpt>
      <trkpt lat="45.78629" lon="6.0969">
        <ele>1639</ele>
        <time>2000-01-01T01:51:54.000Z</time>
      </trkpt>
      <trkpt lat="45.78622" lon="6.09682">
        <ele>1639</ele>
        <time>2000-01-01T01:52:04.000Z</time>
      </trkpt>
      <trkpt lat="45.78616" lon="6.09674">
        <ele>1638.4</ele>
        <time>2000-01-01T01:52:14.000Z</time>
      </trkpt>
      <trkpt lat="45.78609" lon="6.09663">
        <ele>1639</ele>
        <time>2000-01-01T01:52:24.000Z</time>
      </trkpt>
      <trkpt lat="45.78598" lon="6.09646">
        <ele>1636.4</ele>
        <time>2000-01-01T01:52:34.000Z</time>
      </trkpt>
      <trkpt lat="45.78589" lon="6.09633">
        <ele>1633</ele>
        <time>2000-01-01T01:52:44.000Z</time>
      </trkpt>
      <trkpt lat="45.7858" lon="6.09619">
        <ele>1634</ele>
        <time>2000-01-01T01:52:54.000Z</time>
      </trkpt>
      <trkpt lat="45.78573" lon="6.09609">
        <ele>1633</ele>
        <time>2000-01-01T01:53:04.000Z</time>
      </trkpt>
      <trkpt lat="45.78567" lon="6.09601">
        <ele>1631.5</ele>
        <time>2000-01-01T01:53:14.000Z</time>
      </trkpt>
      <trkpt lat="45.78562" lon="6.09597">
        <ele>1630.4</ele>
        <time>2000-01-01T01:53:24.000Z</time>
      </trkpt>
      <trkpt lat="45.78556" lon="6.09593">
        <ele>1629</ele>
        <time>2000-01-01T01:53:34.000Z</time>
      </trkpt>
      <trkpt lat="45.78549" lon="6.09589">
        <ele>1628.4</ele>
        <time>2000-01-01T01:53:44.000Z</time>
      </trkpt>
      <trkpt lat="45.78536" lon="6.09582">
        <ele>1626</ele>
        <time>2000-01-01T01:53:54.000Z</time>
      </trkpt>
      <trkpt lat="45.78522" lon="6.09575">
        <ele>1626.8</ele>
        <time>2000-01-01T01:54:04.000Z</time>
      </trkpt>
      <trkpt lat="45.78509" lon="6.09569">
        <ele>1623</ele>
        <time>2000-01-01T01:54:14.000Z</time>
      </trkpt>
      <trkpt lat="45.78503" lon="6.09567">
        <ele>1625.3</ele>
        <time>2000-01-01T01:54:24.000Z</time>
      </trkpt>
      <trkpt lat="45.78497" lon="6.09565">
        <ele>1624.9</ele>
        <time>2000-01-01T01:54:34.000Z</time>
      </trkpt>
      <trkpt lat="45.78491" lon="6.09564">
        <ele>1624.6</ele>
        <time>2000-01-01T01:54:44.000Z</time>
      </trkpt>
      <trkpt lat="45.78487" lon="6.09563">
        <ele>1619</ele>
        <time>2000-01-01T01:54:54.000Z</time>
      </trkpt>
      <trkpt lat="45.78481" lon="6.09562">
        <ele>1624.2</ele>
        <time>2000-01-01T01:55:04.000Z</time>
      </trkpt>
      <trkpt lat="45.78477" lon="6.09561">
        <ele>1624</ele>
        <time>2000-01-01T01:55:14.000Z</time>
      </trkpt>
      <trkpt lat="45.78471" lon="6.0956">
        <ele>1623.8</ele>
        <time>2000-01-01T01:55:24.000Z</time>
      </trkpt>
      <trkpt lat="45.78465" lon="6.09559">
        <ele>1619</ele>
        <time>2000-01-01T01:55:34.000Z</time>
      </trkpt>
      <trkpt lat="45.78459" lon="6.09559">
        <ele>1623.4</ele>
        <time>2000-01-01T01:55:44.000Z</time>
      </trkpt>
      <trkpt lat="45.78453" lon="6.09558">
        <ele>1623.2</ele>
        <time>2000-01-01T01:55:54.000Z</time>
      </trkpt>
      <trkpt lat="45.78446" lon="6.09557">
        <ele>1623</ele>
        <time>2000-01-01T01:56:04.000Z</time>
      </trkpt>
      <trkpt lat="45.78438" lon="6.09556">
        <ele>1614</ele>
        <time>2000-01-01T01:56:14.000Z</time>
      </trkpt>
      <trkpt lat="45.78432" lon="6.09555">
        <ele>1622.1</ele>
        <time>2000-01-01T01:56:24.000Z</time>
      </trkpt>
      <trkpt lat="45.78427" lon="6.09554">
        <ele>1621.8</ele>
        <time>2000-01-01T01:56:34.000Z</time>
      </trkpt>
      <trkpt lat="45.78423" lon="6.09554">
        <ele>1621.5</ele>
        <time>2000-01-01T01:56:44.000Z</time>
      </trkpt>
      <trkpt lat="45.78416" lon="6.09551">
        <ele>1614</ele>
        <time>2000-01-01T01:56:54.000Z</time>
      </trkpt>
      <trkpt lat="45.78411" lon="6.0955">
        <ele>1620.8</ele>
        <time>2000-01-01T01:57:04.000Z</time>
      </trkpt>
      <trkpt lat="45.78411" lon="6.0955">
        <ele>1620.8</ele>
        <time>2000-01-01T01:57:14.000Z</time>
      </trkpt>
      <trkpt lat="45.78411" lon="6.0955">
        <ele>1620.8</ele>
        <time>2000-01-01T01:57:24.000Z</time>
      </trkpt>
      <trkpt lat="45.78416" lon="6.09551">
        <ele>1621.1</ele>
        <time>2000-01-01T01:57:34.000Z</time>
      </trkpt>
      <trkpt lat="45.78423" lon="6.09554">
        <ele>1621.5</ele>
        <time>2000-01-01T01:57:44.000Z</time>
      </trkpt>
      <trkpt lat="45.78427" lon="6.09554">
        <ele>1614</ele>
        <time>2000-01-01T01:57:54.000Z</time>
      </trkpt>
      <trkpt lat="45.78418" lon="6.09559">
        <ele>1620.9</ele>
        <time>2000-01-01T01:58:04.000Z</time>
      </trkpt>
      <trkpt lat="45.78407" lon="6.09562">
        <ele>1613</ele>
        <time>2000-01-01T01:58:14.000Z</time>
      </trkpt>
      <trkpt lat="45.78397" lon="6.09565">
        <ele>1618.7</ele>
        <time>2000-01-01T01:58:24.000Z</time>
      </trkpt>
      <trkpt lat="45.78389" lon="6.09567">
        <ele>1617.8</ele>
        <time>2000-01-01T01:58:34.000Z</time>
      </trkpt>
      <trkpt lat="45.78385" lon="6.09568">
        <ele>1613</ele>
        <time>2000-01-01T01:58:44.000Z</time>
      </trkpt>
      <trkpt lat="45.78381" lon="6.09569">
        <ele>1616.8</ele>
        <time>2000-01-01T01:58:54.000Z</time>
      </trkpt>
      <trkpt lat="45.78379" lon="6.0957">
        <ele>1616.6</ele>
        <time>2000-01-01T01:59:04.000Z</time>
      </trkpt>
      <trkpt lat="45.78376" lon="6.09571">
        <ele>1616.2</ele>
        <time>2000-01-01T01:59:14.000Z</time>
      </trkpt>
      <trkpt lat="45.78374" lon="6.09571">
        <ele>1616</ele>
        <time>2000-01-01T01:59:24.000Z</time>
      </trkpt>
      <trkpt lat="45.78372" lon="6.09571">
        <ele>1615.8</ele>
        <time>2000-01-01T01:59:34.000Z</time>
      </trkpt>
      <trkpt lat="45.78369" lon="6.09569">
        <ele>1615.7</ele>
        <time>2000-01-01T01:59:44.000Z</time>
      </trkpt>
      <trkpt lat="45.78365" lon="6.09567">
        <ele>1608</ele>
        <time>2000-01-01T01:59:54.000Z</time>
      </trkpt>
      <trkpt lat="45.78361" lon="6.09564">
        <ele>1615.4</ele>
        <time>2000-01-01T02:00:04.000Z</time>
      </trkpt>
      <trkpt lat="45.78359" lon="6.09563">
        <ele>1615.2</ele>
        <time>2000-01-01T02:00:14.000Z</time>
      </trkpt>
      <trkpt lat="45.78358" lon="6.09561">
        <ele>1615.2</ele>
        <time>2000-01-01T02:00:24.000Z</time>
      </trkpt>
      <trkpt lat="45.78356" lon="6.09561">
        <ele>1614.9</ele>
        <time>2000-01-01T02:00:34.000Z</time>
      </trkpt>
      <trkpt lat="45.78354" lon="6.09562">
        <ele>1614.6</ele>
        <time>2000-01-01T02:00:44.000Z</time>
      </trkpt>
      <trkpt lat="45.78352" lon="6.09563">
        <ele>1614.2</ele>
        <time>2000-01-01T02:00:54.000Z</time>
      </trkpt>
      <trkpt lat="45.7835" lon="6.09565">
        <ele>1613.9</ele>
        <time>2000-01-01T02:01:04.000Z</time>
      </trkpt>
      <trkpt lat="45.78349" lon="6.09569">
        <ele>1607</ele>
        <time>2000-01-01T02:01:14.000Z</time>
      </trkpt>
      <trkpt lat="45.78349" lon="6.09573">
        <ele>1613.3</ele>
        <time>2000-01-01T02:01:24.000Z</time>
      </trkpt>
      <trkpt lat="45.78349" lon="6.09579">
        <ele>1612.9</ele>
        <time>2000-01-01T02:01:34.000Z</time>
      </trkpt>
      <trkpt lat="45.78349" lon="6.09587">
        <ele>1612.4</ele>
        <time>2000-01-01T02:01:44.000Z</time>
      </trkpt>
      <trkpt lat="45.78349" lon="6.09609">
        <ele>1607</ele>
        <time>2000-01-01T02:01:54.000Z</time>
      </trkpt>
      <trkpt lat="45.78349" lon="6.09613">
        <ele>1610.3</ele>
        <time>2000-01-01T02:02:04.000Z</time>
      </trkpt>
      <trkpt lat="45.78348" lon="6.09617">
        <ele>1609.7</ele>
        <time>2000-01-01T02:02:14.000Z</time>
      </trkpt>
      <trkpt lat="45.78347" lon="6.0962">
        <ele>1609.2</ele>
        <time>2000-01-01T02:02:24.000Z</time>
      </trkpt>
      <trkpt lat="45.78345" lon="6.09622">
        <ele>1608.9</ele>
        <time>2000-01-01T02:02:34.000Z</time>
      </trkpt>
      <trkpt lat="45.7834" lon="6.09624">
        <ele>1608.6</ele>
        <time>2000-01-01T02:02:44.000Z</time>
      </trkpt>
      <trkpt lat="45.78333" lon="6.09627">
        <ele>1607</ele>
        <time>2000-01-01T02:02:54.000Z</time>
      </trkpt>
      <trkpt lat="45.78325" lon="6.09629">
        <ele>1607.4</ele>
        <time>2000-01-01T02:03:04.000Z</time>
      </trkpt>
      <trkpt lat="45.78318" lon="6.09631">
        <ele>1606.6</ele>
        <time>2000-01-01T02:03:14.000Z</time>
      </trkpt>
      <trkpt lat="45.7831" lon="6.09633">
        <ele>1605</ele>
        <time>2000-01-01T02:03:24.000Z</time>
      </trkpt>
      <trkpt lat="45.78304" lon="6.09634">
        <ele>1605.2</ele>
        <time>2000-01-01T02:03:34.000Z</time>
      </trkpt>
      <trkpt lat="45.783" lon="6.09634">
        <ele>1604.8</ele>
        <time>2000-01-01T02:03:44.000Z</time>
      </trkpt>
      <trkpt lat="45.78298" lon="6.09635">
        <ele>1604.5</ele>
        <time>2000-01-01T02:03:54.000Z</time>
      </trkpt>
      <trkpt lat="45.78296" lon="6.09635">
        <ele>1604.2</ele>
        <time>2000-01-01T02:04:04.000Z</time>
      </trkpt>
      <trkpt lat="45.78293" lon="6.09637">
        <ele>1603.8</ele>
        <time>2000-01-01T02:04:14.000Z</time>
      </trkpt>
      <trkpt lat="45.78291" lon="6.09639">
        <ele>1604</ele>
        <time>2000-01-01T02:04:24.000Z</time>
      </trkpt>
      <trkpt lat="45.78289" lon="6.09643">
        <ele>1603</ele>
        <time>2000-01-01T02:04:34.000Z</time>
      </trkpt>
      <trkpt lat="45.78287" lon="6.09651">
        <ele>1602.4</ele>
        <time>2000-01-01T02:04:44.000Z</time>
      </trkpt>
      <trkpt lat="45.78285" lon="6.0966">
        <ele>1601.8</ele>
        <time>2000-01-01T02:04:54.000Z</time>
      </trkpt>
      <trkpt lat="45.78284" lon="6.09667">
        <ele>1602</ele>
        <time>2000-01-01T02:05:04.000Z</time>
      </trkpt>
      <trkpt lat="45.78281" lon="6.09672">
        <ele>1601.2</ele>
        <time>2000-01-01T02:05:14.000Z</time>
      </trkpt>
      <trkpt lat="45.78279" lon="6.09675">
        <ele>1601.1</ele>
        <time>2000-01-01T02:05:24.000Z</time>
      </trkpt>
      <trkpt lat="45.78276" lon="6.09678">
        <ele>1600.9</ele>
        <time>2000-01-01T02:05:34.000Z</time>
      </trkpt>
      <trkpt lat="45.78273" lon="6.0968">
        <ele>1600.7</ele>
        <time>2000-01-01T02:05:44.000Z</time>
      </trkpt>
      <trkpt lat="45.7827" lon="6.09681">
        <ele>1600.6</ele>
        <time>2000-01-01T02:05:54.000Z</time>
      </trkpt>
      <trkpt lat="45.78268" lon="6.09682">
        <ele>1602</ele>
        <time>2000-01-01T02:06:04.000Z</time>
      </trkpt>
      <trkpt lat="45.78265" lon="6.09682">
        <ele>1600.3</ele>
        <time>2000-01-01T02:06:14.000Z</time>
      </trkpt>
      <trkpt lat="45.78258" lon="6.09682">
        <ele>1599.9</ele>
        <time>2000-01-01T02:06:24.000Z</time>
      </trkpt>
      <trkpt lat="45.78246" lon="6.09681">
        <ele>1602</ele>
        <time>2000-01-01T02:06:34.000Z</time>
      </trkpt>
      <trkpt lat="45.78235" lon="6.0968">
        <ele>1598.7</ele>
        <time>2000-01-01T02:06:44.000Z</time>
      </trkpt>
      <trkpt lat="45.78224" lon="6.09678">
        <ele>1597</ele>
        <time>2000-01-01T02:06:54.000Z</time>
      </trkpt>
      <trkpt lat="45.78216" lon="6.09677">
        <ele>1597.4</ele>
        <time>2000-01-01T02:07:04.000Z</time>
      </trkpt>
      <trkpt lat="45.78206" lon="6.09676">
        <ele>1596.4</ele>
        <time>2000-01-01T02:07:14.000Z</time>
      </trkpt>
      <trkpt lat="45.78196" lon="6.09675">
        <ele>1592</ele>
        <time>2000-01-01T02:07:24.000Z</time>
      </trkpt>
      <trkpt lat="45.78189" lon="6.09674">
        <ele>1595</ele>
        <time>2000-01-01T02:07:34.000Z</time>
      </trkpt>
      <trkpt lat="45.78185" lon="6.09674">
        <ele>1594.8</ele>
        <time>2000-01-01T02:07:44.000Z</time>
      </trkpt>
      <trkpt lat="45.78181" lon="6.09673">
        <ele>1594.6</ele>
        <time>2000-01-01T02:07:54.000Z</time>
      </trkpt>
      <trkpt lat="45.78179" lon="6.09674">
        <ele>1594.6</ele>
        <time>2000-01-01T02:08:04.000Z</time>
      </trkpt>
      <trkpt lat="45.78176" lon="6.09674">
        <ele>1596</ele>
        <time>2000-01-01T02:08:14.000Z</time>
      </trkpt>
      <trkpt lat="45.78173" lon="6.09674">
        <ele>1594.3</ele>
        <time>2000-01-01T02:08:24.000Z</time>
      </trkpt>
      <trkpt lat="45.7817" lon="6.09675">
        <ele>1594.2</ele>
        <time>2000-01-01T02:08:34.000Z</time>
      </trkpt>
      <trkpt lat="45.78167" lon="6.09678">
        <ele>1594</ele>
        <time>2000-01-01T02:08:44.000Z</time>
      </trkpt>
      <trkpt lat="45.78165" lon="6.09681">
        <ele>1594.1</ele>
        <time>2000-01-01T02:08:54.000Z</time>
      </trkpt>
      <trkpt lat="45.78165" lon="6.09681">
        <ele>1594.1</ele>
        <time>2000-01-01T02:09:04.000Z</time>
      </trkpt>
      <trkpt lat="45.78102" lon="6.09664">
        <ele>1601</ele>
        <time>2000-01-01T02:09:14.000Z</time>
      </trkpt>
      <trkpt lat="45.78079" lon="6.09642">
        <ele>1604</ele>
        <time>2000-01-01T02:09:24.000Z</time>
      </trkpt>
      <trkpt lat="45.78042" lon="6.09608">
        <ele>1606</ele>
        <time>2000-01-01T02:09:34.000Z</time>
      </trkpt>
      <trkpt lat="45.78014" lon="6.09608">
        <ele>1609</ele>
        <time>2000-01-01T02:09:44.000Z</time>
      </trkpt>
      <trkpt lat="45.77971" lon="6.09608">
        <ele>1617</ele>
        <time>2000-01-01T02:09:54.000Z</time>
      </trkpt>
      <trkpt lat="45.77966" lon="6.09613">
        <ele>1617.7</ele>
        <time>2000-01-01T02:10:04.000Z</time>
      </trkpt>
      <trkpt lat="45.77981" lon="6.09523">
        <ele>1617</ele>
        <time>2000-01-01T02:10:14.000Z</time>
      </trkpt>
      <trkpt lat="45.77985" lon="6.09525">
        <ele>1615</ele>
        <time>2000-01-01T02:10:24.000Z</time>
      </trkpt>
      <trkpt lat="45.77987" lon="6.09527">
        <ele>1615</ele>
        <time>2000-01-01T02:10:34.000Z</time>
      </trkpt>
      <trkpt lat="45.7799" lon="6.09528">
        <ele>1615</ele>
        <time>2000-01-01T02:10:44.000Z</time>
      </trkpt>
      <trkpt lat="45.77994" lon="6.09529">
        <ele>1615</ele>
        <time>2000-01-01T02:10:54.000Z</time>
      </trkpt>
      <trkpt lat="45.77999" lon="6.09529">
        <ele>1615</ele>
        <time>2000-01-01T02:11:04.000Z</time>
      </trkpt>
      <trkpt lat="45.78003" lon="6.09529">
        <ele>1617</ele>
        <time>2000-01-01T02:11:14.000Z</time>
      </trkpt>
      <trkpt lat="45.7801" lon="6.09529">
        <ele>1615</ele>
        <time>2000-01-01T02:11:24.000Z</time>
      </trkpt>
      <trkpt lat="45.7801" lon="6.09529">
        <ele>1615</ele>
        <time>2000-01-01T02:11:34.000Z</time>
      </trkpt>
      <trkpt lat="45.78016" lon="6.09528">
        <ele>1615</ele>
        <time>2000-01-01T02:11:44.000Z</time>
      </trkpt>
      <trkpt lat="45.78024" lon="6.09525">
        <ele>1617</ele>
        <time>2000-01-01T02:11:54.000Z</time>
      </trkpt>
      <trkpt lat="45.78033" lon="6.09521">
        <ele>1615.7</ele>
        <time>2000-01-01T02:12:04.000Z</time>
      </trkpt>
      <trkpt lat="45.78043" lon="6.09517">
        <ele>1617</ele>
        <time>2000-01-01T02:12:14.000Z</time>
      </trkpt>
      <trkpt lat="45.78055" lon="6.0951">
        <ele>1617.3</ele>
        <time>2000-01-01T02:12:24.000Z</time>
      </trkpt>
      <trkpt lat="45.78065" lon="6.09504">
        <ele>1618</ele>
        <time>2000-01-01T02:12:34.000Z</time>
      </trkpt>
      <trkpt lat="45.78069" lon="6.09501">
        <ele>1618.4</ele>
        <time>2000-01-01T02:12:44.000Z</time>
      </trkpt>
      <trkpt lat="45.78073" lon="6.09498">
        <ele>1618.7</ele>
        <time>2000-01-01T02:12:54.000Z</time>
      </trkpt>
      <trkpt lat="45.78077" lon="6.09494">
        <ele>1619</ele>
        <time>2000-01-01T02:13:04.000Z</time>
      </trkpt>
      <trkpt lat="45.78086" lon="6.09483">
        <ele>1619</ele>
        <time>2000-01-01T02:13:14.000Z</time>
      </trkpt>
      <trkpt lat="45.78099" lon="6.09467">
        <ele>1620.5</ele>
        <time>2000-01-01T02:13:24.000Z</time>
      </trkpt>
      <trkpt lat="45.78117" lon="6.09444">
        <ele>1619</ele>
        <time>2000-01-01T02:13:34.000Z</time>
      </trkpt>
      <trkpt lat="45.78128" lon="6.09431">
        <ele>1620</ele>
        <time>2000-01-01T02:13:44.000Z</time>
      </trkpt>
      <trkpt lat="45.78138" lon="6.09419">
        <ele>1617</ele>
        <time>2000-01-01T02:13:54.000Z</time>
      </trkpt>
      <trkpt lat="45.78145" lon="6.0941">
        <ele>1619.2</ele>
        <time>2000-01-01T02:14:04.000Z</time>
      </trkpt>
      <trkpt lat="45.78153" lon="6.09402">
        <ele>1618.5</ele>
        <time>2000-01-01T02:14:14.000Z</time>
      </trkpt>
      <trkpt lat="45.78165" lon="6.09391">
        <ele>1617</ele>
        <time>2000-01-01T02:14:24.000Z</time>
      </trkpt>
      <trkpt lat="45.78186" lon="6.09373">
        <ele>1618</ele>
        <time>2000-01-01T02:14:34.000Z</time>
      </trkpt>
      <trkpt lat="45.78206" lon="6.09355">
        <ele>1618</ele>
        <time>2000-01-01T02:14:44.000Z</time>
      </trkpt>
      <trkpt lat="45.78218" lon="6.09344">
        <ele>1619.8</ele>
        <time>2000-01-01T02:14:54.000Z</time>
      </trkpt>
      <trkpt lat="45.78223" lon="6.09339">
        <ele>1615</ele>
        <time>2000-01-01T02:15:04.000Z</time>
      </trkpt>
      <trkpt lat="45.78237" lon="6.09327">
        <ele>1621.5</ele>
        <time>2000-01-01T02:15:14.000Z</time>
      </trkpt>
      <trkpt lat="45.7825" lon="6.09325">
        <ele>1614</ele>
        <time>2000-01-01T02:15:24.000Z</time>
      </trkpt>
      <trkpt lat="45.78265" lon="6.09323">
        <ele>1619.8</ele>
        <time>2000-01-01T02:15:34.000Z</time>
      </trkpt>
      <trkpt lat="45.78278" lon="6.09314">
        <ele>1615</ele>
        <time>2000-01-01T02:15:44.000Z</time>
      </trkpt>
      <trkpt lat="45.78294" lon="6.09299">
        <ele>1617</ele>
        <time>2000-01-01T02:15:54.000Z</time>
      </trkpt>
      <trkpt lat="45.78306" lon="6.09293">
        <ele>1617.3</ele>
        <time>2000-01-01T02:16:04.000Z</time>
      </trkpt>
      <trkpt lat="45.78315" lon="6.09296">
        <ele>1616</ele>
        <time>2000-01-01T02:16:14.000Z</time>
      </trkpt>
      <trkpt lat="45.78333" lon="6.09313">
        <ele>1616</ele>
        <time>2000-01-01T02:16:24.000Z</time>
      </trkpt>
      <trkpt lat="45.78351" lon="6.09323">
        <ele>1616</ele>
        <time>2000-01-01T02:16:34.000Z</time>
      </trkpt>
      <trkpt lat="45.78362" lon="6.09326">
        <ele>1613.7</ele>
        <time>2000-01-01T02:16:44.000Z</time>
      </trkpt>
      <trkpt lat="45.78371" lon="6.09331">
        <ele>1616</ele>
        <time>2000-01-01T02:16:54.000Z</time>
      </trkpt>
      <trkpt lat="45.78379" lon="6.09332">
        <ele>1612.9</ele>
        <time>2000-01-01T02:17:04.000Z</time>
      </trkpt>
      <trkpt lat="45.78396" lon="6.09339">
        <ele>1618</ele>
        <time>2000-01-01T02:17:14.000Z</time>
      </trkpt>
      <trkpt lat="45.78398" lon="6.0934">
        <ele>1613.6</ele>
        <time>2000-01-01T02:17:24.000Z</time>
      </trkpt>
      <trkpt lat="45.78406" lon="6.09345">
        <ele>1614.5</ele>
        <time>2000-01-01T02:17:34.000Z</time>
      </trkpt>
      <trkpt lat="45.78416" lon="6.09351">
        <ele>1616</ele>
        <time>2000-01-01T02:17:44.000Z</time>
      </trkpt>
      <trkpt lat="45.78424" lon="6.09356">
        <ele>1617.7</ele>
        <time>2000-01-01T02:17:54.000Z</time>
      </trkpt>
      <trkpt lat="45.78433" lon="6.0936">
        <ele>1619.5</ele>
        <time>2000-01-01T02:18:04.000Z</time>
      </trkpt>
      <trkpt lat="45.78443" lon="6.09365">
        <ele>1614</ele>
        <time>2000-01-01T02:18:14.000Z</time>
      </trkpt>
      <trkpt lat="45.78454" lon="6.09369">
        <ele>1621.8</ele>
        <time>2000-01-01T02:18:24.000Z</time>
      </trkpt>
      <trkpt lat="45.78462" lon="6.09372">
        <ele>1612</ele>
        <time>2000-01-01T02:18:34.000Z</time>
      </trkpt>
      <trkpt lat="45.78467" lon="6.09374">
        <ele>1623</ele>
        <time>2000-01-01T02:18:44.000Z</time>
      </trkpt>
      <trkpt lat="45.78473" lon="6.09376">
        <ele>1623.6</ele>
        <time>2000-01-01T02:18:54.000Z</time>
      </trkpt>
      <trkpt lat="45.78479" lon="6.09378">
        <ele>1624.3</ele>
        <time>2000-01-01T02:19:04.000Z</time>
      </trkpt>
      <trkpt lat="45.78485" lon="6.09379">
        <ele>1612</ele>
        <time>2000-01-01T02:19:14.000Z</time>
      </trkpt>
      <trkpt lat="45.78492" lon="6.09381">
        <ele>1625.9</ele>
        <time>2000-01-01T02:19:24.000Z</time>
      </trkpt>
      <trkpt lat="45.78496" lon="6.09382">
        <ele>1626.3</ele>
        <time>2000-01-01T02:19:34.000Z</time>
      </trkpt>
      <trkpt lat="45.78501" lon="6.09383">
        <ele>1627</ele>
        <time>2000-01-01T02:19:44.000Z</time>
      </trkpt>
      <trkpt lat="45.78506" lon="6.09384">
        <ele>1621</ele>
        <time>2000-01-01T02:19:54.000Z</time>
      </trkpt>
      <trkpt lat="45.78512" lon="6.09385">
        <ele>1629</ele>
        <time>2000-01-01T02:20:04.000Z</time>
      </trkpt>
      <trkpt lat="45.78528" lon="6.09391">
        <ele>1623</ele>
        <time>2000-01-01T02:20:14.000Z</time>
      </trkpt>
      <trkpt lat="45.78538" lon="6.09393">
        <ele>1633.5</ele>
        <time>2000-01-01T02:20:24.000Z</time>
      </trkpt>
      <trkpt lat="45.78543" lon="6.09395">
        <ele>1634.3</ele>
        <time>2000-01-01T02:20:34.000Z</time>
      </trkpt>
      <trkpt lat="45.78546" lon="6.09397">
        <ele>1623</ele>
        <time>2000-01-01T02:20:44.000Z</time>
      </trkpt>
      <trkpt lat="45.7855" lon="6.09398">
        <ele>1635.5</ele>
        <time>2000-01-01T02:20:54.000Z</time>
      </trkpt>
      <trkpt lat="45.78554" lon="6.09401">
        <ele>1636.2</ele>
        <time>2000-01-01T02:21:04.000Z</time>
      </trkpt>
      <trkpt lat="45.78557" lon="6.09403">
        <ele>1636.6</ele>
        <time>2000-01-01T02:21:14.000Z</time>
      </trkpt>
      <trkpt lat="45.78561" lon="6.09405">
        <ele>1637.1</ele>
        <time>2000-01-01T02:21:24.000Z</time>
      </trkpt>
      <trkpt lat="45.78565" lon="6.09407">
        <ele>1629</ele>
        <time>2000-01-01T02:21:34.000Z</time>
      </trkpt>
      <trkpt lat="45.7857" lon="6.09409">
        <ele>1637.9</ele>
        <time>2000-01-01T02:21:44.000Z</time>
      </trkpt>
      <trkpt lat="45.78574" lon="6.09411">
        <ele>1638.3</ele>
        <time>2000-01-01T02:21:54.000Z</time>
      </trkpt>
      <trkpt lat="45.78579" lon="6.09412">
        <ele>1638.7</ele>
        <time>2000-01-01T02:22:04.000Z</time>
      </trkpt>
      <trkpt lat="45.78584" lon="6.09413">
        <ele>1635</ele>
        <time>2000-01-01T02:22:14.000Z</time>
      </trkpt>
      <trkpt lat="45.7859" lon="6.09414">
        <ele>1639.9</ele>
        <time>2000-01-01T02:22:24.000Z</time>
      </trkpt>
      <trkpt lat="45.78594" lon="6.09415">
        <ele>1640.5</ele>
        <time>2000-01-01T02:22:34.000Z</time>
      </trkpt>
      <trkpt lat="45.786" lon="6.09416">
        <ele>1641.4</ele>
        <time>2000-01-01T02:22:44.000Z</time>
      </trkpt>
      <trkpt lat="45.78605" lon="6.09417">
        <ele>1640</ele>
        <time>2000-01-01T02:22:54.000Z</time>
      </trkpt>
      <trkpt lat="45.78611" lon="6.09418">
        <ele>1642.9</ele>
        <time>2000-01-01T02:23:04.000Z</time>
      </trkpt>
      <trkpt lat="45.78616" lon="6.09418">
        <ele>1643.7</ele>
        <time>2000-01-01T02:23:14.000Z</time>
      </trkpt>
      <trkpt lat="45.78624" lon="6.09419">
        <ele>1640</ele>
        <time>2000-01-01T02:23:24.000Z</time>
      </trkpt>
      <trkpt lat="45.78632" lon="6.09419">
        <ele>1646.1</ele>
        <time>2000-01-01T02:23:34.000Z</time>
      </trkpt>
      <trkpt lat="45.78642" lon="6.09419">
        <ele>1647.4</ele>
        <time>2000-01-01T02:23:44.000Z</time>
      </trkpt>
      <trkpt lat="45.7865" lon="6.09419">
        <ele>1645</ele>
        <time>2000-01-01T02:23:54.000Z</time>
      </trkpt>
      <trkpt lat="45.78657" lon="6.09419">
        <ele>1649</ele>
        <time>2000-01-01T02:24:04.000Z</time>
      </trkpt>
      <trkpt lat="45.78672" lon="6.09418">
        <ele>1650</ele>
        <time>2000-01-01T02:24:14.000Z</time>
      </trkpt>
      <trkpt lat="45.78679" lon="6.09418">
        <ele>1650.5</ele>
        <time>2000-01-01T02:24:24.000Z</time>
      </trkpt>
      <trkpt lat="45.78679" lon="6.09418">
        <ele>1650.5</ele>
        <time>2000-01-01T02:24:34.000Z</time>
      </trkpt>
      <trkpt lat="45.78691" lon="6.09425">
        <ele>1655</ele>
        <time>2000-01-01T02:24:44.000Z</time>
      </trkpt>
      <trkpt lat="45.78698" lon="6.09433">
        <ele>1652.2</ele>
        <time>2000-01-01T02:24:54.000Z</time>
      </trkpt>
      <trkpt lat="45.78703" lon="6.0944">
        <ele>1652.9</ele>
        <time>2000-01-01T02:25:04.000Z</time>
      </trkpt>
      <trkpt lat="45.78719" lon="6.09467">
        <ele>1655</ele>
        <time>2000-01-01T02:25:14.000Z</time>
      </trkpt>
      <trkpt lat="45.78738" lon="6.09508">
        <ele>1655</ele>
        <time>2000-01-01T02:25:24.000Z</time>
      </trkpt>
      <trkpt lat="45.78745" lon="6.09522">
        <ele>1657.6</ele>
        <time>2000-01-01T02:25:34.000Z</time>
      </trkpt>
      <trkpt lat="45.78747" lon="6.09525">
        <ele>1657.8</ele>
        <time>2000-01-01T02:25:44.000Z</time>
      </trkpt>
      <trkpt lat="45.7875" lon="6.0953">
        <ele>1661</ele>
        <time>2000-01-01T02:25:54.000Z</time>
      </trkpt>
      <trkpt lat="45.78753" lon="6.09534">
        <ele>1658.2</ele>
        <time>2000-01-01T02:26:04.000Z</time>
      </trkpt>
      <trkpt lat="45.78759" lon="6.09542">
        <ele>1658.7</ele>
        <time>2000-01-01T02:26:14.000Z</time>
      </trkpt>
      <trkpt lat="45.78765" lon="6.09549">
        <ele>1661</ele>
        <time>2000-01-01T02:26:24.000Z</time>
      </trkpt>
      <trkpt lat="45.78771" lon="6.09557">
        <ele>1659.8</ele>
        <time>2000-01-01T02:26:34.000Z</time>
      </trkpt>
      <trkpt lat="45.78776" lon="6.09564">
        <ele>1660.5</ele>
        <time>2000-01-01T02:26:44.000Z</time>
      </trkpt>
      <trkpt lat="45.7878" lon="6.09571">
        <ele>1667</ele>
        <time>2000-01-01T02:26:54.000Z</time>
      </trkpt>
      <trkpt lat="45.78783" lon="6.09575">
        <ele>1661.2</ele>
        <time>2000-01-01T02:27:04.000Z</time>
      </trkpt>
      <trkpt lat="45.78786" lon="6.09578">
        <ele>1661.3</ele>
        <time>2000-01-01T02:27:14.000Z</time>
      </trkpt>
      <trkpt lat="45.78788" lon="6.0958">
        <ele>1661.4</ele>
        <time>2000-01-01T02:27:24.000Z</time>
      </trkpt>
      <trkpt lat="45.78792" lon="6.09585">
        <ele>1661.5</ele>
        <time>2000-01-01T02:27:34.000Z</time>
      </trkpt>
      <trkpt lat="45.78795" lon="6.09589">
        <ele>1667</ele>
        <time>2000-01-01T02:27:44.000Z</time>
      </trkpt>
      <trkpt lat="45.78798" lon="6.09594">
        <ele>1661.6</ele>
        <time>2000-01-01T02:27:54.000Z</time>
      </trkpt>
      <trkpt lat="45.788" lon="6.09597">
        <ele>1661.6</ele>
        <time>2000-01-01T02:28:04.000Z</time>
      </trkpt>
      <trkpt lat="45.78802" lon="6.09602">
        <ele>1661.7</ele>
        <time>2000-01-01T02:28:14.000Z</time>
      </trkpt>
      <trkpt lat="45.78805" lon="6.09608">
        <ele>1661.9</ele>
        <time>2000-01-01T02:28:24.000Z</time>
      </trkpt>
      <trkpt lat="45.78808" lon="6.09616">
        <ele>1666</ele>
        <time>2000-01-01T02:28:34.000Z</time>
      </trkpt>
      <trkpt lat="45.78811" lon="6.09626">
        <ele>1661.9</ele>
        <time>2000-01-01T02:28:44.000Z</time>
      </trkpt>
      <trkpt lat="45.78814" lon="6.09634">
        <ele>1661.9</ele>
        <time>2000-01-01T02:28:54.000Z</time>
      </trkpt>
      <trkpt lat="45.78815" lon="6.09642">
        <ele>1666</ele>
        <time>2000-01-01T02:29:04.000Z</time>
      </trkpt>
      <trkpt lat="45.78816" lon="6.09646">
        <ele>1661.6</ele>
        <time>2000-01-01T02:29:14.000Z</time>
      </trkpt>
      <trkpt lat="45.78816" lon="6.09648">
        <ele>1661.5</ele>
        <time>2000-01-01T02:29:24.000Z</time>
      </trkpt>
      <trkpt lat="45.78815" lon="6.09651">
        <ele>1661.5</ele>
        <time>2000-01-01T02:29:34.000Z</time>
      </trkpt>
      <trkpt lat="45.78814" lon="6.09653">
        <ele>1661.6</ele>
        <time>2000-01-01T02:29:44.000Z</time>
      </trkpt>
      <trkpt lat="45.78812" lon="6.09655">
        <ele>1661.7</ele>
        <time>2000-01-01T02:29:54.000Z</time>
      </trkpt>
      <trkpt lat="45.7881" lon="6.09658">
        <ele>1661.8</ele>
        <time>2000-01-01T02:30:04.000Z</time>
      </trkpt>
      <trkpt lat="45.78808" lon="6.0966">
        <ele>1662</ele>
        <time>2000-01-01T02:30:14.000Z</time>
      </trkpt>
      <trkpt lat="45.78803" lon="6.09664">
        <ele>1665</ele>
        <time>2000-01-01T02:30:24.000Z</time>
      </trkpt>
      <trkpt lat="45.78795" lon="6.0967">
        <ele>1661.8</ele>
        <time>2000-01-01T02:30:34.000Z</time>
      </trkpt>
      <trkpt lat="45.78792" lon="6.09672">
        <ele>1661.7</ele>
        <time>2000-01-01T02:30:44.000Z</time>
      </trkpt>
      <trkpt lat="45.7879" lon="6.09674">
        <ele>1661.6</ele>
        <time>2000-01-01T02:30:54.000Z</time>
      </trkpt>
      <trkpt lat="45.78789" lon="6.09676">
        <ele>1661.5</ele>
        <time>2000-01-01T02:31:04.000Z</time>
      </trkpt>
      <trkpt lat="45.78789" lon="6.09679">
        <ele>1661.3</ele>
        <time>2000-01-01T02:31:14.000Z</time>
      </trkpt>
      <trkpt lat="45.78789" lon="6.09682">
        <ele>1664</ele>
        <time>2000-01-01T02:31:24.000Z</time>
      </trkpt>
      <trkpt lat="45.78789" lon="6.09684">
        <ele>1661</ele>
        <time>2000-01-01T02:31:34.000Z</time>
      </trkpt>
      <trkpt lat="45.78789" lon="6.09687">
        <ele>1660.8</ele>
        <time>2000-01-01T02:31:44.000Z</time>
      </trkpt>
      <trkpt lat="45.78792" lon="6.09696">
        <ele>1660.3</ele>
        <time>2000-01-01T02:31:54.000Z</time>
      </trkpt>
      <trkpt lat="45.78794" lon="6.09701">
        <ele>1659.8</ele>
        <time>2000-01-01T02:32:04.000Z</time>
      </trkpt>
      <trkpt lat="45.78798" lon="6.09705">
        <ele>1663</ele>
        <time>2000-01-01T02:32:14.000Z</time>
      </trkpt>
      <trkpt lat="45.78803" lon="6.09713">
        <ele>1658.8</ele>
        <time>2000-01-01T02:32:24.000Z</time>
      </trkpt>
      <trkpt lat="45.78813" lon="6.09724">
        <ele>1663</ele>
        <time>2000-01-01T02:32:34.000Z</time>
      </trkpt>
      <trkpt lat="45.78823" lon="6.09735">
        <ele>1656.6</ele>
        <time>2000-01-01T02:32:44.000Z</time>
      </trkpt>
      <trkpt lat="45.78828" lon="6.09742">
        <ele>1661</ele>
        <time>2000-01-01T02:32:54.000Z</time>
      </trkpt>
      <trkpt lat="45.78849" lon="6.09765">
        <ele>1661</ele>
        <time>2000-01-01T02:33:04.000Z</time>
      </trkpt>
      <trkpt lat="45.78871" lon="6.09789">
        <ele>1661</ele>
        <time>2000-01-01T02:33:14.000Z</time>
      </trkpt>
      <trkpt lat="45.78886" lon="6.09806">
        <ele>1659</ele>
        <time>2000-01-01T02:33:24.000Z</time>
      </trkpt>
      <trkpt lat="45.78901" lon="6.09823">
        <ele>1657</ele>
        <time>2000-01-01T02:33:34.000Z</time>
      </trkpt>
      <trkpt lat="45.78913" lon="6.09834">
        <ele>1650.1</ele>
        <time>2000-01-01T02:33:44.000Z</time>
      </trkpt>
      <trkpt lat="45.78927" lon="6.09847">
        <ele>1657</ele>
        <time>2000-01-01T02:33:54.000Z</time>
      </trkpt>
      <trkpt lat="45.7894" lon="6.09859">
        <ele>1646.3</ele>
        <time>2000-01-01T02:34:04.000Z</time>
      </trkpt>
      <trkpt lat="45.7895" lon="6.09867">
        <ele>1649</ele>
        <time>2000-01-01T02:34:14.000Z</time>
      </trkpt>
      <trkpt lat="45.78959" lon="6.09876">
        <ele>1643.6</ele>
        <time>2000-01-01T02:34:24.000Z</time>
      </trkpt>
      <trkpt lat="45.78966" lon="6.09882">
        <ele>1647</ele>
        <time>2000-01-01T02:34:34.000Z</time>
      </trkpt>
      <trkpt lat="45.7897" lon="6.09888">
        <ele>1642.1</ele>
        <time>2000-01-01T02:34:44.000Z</time>
      </trkpt>
      <trkpt lat="45.78973" lon="6.09892">
        <ele>1641.9</ele>
        <time>2000-01-01T02:34:54.000Z</time>
      </trkpt>
      <trkpt lat="45.79031" lon="6.09932">
        <ele>1647</ele>
        <time>2000-01-01T02:35:04.000Z</time>
      </trkpt>
      <trkpt lat="45.79064" lon="6.09958">
        <ele>1642</ele>
        <time>2000-01-01T02:35:14.000Z</time>
      </trkpt>
      <trkpt lat="45.79096" lon="6.09985">
        <ele>1640</ele>
        <time>2000-01-01T02:35:24.000Z</time>
      </trkpt>
      <trkpt lat="45.79128" lon="6.10011">
        <ele>1639</ele>
        <time>2000-01-01T02:35:34.000Z</time>
      </trkpt>
      <trkpt lat="45.79151" lon="6.1003">
        <ele>1638</ele>
        <time>2000-01-01T02:35:44.000Z</time>
      </trkpt>
      <trkpt lat="45.79181" lon="6.10054">
        <ele>1639</ele>
        <time>2000-01-01T02:35:54.000Z</time>
      </trkpt>
      <trkpt lat="45.792" lon="6.10074">
        <ele>1638</ele>
        <time>2000-01-01T02:36:04.000Z</time>
      </trkpt>
      <trkpt lat="45.7922" lon="6.10093">
        <ele>1637</ele>
        <time>2000-01-01T02:36:14.000Z</time>
      </trkpt>
      <trkpt lat="45.79244" lon="6.1011">
        <ele>1637</ele>
        <time>2000-01-01T02:36:24.000Z</time>
      </trkpt>
      <trkpt lat="45.79277" lon="6.10132">
        <ele>1636</ele>
        <time>2000-01-01T02:36:34.000Z</time>
      </trkpt>
      <trkpt lat="45.79285" lon="6.10138">
        <ele>1639.2</ele>
        <time>2000-01-01T02:36:44.000Z</time>
      </trkpt>
      <trkpt lat="45.793" lon="6.10141">
        <ele>1635</ele>
        <time>2000-01-01T02:36:54.000Z</time>
      </trkpt>
      <trkpt lat="45.79309" lon="6.10146">
        <ele>1640.5</ele>
        <time>2000-01-01T02:37:04.000Z</time>
      </trkpt>
      <trkpt lat="45.79318" lon="6.10145">
        <ele>1635</ele>
        <time>2000-01-01T02:37:14.000Z</time>
      </trkpt>
      <trkpt lat="45.79333" lon="6.10158">
        <ele>1642.7</ele>
        <time>2000-01-01T02:37:24.000Z</time>
      </trkpt>
      <trkpt lat="45.79332" lon="6.10171">
        <ele>1640</ele>
        <time>2000-01-01T02:37:34.000Z</time>
      </trkpt>
      <trkpt lat="45.79345" lon="6.10175">
        <ele>1643.4</ele>
        <time>2000-01-01T02:37:44.000Z</time>
      </trkpt>
      <trkpt lat="45.79357" lon="6.10184">
        <ele>1641</ele>
        <time>2000-01-01T02:37:54.000Z</time>
      </trkpt>
      <trkpt lat="45.79374" lon="6.1018">
        <ele>1644.9</ele>
        <time>2000-01-01T02:38:04.000Z</time>
      </trkpt>
      <trkpt lat="45.79393" lon="6.10182">
        <ele>1649</ele>
        <time>2000-01-01T02:38:14.000Z</time>
      </trkpt>
      <trkpt lat="45.7943" lon="6.10198">
        <ele>1650</ele>
        <time>2000-01-01T02:38:24.000Z</time>
      </trkpt>
      <trkpt lat="45.79459" lon="6.10207">
        <ele>1651</ele>
        <time>2000-01-01T02:38:34.000Z</time>
      </trkpt>
      <trkpt lat="45.79482" lon="6.10215">
        <ele>1658</ele>
        <time>2000-01-01T02:38:44.000Z</time>
      </trkpt>
      <trkpt lat="45.79507" lon="6.10223">
        <ele>1658</ele>
        <time>2000-01-01T02:38:54.000Z</time>
      </trkpt>
      <trkpt lat="45.79531" lon="6.10228">
        <ele>1658</ele>
        <time>2000-01-01T02:39:04.000Z</time>
      </trkpt>
      <trkpt lat="45.79554" lon="6.10231">
        <ele>1664</ele>
        <time>2000-01-01T02:39:14.000Z</time>
      </trkpt>
      <trkpt lat="45.79579" lon="6.10234">
        <ele>1661</ele>
        <time>2000-01-01T02:39:24.000Z</time>
      </trkpt>
      <trkpt lat="45.79622" lon="6.10253">
        <ele>1660</ele>
        <time>2000-01-01T02:39:34.000Z</time>
      </trkpt>
      <trkpt lat="45.79655" lon="6.1026">
        <ele>1666</ele>
        <time>2000-01-01T02:39:44.000Z</time>
      </trkpt>
      <trkpt lat="45.79692" lon="6.10282">
        <ele>1672</ele>
        <time>2000-01-01T02:39:54.000Z</time>
      </trkpt>
      <trkpt lat="45.79706" lon="6.10299">
        <ele>1666.8</ele>
        <time>2000-01-01T02:40:04.000Z</time>
      </trkpt>
      <trkpt lat="45.7971" lon="6.10322">
        <ele>1680</ele>
        <time>2000-01-01T02:40:14.000Z</time>
      </trkpt>
      <trkpt lat="45.79706" lon="6.10343">
        <ele>1673.7</ele>
        <time>2000-01-01T02:40:24.000Z</time>
      </trkpt>
      <trkpt lat="45.79692" lon="6.10372">
        <ele>1683</ele>
        <time>2000-01-01T02:40:34.000Z</time>
      </trkpt>
      <trkpt lat="45.79683" lon="6.10392">
        <ele>1686.6</ele>
        <time>2000-01-01T02:40:44.000Z</time>
      </trkpt>
      <trkpt lat="45.79674" lon="6.10415">
        <ele>1694</ele>
        <time>2000-01-01T02:40:54.000Z</time>
      </trkpt>
      <trkpt lat="45.7968" lon="6.10429">
        <ele>1692.3</ele>
        <time>2000-01-01T02:41:04.000Z</time>
      </trkpt>
      <trkpt lat="45.79721" lon="6.10473">
        <ele>1701</ele>
        <time>2000-01-01T02:41:14.000Z</time>
      </trkpt>
      <trkpt lat="45.79727" lon="6.10482">
        <ele>1690.9</ele>
        <time>2000-01-01T02:41:24.000Z</time>
      </trkpt>
      <trkpt lat="45.79732" lon="6.10492">
        <ele>1690.2</ele>
        <time>2000-01-01T02:41:34.000Z</time>
      </trkpt>
      <trkpt lat="45.79733" lon="6.10496">
        <ele>1702</ele>
        <time>2000-01-01T02:41:44.000Z</time>
      </trkpt>
      <trkpt lat="45.79735" lon="6.105">
        <ele>1690.4</ele>
        <time>2000-01-01T02:41:54.000Z</time>
      </trkpt>
      <trkpt lat="45.79744" lon="6.1052">
        <ele>1702</ele>
        <time>2000-01-01T02:42:04.000Z</time>
      </trkpt>
      <trkpt lat="45.79757" lon="6.10542">
        <ele>1702</ele>
        <time>2000-01-01T02:42:14.000Z</time>
      </trkpt>
      <trkpt lat="45.7977" lon="6.10567">
        <ele>1700</ele>
        <time>2000-01-01T02:42:24.000Z</time>
      </trkpt>
      <trkpt lat="45.79783" lon="6.10593">
        <ele>1699</ele>
        <time>2000-01-01T02:42:34.000Z</time>
      </trkpt>
      <trkpt lat="45.79787" lon="6.10603">
        <ele>1676.6</ele>
        <time>2000-01-01T02:42:44.000Z</time>
      </trkpt>
      <trkpt lat="45.7979" lon="6.10607">
        <ele>1675.9</ele>
        <time>2000-01-01T02:42:54.000Z</time>
      </trkpt>
      <trkpt lat="45.79796" lon="6.10617">
        <ele>1693</ele>
        <time>2000-01-01T02:43:04.000Z</time>
      </trkpt>
      <trkpt lat="45.79807" lon="6.10633">
        <ele>1671.8</ele>
        <time>2000-01-01T02:43:14.000Z</time>
      </trkpt>
      <trkpt lat="45.79814" lon="6.10642">
        <ele>1684</ele>
        <time>2000-01-01T02:43:24.000Z</time>
      </trkpt>
      <trkpt lat="45.79825" lon="6.10655">
        <ele>1667.3</ele>
        <time>2000-01-01T02:43:34.000Z</time>
      </trkpt>
      <trkpt lat="45.79839" lon="6.10668">
        <ele>1686</ele>
        <time>2000-01-01T02:43:44.000Z</time>
      </trkpt>
      <trkpt lat="45.79846" lon="6.10673">
        <ele>1663.3</ele>
        <time>2000-01-01T02:43:54.000Z</time>
      </trkpt>
      <trkpt lat="45.79863" lon="6.10687">
        <ele>1682</ele>
        <time>2000-01-01T02:44:04.000Z</time>
      </trkpt>
      <trkpt lat="45.79878" lon="6.10698">
        <ele>1659.2</ele>
        <time>2000-01-01T02:44:14.000Z</time>
      </trkpt>
      <trkpt lat="45.79882" lon="6.10703">
        <ele>1678</ele>
        <time>2000-01-01T02:44:24.000Z</time>
      </trkpt>
      <trkpt lat="45.79885" lon="6.10706">
        <ele>1658.5</ele>
        <time>2000-01-01T02:44:34.000Z</time>
      </trkpt>
      <trkpt lat="45.79889" lon="6.10711">
        <ele>1658.2</ele>
        <time>2000-01-01T02:44:44.000Z</time>
      </trkpt>
      <trkpt lat="45.799" lon="6.10722">
        <ele>1676</ele>
        <time>2000-01-01T02:44:54.000Z</time>
      </trkpt>
      <trkpt lat="45.79912" lon="6.10735">
        <ele>1656.1</ele>
        <time>2000-01-01T02:45:04.000Z</time>
      </trkpt>
      <trkpt lat="45.79914" lon="6.10737">
        <ele>1655.9</ele>
        <time>2000-01-01T02:45:14.000Z</time>
      </trkpt>
      <trkpt lat="45.79918" lon="6.1074">
        <ele>1673</ele>
        <time>2000-01-01T02:45:24.000Z</time>
      </trkpt>
      <trkpt lat="45.79937" lon="6.10752">
        <ele>1664</ele>
        <time>2000-01-01T02:45:34.000Z</time>
      </trkpt>
      <trkpt lat="45.79941" lon="6.10751">
        <ele>1654.3</ele>
        <time>2000-01-01T02:45:44.000Z</time>
      </trkpt>
      <trkpt lat="45.79948" lon="6.10751">
        <ele>1653</ele>
        <time>2000-01-01T02:45:54.000Z</time>
      </trkpt>
      <trkpt lat="45.79956" lon="6.10753">
        <ele>1657</ele>
        <time>2000-01-01T02:46:04.000Z</time>
      </trkpt>
      <trkpt lat="45.7997" lon="6.1076">
        <ele>1649.3</ele>
        <time>2000-01-01T02:46:14.000Z</time>
      </trkpt>
      <trkpt lat="45.7998" lon="6.10766">
        <ele>1648</ele>
        <time>2000-01-01T02:46:24.000Z</time>
      </trkpt>
      <trkpt lat="45.79989" lon="6.10774">
        <ele>1647.1</ele>
        <time>2000-01-01T02:46:34.000Z</time>
      </trkpt>
      <trkpt lat="45.79997" lon="6.10782">
        <ele>1643</ele>
        <time>2000-01-01T02:46:44.000Z</time>
      </trkpt>
      <trkpt lat="45.80001" lon="6.10787">
        <ele>1646.6</ele>
        <time>2000-01-01T02:46:54.000Z</time>
      </trkpt>
      <trkpt lat="45.80007" lon="6.10792">
        <ele>1645.4</ele>
        <time>2000-01-01T02:47:04.000Z</time>
      </trkpt>
      <trkpt lat="45.80018" lon="6.108">
        <ele>1643</ele>
        <time>2000-01-01T02:47:14.000Z</time>
      </trkpt>
      <trkpt lat="45.80034" lon="6.10808">
        <ele>1640.6</ele>
        <time>2000-01-01T02:47:24.000Z</time>
      </trkpt>
      <trkpt lat="45.80048" lon="6.10816">
        <ele>1639</ele>
        <time>2000-01-01T02:47:34.000Z</time>
      </trkpt>
      <trkpt lat="45.80055" lon="6.1082">
        <ele>1636.2</ele>
        <time>2000-01-01T02:47:44.000Z</time>
      </trkpt>
      <trkpt lat="45.80069" lon="6.10824">
        <ele>1633</ele>
        <time>2000-01-01T02:47:54.000Z</time>
      </trkpt>
      <trkpt lat="45.80082" lon="6.10828">
        <ele>1630.4</ele>
        <time>2000-01-01T02:48:04.000Z</time>
      </trkpt>
      <trkpt lat="45.80096" lon="6.10832">
        <ele>1628</ele>
        <time>2000-01-01T02:48:14.000Z</time>
      </trkpt>
      <trkpt lat="45.80107" lon="6.10834">
        <ele>1627.8</ele>
        <time>2000-01-01T02:48:24.000Z</time>
      </trkpt>
      <trkpt lat="45.80115" lon="6.10836">
        <ele>1623</ele>
        <time>2000-01-01T02:48:34.000Z</time>
      </trkpt>
      <trkpt lat="45.80122" lon="6.10839">
        <ele>1625.3</ele>
        <time>2000-01-01T02:48:44.000Z</time>
      </trkpt>
      <trkpt lat="45.8013" lon="6.10844">
        <ele>1623.8</ele>
        <time>2000-01-01T02:48:54.000Z</time>
      </trkpt>
      <trkpt lat="45.80137" lon="6.1085">
        <ele>1619</ele>
        <time>2000-01-01T02:49:04.000Z</time>
      </trkpt>
      <trkpt lat="45.80149" lon="6.1086">
        <ele>1620.9</ele>
        <time>2000-01-01T02:49:14.000Z</time>
      </trkpt>
      <trkpt lat="45.80163" lon="6.10868">
        <ele>1619</ele>
        <time>2000-01-01T02:49:24.000Z</time>
      </trkpt>
      <trkpt lat="45.80174" lon="6.10875">
        <ele>1618.3</ele>
        <time>2000-01-01T02:49:34.000Z</time>
      </trkpt>
      <trkpt lat="45.80188" lon="6.10885">
        <ele>1615</ele>
        <time>2000-01-01T02:49:44.000Z</time>
      </trkpt>
      <trkpt lat="45.80198" lon="6.10892">
        <ele>1614.2</ele>
        <time>2000-01-01T02:49:54.000Z</time>
      </trkpt>
      <trkpt lat="45.80209" lon="6.10899">
        <ele>1612</ele>
        <time>2000-01-01T02:50:04.000Z</time>
      </trkpt>
      <trkpt lat="45.80209" lon="6.10896">
        <ele>1613</ele>
        <time>2000-01-01T02:50:14.000Z</time>
      </trkpt>
      <trkpt lat="45.80209" lon="6.10891">
        <ele>1612.2</ele>
        <time>2000-01-01T02:50:24.000Z</time>
      </trkpt>
      <trkpt lat="45.80209" lon="6.10886">
        <ele>1611.8</ele>
        <time>2000-01-01T02:50:34.000Z</time>
      </trkpt>
      <trkpt lat="45.80209" lon="6.10882">
        <ele>1611.7</ele>
        <time>2000-01-01T02:50:44.000Z</time>
      </trkpt>
      <trkpt lat="45.8021" lon="6.10877">
        <ele>1611.3</ele>
        <time>2000-01-01T02:50:54.000Z</time>
      </trkpt>
      <trkpt lat="45.80211" lon="6.1086">
        <ele>1608</ele>
        <time>2000-01-01T02:51:04.000Z</time>
      </trkpt>
      <trkpt lat="45.80212" lon="6.10847">
        <ele>1610.4</ele>
        <time>2000-01-01T02:51:14.000Z</time>
      </trkpt>
      <trkpt lat="45.80216" lon="6.10849">
        <ele>1610</ele>
        <time>2000-01-01T02:51:24.000Z</time>
      </trkpt>
      <trkpt lat="45.80219" lon="6.10854">
        <ele>1609.6</ele>
        <time>2000-01-01T02:51:34.000Z</time>
      </trkpt>
      <trkpt lat="45.80224" lon="6.10863">
        <ele>1608</ele>
        <time>2000-01-01T02:51:44.000Z</time>
      </trkpt>
      <trkpt lat="45.80229" lon="6.1087">
        <ele>1607.9</ele>
        <time>2000-01-01T02:51:54.000Z</time>
      </trkpt>
      <trkpt lat="45.80237" lon="6.10878">
        <ele>1606</ele>
        <time>2000-01-01T02:52:04.000Z</time>
      </trkpt>
      <trkpt lat="45.80248" lon="6.10887">
        <ele>1603</ele>
        <time>2000-01-01T02:52:14.000Z</time>
      </trkpt>
      <trkpt lat="45.80257" lon="6.10896">
        <ele>1601.5</ele>
        <time>2000-01-01T02:52:24.000Z</time>
      </trkpt>
      <trkpt lat="45.80272" lon="6.1091">
        <ele>1601</ele>
        <time>2000-01-01T02:52:34.000Z</time>
      </trkpt>
      <trkpt lat="45.80278" lon="6.10916">
        <ele>1600</ele>
        <time>2000-01-01T02:52:44.000Z</time>
      </trkpt>
      <trkpt lat="45.80292" lon="6.1093">
        <ele>1601</ele>
        <time>2000-01-01T02:52:54.000Z</time>
      </trkpt>
      <trkpt lat="45.80301" lon="6.10938">
        <ele>1595.8</ele>
        <time>2000-01-01T02:53:04.000Z</time>
      </trkpt>
      <trkpt lat="45.80306" lon="6.10945">
        <ele>1593.9</ele>
        <time>2000-01-01T02:53:14.000Z</time>
      </trkpt>
      <trkpt lat="45.80312" lon="6.10949">
        <ele>1595</ele>
        <time>2000-01-01T02:53:24.000Z</time>
      </trkpt>
      <trkpt lat="45.80315" lon="6.10952">
        <ele>1592.5</ele>
        <time>2000-01-01T02:53:34.000Z</time>
      </trkpt>
      <trkpt lat="45.80327" lon="6.10962">
        <ele>1591.1</ele>
        <time>2000-01-01T02:53:44.000Z</time>
      </trkpt>
      <trkpt lat="45.80333" lon="6.10968">
        <ele>1595</ele>
        <time>2000-01-01T02:53:54.000Z</time>
      </trkpt>
      <trkpt lat="45.80336" lon="6.10971">
        <ele>1591</ele>
        <time>2000-01-01T02:54:04.000Z</time>
      </trkpt>
      <trkpt lat="45.8034" lon="6.10973">
        <ele>1591.2</ele>
        <time>2000-01-01T02:54:14.000Z</time>
      </trkpt>
      <trkpt lat="45.80342" lon="6.10975">
        <ele>1591.3</ele>
        <time>2000-01-01T02:54:24.000Z</time>
      </trkpt>
      <trkpt lat="45.80345" lon="6.10977">
        <ele>1591.4</ele>
        <time>2000-01-01T02:54:34.000Z</time>
      </trkpt>
      <trkpt lat="45.80348" lon="6.10979">
        <ele>1591.5</ele>
        <time>2000-01-01T02:54:44.000Z</time>
      </trkpt>
      <trkpt lat="45.80351" lon="6.10981">
        <ele>1595</ele>
        <time>2000-01-01T02:54:54.000Z</time>
      </trkpt>
      <trkpt lat="45.80355" lon="6.10982">
        <ele>1591.8</ele>
        <time>2000-01-01T02:55:04.000Z</time>
      </trkpt>
      <trkpt lat="45.80361" lon="6.10984">
        <ele>1592</ele>
        <time>2000-01-01T02:55:14.000Z</time>
      </trkpt>
      <trkpt lat="45.8037" lon="6.10987">
        <ele>1595</ele>
        <time>2000-01-01T02:55:24.000Z</time>
      </trkpt>
      <trkpt lat="45.80386" lon="6.10992">
        <ele>1593.8</ele>
        <time>2000-01-01T02:55:34.000Z</time>
      </trkpt>
      <trkpt lat="45.80396" lon="6.10994">
        <ele>1590</ele>
        <time>2000-01-01T02:55:44.000Z</time>
      </trkpt>
      <trkpt lat="45.80402" lon="6.10987">
        <ele>1594.3</ele>
        <time>2000-01-01T02:55:54.000Z</time>
      </trkpt>
      <trkpt lat="45.8041" lon="6.10977">
        <ele>1593.6</ele>
        <time>2000-01-01T02:56:04.000Z</time>
      </trkpt>
      <trkpt lat="45.80416" lon="6.10969">
        <ele>1587</ele>
        <time>2000-01-01T02:56:14.000Z</time>
      </trkpt>
      <trkpt lat="45.80422" lon="6.10962">
        <ele>1591.1</ele>
        <time>2000-01-01T02:56:24.000Z</time>
      </trkpt>
      <trkpt lat="45.80426" lon="6.10959">
        <ele>1590.3</ele>
        <time>2000-01-01T02:56:34.000Z</time>
      </trkpt>
      <trkpt lat="45.80433" lon="6.10954">
        <ele>1587</ele>
        <time>2000-01-01T02:56:44.000Z</time>
      </trkpt>
      <trkpt lat="45.80439" lon="6.10952">
        <ele>1587.5</ele>
        <time>2000-01-01T02:56:54.000Z</time>
      </trkpt>
      <trkpt lat="45.80447" lon="6.10949">
        <ele>1586.2</ele>
        <time>2000-01-01T02:57:04.000Z</time>
      </trkpt>
      <trkpt lat="45.80456" lon="6.10947">
        <ele>1587</ele>
        <time>2000-01-01T02:57:14.000Z</time>
      </trkpt>
      <trkpt lat="45.80458" lon="6.10945">
        <ele>1585.6</ele>
        <time>2000-01-01T02:57:24.000Z</time>
      </trkpt>
      <trkpt lat="45.80461" lon="6.10944">
        <ele>1585.5</ele>
        <time>2000-01-01T02:57:34.000Z</time>
      </trkpt>
      <trkpt lat="45.80465" lon="6.10943">
        <ele>1585.5</ele>
        <time>2000-01-01T02:57:44.000Z</time>
      </trkpt>
      <trkpt lat="45.80468" lon="6.10942">
        <ele>1585.4</ele>
        <time>2000-01-01T02:57:54.000Z</time>
      </trkpt>
      <trkpt lat="45.80471" lon="6.10942">
        <ele>1585.5</ele>
        <time>2000-01-01T02:58:04.000Z</time>
      </trkpt>
      <trkpt lat="45.80474" lon="6.10941">
        <ele>1585.4</ele>
        <time>2000-01-01T02:58:14.000Z</time>
      </trkpt>
      <trkpt lat="45.80477" lon="6.1094">
        <ele>1584</ele>
        <time>2000-01-01T02:58:24.000Z</time>
      </trkpt>
      <trkpt lat="45.80479" lon="6.10939">
        <ele>1585</ele>
        <time>2000-01-01T02:58:34.000Z</time>
      </trkpt>
      <trkpt lat="45.80484" lon="6.10939">
        <ele>1585</ele>
        <time>2000-01-01T02:58:44.000Z</time>
      </trkpt>
      <trkpt lat="45.80486" lon="6.10938">
        <ele>1584.8</ele>
        <time>2000-01-01T02:58:54.000Z</time>
      </trkpt>
      <trkpt lat="45.8049" lon="6.10938">
        <ele>1584.8</ele>
        <time>2000-01-01T02:59:04.000Z</time>
      </trkpt>
      <trkpt lat="45.80493" lon="6.10938">
        <ele>1584.8</ele>
        <time>2000-01-01T02:59:14.000Z</time>
      </trkpt>
      <trkpt lat="45.80495" lon="6.10938">
        <ele>1584.8</ele>
        <time>2000-01-01T02:59:24.000Z</time>
      </trkpt>
      <trkpt lat="45.80497" lon="6.10939">
        <ele>1581</ele>
        <time>2000-01-01T02:59:34.000Z</time>
      </trkpt>
      <trkpt lat="45.80499" lon="6.10939">
        <ele>1585</ele>
        <time>2000-01-01T02:59:44.000Z</time>
      </trkpt>
      <trkpt lat="45.80501" lon="6.10939">
        <ele>1584.9</ele>
        <time>2000-01-01T02:59:54.000Z</time>
      </trkpt>
      <trkpt lat="45.80504" lon="6.10939">
        <ele>1584.7</ele>
        <time>2000-01-01T03:00:04.000Z</time>
      </trkpt>
      <trkpt lat="45.80507" lon="6.10939">
        <ele>1584.5</ele>
        <time>2000-01-01T03:00:14.000Z</time>
      </trkpt>
      <trkpt lat="45.8051" lon="6.10939">
        <ele>1584.3</ele>
        <time>2000-01-01T03:00:24.000Z</time>
      </trkpt>
      <trkpt lat="45.80513" lon="6.10938">
        <ele>1583.9</ele>
        <time>2000-01-01T03:00:34.000Z</time>
      </trkpt>
      <trkpt lat="45.80516" lon="6.10937">
        <ele>1581</ele>
        <time>2000-01-01T03:00:44.000Z</time>
      </trkpt>
      <trkpt lat="45.80519" lon="6.10937">
        <ele>1583.3</ele>
        <time>2000-01-01T03:00:54.000Z</time>
      </trkpt>
      <trkpt lat="45.80521" lon="6.10935">
        <ele>1582.8</ele>
        <time>2000-01-01T03:01:04.000Z</time>
      </trkpt>
      <trkpt lat="45.80528" lon="6.1093">
        <ele>1581.4</ele>
        <time>2000-01-01T03:01:14.000Z</time>
      </trkpt>
      <trkpt lat="45.8053" lon="6.10928">
        <ele>1580.8</ele>
        <time>2000-01-01T03:01:24.000Z</time>
      </trkpt>
      <trkpt lat="45.80533" lon="6.10926">
        <ele>1580.2</ele>
        <time>2000-01-01T03:01:34.000Z</time>
      </trkpt>
      <trkpt lat="45.80536" lon="6.10923">
        <ele>1577</ele>
        <time>2000-01-01T03:01:44.000Z</time>
      </trkpt>
      <trkpt lat="45.80538" lon="6.10922">
        <ele>1579.2</ele>
        <time>2000-01-01T03:01:54.000Z</time>
      </trkpt>
      <trkpt lat="45.80541" lon="6.1092">
        <ele>1578.6</ele>
        <time>2000-01-01T03:02:04.000Z</time>
      </trkpt>
      <trkpt lat="45.80544" lon="6.10916">
        <ele>1577.7</ele>
        <time>2000-01-01T03:02:14.000Z</time>
      </trkpt>
      <trkpt lat="45.8055" lon="6.10909">
        <ele>1576.3</ele>
        <time>2000-01-01T03:02:24.000Z</time>
      </trkpt>
      <trkpt lat="45.80555" lon="6.10903">
        <ele>1572</ele>
        <time>2000-01-01T03:02:34.000Z</time>
      </trkpt>
      <trkpt lat="45.8056" lon="6.10899">
        <ele>1573.8</ele>
        <time>2000-01-01T03:02:44.000Z</time>
      </trkpt>
      <trkpt lat="45.8057" lon="6.10892">
        <ele>1571.4</ele>
        <time>2000-01-01T03:02:54.000Z</time>
      </trkpt>
      <trkpt lat="45.80577" lon="6.10887">
        <ele>1566</ele>
        <time>2000-01-01T03:03:04.000Z</time>
      </trkpt>
      <trkpt lat="45.80586" lon="6.10884">
        <ele>1568.5</ele>
        <time>2000-01-01T03:03:14.000Z</time>
      </trkpt>
      <trkpt lat="45.80593" lon="6.10881">
        <ele>1567.4</ele>
        <time>2000-01-01T03:03:24.000Z</time>
      </trkpt>
      <trkpt lat="45.80598" lon="6.1088">
        <ele>1566</ele>
        <time>2000-01-01T03:03:34.000Z</time>
      </trkpt>
      <trkpt lat="45.80602" lon="6.1088">
        <ele>1566.2</ele>
        <time>2000-01-01T03:03:44.000Z</time>
      </trkpt>
      <trkpt lat="45.80608" lon="6.1088">
        <ele>1565.4</ele>
        <time>2000-01-01T03:03:54.000Z</time>
      </trkpt>
      <trkpt lat="45.80617" lon="6.10881">
        <ele>1564.9</ele>
        <time>2000-01-01T03:04:04.000Z</time>
      </trkpt>
      <trkpt lat="45.80621" lon="6.10881">
        <ele>1562</ele>
        <time>2000-01-01T03:04:14.000Z</time>
      </trkpt>
      <trkpt lat="45.80624" lon="6.10881">
        <ele>1564.7</ele>
        <time>2000-01-01T03:04:24.000Z</time>
      </trkpt>
      <trkpt lat="45.80626" lon="6.10881">
        <ele>1564.7</ele>
        <time>2000-01-01T03:04:34.000Z</time>
      </trkpt>
      <trkpt lat="45.80629" lon="6.10881">
        <ele>1564.6</ele>
        <time>2000-01-01T03:04:44.000Z</time>
      </trkpt>
      <trkpt lat="45.80631" lon="6.10881">
        <ele>1564.6</ele>
        <time>2000-01-01T03:04:54.000Z</time>
      </trkpt>
      <trkpt lat="45.80635" lon="6.10881">
        <ele>1564.5</ele>
        <time>2000-01-01T03:05:04.000Z</time>
      </trkpt>
      <trkpt lat="45.80638" lon="6.10882">
        <ele>1564.5</ele>
        <time>2000-01-01T03:05:14.000Z</time>
      </trkpt>
      <trkpt lat="45.80641" lon="6.10883">
        <ele>1561</ele>
        <time>2000-01-01T03:05:24.000Z</time>
      </trkpt>
      <trkpt lat="45.80645" lon="6.10885">
        <ele>1564.7</ele>
        <time>2000-01-01T03:05:34.000Z</time>
      </trkpt>
      <trkpt lat="45.80648" lon="6.10887">
        <ele>1564.9</ele>
        <time>2000-01-01T03:05:44.000Z</time>
      </trkpt>
      <trkpt lat="45.80651" lon="6.10888">
        <ele>1564.9</ele>
        <time>2000-01-01T03:05:54.000Z</time>
      </trkpt>
      <trkpt lat="45.80654" lon="6.10891">
        <ele>1565.2</ele>
        <time>2000-01-01T03:06:04.000Z</time>
      </trkpt>
      <trkpt lat="45.80657" lon="6.10893">
        <ele>1565.3</ele>
        <time>2000-01-01T03:06:14.000Z</time>
      </trkpt>
      <trkpt lat="45.80661" lon="6.10895">
        <ele>1561</ele>
        <time>2000-01-01T03:06:24.000Z</time>
      </trkpt>
      <trkpt lat="45.80665" lon="6.10898">
        <ele>1565.4</ele>
        <time>2000-01-01T03:06:34.000Z</time>
      </trkpt>
      <trkpt lat="45.80667" lon="6.10899">
        <ele>1565.3</ele>
        <time>2000-01-01T03:06:44.000Z</time>
      </trkpt>
      <trkpt lat="45.80671" lon="6.109">
        <ele>1565.1</ele>
        <time>2000-01-01T03:06:54.000Z</time>
      </trkpt>
      <trkpt lat="45.80674" lon="6.10901">
        <ele>1564.9</ele>
        <time>2000-01-01T03:07:04.000Z</time>
      </trkpt>
      <trkpt lat="45.80678" lon="6.109">
        <ele>1564.6</ele>
        <time>2000-01-01T03:07:14.000Z</time>
      </trkpt>
      <trkpt lat="45.80681" lon="6.109">
        <ele>1561</ele>
        <time>2000-01-01T03:07:24.000Z</time>
      </trkpt>
      <trkpt lat="45.80686" lon="6.10898">
        <ele>1563.9</ele>
        <time>2000-01-01T03:07:34.000Z</time>
      </trkpt>
      <trkpt lat="45.80687" lon="6.10903">
        <ele>1564</ele>
        <time>2000-01-01T03:07:44.000Z</time>
      </trkpt>
      <trkpt lat="45.80696" lon="6.10922">
        <ele>1562</ele>
        <time>2000-01-01T03:07:54.000Z</time>
      </trkpt>
      <trkpt lat="45.80699" lon="6.10927">
        <ele>1563.7</ele>
        <time>2000-01-01T03:08:04.000Z</time>
      </trkpt>
      <trkpt lat="45.80709" lon="6.10933">
        <ele>1562.5</ele>
        <time>2000-01-01T03:08:14.000Z</time>
      </trkpt>
      <trkpt lat="45.80722" lon="6.10938">
        <ele>1564</ele>
        <time>2000-01-01T03:08:24.000Z</time>
      </trkpt>
      <trkpt lat="45.80725" lon="6.10939">
        <ele>1560.5</ele>
        <time>2000-01-01T03:08:34.000Z</time>
      </trkpt>
      <trkpt lat="45.80731" lon="6.10939">
        <ele>1559.9</ele>
        <time>2000-01-01T03:08:44.000Z</time>
      </trkpt>
      <trkpt lat="45.80743" lon="6.10939">
        <ele>1564</ele>
        <time>2000-01-01T03:08:54.000Z</time>
      </trkpt>
      <trkpt lat="45.8075" lon="6.10937">
        <ele>1558</ele>
        <time>2000-01-01T03:09:04.000Z</time>
      </trkpt>
      <trkpt lat="45.80753" lon="6.10937">
        <ele>1557.5</ele>
        <time>2000-01-01T03:09:14.000Z</time>
      </trkpt>
      <trkpt lat="45.80753" lon="6.10937">
        <ele>1557.5</ele>
        <time>2000-01-01T03:09:24.000Z</time>
      </trkpt>
      <trkpt lat="45.80758" lon="6.10938">
        <ele>1556.8</ele>
        <time>2000-01-01T03:09:34.000Z</time>
      </trkpt>
      <trkpt lat="45.80778" lon="6.10925">
        <ele>1562</ele>
        <time>2000-01-01T03:09:44.000Z</time>
      </trkpt>
      <trkpt lat="45.80804" lon="6.10911">
        <ele>1561</ele>
        <time>2000-01-01T03:09:54.000Z</time>
      </trkpt>
      <trkpt lat="45.80823" lon="6.10898">
        <ele>1551</ele>
        <time>2000-01-01T03:10:04.000Z</time>
      </trkpt>
      <trkpt lat="45.80855" lon="6.10863">
        <ele>1550</ele>
        <time>2000-01-01T03:10:14.000Z</time>
      </trkpt>
      <trkpt lat="45.80889" lon="6.10831">
        <ele>1549</ele>
        <time>2000-01-01T03:10:24.000Z</time>
      </trkpt>
      <trkpt lat="45.80889" lon="6.10824">
        <ele>1535.3</ele>
        <time>2000-01-01T03:10:34.000Z</time>
      </trkpt>
      <trkpt lat="45.80889" lon="6.10824">
        <ele>1535.3</ele>
        <time>2000-01-01T03:10:44.000Z</time>
      </trkpt>
      <trkpt lat="45.80889" lon="6.10819">
        <ele>1535</ele>
        <time>2000-01-01T03:10:54.000Z</time>
      </trkpt>
      <trkpt lat="45.8089" lon="6.10812">
        <ele>1534.3</ele>
        <time>2000-01-01T03:11:04.000Z</time>
      </trkpt>
      <trkpt lat="45.8089" lon="6.10806">
        <ele>1533.9</ele>
        <time>2000-01-01T03:11:14.000Z</time>
      </trkpt>
      <trkpt lat="45.8089" lon="6.10801">
        <ele>1548</ele>
        <time>2000-01-01T03:11:24.000Z</time>
      </trkpt>
      <trkpt lat="45.80891" lon="6.10796">
        <ele>1533.4</ele>
        <time>2000-01-01T03:11:34.000Z</time>
      </trkpt>
      <trkpt lat="45.80892" lon="6.1079">
        <ele>1533</ele>
        <time>2000-01-01T03:11:44.000Z</time>
      </trkpt>
      <trkpt lat="45.80893" lon="6.10784">
        <ele>1532.6</ele>
        <time>2000-01-01T03:11:54.000Z</time>
      </trkpt>
      <trkpt lat="45.80894" lon="6.1078">
        <ele>1532.3</ele>
        <time>2000-01-01T03:12:04.000Z</time>
      </trkpt>
      <trkpt lat="45.80895" lon="6.10777">
        <ele>1532.1</ele>
        <time>2000-01-01T03:12:14.000Z</time>
      </trkpt>
      <trkpt lat="45.80895" lon="6.10776">
        <ele>1532</ele>
        <time>2000-01-01T03:12:24.000Z</time>
      </trkpt>
      <trkpt lat="45.80896" lon="6.1077">
        <ele>1544</ele>
        <time>2000-01-01T03:12:34.000Z</time>
      </trkpt>
      <trkpt lat="45.80896" lon="6.10764">
        <ele>1531.1</ele>
        <time>2000-01-01T03:12:44.000Z</time>
      </trkpt>
      <trkpt lat="45.80896" lon="6.10757">
        <ele>1530.7</ele>
        <time>2000-01-01T03:12:54.000Z</time>
      </trkpt>
      <trkpt lat="45.80896" lon="6.10753">
        <ele>1530.4</ele>
        <time>2000-01-01T03:13:04.000Z</time>
      </trkpt>
      <trkpt lat="45.80897" lon="6.10747">
        <ele>1530</ele>
        <time>2000-01-01T03:13:14.000Z</time>
      </trkpt>
      <trkpt lat="45.80898" lon="6.10743">
        <ele>1539</ele>
        <time>2000-01-01T03:13:24.000Z</time>
      </trkpt>
      <trkpt lat="45.809" lon="6.10739">
        <ele>1529.2</ele>
        <time>2000-01-01T03:13:34.000Z</time>
      </trkpt>
      <trkpt lat="45.80904" lon="6.10732">
        <ele>1528.4</ele>
        <time>2000-01-01T03:13:44.000Z</time>
      </trkpt>
      <trkpt lat="45.80906" lon="6.10729">
        <ele>1527.9</ele>
        <time>2000-01-01T03:13:54.000Z</time>
      </trkpt>
      <trkpt lat="45.80914" lon="6.10722">
        <ele>1537</ele>
        <time>2000-01-01T03:14:04.000Z</time>
      </trkpt>
      <trkpt lat="45.8092" lon="6.10703">
        <ele>1524.4</ele>
        <time>2000-01-01T03:14:14.000Z</time>
      </trkpt>
      <trkpt lat="45.80921" lon="6.10697">
        <ele>1523.9</ele>
        <time>2000-01-01T03:14:24.000Z</time>
      </trkpt>
      <trkpt lat="45.80921" lon="6.10691">
        <ele>1535</ele>
        <time>2000-01-01T03:14:34.000Z</time>
      </trkpt>
      <trkpt lat="45.80921" lon="6.10685">
        <ele>1523</ele>
        <time>2000-01-01T03:14:44.000Z</time>
      </trkpt>
      <trkpt lat="45.80921" lon="6.1068">
        <ele>1522.6</ele>
        <time>2000-01-01T03:14:54.000Z</time>
      </trkpt>
      <trkpt lat="45.8092" lon="6.10674">
        <ele>1522.2</ele>
        <time>2000-01-01T03:15:04.000Z</time>
      </trkpt>
      <trkpt lat="45.80919" lon="6.10669">
        <ele>1521.9</ele>
        <time>2000-01-01T03:15:14.000Z</time>
      </trkpt>
      <trkpt lat="45.80918" lon="6.10665">
        <ele>1531</ele>
        <time>2000-01-01T03:15:24.000Z</time>
      </trkpt>
      <trkpt lat="45.80912" lon="6.10651">
        <ele>1520.8</ele>
        <time>2000-01-01T03:15:34.000Z</time>
      </trkpt>
      <trkpt lat="45.80901" lon="6.10622">
        <ele>1525</ele>
        <time>2000-01-01T03:15:44.000Z</time>
      </trkpt>
      <trkpt lat="45.80888" lon="6.10586">
        <ele>1523</ele>
        <time>2000-01-01T03:15:54.000Z</time>
      </trkpt>
      <trkpt lat="45.80883" lon="6.10567">
        <ele>1515</ele>
        <time>2000-01-01T03:16:04.000Z</time>
      </trkpt>
      <trkpt lat="45.8088" lon="6.10549">
        <ele>1520</ele>
        <time>2000-01-01T03:16:14.000Z</time>
      </trkpt>
      <trkpt lat="45.80876" lon="6.10531">
        <ele>1513.6</ele>
        <time>2000-01-01T03:16:24.000Z</time>
      </trkpt>
      <trkpt lat="45.80875" lon="6.10525">
        <ele>1513.3</ele>
        <time>2000-01-01T03:16:34.000Z</time>
      </trkpt>
      <trkpt lat="45.80872" lon="6.10513">
        <ele>1514</ele>
        <time>2000-01-01T03:16:44.000Z</time>
      </trkpt>
      <trkpt lat="45.8087" lon="6.10499">
        <ele>1512</ele>
        <time>2000-01-01T03:16:54.000Z</time>
      </trkpt>
      <trkpt lat="45.80869" lon="6.1049">
        <ele>1511.4</ele>
        <time>2000-01-01T03:17:04.000Z</time>
      </trkpt>
      <trkpt lat="45.80868" lon="6.10475">
        <ele>1511</ele>
        <time>2000-01-01T03:17:14.000Z</time>
      </trkpt>
      <trkpt lat="45.80869" lon="6.10449">
        <ele>1508.7</ele>
        <time>2000-01-01T03:17:24.000Z</time>
      </trkpt>
      <trkpt lat="45.8087" lon="6.10438">
        <ele>1510</ele>
        <time>2000-01-01T03:17:34.000Z</time>
      </trkpt>
      <trkpt lat="45.8087" lon="6.10432">
        <ele>1507.5</ele>
        <time>2000-01-01T03:17:44.000Z</time>
      </trkpt>
      <trkpt lat="45.8087" lon="6.10427">
        <ele>1507.1</ele>
        <time>2000-01-01T03:17:54.000Z</time>
      </trkpt>
      <trkpt lat="45.8087" lon="6.1042">
        <ele>1506.6</ele>
        <time>2000-01-01T03:18:04.000Z</time>
      </trkpt>
      <trkpt lat="45.80871" lon="6.10416">
        <ele>1506.2</ele>
        <time>2000-01-01T03:18:14.000Z</time>
      </trkpt>
      <trkpt lat="45.8087" lon="6.10409">
        <ele>1509</ele>
        <time>2000-01-01T03:18:24.000Z</time>
      </trkpt>
      <trkpt lat="45.8087" lon="6.10406">
        <ele>1505.6</ele>
        <time>2000-01-01T03:18:34.000Z</time>
      </trkpt>
      <trkpt lat="45.8087" lon="6.10402">
        <ele>1505.3</ele>
        <time>2000-01-01T03:18:44.000Z</time>
      </trkpt>
      <trkpt lat="45.8087" lon="6.10396">
        <ele>1504.9</ele>
        <time>2000-01-01T03:18:54.000Z</time>
      </trkpt>
      <trkpt lat="45.8087" lon="6.1039">
        <ele>1504.4</ele>
        <time>2000-01-01T03:19:04.000Z</time>
      </trkpt>
      <trkpt lat="45.8087" lon="6.10384">
        <ele>1504</ele>
        <time>2000-01-01T03:19:14.000Z</time>
      </trkpt>
      <trkpt lat="45.80871" lon="6.10378">
        <ele>1509</ele>
        <time>2000-01-01T03:19:24.000Z</time>
      </trkpt>
      <trkpt lat="45.80871" lon="6.10374">
        <ele>1503.2</ele>
        <time>2000-01-01T03:19:34.000Z</time>
      </trkpt>
      <trkpt lat="45.80873" lon="6.10369">
        <ele>1502.7</ele>
        <time>2000-01-01T03:19:44.000Z</time>
      </trkpt>
      <trkpt lat="45.80874" lon="6.10364">
        <ele>1502.3</ele>
        <time>2000-01-01T03:19:54.000Z</time>
      </trkpt>
      <trkpt lat="45.80875" lon="6.10358">
        <ele>1501.7</ele>
        <time>2000-01-01T03:20:04.000Z</time>
      </trkpt>
      <trkpt lat="45.80876" lon="6.10354">
        <ele>1501.3</ele>
        <time>2000-01-01T03:20:14.000Z</time>
      </trkpt>
      <trkpt lat="45.80877" lon="6.10348">
        <ele>1506</ele>
        <time>2000-01-01T03:20:24.000Z</time>
      </trkpt>
      <trkpt lat="45.80878" lon="6.10344">
        <ele>1500.3</ele>
        <time>2000-01-01T03:20:34.000Z</time>
      </trkpt>
      <trkpt lat="45.80878" lon="6.1034">
        <ele>1500</ele>
        <time>2000-01-01T03:20:44.000Z</time>
      </trkpt>
      <trkpt lat="45.80878" lon="6.10335">
        <ele>1499.5</ele>
        <time>2000-01-01T03:20:54.000Z</time>
      </trkpt>
      <trkpt lat="45.80877" lon="6.1033">
        <ele>1499.2</ele>
        <time>2000-01-01T03:21:04.000Z</time>
      </trkpt>
      <trkpt lat="45.80876" lon="6.10325">
        <ele>1498.9</ele>
        <time>2000-01-01T03:21:14.000Z</time>
      </trkpt>
      <trkpt lat="45.80875" lon="6.10321">
        <ele>1498.6</ele>
        <time>2000-01-01T03:21:24.000Z</time>
      </trkpt>
      <trkpt lat="45.80874" lon="6.10318">
        <ele>1502</ele>
        <time>2000-01-01T03:21:34.000Z</time>
      </trkpt>
      <trkpt lat="45.80873" lon="6.10314">
        <ele>1498.2</ele>
        <time>2000-01-01T03:21:44.000Z</time>
      </trkpt>
      <trkpt lat="45.8087" lon="6.10307">
        <ele>1497.8</ele>
        <time>2000-01-01T03:21:54.000Z</time>
      </trkpt>
      <trkpt lat="45.80868" lon="6.10302">
        <ele>1497.5</ele>
        <time>2000-01-01T03:22:04.000Z</time>
      </trkpt>
      <trkpt lat="45.80865" lon="6.10298">
        <ele>1497.3</ele>
        <time>2000-01-01T03:22:14.000Z</time>
      </trkpt>
      <trkpt lat="45.80862" lon="6.10294">
        <ele>1500</ele>
        <time>2000-01-01T03:22:24.000Z</time>
      </trkpt>
      <trkpt lat="45.80859" lon="6.10291">
        <ele>1497</ele>
        <time>2000-01-01T03:22:34.000Z</time>
      </trkpt>
      <trkpt lat="45.80857" lon="6.10287">
        <ele>1496.8</ele>
        <time>2000-01-01T03:22:44.000Z</time>
      </trkpt>
      <trkpt lat="45.80853" lon="6.10284">
        <ele>1496.7</ele>
        <time>2000-01-01T03:22:54.000Z</time>
      </trkpt>
      <trkpt lat="45.80848" lon="6.10279">
        <ele>1496.6</ele>
        <time>2000-01-01T03:23:04.000Z</time>
      </trkpt>
      <trkpt lat="45.80842" lon="6.10273">
        <ele>1498</ele>
        <time>2000-01-01T03:23:14.000Z</time>
      </trkpt>
      <trkpt lat="45.80836" lon="6.10268">
        <ele>1496.2</ele>
        <time>2000-01-01T03:23:24.000Z</time>
      </trkpt>
      <trkpt lat="45.80834" lon="6.10266">
        <ele>1496.1</ele>
        <time>2000-01-01T03:23:34.000Z</time>
      </trkpt>
      <trkpt lat="45.80829" lon="6.10259">
        <ele>1495.8</ele>
        <time>2000-01-01T03:23:44.000Z</time>
      </trkpt>
      <trkpt lat="45.80827" lon="6.10252">
        <ele>1495</ele>
        <time>2000-01-01T03:23:54.000Z</time>
      </trkpt>
      <trkpt lat="45.80825" lon="6.10245">
        <ele>1495</ele>
        <time>2000-01-01T03:24:04.000Z</time>
      </trkpt>
      <trkpt lat="45.80825" lon="6.10237">
        <ele>1494.5</ele>
        <time>2000-01-01T03:24:14.000Z</time>
      </trkpt>
      <trkpt lat="45.80823" lon="6.10234">
        <ele>1494.4</ele>
        <time>2000-01-01T03:24:24.000Z</time>
      </trkpt>
      <trkpt lat="45.80818" lon="6.10229">
        <ele>1497</ele>
        <time>2000-01-01T03:24:34.000Z</time>
      </trkpt>
      <trkpt lat="45.80806" lon="6.10231">
        <ele>1495.3</ele>
        <time>2000-01-01T03:24:44.000Z</time>
      </trkpt>
      <trkpt lat="45.80804" lon="6.1024">
        <ele>1495.7</ele>
        <time>2000-01-01T03:24:54.000Z</time>
      </trkpt>
      <trkpt lat="45.80794" lon="6.10243">
        <ele>1496</ele>
        <time>2000-01-01T03:25:04.000Z</time>
      </trkpt>
      <trkpt lat="45.80782" lon="6.10237">
        <ele>1496</ele>
        <time>2000-01-01T03:25:14.000Z</time>
      </trkpt>
      <trkpt lat="45.80771" lon="6.10228">
        <ele>1496</ele>
        <time>2000-01-01T03:25:24.000Z</time>
      </trkpt>
      <trkpt lat="45.8076" lon="6.10219">
        <ele>1494.9</ele>
        <time>2000-01-01T03:25:34.000Z</time>
      </trkpt>
      <trkpt lat="45.80754" lon="6.10207">
        <ele>1498</ele>
        <time>2000-01-01T03:25:44.000Z</time>
      </trkpt>
      <trkpt lat="45.80752" lon="6.10202">
        <ele>1494.3</ele>
        <time>2000-01-01T03:25:54.000Z</time>
      </trkpt>
      <trkpt lat="45.80751" lon="6.102">
        <ele>1494.2</ele>
        <time>2000-01-01T03:26:04.000Z</time>
      </trkpt>
      <trkpt lat="45.80748" lon="6.1019">
        <ele>1493.8</ele>
        <time>2000-01-01T03:26:14.000Z</time>
      </trkpt>
      <trkpt lat="45.80731" lon="6.10182">
        <ele>1499</ele>
        <time>2000-01-01T03:26:24.000Z</time>
      </trkpt>
      <trkpt lat="45.80725" lon="6.10179">
        <ele>1492.9</ele>
        <time>2000-01-01T03:26:34.000Z</time>
      </trkpt>
      <trkpt lat="45.80711" lon="6.10205">
        <ele>1497</ele>
        <time>2000-01-01T03:26:44.000Z</time>
      </trkpt>
      <trkpt lat="45.80689" lon="6.10191">
        <ele>1495</ele>
        <time>2000-01-01T03:26:54.000Z</time>
      </trkpt>
      <trkpt lat="45.80664" lon="6.10177">
        <ele>1495</ele>
        <time>2000-01-01T03:27:04.000Z</time>
      </trkpt>
      <trkpt lat="45.80675" lon="6.10142">
        <ele>1495</ele>
        <time>2000-01-01T03:27:14.000Z</time>
      </trkpt>
      <trkpt lat="45.80691" lon="6.10095">
        <ele>1495</ele>
        <time>2000-01-01T03:27:24.000Z</time>
      </trkpt>
      <trkpt lat="45.80692" lon="6.10091">
        <ele>1500.1</ele>
        <time>2000-01-01T03:27:34.000Z</time>
      </trkpt>
      <trkpt lat="45.80689" lon="6.10088">
        <ele>1499.9</ele>
        <time>2000-01-01T03:27:44.000Z</time>
      </trkpt>
      <trkpt lat="45.80685" lon="6.10085">
        <ele>1499.5</ele>
        <time>2000-01-01T03:27:54.000Z</time>
      </trkpt>
      <trkpt lat="45.80681" lon="6.10081">
        <ele>1499.1</ele>
        <time>2000-01-01T03:28:04.000Z</time>
      </trkpt>
      <trkpt lat="45.80678" lon="6.10076">
        <ele>1495</ele>
        <time>2000-01-01T03:28:14.000Z</time>
      </trkpt>
      <trkpt lat="45.80676" lon="6.10071">
        <ele>1498.3</ele>
        <time>2000-01-01T03:28:24.000Z</time>
      </trkpt>
      <trkpt lat="45.80672" lon="6.10065">
        <ele>1497.8</ele>
        <time>2000-01-01T03:28:34.000Z</time>
      </trkpt>
      <trkpt lat="45.80664" lon="6.1005">
        <ele>1495</ele>
        <time>2000-01-01T03:28:44.000Z</time>
      </trkpt>
      <trkpt lat="45.80659" lon="6.10038">
        <ele>1495.2</ele>
        <time>2000-01-01T03:28:54.000Z</time>
      </trkpt>
      <trkpt lat="45.80653" lon="6.10018">
        <ele>1493</ele>
        <time>2000-01-01T03:29:04.000Z</time>
      </trkpt>
      <trkpt lat="45.80647" lon="6.09995">
        <ele>1492.9</ele>
        <time>2000-01-01T03:29:14.000Z</time>
      </trkpt>
      <trkpt lat="45.80638" lon="6.09968">
        <ele>1491</ele>
        <time>2000-01-01T03:29:24.000Z</time>
      </trkpt>
      <trkpt lat="45.80631" lon="6.09949">
        <ele>1490.5</ele>
        <time>2000-01-01T03:29:34.000Z</time>
      </trkpt>
      <trkpt lat="45.80619" lon="6.09921">
        <ele>1489</ele>
        <time>2000-01-01T03:29:44.000Z</time>
      </trkpt>
      <trkpt lat="45.80614" lon="6.0991">
        <ele>1488.9</ele>
        <time>2000-01-01T03:29:54.000Z</time>
      </trkpt>
      <trkpt lat="45.8061" lon="6.09903">
        <ele>1488.8</ele>
        <time>2000-01-01T03:30:04.000Z</time>
      </trkpt>
      <trkpt lat="45.80606" lon="6.09897">
        <ele>1489</ele>
        <time>2000-01-01T03:30:14.000Z</time>
      </trkpt>
      <trkpt lat="45.80603" lon="6.09893">
        <ele>1488.5</ele>
        <time>2000-01-01T03:30:24.000Z</time>
      </trkpt>
      <trkpt lat="45.806" lon="6.0989">
        <ele>1488.3</ele>
        <time>2000-01-01T03:30:34.000Z</time>
      </trkpt>
      <trkpt lat="45.80593" lon="6.0988">
        <ele>1487.8</ele>
        <time>2000-01-01T03:30:44.000Z</time>
      </trkpt>
      <trkpt lat="45.80587" lon="6.09875">
        <ele>1489</ele>
        <time>2000-01-01T03:30:54.000Z</time>
      </trkpt>
      <trkpt lat="45.80579" lon="6.09867">
        <ele>1486.8</ele>
        <time>2000-01-01T03:31:04.000Z</time>
      </trkpt>
      <trkpt lat="45.80569" lon="6.09858">
        <ele>1489</ele>
        <time>2000-01-01T03:31:14.000Z</time>
      </trkpt>
      <trkpt lat="45.80557" lon="6.09848">
        <ele>1484.7</ele>
        <time>2000-01-01T03:31:24.000Z</time>
      </trkpt>
      <trkpt lat="45.80548" lon="6.09839">
        <ele>1490</ele>
        <time>2000-01-01T03:31:34.000Z</time>
      </trkpt>
      <trkpt lat="45.80543" lon="6.09832">
        <ele>1483.5</ele>
        <time>2000-01-01T03:31:44.000Z</time>
      </trkpt>
      <trkpt lat="45.80532" lon="6.09812">
        <ele>1491</ele>
        <time>2000-01-01T03:31:54.000Z</time>
      </trkpt>
      <trkpt lat="45.80523" lon="6.09792">
        <ele>1484.7</ele>
        <time>2000-01-01T03:32:04.000Z</time>
      </trkpt>
      <trkpt lat="45.80518" lon="6.09782">
        <ele>1492</ele>
        <time>2000-01-01T03:32:14.000Z</time>
      </trkpt>
      <trkpt lat="45.80507" lon="6.09765">
        <ele>1485.2</ele>
        <time>2000-01-01T03:32:24.000Z</time>
      </trkpt>
      <trkpt lat="45.80491" lon="6.09749">
        <ele>1492</ele>
        <time>2000-01-01T03:32:34.000Z</time>
      </trkpt>
      <trkpt lat="45.8048" lon="6.09737">
        <ele>1483.5</ele>
        <time>2000-01-01T03:32:44.000Z</time>
      </trkpt>
      <trkpt lat="45.80472" lon="6.09726">
        <ele>1492</ele>
        <time>2000-01-01T03:32:54.000Z</time>
      </trkpt>
      <trkpt lat="45.80459" lon="6.09707">
        <ele>1482</ele>
        <time>2000-01-01T03:33:04.000Z</time>
      </trkpt>
      <trkpt lat="45.80446" lon="6.09683">
        <ele>1489</ele>
        <time>2000-01-01T03:33:14.000Z</time>
      </trkpt>
      <trkpt lat="45.80436" lon="6.09669">
        <ele>1479.4</ele>
        <time>2000-01-01T03:33:24.000Z</time>
      </trkpt>
      <trkpt lat="45.80423" lon="6.09651">
        <ele>1483</ele>
        <time>2000-01-01T03:33:34.000Z</time>
      </trkpt>
      <trkpt lat="45.80419" lon="6.09646">
        <ele>1477.2</ele>
        <time>2000-01-01T03:33:44.000Z</time>
      </trkpt>
      <trkpt lat="45.80416" lon="6.09644">
        <ele>1476.8</ele>
        <time>2000-01-01T03:33:54.000Z</time>
      </trkpt>
      <trkpt lat="45.80412" lon="6.09642">
        <ele>1476.7</ele>
        <time>2000-01-01T03:34:04.000Z</time>
      </trkpt>
      <trkpt lat="45.80406" lon="6.0964">
        <ele>1478</ele>
        <time>2000-01-01T03:34:14.000Z</time>
      </trkpt>
      <trkpt lat="45.80402" lon="6.0964">
        <ele>1476.5</ele>
        <time>2000-01-01T03:34:24.000Z</time>
      </trkpt>
      <trkpt lat="45.80399" lon="6.0964">
        <ele>1476.3</ele>
        <time>2000-01-01T03:34:34.000Z</time>
      </trkpt>
      <trkpt lat="45.80395" lon="6.0964">
        <ele>1476.2</ele>
        <time>2000-01-01T03:34:44.000Z</time>
      </trkpt>
      <trkpt lat="45.80394" lon="6.09642">
        <ele>1476.2</ele>
        <time>2000-01-01T03:34:54.000Z</time>
      </trkpt>
      <trkpt lat="45.80392" lon="6.09639">
        <ele>1476.1</ele>
        <time>2000-01-01T03:35:04.000Z</time>
      </trkpt>
      <trkpt lat="45.80391" lon="6.09638">
        <ele>1476.1</ele>
        <time>2000-01-01T03:35:14.000Z</time>
      </trkpt>
      <trkpt lat="45.80389" lon="6.09632">
        <ele>1478</ele>
        <time>2000-01-01T03:35:24.000Z</time>
      </trkpt>
      <trkpt lat="45.80387" lon="6.09627">
        <ele>1476.2</ele>
        <time>2000-01-01T03:35:34.000Z</time>
      </trkpt>
      <trkpt lat="45.80387" lon="6.09622">
        <ele>1476.2</ele>
        <time>2000-01-01T03:35:44.000Z</time>
      </trkpt>
      <trkpt lat="45.80386" lon="6.09617">
        <ele>1476.3</ele>
        <time>2000-01-01T03:35:54.000Z</time>
      </trkpt>
      <trkpt lat="45.80384" lon="6.09609">
        <ele>1476.5</ele>
        <time>2000-01-01T03:36:04.000Z</time>
      </trkpt>
      <trkpt lat="45.80381" lon="6.09603">
        <ele>1477</ele>
        <time>2000-01-01T03:36:14.000Z</time>
      </trkpt>
      <trkpt lat="45.80375" lon="6.09594">
        <ele>1476.6</ele>
        <time>2000-01-01T03:36:24.000Z</time>
      </trkpt>
      <trkpt lat="45.8037" lon="6.0959">
        <ele>1476.5</ele>
        <time>2000-01-01T03:36:34.000Z</time>
      </trkpt>
      <trkpt lat="45.80366" lon="6.09586">
        <ele>1476</ele>
        <time>2000-01-01T03:36:44.000Z</time>
      </trkpt>
      <trkpt lat="45.80361" lon="6.09583">
        <ele>1475.9</ele>
        <time>2000-01-01T03:36:54.000Z</time>
      </trkpt>
      <trkpt lat="45.80357" lon="6.09582">
        <ele>1475.7</ele>
        <time>2000-01-01T03:37:04.000Z</time>
      </trkpt>
      <trkpt lat="45.8035" lon="6.09581">
        <ele>1475.3</ele>
        <time>2000-01-01T03:37:14.000Z</time>
      </trkpt>
      <trkpt lat="45.80343" lon="6.09583">
        <ele>1475</ele>
        <time>2000-01-01T03:37:24.000Z</time>
      </trkpt>
      <trkpt lat="45.80336" lon="6.09585">
        <ele>1475.3</ele>
        <time>2000-01-01T03:37:34.000Z</time>
      </trkpt>
      <trkpt lat="45.80324" lon="6.09591">
        <ele>1475</ele>
        <time>2000-01-01T03:37:44.000Z</time>
      </trkpt>
      <trkpt lat="45.80296" lon="6.09606">
        <ele>1467</ele>
        <time>2000-01-01T03:37:54.000Z</time>
      </trkpt>
      <trkpt lat="45.80277" lon="6.09616">
        <ele>1467</ele>
        <time>2000-01-01T03:38:04.000Z</time>
      </trkpt>
      <trkpt lat="45.80267" lon="6.09622">
        <ele>1476.9</ele>
        <time>2000-01-01T03:38:14.000Z</time>
      </trkpt>
      <trkpt lat="45.80261" lon="6.09626">
        <ele>1477</ele>
        <time>2000-01-01T03:38:24.000Z</time>
      </trkpt>
      <trkpt lat="45.80253" lon="6.09635">
        <ele>1470</ele>
        <time>2000-01-01T03:38:34.000Z</time>
      </trkpt>
      <trkpt lat="45.8025" lon="6.09638">
        <ele>1477</ele>
        <time>2000-01-01T03:38:44.000Z</time>
      </trkpt>
      <trkpt lat="45.80246" lon="6.0964">
        <ele>1477.4</ele>
        <time>2000-01-01T03:38:54.000Z</time>
      </trkpt>
      <trkpt lat="45.80242" lon="6.09641">
        <ele>1477.7</ele>
        <time>2000-01-01T03:39:04.000Z</time>
      </trkpt>
      <trkpt lat="45.80237" lon="6.09641">
        <ele>1478</ele>
        <time>2000-01-01T03:39:14.000Z</time>
      </trkpt>
      <trkpt lat="45.80231" lon="6.09638">
        <ele>1476</ele>
        <time>2000-01-01T03:39:24.000Z</time>
      </trkpt>
      <trkpt lat="45.80225" lon="6.09632">
        <ele>1478.3</ele>
        <time>2000-01-01T03:39:34.000Z</time>
      </trkpt>
      <trkpt lat="45.80202" lon="6.0961">
        <ele>1480</ele>
        <time>2000-01-01T03:39:44.000Z</time>
      </trkpt>
      <trkpt lat="45.80191" lon="6.09601">
        <ele>1482.1</ele>
        <time>2000-01-01T03:39:54.000Z</time>
      </trkpt>
      <trkpt lat="45.80175" lon="6.09589">
        <ele>1482</ele>
        <time>2000-01-01T03:40:04.000Z</time>
      </trkpt>
      <trkpt lat="45.8017" lon="6.09588">
        <ele>1484</ele>
        <time>2000-01-01T03:40:14.000Z</time>
      </trkpt>
      <trkpt lat="45.80165" lon="6.0959">
        <ele>1484.7</ele>
        <time>2000-01-01T03:40:24.000Z</time>
      </trkpt>
      <trkpt lat="45.80156" lon="6.09595">
        <ele>1485</ele>
        <time>2000-01-01T03:40:34.000Z</time>
      </trkpt>
      <trkpt lat="45.80146" lon="6.09602">
        <ele>1487.6</ele>
        <time>2000-01-01T03:40:44.000Z</time>
      </trkpt>
      <trkpt lat="45.80139" lon="6.09606">
        <ele>1488.6</ele>
        <time>2000-01-01T03:40:54.000Z</time>
      </trkpt>
      <trkpt lat="45.80133" lon="6.09612">
        <ele>1487</ele>
        <time>2000-01-01T03:41:04.000Z</time>
      </trkpt>
      <trkpt lat="45.80127" lon="6.09617">
        <ele>1491.6</ele>
        <time>2000-01-01T03:41:14.000Z</time>
      </trkpt>
      <trkpt lat="45.80123" lon="6.09621">
        <ele>1492.6</ele>
        <time>2000-01-01T03:41:24.000Z</time>
      </trkpt>
      <trkpt lat="45.80119" lon="6.09623">
        <ele>1493.4</ele>
        <time>2000-01-01T03:41:34.000Z</time>
      </trkpt>
      <trkpt lat="45.80116" lon="6.09623">
        <ele>1491</ele>
        <time>2000-01-01T03:41:44.000Z</time>
      </trkpt>
      <trkpt lat="45.80112" lon="6.09623">
        <ele>1494.7</ele>
        <time>2000-01-01T03:41:54.000Z</time>
      </trkpt>
      <trkpt lat="45.80107" lon="6.0962">
        <ele>1495.7</ele>
        <time>2000-01-01T03:42:04.000Z</time>
      </trkpt>
      <trkpt lat="45.80103" lon="6.09617">
        <ele>1496.5</ele>
        <time>2000-01-01T03:42:14.000Z</time>
      </trkpt>
      <trkpt lat="45.80098" lon="6.0961">
        <ele>1493</ele>
        <time>2000-01-01T03:42:24.000Z</time>
      </trkpt>
      <trkpt lat="45.80093" lon="6.09603">
        <ele>1497.6</ele>
        <time>2000-01-01T03:42:34.000Z</time>
      </trkpt>
      <trkpt lat="45.80089" lon="6.096">
        <ele>1498.1</ele>
        <time>2000-01-01T03:42:44.000Z</time>
      </trkpt>
      <trkpt lat="45.80084" lon="6.09597">
        <ele>1498.8</ele>
        <time>2000-01-01T03:42:54.000Z</time>
      </trkpt>
      <trkpt lat="45.80076" lon="6.09592">
        <ele>1496</ele>
        <time>2000-01-01T03:43:04.000Z</time>
      </trkpt>
      <trkpt lat="45.80068" lon="6.09588">
        <ele>1501.1</ele>
        <time>2000-01-01T03:43:14.000Z</time>
      </trkpt>
      <trkpt lat="45.80062" lon="6.09586">
        <ele>1502.1</ele>
        <time>2000-01-01T03:43:24.000Z</time>
      </trkpt>
      <trkpt lat="45.80058" lon="6.09585">
        <ele>1502.8</ele>
        <time>2000-01-01T03:43:34.000Z</time>
      </trkpt>
      <trkpt lat="45.80054" lon="6.09581">
        <ele>1500</ele>
        <time>2000-01-01T03:43:44.000Z</time>
      </trkpt>
      <trkpt lat="45.8005" lon="6.09579">
        <ele>1503.3</ele>
        <time>2000-01-01T03:43:54.000Z</time>
      </trkpt>
      <trkpt lat="45.80048" lon="6.09578">
        <ele>1503.5</ele>
        <time>2000-01-01T03:44:04.000Z</time>
      </trkpt>
      <trkpt lat="45.80046" lon="6.09577">
        <ele>1503.7</ele>
        <time>2000-01-01T03:44:14.000Z</time>
      </trkpt>
      <trkpt lat="45.80043" lon="6.09576">
        <ele>1504.1</ele>
        <time>2000-01-01T03:44:24.000Z</time>
      </trkpt>
      <trkpt lat="45.80037" lon="6.09576">
        <ele>1505.1</ele>
        <time>2000-01-01T03:44:34.000Z</time>
      </trkpt>
      <trkpt lat="45.80031" lon="6.09575">
        <ele>1507</ele>
        <time>2000-01-01T03:44:44.000Z</time>
      </trkpt>
      <trkpt lat="45.80023" lon="6.09574">
        <ele>1507.2</ele>
        <time>2000-01-01T03:44:54.000Z</time>
      </trkpt>
      <trkpt lat="45.80016" lon="6.09572">
        <ele>1508.1</ele>
        <time>2000-01-01T03:45:04.000Z</time>
      </trkpt>
      <trkpt lat="45.80004" lon="6.09568">
        <ele>1513</ele>
        <time>2000-01-01T03:45:14.000Z</time>
      </trkpt>
      <trkpt lat="45.79995" lon="6.09566">
        <ele>1511</ele>
        <time>2000-01-01T03:45:24.000Z</time>
      </trkpt>
      <trkpt lat="45.79988" lon="6.09563">
        <ele>1512</ele>
        <time>2000-01-01T03:45:34.000Z</time>
      </trkpt>
      <trkpt lat="45.79981" lon="6.0956">
        <ele>1517</ele>
        <time>2000-01-01T03:45:44.000Z</time>
      </trkpt>
      <trkpt lat="45.79976" lon="6.09557">
        <ele>1513.5</ele>
        <time>2000-01-01T03:45:54.000Z</time>
      </trkpt>
      <trkpt lat="45.79968" lon="6.09553">
        <ele>1514.7</ele>
        <time>2000-01-01T03:46:04.000Z</time>
      </trkpt>
      <trkpt lat="45.79964" lon="6.09549">
        <ele>1515.1</ele>
        <time>2000-01-01T03:46:14.000Z</time>
      </trkpt>
      <trkpt lat="45.79957" lon="6.09544">
        <ele>1521</ele>
        <time>2000-01-01T03:46:24.000Z</time>
      </trkpt>
      <trkpt lat="45.79952" lon="6.09538">
        <ele>1516.2</ele>
        <time>2000-01-01T03:46:34.000Z</time>
      </trkpt>
      <trkpt lat="45.79947" lon="6.09531">
        <ele>1516</ele>
        <time>2000-01-01T03:46:44.000Z</time>
      </trkpt>
      <trkpt lat="45.79944" lon="6.09525">
        <ele>1521</ele>
        <time>2000-01-01T03:46:54.000Z</time>
      </trkpt>
      <trkpt lat="45.79941" lon="6.09521">
        <ele>1515.9</ele>
        <time>2000-01-01T03:47:04.000Z</time>
      </trkpt>
      <trkpt lat="45.79938" lon="6.09518">
        <ele>1516.2</ele>
        <time>2000-01-01T03:47:14.000Z</time>
      </trkpt>
      <trkpt lat="45.79932" lon="6.09513">
        <ele>1517.1</ele>
        <time>2000-01-01T03:47:24.000Z</time>
      </trkpt>
      <trkpt lat="45.79924" lon="6.09508">
        <ele>1522</ele>
        <time>2000-01-01T03:47:34.000Z</time>
      </trkpt>
      <trkpt lat="45.79917" lon="6.09505">
        <ele>1520</ele>
        <time>2000-01-01T03:47:44.000Z</time>
      </trkpt>
      <trkpt lat="45.79908" lon="6.09502">
        <ele>1521.9</ele>
        <time>2000-01-01T03:47:54.000Z</time>
      </trkpt>
      <trkpt lat="45.799" lon="6.095">
        <ele>1522</ele>
        <time>2000-01-01T03:48:04.000Z</time>
      </trkpt>
      <trkpt lat="45.79893" lon="6.09498">
        <ele>1525.5</ele>
        <time>2000-01-01T03:48:14.000Z</time>
      </trkpt>
      <trkpt lat="45.79884" lon="6.09492">
        <ele>1526.8</ele>
        <time>2000-01-01T03:48:24.000Z</time>
      </trkpt>
      <trkpt lat="45.79872" lon="6.09483">
        <ele>1522</ele>
        <time>2000-01-01T03:48:34.000Z</time>
      </trkpt>
      <trkpt lat="45.79867" lon="6.09479">
        <ele>1528.7</ele>
        <time>2000-01-01T03:48:44.000Z</time>
      </trkpt>
      <trkpt lat="45.79863" lon="6.09476">
        <ele>1529.2</ele>
        <time>2000-01-01T03:48:54.000Z</time>
      </trkpt>
      <trkpt lat="45.79856" lon="6.09472">
        <ele>1529.7</ele>
        <time>2000-01-01T03:49:04.000Z</time>
      </trkpt>
      <trkpt lat="45.79849" lon="6.0947">
        <ele>1526</ele>
        <time>2000-01-01T03:49:14.000Z</time>
      </trkpt>
      <trkpt lat="45.79843" lon="6.0947">
        <ele>1531.3</ele>
        <time>2000-01-01T03:49:24.000Z</time>
      </trkpt>
      <trkpt lat="45.79835" lon="6.09471">
        <ele>1532.6</ele>
        <time>2000-01-01T03:49:34.000Z</time>
      </trkpt>
      <trkpt lat="45.79827" lon="6.09471">
        <ele>1526</ele>
        <time>2000-01-01T03:49:44.000Z</time>
      </trkpt>
      <trkpt lat="45.79823" lon="6.09473">
        <ele>1533.9</ele>
        <time>2000-01-01T03:49:54.000Z</time>
      </trkpt>
      <trkpt lat="45.79817" lon="6.09476">
        <ele>1534.9</ele>
        <time>2000-01-01T03:50:04.000Z</time>
      </trkpt>
      <trkpt lat="45.7981" lon="6.09479">
        <ele>1535.9</ele>
        <time>2000-01-01T03:50:14.000Z</time>
      </trkpt>
      <trkpt lat="45.79802" lon="6.09482">
        <ele>1527</ele>
        <time>2000-01-01T03:50:24.000Z</time>
      </trkpt>
      <trkpt lat="45.79793" lon="6.09484">
        <ele>1539.2</ele>
        <time>2000-01-01T03:50:34.000Z</time>
      </trkpt>
      <trkpt lat="45.79783" lon="6.09484">
        <ele>1536</ele>
        <time>2000-01-01T03:50:44.000Z</time>
      </trkpt>
      <trkpt lat="45.7977" lon="6.09486">
        <ele>1543.8</ele>
        <time>2000-01-01T03:50:54.000Z</time>
      </trkpt>
      <trkpt lat="45.7976" lon="6.09489">
        <ele>1543</ele>
        <time>2000-01-01T03:51:04.000Z</time>
      </trkpt>
      <trkpt lat="45.79747" lon="6.09491">
        <ele>1549.9</ele>
        <time>2000-01-01T03:51:14.000Z</time>
      </trkpt>
      <trkpt lat="45.79733" lon="6.09495">
        <ele>1550</ele>
        <time>2000-01-01T03:51:24.000Z</time>
      </trkpt>
      <trkpt lat="45.79719" lon="6.09497">
        <ele>1555.7</ele>
        <time>2000-01-01T03:51:34.000Z</time>
      </trkpt>
      <trkpt lat="45.79709" lon="6.09498">
        <ele>1553</ele>
        <time>2000-01-01T03:51:44.000Z</time>
      </trkpt>
      <trkpt lat="45.797" lon="6.09499">
        <ele>1558.2</ele>
        <time>2000-01-01T03:51:54.000Z</time>
      </trkpt>
      <trkpt lat="45.79692" lon="6.09501">
        <ele>1559.4</ele>
        <time>2000-01-01T03:52:04.000Z</time>
      </trkpt>
      <trkpt lat="45.79686" lon="6.09503">
        <ele>1557</ele>
        <time>2000-01-01T03:52:14.000Z</time>
      </trkpt>
      <trkpt lat="45.79678" lon="6.09506">
        <ele>1561.1</ele>
        <time>2000-01-01T03:52:24.000Z</time>
      </trkpt>
      <trkpt lat="45.79674" lon="6.0951">
        <ele>1562</ele>
        <time>2000-01-01T03:52:34.000Z</time>
      </trkpt>
      <trkpt lat="45.7967" lon="6.09514">
        <ele>1562.8</ele>
        <time>2000-01-01T03:52:44.000Z</time>
      </trkpt>
      <trkpt lat="45.79667" lon="6.09519">
        <ele>1557</ele>
        <time>2000-01-01T03:52:54.000Z</time>
      </trkpt>
      <trkpt lat="45.79664" lon="6.09526">
        <ele>1564.5</ele>
        <time>2000-01-01T03:53:04.000Z</time>
      </trkpt>
      <trkpt lat="45.79662" lon="6.09537">
        <ele>1565.8</ele>
        <time>2000-01-01T03:53:14.000Z</time>
      </trkpt>
      <trkpt lat="45.79662" lon="6.09547">
        <ele>1563</ele>
        <time>2000-01-01T03:53:24.000Z</time>
      </trkpt>
      <trkpt lat="45.7966" lon="6.0957">
        <ele>1570.8</ele>
        <time>2000-01-01T03:53:34.000Z</time>
      </trkpt>
      <trkpt lat="45.79659" lon="6.09586">
        <ele>1570</ele>
        <time>2000-01-01T03:53:44.000Z</time>
      </trkpt>
      <trkpt lat="45.79659" lon="6.09607">
        <ele>1576.1</ele>
        <time>2000-01-01T03:53:54.000Z</time>
      </trkpt>
      <trkpt lat="45.79659" lon="6.09632">
        <ele>1573</ele>
        <time>2000-01-01T03:54:04.000Z</time>
      </trkpt>
      <trkpt lat="45.79658" lon="6.09643">
        <ele>1580.8</ele>
        <time>2000-01-01T03:54:14.000Z</time>
      </trkpt>
      <trkpt lat="45.79658" lon="6.0965">
        <ele>1582</ele>
        <time>2000-01-01T03:54:24.000Z</time>
      </trkpt>
      <trkpt lat="45.79658" lon="6.09655">
        <ele>1582.8</ele>
        <time>2000-01-01T03:54:34.000Z</time>
      </trkpt>
      <trkpt lat="45.79656" lon="6.09658">
        <ele>1573</ele>
        <time>2000-01-01T03:54:44.000Z</time>
      </trkpt>
      <trkpt lat="45.79655" lon="6.09663">
        <ele>1583.7</ele>
        <time>2000-01-01T03:54:54.000Z</time>
      </trkpt>
      <trkpt lat="45.79654" lon="6.09666">
        <ele>1584.1</ele>
        <time>2000-01-01T03:55:04.000Z</time>
      </trkpt>
      <trkpt lat="45.7965" lon="6.0967">
        <ele>1584.2</ele>
        <time>2000-01-01T03:55:14.000Z</time>
      </trkpt>
      <trkpt lat="45.79647" lon="6.09671">
        <ele>1584.1</ele>
        <time>2000-01-01T03:55:24.000Z</time>
      </trkpt>
      <trkpt lat="45.79644" lon="6.09673">
        <ele>1584.2</ele>
        <time>2000-01-01T03:55:34.000Z</time>
      </trkpt>
      <trkpt lat="45.7964" lon="6.09674">
        <ele>1574</ele>
        <time>2000-01-01T03:55:44.000Z</time>
      </trkpt>
      <trkpt lat="45.79635" lon="6.09675">
        <ele>1584.3</ele>
        <time>2000-01-01T03:55:54.000Z</time>
      </trkpt>
      <trkpt lat="45.79629" lon="6.09676">
        <ele>1584.9</ele>
        <time>2000-01-01T03:56:04.000Z</time>
      </trkpt>
      <trkpt lat="45.79624" lon="6.09677">
        <ele>1585.5</ele>
        <time>2000-01-01T03:56:14.000Z</time>
      </trkpt>
      <trkpt lat="45.79621" lon="6.09679">
        <ele>1576</ele>
        <time>2000-01-01T03:56:24.000Z</time>
      </trkpt>
      <trkpt lat="45.79618" lon="6.09681">
        <ele>1586.7</ele>
        <time>2000-01-01T03:56:34.000Z</time>
      </trkpt>
      <trkpt lat="45.79605" lon="6.09688">
        <ele>1588.7</ele>
        <time>2000-01-01T03:56:44.000Z</time>
      </trkpt>
      <trkpt lat="45.7958" lon="6.09706">
        <ele>1582</ele>
        <time>2000-01-01T03:56:54.000Z</time>
      </trkpt>
      <trkpt lat="45.79561" lon="6.09721">
        <ele>1588</ele>
        <time>2000-01-01T03:57:04.000Z</time>
      </trkpt>
      <trkpt lat="45.79545" lon="6.09732">
        <ele>1596.4</ele>
        <time>2000-01-01T03:57:14.000Z</time>
      </trkpt>
      <trkpt lat="45.79526" lon="6.09748">
        <ele>1594</ele>
        <time>2000-01-01T03:57:24.000Z</time>
      </trkpt>
      <trkpt lat="45.79513" lon="6.09759">
        <ele>1599.6</ele>
        <time>2000-01-01T03:57:34.000Z</time>
      </trkpt>
      <trkpt lat="45.79491" lon="6.09783">
        <ele>1598</ele>
        <time>2000-01-01T03:57:44.000Z</time>
      </trkpt>
      <trkpt lat="45.7946" lon="6.09818">
        <ele>1602</ele>
        <time>2000-01-01T03:57:54.000Z</time>
      </trkpt>
      <trkpt lat="45.79448" lon="6.09831">
        <ele>1606</ele>
        <time>2000-01-01T03:58:04.000Z</time>
      </trkpt>
      <trkpt lat="45.79437" lon="6.09843">
        <ele>1602</ele>
        <time>2000-01-01T03:58:14.000Z</time>
      </trkpt>
      <trkpt lat="45.7943" lon="6.09851">
        <ele>1607.9</ele>
        <time>2000-01-01T03:58:24.000Z</time>
      </trkpt>
      <trkpt lat="45.79426" lon="6.09854">
        <ele>1608.2</ele>
        <time>2000-01-01T03:58:34.000Z</time>
      </trkpt>
      <trkpt lat="45.79421" lon="6.09858">
        <ele>1605</ele>
        <time>2000-01-01T03:58:44.000Z</time>
      </trkpt>
      <trkpt lat="45.7941" lon="6.09863">
        <ele>1609.5</ele>
        <time>2000-01-01T03:58:54.000Z</time>
      </trkpt>
      <trkpt lat="45.79401" lon="6.09868">
        <ele>1608</ele>
        <time>2000-01-01T03:59:04.000Z</time>
      </trkpt>
      <trkpt lat="45.79399" lon="6.0987">
        <ele>1611.1</ele>
        <time>2000-01-01T03:59:14.000Z</time>
      </trkpt>
      <trkpt lat="45.79398" lon="6.09873">
        <ele>1611.5</ele>
        <time>2000-01-01T03:59:24.000Z</time>
      </trkpt>
      <trkpt lat="45.79399" lon="6.0987">
        <ele>1611.1</ele>
        <time>2000-01-01T03:59:34.000Z</time>
      </trkpt>
      <trkpt lat="45.79401" lon="6.09868">
        <ele>1610.7</ele>
        <time>2000-01-01T03:59:44.000Z</time>
      </trkpt>
      <trkpt lat="45.79392" lon="6.099">
        <ele>1610</ele>
        <time>2000-01-01T03:59:54.000Z</time>
      </trkpt>
      <trkpt lat="45.79385" lon="6.0992">
        <ele>1619.7</ele>
        <time>2000-01-01T04:00:04.000Z</time>
      </trkpt>
      <trkpt lat="45.7937" lon="6.09995">
        <ele>1626</ele>
        <time>2000-01-01T04:00:14.000Z</time>
      </trkpt>
      <trkpt lat="45.79363" lon="6.10033">
        <ele>1629</ele>
        <time>2000-01-01T04:00:24.000Z</time>
      </trkpt>
      <trkpt lat="45.79358" lon="6.10061">
        <ele>1629</ele>
        <time>2000-01-01T04:00:34.000Z</time>
      </trkpt>
      <trkpt lat="45.79349" lon="6.10092">
        <ele>1639</ele>
        <time>2000-01-01T04:00:44.000Z</time>
      </trkpt>
      <trkpt lat="45.79343" lon="6.10125">
        <ele>1637</ele>
        <time>2000-01-01T04:00:54.000Z</time>
      </trkpt>
      <trkpt lat="45.79337" lon="6.1015">
        <ele>1642.5</ele>
        <time>2000-01-01T04:01:04.000Z</time>
      </trkpt>
      <trkpt lat="45.79318" lon="6.10134">
        <ele>1636</ele>
        <time>2000-01-01T04:01:14.000Z</time>
      </trkpt>
      <trkpt lat="45.79302" lon="6.10132">
        <ele>1639.4</ele>
        <time>2000-01-01T04:01:24.000Z</time>
      </trkpt>
      <trkpt lat="45.7928" lon="6.10118">
        <ele>1636</ele>
        <time>2000-01-01T04:01:34.000Z</time>
      </trkpt>
      <trkpt lat="45.79257" lon="6.1011">
        <ele>1637</ele>
        <time>2000-01-01T04:01:44.000Z</time>
      </trkpt>
      <trkpt lat="45.79234" lon="6.10094">
        <ele>1637</ele>
        <time>2000-01-01T04:01:54.000Z</time>
      </trkpt>
      <trkpt lat="45.79214" lon="6.10074">
        <ele>1637</ele>
        <time>2000-01-01T04:02:04.000Z</time>
      </trkpt>
      <trkpt lat="45.79195" lon="6.10056">
        <ele>1637</ele>
        <time>2000-01-01T04:02:14.000Z</time>
      </trkpt>
      <trkpt lat="45.79171" lon="6.10033">
        <ele>1637</ele>
        <time>2000-01-01T04:02:24.000Z</time>
      </trkpt>
      <trkpt lat="45.7915" lon="6.10018">
        <ele>1637</ele>
        <time>2000-01-01T04:02:34.000Z</time>
      </trkpt>
      <trkpt lat="45.79128" lon="6.09998">
        <ele>1636</ele>
        <time>2000-01-01T04:02:44.000Z</time>
      </trkpt>
      <trkpt lat="45.79115" lon="6.09988">
        <ele>1637.9</ele>
        <time>2000-01-01T04:02:54.000Z</time>
      </trkpt>
      <trkpt lat="45.791" lon="6.09974">
        <ele>1636</ele>
        <time>2000-01-01T04:03:04.000Z</time>
      </trkpt>
      <trkpt lat="45.79083" lon="6.09958">
        <ele>1640</ele>
        <time>2000-01-01T04:03:14.000Z</time>
      </trkpt>
      <trkpt lat="45.79065" lon="6.09943">
        <ele>1642</ele>
        <time>2000-01-01T04:03:24.000Z</time>
      </trkpt>
      <trkpt lat="45.79051" lon="6.09934">
        <ele>1638.5</ele>
        <time>2000-01-01T04:03:34.000Z</time>
      </trkpt>
      <trkpt lat="45.79033" lon="6.09918">
        <ele>1643</ele>
        <time>2000-01-01T04:03:44.000Z</time>
      </trkpt>
      <trkpt lat="45.79022" lon="6.09911">
        <ele>1640</ele>
        <time>2000-01-01T04:03:54.000Z</time>
      </trkpt>
      <trkpt lat="45.79005" lon="6.09899">
        <ele>1644</ele>
        <time>2000-01-01T04:04:04.000Z</time>
      </trkpt>
      <trkpt lat="45.78976" lon="6.09877">
        <ele>1645</ele>
        <time>2000-01-01T04:04:14.000Z</time>
      </trkpt>
      <trkpt lat="45.78949" lon="6.09848">
        <ele>1651</ele>
        <time>2000-01-01T04:04:24.000Z</time>
      </trkpt>
      <trkpt lat="45.78918" lon="6.09825">
        <ele>1657</ele>
        <time>2000-01-01T04:04:34.000Z</time>
      </trkpt>
      <trkpt lat="45.78899" lon="6.09804">
        <ele>1662</ele>
        <time>2000-01-01T04:04:44.000Z</time>
      </trkpt>
      <trkpt lat="45.7888" lon="6.09782">
        <ele>1661</ele>
        <time>2000-01-01T04:04:54.000Z</time>
      </trkpt>
      <trkpt lat="45.78846" lon="6.09744">
        <ele>1661</ele>
        <time>2000-01-01T04:05:04.000Z</time>
      </trkpt>
      <trkpt lat="45.7881" lon="6.09701">
        <ele>1661</ele>
        <time>2000-01-01T04:05:14.000Z</time>
      </trkpt>
      <trkpt lat="45.78803" lon="6.09686">
        <ele>1661.2</ele>
        <time>2000-01-01T04:05:24.000Z</time>
      </trkpt>
      <trkpt lat="45.78819" lon="6.0967">
        <ele>1660</ele>
        <time>2000-01-01T04:05:34.000Z</time>
      </trkpt>
      <trkpt lat="45.7883" lon="6.09635">
        <ele>1659</ele>
        <time>2000-01-01T04:05:44.000Z</time>
      </trkpt>
      <trkpt lat="45.78847" lon="6.096">
        <ele>1659</ele>
        <time>2000-01-01T04:05:54.000Z</time>
      </trkpt>
      <trkpt lat="45.78838" lon="6.0956">
        <ele>1658</ele>
        <time>2000-01-01T04:06:04.000Z</time>
      </trkpt>
      <trkpt lat="45.78833" lon="6.09511">
        <ele>1658</ele>
        <time>2000-01-01T04:06:14.000Z</time>
      </trkpt>
      <trkpt lat="45.7883" lon="6.09485">
        <ele>1649.3</ele>
        <time>2000-01-01T04:06:24.000Z</time>
      </trkpt>
      <trkpt lat="45.78824" lon="6.0945">
        <ele>1647</ele>
        <time>2000-01-01T04:06:34.000Z</time>
      </trkpt>
      <trkpt lat="45.78801" lon="6.09428">
        <ele>1653</ele>
        <time>2000-01-01T04:06:44.000Z</time>
      </trkpt>
      <trkpt lat="45.78767" lon="6.0942">
        <ele>1655</ele>
        <time>2000-01-01T04:06:54.000Z</time>
      </trkpt>
      <trkpt lat="45.78733" lon="6.09411">
        <ele>1651</ele>
        <time>2000-01-01T04:07:04.000Z</time>
      </trkpt>
      <trkpt lat="45.78706" lon="6.09405">
        <ele>1648</ele>
        <time>2000-01-01T04:07:14.000Z</time>
      </trkpt>
      <trkpt lat="45.78669" lon="6.09396">
        <ele>1645</ele>
        <time>2000-01-01T04:07:24.000Z</time>
      </trkpt>
      <trkpt lat="45.7864" lon="6.09393">
        <ele>1643</ele>
        <time>2000-01-01T04:07:34.000Z</time>
      </trkpt>
      <trkpt lat="45.78615" lon="6.0939">
        <ele>1636</ele>
        <time>2000-01-01T04:07:44.000Z</time>
      </trkpt>
      <trkpt lat="45.78587" lon="6.09387">
        <ele>1632</ele>
        <time>2000-01-01T04:07:54.000Z</time>
      </trkpt>
      <trkpt lat="45.78549" lon="6.09376">
        <ele>1624</ele>
        <time>2000-01-01T04:08:04.000Z</time>
      </trkpt>
      <trkpt lat="45.78512" lon="6.09366">
        <ele>1616</ele>
        <time>2000-01-01T04:08:14.000Z</time>
      </trkpt>
      <trkpt lat="45.78474" lon="6.09355">
        <ele>1616</ele>
        <time>2000-01-01T04:08:24.000Z</time>
      </trkpt>
      <trkpt lat="45.78436" lon="6.09344">
        <ele>1616</ele>
        <time>2000-01-01T04:08:34.000Z</time>
      </trkpt>
      <trkpt lat="45.7841" lon="6.09337">
        <ele>1616</ele>
        <time>2000-01-01T04:08:44.000Z</time>
      </trkpt>
      <trkpt lat="45.78384" lon="6.09325">
        <ele>1616</ele>
        <time>2000-01-01T04:08:54.000Z</time>
      </trkpt>
      <trkpt lat="45.78379" lon="6.09322">
        <ele>1611.9</ele>
        <time>2000-01-01T04:09:04.000Z</time>
      </trkpt>
      <trkpt lat="45.78373" lon="6.09321">
        <ele>1612.6</ele>
        <time>2000-01-01T04:09:14.000Z</time>
      </trkpt>
      <trkpt lat="45.78372" lon="6.09319">
        <ele>1612.7</ele>
        <time>2000-01-01T04:09:24.000Z</time>
      </trkpt>
      <trkpt lat="45.7837" lon="6.0932">
        <ele>1613.1</ele>
        <time>2000-01-01T04:09:34.000Z</time>
      </trkpt>
      <trkpt lat="45.78369" lon="6.09317">
        <ele>1613.3</ele>
        <time>2000-01-01T04:09:44.000Z</time>
      </trkpt>
      <trkpt lat="45.78366" lon="6.09317">
        <ele>1617</ele>
        <time>2000-01-01T04:09:54.000Z</time>
      </trkpt>
      <trkpt lat="45.78365" lon="6.09314">
        <ele>1614.2</ele>
        <time>2000-01-01T04:10:04.000Z</time>
      </trkpt>
      <trkpt lat="45.78364" lon="6.09312">
        <ele>1614.6</ele>
        <time>2000-01-01T04:10:14.000Z</time>
      </trkpt>
      <trkpt lat="45.78362" lon="6.09309">
        <ele>1615.4</ele>
        <time>2000-01-01T04:10:24.000Z</time>
      </trkpt>
      <trkpt lat="45.78361" lon="6.09306">
        <ele>1616</ele>
        <time>2000-01-01T04:10:34.000Z</time>
      </trkpt>
      <trkpt lat="45.78359" lon="6.09304">
        <ele>1615.9</ele>
        <time>2000-01-01T04:10:44.000Z</time>
      </trkpt>
      <trkpt lat="45.78357" lon="6.09301">
        <ele>1615.8</ele>
        <time>2000-01-01T04:10:54.000Z</time>
      </trkpt>
      <trkpt lat="45.78354" lon="6.09298">
        <ele>1615.7</ele>
        <time>2000-01-01T04:11:04.000Z</time>
      </trkpt>
      <trkpt lat="45.78352" lon="6.09296">
        <ele>1618</ele>
        <time>2000-01-01T04:11:14.000Z</time>
      </trkpt>
      <trkpt lat="45.7835" lon="6.09293">
        <ele>1615.8</ele>
        <time>2000-01-01T04:11:24.000Z</time>
      </trkpt>
      <trkpt lat="45.78347" lon="6.09291">
        <ele>1616</ele>
        <time>2000-01-01T04:11:34.000Z</time>
      </trkpt>
      <trkpt lat="45.78343" lon="6.09289">
        <ele>1616.4</ele>
        <time>2000-01-01T04:11:44.000Z</time>
      </trkpt>
      <trkpt lat="45.7834" lon="6.09287">
        <ele>1616.7</ele>
        <time>2000-01-01T04:11:54.000Z</time>
      </trkpt>
      <trkpt lat="45.78337" lon="6.09285">
        <ele>1617.1</ele>
        <time>2000-01-01T04:12:04.000Z</time>
      </trkpt>
      <trkpt lat="45.78333" lon="6.09283">
        <ele>1619</ele>
        <time>2000-01-01T04:12:14.000Z</time>
      </trkpt>
      <trkpt lat="45.78331" lon="6.0928">
        <ele>1617.9</ele>
        <time>2000-01-01T04:12:24.000Z</time>
      </trkpt>
      <trkpt lat="45.78326" lon="6.09277">
        <ele>1618.3</ele>
        <time>2000-01-01T04:12:34.000Z</time>
      </trkpt>
      <trkpt lat="45.78324" lon="6.09276">
        <ele>1618.5</ele>
        <time>2000-01-01T04:12:44.000Z</time>
      </trkpt>
      <trkpt lat="45.78319" lon="6.09272">
        <ele>1618.9</ele>
        <time>2000-01-01T04:12:54.000Z</time>
      </trkpt>
      <trkpt lat="45.78316" lon="6.0927">
        <ele>1618</ele>
        <time>2000-01-01T04:13:04.000Z</time>
      </trkpt>
      <trkpt lat="45.78312" lon="6.09267">
        <ele>1619.5</ele>
        <time>2000-01-01T04:13:14.000Z</time>
      </trkpt>
      <trkpt lat="45.78308" lon="6.09264">
        <ele>1619.9</ele>
        <time>2000-01-01T04:13:24.000Z</time>
      </trkpt>
      <trkpt lat="45.78305" lon="6.09262">
        <ele>1620.2</ele>
        <time>2000-01-01T04:13:34.000Z</time>
      </trkpt>
      <trkpt lat="45.78301" lon="6.09259">
        <ele>1621</ele>
        <time>2000-01-01T04:13:44.000Z</time>
      </trkpt>
      <trkpt lat="45.78297" lon="6.09255">
        <ele>1618</ele>
        <time>2000-01-01T04:13:54.000Z</time>
      </trkpt>
      <trkpt lat="45.78293" lon="6.09252">
        <ele>1622.7</ele>
        <time>2000-01-01T04:14:04.000Z</time>
      </trkpt>
      <trkpt lat="45.78291" lon="6.09249">
        <ele>1623.1</ele>
        <time>2000-01-01T04:14:14.000Z</time>
      </trkpt>
      <trkpt lat="45.78288" lon="6.09246">
        <ele>1623.7</ele>
        <time>2000-01-01T04:14:24.000Z</time>
      </trkpt>
      <trkpt lat="45.78285" lon="6.09244">
        <ele>1624.3</ele>
        <time>2000-01-01T04:14:34.000Z</time>
      </trkpt>
      <trkpt lat="45.78284" lon="6.09242">
        <ele>1624.6</ele>
        <time>2000-01-01T04:14:44.000Z</time>
      </trkpt>
      <trkpt lat="45.78283" lon="6.09238">
        <ele>1620</ele>
        <time>2000-01-01T04:14:54.000Z</time>
      </trkpt>
      <trkpt lat="45.78282" lon="6.09235">
        <ele>1625.3</ele>
        <time>2000-01-01T04:15:04.000Z</time>
      </trkpt>
      <trkpt lat="45.78282" lon="6.0923">
        <ele>1625.6</ele>
        <time>2000-01-01T04:15:14.000Z</time>
      </trkpt>
      <trkpt lat="45.78282" lon="6.09227">
        <ele>1625.8</ele>
        <time>2000-01-01T04:15:24.000Z</time>
      </trkpt>
      <trkpt lat="45.78282" lon="6.09222">
        <ele>1626.1</ele>
        <time>2000-01-01T04:15:34.000Z</time>
      </trkpt>
      <trkpt lat="45.78282" lon="6.09219">
        <ele>1625.9</ele>
        <time>2000-01-01T04:15:44.000Z</time>
      </trkpt>
      <trkpt lat="45.78281" lon="6.09214">
        <ele>1625.7</ele>
        <time>2000-01-01T04:15:54.000Z</time>
      </trkpt>
      <trkpt lat="45.78281" lon="6.09211">
        <ele>1620</ele>
        <time>2000-01-01T04:16:04.000Z</time>
      </trkpt>
      <trkpt lat="45.7828" lon="6.09206">
        <ele>1625.4</ele>
        <time>2000-01-01T04:16:14.000Z</time>
      </trkpt>
      <trkpt lat="45.78278" lon="6.09203">
        <ele>1625.6</ele>
        <time>2000-01-01T04:16:24.000Z</time>
      </trkpt>
      <trkpt lat="45.78276" lon="6.092">
        <ele>1625.7</ele>
        <time>2000-01-01T04:16:34.000Z</time>
      </trkpt>
      <trkpt lat="45.78272" lon="6.09197">
        <ele>1626.2</ele>
        <time>2000-01-01T04:16:44.000Z</time>
      </trkpt>
      <trkpt lat="45.78267" lon="6.09194">
        <ele>1626.8</ele>
        <time>2000-01-01T04:16:54.000Z</time>
      </trkpt>
      <trkpt lat="45.78262" lon="6.09192">
        <ele>1620</ele>
        <time>2000-01-01T04:17:04.000Z</time>
      </trkpt>
      <trkpt lat="45.78258" lon="6.0919">
        <ele>1627</ele>
        <time>2000-01-01T04:17:14.000Z</time>
      </trkpt>
      <trkpt lat="45.78253" lon="6.09187">
        <ele>1627</ele>
        <time>2000-01-01T04:17:24.000Z</time>
      </trkpt>
      <trkpt lat="45.78249" lon="6.09185">
        <ele>1627</ele>
        <time>2000-01-01T04:17:34.000Z</time>
      </trkpt>
      <trkpt lat="45.78245" lon="6.09182">
        <ele>1626.4</ele>
        <time>2000-01-01T04:17:44.000Z</time>
      </trkpt>
      <trkpt lat="45.78241" lon="6.09179">
        <ele>1620</ele>
        <time>2000-01-01T04:17:54.000Z</time>
      </trkpt>
      <trkpt lat="45.78236" lon="6.09176">
        <ele>1625.9</ele>
        <time>2000-01-01T04:18:04.000Z</time>
      </trkpt>
      <trkpt lat="45.78232" lon="6.09172">
        <ele>1625.7</ele>
        <time>2000-01-01T04:18:14.000Z</time>
      </trkpt>
      <trkpt lat="45.78229" lon="6.09169">
        <ele>1625.8</ele>
        <time>2000-01-01T04:18:24.000Z</time>
      </trkpt>
      <trkpt lat="45.78226" lon="6.09166">
        <ele>1625.9</ele>
        <time>2000-01-01T04:18:34.000Z</time>
      </trkpt>
      <trkpt lat="45.78222" lon="6.09163">
        <ele>1635</ele>
        <time>2000-01-01T04:18:44.000Z</time>
      </trkpt>
      <trkpt lat="45.78218" lon="6.0916">
        <ele>1624.5</ele>
        <time>2000-01-01T04:18:54.000Z</time>
      </trkpt>
      <trkpt lat="45.78215" lon="6.09158">
        <ele>1624.1</ele>
        <time>2000-01-01T04:19:04.000Z</time>
      </trkpt>
      <trkpt lat="45.78211" lon="6.09154">
        <ele>1623.4</ele>
        <time>2000-01-01T04:19:14.000Z</time>
      </trkpt>
      <trkpt lat="45.78206" lon="6.09151">
        <ele>1623.5</ele>
        <time>2000-01-01T04:19:24.000Z</time>
      </trkpt>
      <trkpt lat="45.78203" lon="6.09148">
        <ele>1635</ele>
        <time>2000-01-01T04:19:34.000Z</time>
      </trkpt>
      <trkpt lat="45.78199" lon="6.09145">
        <ele>1624.2</ele>
        <time>2000-01-01T04:19:44.000Z</time>
      </trkpt>
      <trkpt lat="45.78196" lon="6.09143">
        <ele>1624.8</ele>
        <time>2000-01-01T04:19:54.000Z</time>
      </trkpt>
      <trkpt lat="45.78193" lon="6.0914">
        <ele>1625.1</ele>
        <time>2000-01-01T04:20:04.000Z</time>
      </trkpt>
      <trkpt lat="45.78189" lon="6.09137">
        <ele>1624.1</ele>
        <time>2000-01-01T04:20:14.000Z</time>
      </trkpt>
      <trkpt lat="45.78186" lon="6.09135">
        <ele>1635</ele>
        <time>2000-01-01T04:20:24.000Z</time>
      </trkpt>
      <trkpt lat="45.78184" lon="6.09134">
        <ele>1623.1</ele>
        <time>2000-01-01T04:20:34.000Z</time>
      </trkpt>
      <trkpt lat="45.78181" lon="6.09132">
        <ele>1622.6</ele>
        <time>2000-01-01T04:20:44.000Z</time>
      </trkpt>
      <trkpt lat="45.78178" lon="6.0913">
        <ele>1622.3</ele>
        <time>2000-01-01T04:20:54.000Z</time>
      </trkpt>
      <trkpt lat="45.78173" lon="6.09129">
        <ele>1622.7</ele>
        <time>2000-01-01T04:21:04.000Z</time>
      </trkpt>
      <trkpt lat="45.7817" lon="6.09128">
        <ele>1622.9</ele>
        <time>2000-01-01T04:21:14.000Z</time>
      </trkpt>
      <trkpt lat="45.78168" lon="6.09124">
        <ele>1635</ele>
        <time>2000-01-01T04:21:24.000Z</time>
      </trkpt>
      <trkpt lat="45.78167" lon="6.09121">
        <ele>1622.3</ele>
        <time>2000-01-01T04:21:34.000Z</time>
      </trkpt>
      <trkpt lat="45.78164" lon="6.09119">
        <ele>1622.4</ele>
        <time>2000-01-01T04:21:44.000Z</time>
      </trkpt>
      <trkpt lat="45.78161" lon="6.09116">
        <ele>1622.3</ele>
        <time>2000-01-01T04:21:54.000Z</time>
      </trkpt>
      <trkpt lat="45.78158" lon="6.09113">
        <ele>1622.4</ele>
        <time>2000-01-01T04:22:04.000Z</time>
      </trkpt>
      <trkpt lat="45.78154" lon="6.0911">
        <ele>1622.3</ele>
        <time>2000-01-01T04:22:14.000Z</time>
      </trkpt>
      <trkpt lat="45.78151" lon="6.09107">
        <ele>1637</ele>
        <time>2000-01-01T04:22:24.000Z</time>
      </trkpt>
      <trkpt lat="45.78147" lon="6.09104">
        <ele>1621.3</ele>
        <time>2000-01-01T04:22:34.000Z</time>
      </trkpt>
      <trkpt lat="45.78145" lon="6.09102">
        <ele>1621.1</ele>
        <time>2000-01-01T04:22:44.000Z</time>
      </trkpt>
      <trkpt lat="45.78142" lon="6.09099">
        <ele>1621</ele>
        <time>2000-01-01T04:22:54.000Z</time>
      </trkpt>
      <trkpt lat="45.78139" lon="6.09096">
        <ele>1621.2</ele>
        <time>2000-01-01T04:23:04.000Z</time>
      </trkpt>
      <trkpt lat="45.78137" lon="6.09094">
        <ele>1620.8</ele>
        <time>2000-01-01T04:23:14.000Z</time>
      </trkpt>
      <trkpt lat="45.78134" lon="6.09091">
        <ele>1632</ele>
        <time>2000-01-01T04:23:24.000Z</time>
      </trkpt>
      <trkpt lat="45.78132" lon="6.09089">
        <ele>1620.1</ele>
        <time>2000-01-01T04:23:34.000Z</time>
      </trkpt>
      <trkpt lat="45.78129" lon="6.09086">
        <ele>1619.9</ele>
        <time>2000-01-01T04:23:44.000Z</time>
      </trkpt>
      <trkpt lat="45.78125" lon="6.09082">
        <ele>1619.4</ele>
        <time>2000-01-01T04:23:54.000Z</time>
      </trkpt>
      <trkpt lat="45.78113" lon="6.09071">
        <ele>1628</ele>
        <time>2000-01-01T04:24:04.000Z</time>
      </trkpt>
      <trkpt lat="45.78108" lon="6.09066">
        <ele>1617.9</ele>
        <time>2000-01-01T04:24:14.000Z</time>
      </trkpt>
      <trkpt lat="45.78102" lon="6.0906">
        <ele>1617.4</ele>
        <time>2000-01-01T04:24:24.000Z</time>
      </trkpt>
      <trkpt lat="45.78095" lon="6.09054">
        <ele>1616</ele>
        <time>2000-01-01T04:24:34.000Z</time>
      </trkpt>
      <trkpt lat="45.7809" lon="6.09048">
        <ele>1615.9</ele>
        <time>2000-01-01T04:24:44.000Z</time>
      </trkpt>
      <trkpt lat="45.78084" lon="6.09042">
        <ele>1615.8</ele>
        <time>2000-01-01T04:24:54.000Z</time>
      </trkpt>
      <trkpt lat="45.78079" lon="6.09037">
        <ele>1609</ele>
        <time>2000-01-01T04:25:04.000Z</time>
      </trkpt>
      <trkpt lat="45.78074" lon="6.09031">
        <ele>1614.3</ele>
        <time>2000-01-01T04:25:14.000Z</time>
      </trkpt>
      <trkpt lat="45.78067" lon="6.09023">
        <ele>1613.4</ele>
        <time>2000-01-01T04:25:24.000Z</time>
      </trkpt>
      <trkpt lat="45.7806" lon="6.09015">
        <ele>1609</ele>
        <time>2000-01-01T04:25:34.000Z</time>
      </trkpt>
      <trkpt lat="45.78056" lon="6.09011">
        <ele>1613.8</ele>
        <time>2000-01-01T04:25:44.000Z</time>
      </trkpt>
      <trkpt lat="45.78054" lon="6.09008">
        <ele>1613.5</ele>
        <time>2000-01-01T04:25:54.000Z</time>
      </trkpt>
      <trkpt lat="45.78052" lon="6.09007">
        <ele>1613.4</ele>
        <time>2000-01-01T04:26:04.000Z</time>
      </trkpt>
      <trkpt lat="45.78051" lon="6.09007">
        <ele>1613.4</ele>
        <time>2000-01-01T04:26:14.000Z</time>
      </trkpt>
      <trkpt lat="45.78049" lon="6.09007">
        <ele>1613.5</ele>
        <time>2000-01-01T04:26:24.000Z</time>
      </trkpt>
      <trkpt lat="45.78047" lon="6.09008">
        <ele>1613.7</ele>
        <time>2000-01-01T04:26:34.000Z</time>
      </trkpt>
      <trkpt lat="45.78046" lon="6.09008">
        <ele>1613.7</ele>
        <time>2000-01-01T04:26:44.000Z</time>
      </trkpt>
      <trkpt lat="45.78044" lon="6.09006">
        <ele>1613.6</ele>
        <time>2000-01-01T04:26:54.000Z</time>
      </trkpt>
      <trkpt lat="45.78044" lon="6.09004">
        <ele>1602</ele>
        <time>2000-01-01T04:27:04.000Z</time>
      </trkpt>
      <trkpt lat="45.78044" lon="6.09003">
        <ele>1613.2</ele>
        <time>2000-01-01T04:27:14.000Z</time>
      </trkpt>
      <trkpt lat="45.78045" lon="6.09002">
        <ele>1613</ele>
        <time>2000-01-01T04:27:24.000Z</time>
      </trkpt>
      <trkpt lat="45.78045" lon="6.09">
        <ele>1612.8</ele>
        <time>2000-01-01T04:27:34.000Z</time>
      </trkpt>
      <trkpt lat="45.78044" lon="6.08998">
        <ele>1612</ele>
        <time>2000-01-01T04:27:44.000Z</time>
      </trkpt>
      <trkpt lat="45.78043" lon="6.08997">
        <ele>1611.7</ele>
        <time>2000-01-01T04:27:54.000Z</time>
      </trkpt>
      <trkpt lat="45.78042" lon="6.08995">
        <ele>1611</ele>
        <time>2000-01-01T04:28:04.000Z</time>
      </trkpt>
      <trkpt lat="45.78041" lon="6.08994">
        <ele>1610.7</ele>
        <time>2000-01-01T04:28:14.000Z</time>
      </trkpt>
      <trkpt lat="45.78037" lon="6.08992">
        <ele>1610.4</ele>
        <time>2000-01-01T04:28:24.000Z</time>
      </trkpt>
      <trkpt lat="45.78035" lon="6.08991">
        <ele>1610.2</ele>
        <time>2000-01-01T04:28:34.000Z</time>
      </trkpt>
      <trkpt lat="45.78032" lon="6.08989">
        <ele>1609.9</ele>
        <time>2000-01-01T04:28:44.000Z</time>
      </trkpt>
      <trkpt lat="45.78028" lon="6.08987">
        <ele>1601</ele>
        <time>2000-01-01T04:28:54.000Z</time>
      </trkpt>
      <trkpt lat="45.78024" lon="6.08985">
        <ele>1609.4</ele>
        <time>2000-01-01T04:29:04.000Z</time>
      </trkpt>
      <trkpt lat="45.78018" lon="6.08981">
        <ele>1608.7</ele>
        <time>2000-01-01T04:29:14.000Z</time>
      </trkpt>
      <trkpt lat="45.7801" lon="6.08976">
        <ele>1601</ele>
        <time>2000-01-01T04:29:24.000Z</time>
      </trkpt>
      <trkpt lat="45.78006" lon="6.08974">
        <ele>1608.5</ele>
        <time>2000-01-01T04:29:34.000Z</time>
      </trkpt>
      <trkpt lat="45.78001" lon="6.0897">
        <ele>1607.7</ele>
        <time>2000-01-01T04:29:44.000Z</time>
      </trkpt>
      <trkpt lat="45.77997" lon="6.08969">
        <ele>1607.5</ele>
        <time>2000-01-01T04:29:54.000Z</time>
      </trkpt>
      <trkpt lat="45.77995" lon="6.08967">
        <ele>1606.7</ele>
        <time>2000-01-01T04:30:04.000Z</time>
      </trkpt>
      <trkpt lat="45.7799" lon="6.08962">
        <ele>1601</ele>
        <time>2000-01-01T04:30:14.000Z</time>
      </trkpt>
      <trkpt lat="45.77989" lon="6.08961">
        <ele>1604.8</ele>
        <time>2000-01-01T04:30:24.000Z</time>
      </trkpt>
      <trkpt lat="45.77987" lon="6.0896">
        <ele>1604.7</ele>
        <time>2000-01-01T04:30:34.000Z</time>
      </trkpt>
      <trkpt lat="45.77985" lon="6.08958">
        <ele>1604.3</ele>
        <time>2000-01-01T04:30:44.000Z</time>
      </trkpt>
      <trkpt lat="45.77982" lon="6.08956">
        <ele>1604.2</ele>
        <time>2000-01-01T04:30:54.000Z</time>
      </trkpt>
      <trkpt lat="45.7798" lon="6.08953">
        <ele>1603.8</ele>
        <time>2000-01-01T04:31:04.000Z</time>
      </trkpt>
      <trkpt lat="45.77978" lon="6.08951">
        <ele>1603.7</ele>
        <time>2000-01-01T04:31:14.000Z</time>
      </trkpt>
      <trkpt lat="45.77976" lon="6.08948">
        <ele>1603.6</ele>
        <time>2000-01-01T04:31:24.000Z</time>
      </trkpt>
      <trkpt lat="45.77974" lon="6.08946">
        <ele>1598</ele>
        <time>2000-01-01T04:31:34.000Z</time>
      </trkpt>
      <trkpt lat="45.77973" lon="6.08944">
        <ele>1603.6</ele>
        <time>2000-01-01T04:31:44.000Z</time>
      </trkpt>
      <trkpt lat="45.77971" lon="6.08941">
        <ele>1602.8</ele>
        <time>2000-01-01T04:31:54.000Z</time>
      </trkpt>
      <trkpt lat="45.77969" lon="6.08938">
        <ele>1601.9</ele>
        <time>2000-01-01T04:32:04.000Z</time>
      </trkpt>
      <trkpt lat="45.77967" lon="6.08935">
        <ele>1601.1</ele>
        <time>2000-01-01T04:32:14.000Z</time>
      </trkpt>
      <trkpt lat="45.77965" lon="6.08933">
        <ele>1600.7</ele>
        <time>2000-01-01T04:32:24.000Z</time>
      </trkpt>
      <trkpt lat="45.77963" lon="6.08929">
        <ele>1599.8</ele>
        <time>2000-01-01T04:32:34.000Z</time>
      </trkpt>
      <trkpt lat="45.77962" lon="6.08927">
        <ele>1599.4</ele>
        <time>2000-01-01T04:32:44.000Z</time>
      </trkpt>
      <trkpt lat="45.7796" lon="6.08925">
        <ele>1588</ele>
        <time>2000-01-01T04:32:54.000Z</time>
      </trkpt>
      <trkpt lat="45.77959" lon="6.08923">
        <ele>1599</ele>
        <time>2000-01-01T04:33:04.000Z</time>
      </trkpt>
      <trkpt lat="45.77958" lon="6.08921">
        <ele>1598.8</ele>
        <time>2000-01-01T04:33:14.000Z</time>
      </trkpt>
      <trkpt lat="45.77956" lon="6.0892">
        <ele>1599.1</ele>
        <time>2000-01-01T04:33:24.000Z</time>
      </trkpt>
      <trkpt lat="45.77954" lon="6.08918">
        <ele>1599.2</ele>
        <time>2000-01-01T04:33:34.000Z</time>
      </trkpt>
      <trkpt lat="45.77952" lon="6.08916">
        <ele>1599.3</ele>
        <time>2000-01-01T04:33:44.000Z</time>
      </trkpt>
      <trkpt lat="45.77951" lon="6.08914">
        <ele>1599</ele>
        <time>2000-01-01T04:33:54.000Z</time>
      </trkpt>
      <trkpt lat="45.7795" lon="6.08912">
        <ele>1598.7</ele>
        <time>2000-01-01T04:34:04.000Z</time>
      </trkpt>
      <trkpt lat="45.77948" lon="6.08909">
        <ele>1598.6</ele>
        <time>2000-01-01T04:34:14.000Z</time>
      </trkpt>
      <trkpt lat="45.77947" lon="6.08906">
        <ele>1591</ele>
        <time>2000-01-01T04:34:24.000Z</time>
      </trkpt>
      <trkpt lat="45.77945" lon="6.08903">
        <ele>1598.3</ele>
        <time>2000-01-01T04:34:34.000Z</time>
      </trkpt>
      <trkpt lat="45.77944" lon="6.08901">
        <ele>1598.1</ele>
        <time>2000-01-01T04:34:44.000Z</time>
      </trkpt>
      <trkpt lat="45.77943" lon="6.08898">
        <ele>1597.4</ele>
        <time>2000-01-01T04:34:54.000Z</time>
      </trkpt>
      <trkpt lat="45.77941" lon="6.08894">
        <ele>1596.7</ele>
        <time>2000-01-01T04:35:04.000Z</time>
      </trkpt>
      <trkpt lat="45.7794" lon="6.08892">
        <ele>1596.3</ele>
        <time>2000-01-01T04:35:14.000Z</time>
      </trkpt>
      <trkpt lat="45.77939" lon="6.08889">
        <ele>1595.8</ele>
        <time>2000-01-01T04:35:24.000Z</time>
      </trkpt>
      <trkpt lat="45.77937" lon="6.08885">
        <ele>1594.6</ele>
        <time>2000-01-01T04:35:34.000Z</time>
      </trkpt>
      <trkpt lat="45.77936" lon="6.08884">
        <ele>1587</ele>
        <time>2000-01-01T04:35:44.000Z</time>
      </trkpt>
      <trkpt lat="45.77934" lon="6.0888">
        <ele>1593.4</ele>
        <time>2000-01-01T04:35:54.000Z</time>
      </trkpt>
      <trkpt lat="45.77931" lon="6.08877">
        <ele>1593</ele>
        <time>2000-01-01T04:36:04.000Z</time>
      </trkpt>
      <trkpt lat="45.77929" lon="6.08874">
        <ele>1592.6</ele>
        <time>2000-01-01T04:36:14.000Z</time>
      </trkpt>
      <trkpt lat="45.77926" lon="6.0887">
        <ele>1592.2</ele>
        <time>2000-01-01T04:36:24.000Z</time>
      </trkpt>
      <trkpt lat="45.77923" lon="6.08867">
        <ele>1592.3</ele>
        <time>2000-01-01T04:36:34.000Z</time>
      </trkpt>
      <trkpt lat="45.77922" lon="6.08865">
        <ele>1586</ele>
        <time>2000-01-01T04:36:44.000Z</time>
      </trkpt>
      <trkpt lat="45.77919" lon="6.08863">
        <ele>1592.6</ele>
        <time>2000-01-01T04:36:54.000Z</time>
      </trkpt>
      <trkpt lat="45.77917" lon="6.0886">
        <ele>1592.4</ele>
        <time>2000-01-01T04:37:04.000Z</time>
      </trkpt>
      <trkpt lat="45.77914" lon="6.08858">
        <ele>1591.8</ele>
        <time>2000-01-01T04:37:14.000Z</time>
      </trkpt>
      <trkpt lat="45.77911" lon="6.08855">
        <ele>1590.9</ele>
        <time>2000-01-01T04:37:24.000Z</time>
      </trkpt>
      <trkpt lat="45.77909" lon="6.08852">
        <ele>1590</ele>
        <time>2000-01-01T04:37:34.000Z</time>
      </trkpt>
      <trkpt lat="45.77906" lon="6.08849">
        <ele>1585</ele>
        <time>2000-01-01T04:37:44.000Z</time>
      </trkpt>
      <trkpt lat="45.77903" lon="6.08847">
        <ele>1589.1</ele>
        <time>2000-01-01T04:37:54.000Z</time>
      </trkpt>
      <trkpt lat="45.77901" lon="6.08844">
        <ele>1588.6</ele>
        <time>2000-01-01T04:38:04.000Z</time>
      </trkpt>
      <trkpt lat="45.77899" lon="6.08842">
        <ele>1588.4</ele>
        <time>2000-01-01T04:38:14.000Z</time>
      </trkpt>
      <trkpt lat="45.77897" lon="6.0884">
        <ele>1588.4</ele>
        <time>2000-01-01T04:38:24.000Z</time>
      </trkpt>
      <trkpt lat="45.77893" lon="6.08835">
        <ele>1588.2</ele>
        <time>2000-01-01T04:38:34.000Z</time>
      </trkpt>
      <trkpt lat="45.77885" lon="6.08826">
        <ele>1585</ele>
        <time>2000-01-01T04:38:44.000Z</time>
      </trkpt>
      <trkpt lat="45.77876" lon="6.08816">
        <ele>1583.8</ele>
        <time>2000-01-01T04:38:54.000Z</time>
      </trkpt>
      <trkpt lat="45.77868" lon="6.08807">
        <ele>1586</ele>
        <time>2000-01-01T04:39:04.000Z</time>
      </trkpt>
      <trkpt lat="45.77861" lon="6.08798">
        <ele>1582.3</ele>
        <time>2000-01-01T04:39:14.000Z</time>
      </trkpt>
      <trkpt lat="45.77853" lon="6.0879">
        <ele>1580.1</ele>
        <time>2000-01-01T04:39:24.000Z</time>
      </trkpt>
      <trkpt lat="45.7785" lon="6.08787">
        <ele>1588</ele>
        <time>2000-01-01T04:39:34.000Z</time>
      </trkpt>
      <trkpt lat="45.77847" lon="6.08784">
        <ele>1579.4</ele>
        <time>2000-01-01T04:39:44.000Z</time>
      </trkpt>
      <trkpt lat="45.77844" lon="6.08781">
        <ele>1579.3</ele>
        <time>2000-01-01T04:39:54.000Z</time>
      </trkpt>
      <trkpt lat="45.77842" lon="6.08779">
        <ele>1579.3</ele>
        <time>2000-01-01T04:40:04.000Z</time>
      </trkpt>
      <trkpt lat="45.77839" lon="6.08776">
        <ele>1579.1</ele>
        <time>2000-01-01T04:40:14.000Z</time>
      </trkpt>
      <trkpt lat="45.77837" lon="6.08774">
        <ele>1578.9</ele>
        <time>2000-01-01T04:40:24.000Z</time>
      </trkpt>
      <trkpt lat="45.77834" lon="6.08771">
        <ele>1588</ele>
        <time>2000-01-01T04:40:34.000Z</time>
      </trkpt>
      <trkpt lat="45.77833" lon="6.0877">
        <ele>1578.5</ele>
        <time>2000-01-01T04:40:44.000Z</time>
      </trkpt>
      <trkpt lat="45.77831" lon="6.08767">
        <ele>1577.5</ele>
        <time>2000-01-01T04:40:54.000Z</time>
      </trkpt>
      <trkpt lat="45.77829" lon="6.08765">
        <ele>1577</ele>
        <time>2000-01-01T04:41:04.000Z</time>
      </trkpt>
      <trkpt lat="45.77827" lon="6.08764">
        <ele>1576.8</ele>
        <time>2000-01-01T04:41:14.000Z</time>
      </trkpt>
      <trkpt lat="45.77825" lon="6.08764">
        <ele>1576.8</ele>
        <time>2000-01-01T04:41:24.000Z</time>
      </trkpt>
      <trkpt lat="45.77823" lon="6.08763">
        <ele>1576.7</ele>
        <time>2000-01-01T04:41:34.000Z</time>
      </trkpt>
      <trkpt lat="45.77821" lon="6.08763">
        <ele>1576.8</ele>
        <time>2000-01-01T04:41:44.000Z</time>
      </trkpt>
      <trkpt lat="45.77819" lon="6.08763">
        <ele>1576.9</ele>
        <time>2000-01-01T04:41:54.000Z</time>
      </trkpt>
      <trkpt lat="45.77818" lon="6.08764">
        <ele>1577.1</ele>
        <time>2000-01-01T04:42:04.000Z</time>
      </trkpt>
      <trkpt lat="45.77816" lon="6.08765">
        <ele>1582</ele>
        <time>2000-01-01T04:42:14.000Z</time>
      </trkpt>
      <trkpt lat="45.77814" lon="6.08765">
        <ele>1577.3</ele>
        <time>2000-01-01T04:42:24.000Z</time>
      </trkpt>
      <trkpt lat="45.77813" lon="6.08765">
        <ele>1577.4</ele>
        <time>2000-01-01T04:42:34.000Z</time>
      </trkpt>
      <trkpt lat="45.7781" lon="6.08765">
        <ele>1577.4</ele>
        <time>2000-01-01T04:42:44.000Z</time>
      </trkpt>
      <trkpt lat="45.77808" lon="6.08766">
        <ele>1577.5</ele>
        <time>2000-01-01T04:42:54.000Z</time>
      </trkpt>
      <trkpt lat="45.77805" lon="6.08766">
        <ele>1577.5</ele>
        <time>2000-01-01T04:43:04.000Z</time>
      </trkpt>
      <trkpt lat="45.77803" lon="6.08767">
        <ele>1577.2</ele>
        <time>2000-01-01T04:43:14.000Z</time>
      </trkpt>
      <trkpt lat="45.77801" lon="6.08768">
        <ele>1576.9</ele>
        <time>2000-01-01T04:43:24.000Z</time>
      </trkpt>
      <trkpt lat="45.77799" lon="6.0877">
        <ele>1576.7</ele>
        <time>2000-01-01T04:43:34.000Z</time>
      </trkpt>
      <trkpt lat="45.77798" lon="6.08771">
        <ele>1582</ele>
        <time>2000-01-01T04:43:44.000Z</time>
      </trkpt>
      <trkpt lat="45.77796" lon="6.08773">
        <ele>1576.2</ele>
        <time>2000-01-01T04:43:54.000Z</time>
      </trkpt>
      <trkpt lat="45.77793" lon="6.08776">
        <ele>1575.7</ele>
        <time>2000-01-01T04:44:04.000Z</time>
      </trkpt>
      <trkpt lat="45.77791" lon="6.08779">
        <ele>1575.4</ele>
        <time>2000-01-01T04:44:14.000Z</time>
      </trkpt>
      <trkpt lat="45.7779" lon="6.08782">
        <ele>1575.2</ele>
        <time>2000-01-01T04:44:24.000Z</time>
      </trkpt>
      <trkpt lat="45.77789" lon="6.08785">
        <ele>1575</ele>
        <time>2000-01-01T04:44:34.000Z</time>
      </trkpt>
      <trkpt lat="45.77784" lon="6.08795">
        <ele>1582</ele>
        <time>2000-01-01T04:44:44.000Z</time>
      </trkpt>
      <trkpt lat="45.77777" lon="6.08814">
        <ele>1572.8</ele>
        <time>2000-01-01T04:44:54.000Z</time>
      </trkpt>
      <trkpt lat="45.7777" lon="6.08832">
        <ele>1581</ele>
        <time>2000-01-01T04:45:04.000Z</time>
      </trkpt>
      <trkpt lat="45.77769" lon="6.08836">
        <ele>1571.3</ele>
        <time>2000-01-01T04:45:14.000Z</time>
      </trkpt>
      <trkpt lat="45.77767" lon="6.08842">
        <ele>1571.2</ele>
        <time>2000-01-01T04:45:24.000Z</time>
      </trkpt>
      <trkpt lat="45.77766" lon="6.08845">
        <ele>1571.1</ele>
        <time>2000-01-01T04:45:34.000Z</time>
      </trkpt>
      <trkpt lat="45.77764" lon="6.08849">
        <ele>1570.9</ele>
        <time>2000-01-01T04:45:44.000Z</time>
      </trkpt>
      <trkpt lat="45.77764" lon="6.08853">
        <ele>1571.1</ele>
        <time>2000-01-01T04:45:54.000Z</time>
      </trkpt>
      <trkpt lat="45.77763" lon="6.08856">
        <ele>1571</ele>
        <time>2000-01-01T04:46:04.000Z</time>
      </trkpt>
      <trkpt lat="45.77761" lon="6.08862">
        <ele>1575</ele>
        <time>2000-01-01T04:46:14.000Z</time>
      </trkpt>
      <trkpt lat="45.7776" lon="6.08865">
        <ele>1570.6</ele>
        <time>2000-01-01T04:46:24.000Z</time>
      </trkpt>
      <trkpt lat="45.7776" lon="6.08869">
        <ele>1570.6</ele>
        <time>2000-01-01T04:46:34.000Z</time>
      </trkpt>
      <trkpt lat="45.77759" lon="6.08873">
        <ele>1570.4</ele>
        <time>2000-01-01T04:46:44.000Z</time>
      </trkpt>
      <trkpt lat="45.77759" lon="6.08878">
        <ele>1570.5</ele>
        <time>2000-01-01T04:46:54.000Z</time>
      </trkpt>
      <trkpt lat="45.77759" lon="6.08882">
        <ele>1570.5</ele>
        <time>2000-01-01T04:47:04.000Z</time>
      </trkpt>
      <trkpt lat="45.77758" lon="6.08886">
        <ele>1570.3</ele>
        <time>2000-01-01T04:47:14.000Z</time>
      </trkpt>
      <trkpt lat="45.77757" lon="6.0889">
        <ele>1574</ele>
        <time>2000-01-01T04:47:24.000Z</time>
      </trkpt>
      <trkpt lat="45.77757" lon="6.08893">
        <ele>1570</ele>
        <time>2000-01-01T04:47:34.000Z</time>
      </trkpt>
      <trkpt lat="45.77756" lon="6.08896">
        <ele>1569.7</ele>
        <time>2000-01-01T04:47:44.000Z</time>
      </trkpt>
      <trkpt lat="45.77756" lon="6.089">
        <ele>1569.6</ele>
        <time>2000-01-01T04:47:54.000Z</time>
      </trkpt>
      <trkpt lat="45.77755" lon="6.08903">
        <ele>1569.3</ele>
        <time>2000-01-01T04:48:04.000Z</time>
      </trkpt>
      <trkpt lat="45.77753" lon="6.08906">
        <ele>1568.8</ele>
        <time>2000-01-01T04:48:14.000Z</time>
      </trkpt>
      <trkpt lat="45.77752" lon="6.08909">
        <ele>1568.5</ele>
        <time>2000-01-01T04:48:24.000Z</time>
      </trkpt>
      <trkpt lat="45.7775" lon="6.08911">
        <ele>1568</ele>
        <time>2000-01-01T04:48:34.000Z</time>
      </trkpt>
      <trkpt lat="45.77749" lon="6.08915">
        <ele>1573</ele>
        <time>2000-01-01T04:48:44.000Z</time>
      </trkpt>
      <trkpt lat="45.77747" lon="6.08917">
        <ele>1567.8</ele>
        <time>2000-01-01T04:48:54.000Z</time>
      </trkpt>
      <trkpt lat="45.77746" lon="6.08919">
        <ele>1567.8</ele>
        <time>2000-01-01T04:49:04.000Z</time>
      </trkpt>
      <trkpt lat="45.77744" lon="6.08921">
        <ele>1567.7</ele>
        <time>2000-01-01T04:49:14.000Z</time>
      </trkpt>
      <trkpt lat="45.77742" lon="6.08924">
        <ele>1567.7</ele>
        <time>2000-01-01T04:49:24.000Z</time>
      </trkpt>
      <trkpt lat="45.7774" lon="6.08925">
        <ele>1567.7</ele>
        <time>2000-01-01T04:49:34.000Z</time>
      </trkpt>
      <trkpt lat="45.77738" lon="6.08925">
        <ele>1567.7</ele>
        <time>2000-01-01T04:49:44.000Z</time>
      </trkpt>
      <trkpt lat="45.77736" lon="6.08925">
        <ele>1567.6</ele>
        <time>2000-01-01T04:49:54.000Z</time>
      </trkpt>
      <trkpt lat="45.77735" lon="6.08926">
        <ele>1567.6</ele>
        <time>2000-01-01T04:50:04.000Z</time>
      </trkpt>
      <trkpt lat="45.77733" lon="6.08925">
        <ele>1567.5</ele>
        <time>2000-01-01T04:50:14.000Z</time>
      </trkpt>
      <trkpt lat="45.77731" lon="6.08926">
        <ele>1573</ele>
        <time>2000-01-01T04:50:24.000Z</time>
      </trkpt>
      <trkpt lat="45.77728" lon="6.08921">
        <ele>1566.9</ele>
        <time>2000-01-01T04:50:34.000Z</time>
      </trkpt>
      <trkpt lat="45.77725" lon="6.08914">
        <ele>1565.9</ele>
        <time>2000-01-01T04:50:44.000Z</time>
      </trkpt>
      <trkpt lat="45.77721" lon="6.08904">
        <ele>1564.9</ele>
        <time>2000-01-01T04:50:54.000Z</time>
      </trkpt>
      <trkpt lat="45.77714" lon="6.08884">
        <ele>1571</ele>
        <time>2000-01-01T04:51:04.000Z</time>
      </trkpt>
      <trkpt lat="45.77712" lon="6.08878">
        <ele>1563.6</ele>
        <time>2000-01-01T04:51:14.000Z</time>
      </trkpt>
      <trkpt lat="45.7771" lon="6.08874">
        <ele>1563.4</ele>
        <time>2000-01-01T04:51:24.000Z</time>
      </trkpt>
      <trkpt lat="45.77708" lon="6.08869">
        <ele>1563</ele>
        <time>2000-01-01T04:51:34.000Z</time>
      </trkpt>
      <trkpt lat="45.77703" lon="6.08859">
        <ele>1564</ele>
        <time>2000-01-01T04:51:44.000Z</time>
      </trkpt>
      <trkpt lat="45.777" lon="6.08855">
        <ele>1561.8</ele>
        <time>2000-01-01T04:51:54.000Z</time>
      </trkpt>
      <trkpt lat="45.77696" lon="6.0885">
        <ele>1561.3</ele>
        <time>2000-01-01T04:52:04.000Z</time>
      </trkpt>
      <trkpt lat="45.77692" lon="6.08845">
        <ele>1560.6</ele>
        <time>2000-01-01T04:52:14.000Z</time>
      </trkpt>
      <trkpt lat="45.77686" lon="6.0884">
        <ele>1562</ele>
        <time>2000-01-01T04:52:24.000Z</time>
      </trkpt>
      <trkpt lat="45.77678" lon="6.08835">
        <ele>1558.7</ele>
        <time>2000-01-01T04:52:34.000Z</time>
      </trkpt>
      <trkpt lat="45.77669" lon="6.0883">
        <ele>1557.6</ele>
        <time>2000-01-01T04:52:44.000Z</time>
      </trkpt>
      <trkpt lat="45.77656" lon="6.08823">
        <ele>1559</ele>
        <time>2000-01-01T04:52:54.000Z</time>
      </trkpt>
      <trkpt lat="45.77655" lon="6.08822">
        <ele>1555.5</ele>
        <time>2000-01-01T04:53:04.000Z</time>
      </trkpt>
      <trkpt lat="45.77643" lon="6.08818">
        <ele>1554.1</ele>
        <time>2000-01-01T04:53:14.000Z</time>
      </trkpt>
      <trkpt lat="45.77619" lon="6.08809">
        <ele>1549</ele>
        <time>2000-01-01T04:53:24.000Z</time>
      </trkpt>
      <trkpt lat="45.776" lon="6.08804">
        <ele>1549</ele>
        <time>2000-01-01T04:53:34.000Z</time>
      </trkpt>
      <trkpt lat="45.77593" lon="6.08803">
        <ele>1549.3</ele>
        <time>2000-01-01T04:53:44.000Z</time>
      </trkpt>
      <trkpt lat="45.77592" lon="6.08807">
        <ele>1549.9</ele>
        <time>2000-01-01T04:53:54.000Z</time>
      </trkpt>
      <trkpt lat="45.77591" lon="6.08809">
        <ele>1550.1</ele>
        <time>2000-01-01T04:54:04.000Z</time>
      </trkpt>
      <trkpt lat="45.77589" lon="6.08812">
        <ele>1550.5</ele>
        <time>2000-01-01T04:54:14.000Z</time>
      </trkpt>
      <trkpt lat="45.77588" lon="6.08813">
        <ele>1550.6</ele>
        <time>2000-01-01T04:54:24.000Z</time>
      </trkpt>
      <trkpt lat="45.77587" lon="6.08815">
        <ele>1550.9</ele>
        <time>2000-01-01T04:54:34.000Z</time>
      </trkpt>
      <trkpt lat="45.77585" lon="6.08817">
        <ele>1546</ele>
        <time>2000-01-01T04:54:44.000Z</time>
      </trkpt>
      <trkpt lat="45.77584" lon="6.08817">
        <ele>1551.1</ele>
        <time>2000-01-01T04:54:54.000Z</time>
      </trkpt>
      <trkpt lat="45.77583" lon="6.08818">
        <ele>1551.2</ele>
        <time>2000-01-01T04:55:04.000Z</time>
      </trkpt>
      <trkpt lat="45.77581" lon="6.08819">
        <ele>1551</ele>
        <time>2000-01-01T04:55:14.000Z</time>
      </trkpt>
      <trkpt lat="45.77579" lon="6.0882">
        <ele>1550.7</ele>
        <time>2000-01-01T04:55:24.000Z</time>
      </trkpt>
      <trkpt lat="45.77578" lon="6.08821">
        <ele>1550.7</ele>
        <time>2000-01-01T04:55:34.000Z</time>
      </trkpt>
      <trkpt lat="45.77576" lon="6.08822">
        <ele>1550.5</ele>
        <time>2000-01-01T04:55:44.000Z</time>
      </trkpt>
      <trkpt lat="45.77574" lon="6.08823">
        <ele>1550.2</ele>
        <time>2000-01-01T04:55:54.000Z</time>
      </trkpt>
      <trkpt lat="45.77573" lon="6.08825">
        <ele>1550.4</ele>
        <time>2000-01-01T04:56:04.000Z</time>
      </trkpt>
      <trkpt lat="45.77566" lon="6.08825">
        <ele>1544</ele>
        <time>2000-01-01T04:56:14.000Z</time>
      </trkpt>
      <trkpt lat="45.77565" lon="6.08826">
        <ele>1548.9</ele>
        <time>2000-01-01T04:56:24.000Z</time>
      </trkpt>
      <trkpt lat="45.77563" lon="6.08827">
        <ele>1548.6</ele>
        <time>2000-01-01T04:56:34.000Z</time>
      </trkpt>
      <trkpt lat="45.77555" lon="6.08833">
        <ele>1547.7</ele>
        <time>2000-01-01T04:56:44.000Z</time>
      </trkpt>
      <trkpt lat="45.77548" lon="6.08844">
        <ele>1545</ele>
        <time>2000-01-01T04:56:54.000Z</time>
      </trkpt>
      <trkpt lat="45.77544" lon="6.0885">
        <ele>1545.3</ele>
        <time>2000-01-01T04:57:04.000Z</time>
      </trkpt>
      <trkpt lat="45.77539" lon="6.08858">
        <ele>1544.2</ele>
        <time>2000-01-01T04:57:14.000Z</time>
      </trkpt>
      <trkpt lat="45.77537" lon="6.08861">
        <ele>1543.6</ele>
        <time>2000-01-01T04:57:24.000Z</time>
      </trkpt>
      <trkpt lat="45.77535" lon="6.08865">
        <ele>1547</ele>
        <time>2000-01-01T04:57:34.000Z</time>
      </trkpt>
      <trkpt lat="45.77533" lon="6.08867">
        <ele>1542.7</ele>
        <time>2000-01-01T04:57:44.000Z</time>
      </trkpt>
      <trkpt lat="45.77531" lon="6.08871">
        <ele>1542.4</ele>
        <time>2000-01-01T04:57:54.000Z</time>
      </trkpt>
      <trkpt lat="45.7753" lon="6.08873">
        <ele>1542.3</ele>
        <time>2000-01-01T04:58:04.000Z</time>
      </trkpt>
      <trkpt lat="45.77528" lon="6.08877">
        <ele>1542</ele>
        <time>2000-01-01T04:58:14.000Z</time>
      </trkpt>
      <trkpt lat="45.77527" lon="6.08879">
        <ele>1542.3</ele>
        <time>2000-01-01T04:58:24.000Z</time>
      </trkpt>
      <trkpt lat="45.77526" lon="6.08881">
        <ele>1542.8</ele>
        <time>2000-01-01T04:58:34.000Z</time>
      </trkpt>
      <trkpt lat="45.77524" lon="6.08883">
        <ele>1543.5</ele>
        <time>2000-01-01T04:58:44.000Z</time>
      </trkpt>
      <trkpt lat="45.77522" lon="6.08885">
        <ele>1546</ele>
        <time>2000-01-01T04:58:54.000Z</time>
      </trkpt>
      <trkpt lat="45.77521" lon="6.08885">
        <ele>1544.2</ele>
        <time>2000-01-01T04:59:04.000Z</time>
      </trkpt>
      <trkpt lat="45.77514" lon="6.08882">
        <ele>1544.6</ele>
        <time>2000-01-01T04:59:14.000Z</time>
      </trkpt>
      <trkpt lat="45.77512" lon="6.08879">
        <ele>1544.3</ele>
        <time>2000-01-01T04:59:24.000Z</time>
      </trkpt>
      <trkpt lat="45.77511" lon="6.08877">
        <ele>1544</ele>
        <time>2000-01-01T04:59:34.000Z</time>
      </trkpt>
      <trkpt lat="45.77509" lon="6.08874">
        <ele>1543.7</ele>
        <time>2000-01-01T04:59:44.000Z</time>
      </trkpt>
      <trkpt lat="45.77508" lon="6.08872">
        <ele>1543.4</ele>
        <time>2000-01-01T04:59:54.000Z</time>
      </trkpt>
      <trkpt lat="45.77506" lon="6.08869">
        <ele>1546</ele>
        <time>2000-01-01T05:00:04.000Z</time>
      </trkpt>
      <trkpt lat="45.77505" lon="6.08869">
        <ele>1543.1</ele>
        <time>2000-01-01T05:00:14.000Z</time>
      </trkpt>
      <trkpt lat="45.77503" lon="6.08868">
        <ele>1543.1</ele>
        <time>2000-01-01T05:00:24.000Z</time>
      </trkpt>
      <trkpt lat="45.77501" lon="6.08867">
        <ele>1543.2</ele>
        <time>2000-01-01T05:00:34.000Z</time>
      </trkpt>
      <trkpt lat="45.77499" lon="6.08865">
        <ele>1543.2</ele>
        <time>2000-01-01T05:00:44.000Z</time>
      </trkpt>
      <trkpt lat="45.77496" lon="6.08863">
        <ele>1543.9</ele>
        <time>2000-01-01T05:00:54.000Z</time>
      </trkpt>
      <trkpt lat="45.77495" lon="6.08861">
        <ele>1543.8</ele>
        <time>2000-01-01T05:01:04.000Z</time>
      </trkpt>
      <trkpt lat="45.77493" lon="6.08859">
        <ele>1544</ele>
        <time>2000-01-01T05:01:14.000Z</time>
      </trkpt>
      <trkpt lat="45.77491" lon="6.08856">
        <ele>1544.1</ele>
        <time>2000-01-01T05:01:24.000Z</time>
      </trkpt>
      <trkpt lat="45.7749" lon="6.08854">
        <ele>1546</ele>
        <time>2000-01-01T05:01:34.000Z</time>
      </trkpt>
      <trkpt lat="45.77488" lon="6.08851">
        <ele>1544</ele>
        <time>2000-01-01T05:01:44.000Z</time>
      </trkpt>
      <trkpt lat="45.77486" lon="6.08849">
        <ele>1544.2</ele>
        <time>2000-01-01T05:01:54.000Z</time>
      </trkpt>
      <trkpt lat="45.77484" lon="6.08847">
        <ele>1544.4</ele>
        <time>2000-01-01T05:02:04.000Z</time>
      </trkpt>
      <trkpt lat="45.77482" lon="6.08846">
        <ele>1544.9</ele>
        <time>2000-01-01T05:02:14.000Z</time>
      </trkpt>
      <trkpt lat="45.77478" lon="6.08843">
        <ele>1545.5</ele>
        <time>2000-01-01T05:02:24.000Z</time>
      </trkpt>
      <trkpt lat="45.77474" lon="6.0884">
        <ele>1550</ele>
        <time>2000-01-01T05:02:34.000Z</time>
      </trkpt>
      <trkpt lat="45.77472" lon="6.08838">
        <ele>1546.3</ele>
        <time>2000-01-01T05:02:44.000Z</time>
      </trkpt>
      <trkpt lat="45.77467" lon="6.08832">
        <ele>1546.7</ele>
        <time>2000-01-01T05:02:54.000Z</time>
      </trkpt>
      <trkpt lat="45.77465" lon="6.0883">
        <ele>1546.9</ele>
        <time>2000-01-01T05:03:04.000Z</time>
      </trkpt>
      <trkpt lat="45.77462" lon="6.08827">
        <ele>1547.1</ele>
        <time>2000-01-01T05:03:14.000Z</time>
      </trkpt>
      <trkpt lat="45.7746" lon="6.08825">
        <ele>1547.3</ele>
        <time>2000-01-01T05:03:24.000Z</time>
      </trkpt>
      <trkpt lat="45.77457" lon="6.08823">
        <ele>1554</ele>
        <time>2000-01-01T05:03:34.000Z</time>
      </trkpt>
      <trkpt lat="45.77448" lon="6.08817">
        <ele>1549.4</ele>
        <time>2000-01-01T05:03:44.000Z</time>
      </trkpt>
      <trkpt lat="45.77441" lon="6.08811">
        <ele>1550</ele>
        <time>2000-01-01T05:03:54.000Z</time>
      </trkpt>
      <trkpt lat="45.77433" lon="6.08804">
        <ele>1549</ele>
        <time>2000-01-01T05:04:04.000Z</time>
      </trkpt>
      <trkpt lat="45.77423" lon="6.08797">
        <ele>1552.3</ele>
        <time>2000-01-01T05:04:14.000Z</time>
      </trkpt>
      <trkpt lat="45.77423" lon="6.08796">
        <ele>1552</ele>
        <time>2000-01-01T05:04:24.000Z</time>
      </trkpt>
      <trkpt lat="45.77419" lon="6.08791">
        <ele>1552</ele>
        <time>2000-01-01T05:04:34.000Z</time>
      </trkpt>
      <trkpt lat="45.77417" lon="6.08789">
        <ele>1549</ele>
        <time>2000-01-01T05:04:44.000Z</time>
      </trkpt>
      <trkpt lat="45.77416" lon="6.08787">
        <ele>1551.8</ele>
        <time>2000-01-01T05:04:54.000Z</time>
      </trkpt>
      <trkpt lat="45.77414" lon="6.08784">
        <ele>1551.4</ele>
        <time>2000-01-01T05:05:04.000Z</time>
      </trkpt>
      <trkpt lat="45.77412" lon="6.08781">
        <ele>1550.9</ele>
        <time>2000-01-01T05:05:14.000Z</time>
      </trkpt>
      <trkpt lat="45.7741" lon="6.08778">
        <ele>1550.5</ele>
        <time>2000-01-01T05:05:24.000Z</time>
      </trkpt>
      <trkpt lat="45.77407" lon="6.08774">
        <ele>1549.9</ele>
        <time>2000-01-01T05:05:34.000Z</time>
      </trkpt>
      <trkpt lat="45.77405" lon="6.08772">
        <ele>1549.7</ele>
        <time>2000-01-01T05:05:44.000Z</time>
      </trkpt>
      <trkpt lat="45.77403" lon="6.08769">
        <ele>1550</ele>
        <time>2000-01-01T05:05:54.000Z</time>
      </trkpt>
      <trkpt lat="45.77401" lon="6.08767">
        <ele>1549.1</ele>
        <time>2000-01-01T05:06:04.000Z</time>
      </trkpt>
      <trkpt lat="45.774" lon="6.08765">
        <ele>1548.7</ele>
        <time>2000-01-01T05:06:14.000Z</time>
      </trkpt>
      <trkpt lat="45.774" lon="6.08762">
        <ele>1547.8</ele>
        <time>2000-01-01T05:06:24.000Z</time>
      </trkpt>
      <trkpt lat="45.77399" lon="6.0876">
        <ele>1547.5</ele>
        <time>2000-01-01T05:06:34.000Z</time>
      </trkpt>
      <trkpt lat="45.77397" lon="6.08757">
        <ele>1547</ele>
        <time>2000-01-01T05:06:44.000Z</time>
      </trkpt>
      <trkpt lat="45.77396" lon="6.08754">
        <ele>1546.4</ele>
        <time>2000-01-01T05:06:54.000Z</time>
      </trkpt>
      <trkpt lat="45.77394" lon="6.08751">
        <ele>1546</ele>
        <time>2000-01-01T05:07:04.000Z</time>
      </trkpt>
      <trkpt lat="45.77391" lon="6.08747">
        <ele>1550</ele>
        <time>2000-01-01T05:07:14.000Z</time>
      </trkpt>
      <trkpt lat="45.77389" lon="6.08745">
        <ele>1545.5</ele>
        <time>2000-01-01T05:07:24.000Z</time>
      </trkpt>
      <trkpt lat="45.77387" lon="6.08741">
        <ele>1544.7</ele>
        <time>2000-01-01T05:07:34.000Z</time>
      </trkpt>
      <trkpt lat="45.77386" lon="6.08739">
        <ele>1544.4</ele>
        <time>2000-01-01T05:07:44.000Z</time>
      </trkpt>
      <trkpt lat="45.77385" lon="6.08736">
        <ele>1543.7</ele>
        <time>2000-01-01T05:07:54.000Z</time>
      </trkpt>
      <trkpt lat="45.77383" lon="6.08733">
        <ele>1543.2</ele>
        <time>2000-01-01T05:08:04.000Z</time>
      </trkpt>
      <trkpt lat="45.77381" lon="6.0873">
        <ele>1542.7</ele>
        <time>2000-01-01T05:08:14.000Z</time>
      </trkpt>
      <trkpt lat="45.77379" lon="6.08727">
        <ele>1542.2</ele>
        <time>2000-01-01T05:08:24.000Z</time>
      </trkpt>
      <trkpt lat="45.77378" lon="6.08726">
        <ele>1551</ele>
        <time>2000-01-01T05:08:34.000Z</time>
      </trkpt>
      <trkpt lat="45.77377" lon="6.08724">
        <ele>1541.7</ele>
        <time>2000-01-01T05:08:44.000Z</time>
      </trkpt>
      <trkpt lat="45.77369" lon="6.08712">
        <ele>1539.3</ele>
        <time>2000-01-01T05:08:54.000Z</time>
      </trkpt>
      <trkpt lat="45.7735" lon="6.08698">
        <ele>1549</ele>
        <time>2000-01-01T05:09:04.000Z</time>
      </trkpt>
      <trkpt lat="45.77337" lon="6.08689">
        <ele>1535.8</ele>
        <time>2000-01-01T05:09:14.000Z</time>
      </trkpt>
      <trkpt lat="45.77326" lon="6.0868">
        <ele>1547</ele>
        <time>2000-01-01T05:09:24.000Z</time>
      </trkpt>
      <trkpt lat="45.77312" lon="6.08671">
        <ele>1531.8</ele>
        <time>2000-01-01T05:09:34.000Z</time>
      </trkpt>
      <trkpt lat="45.77295" lon="6.08662">
        <ele>1535</ele>
        <time>2000-01-01T05:09:44.000Z</time>
      </trkpt>
      <trkpt lat="45.77281" lon="6.08651">
        <ele>1527.4</ele>
        <time>2000-01-01T05:09:54.000Z</time>
      </trkpt>
      <trkpt lat="45.77272" lon="6.08641">
        <ele>1532</ele>
        <time>2000-01-01T05:10:04.000Z</time>
      </trkpt>
      <trkpt lat="45.77266" lon="6.08631">
        <ele>1522</ele>
        <time>2000-01-01T05:10:14.000Z</time>
      </trkpt>
      <trkpt lat="45.77259" lon="6.08616">
        <ele>1529</ele>
        <time>2000-01-01T05:10:24.000Z</time>
      </trkpt>
      <trkpt lat="45.77251" lon="6.08602">
        <ele>1514.3</ele>
        <time>2000-01-01T05:10:34.000Z</time>
      </trkpt>
      <trkpt lat="45.77245" lon="6.08589">
        <ele>1521</ele>
        <time>2000-01-01T05:10:44.000Z</time>
      </trkpt>
      <trkpt lat="45.77235" lon="6.08569">
        <ele>1506.2</ele>
        <time>2000-01-01T05:10:54.000Z</time>
      </trkpt>
      <trkpt lat="45.77228" lon="6.08553">
        <ele>1508</ele>
        <time>2000-01-01T05:11:04.000Z</time>
      </trkpt>
      <trkpt lat="45.77224" lon="6.08548">
        <ele>1502.4</ele>
        <time>2000-01-01T05:11:14.000Z</time>
      </trkpt>
      <trkpt lat="45.77219" lon="6.08546">
        <ele>1501.9</ele>
        <time>2000-01-01T05:11:24.000Z</time>
      </trkpt>
      <trkpt lat="45.77213" lon="6.08547">
        <ele>1501.5</ele>
        <time>2000-01-01T05:11:34.000Z</time>
      </trkpt>
      <trkpt lat="45.77202" lon="6.0855">
        <ele>1499</ele>
        <time>2000-01-01T05:11:44.000Z</time>
      </trkpt>
      <trkpt lat="45.77194" lon="6.08553">
        <ele>1500.4</ele>
        <time>2000-01-01T05:11:54.000Z</time>
      </trkpt>
      <trkpt lat="45.77185" lon="6.08558">
        <ele>1498.8</ele>
        <time>2000-01-01T05:12:04.000Z</time>
      </trkpt>
      <trkpt lat="45.77172" lon="6.0857">
        <ele>1486</ele>
        <time>2000-01-01T05:12:14.000Z</time>
      </trkpt>
      <trkpt lat="45.77159" lon="6.08581">
        <ele>1496.2</ele>
        <time>2000-01-01T05:12:24.000Z</time>
      </trkpt>
      <trkpt lat="45.77147" lon="6.08589">
        <ele>1481</ele>
        <time>2000-01-01T05:12:34.000Z</time>
      </trkpt>
      <trkpt lat="45.77135" lon="6.08593">
        <ele>1492.2</ele>
        <time>2000-01-01T05:12:44.000Z</time>
      </trkpt>
      <trkpt lat="45.77126" lon="6.08595">
        <ele>1473</ele>
        <time>2000-01-01T05:12:54.000Z</time>
      </trkpt>
      <trkpt lat="45.77116" lon="6.08597">
        <ele>1487.4</ele>
        <time>2000-01-01T05:13:04.000Z</time>
      </trkpt>
      <trkpt lat="45.77106" lon="6.08599">
        <ele>1473</ele>
        <time>2000-01-01T05:13:14.000Z</time>
      </trkpt>
      <trkpt lat="45.77096" lon="6.08603">
        <ele>1484.1</ele>
        <time>2000-01-01T05:13:24.000Z</time>
      </trkpt>
      <trkpt lat="45.77087" lon="6.08608">
        <ele>1476</ele>
        <time>2000-01-01T05:13:34.000Z</time>
      </trkpt>
      <trkpt lat="45.77075" lon="6.08614">
        <ele>1483.2</ele>
        <time>2000-01-01T05:13:44.000Z</time>
      </trkpt>
      <trkpt lat="45.77067" lon="6.08617">
        <ele>1476</ele>
        <time>2000-01-01T05:13:54.000Z</time>
      </trkpt>
      <trkpt lat="45.7706" lon="6.08618">
        <ele>1481.4</ele>
        <time>2000-01-01T05:14:04.000Z</time>
      </trkpt>
      <trkpt lat="45.77054" lon="6.08618">
        <ele>1480.2</ele>
        <time>2000-01-01T05:14:14.000Z</time>
      </trkpt>
      <trkpt lat="45.7705" lon="6.08617">
        <ele>1479.3</ele>
        <time>2000-01-01T05:14:24.000Z</time>
      </trkpt>
      <trkpt lat="45.77043" lon="6.08612">
        <ele>1476</ele>
        <time>2000-01-01T05:14:34.000Z</time>
      </trkpt>
      <trkpt lat="45.77032" lon="6.08608">
        <ele>1473.4</ele>
        <time>2000-01-01T05:14:44.000Z</time>
      </trkpt>
      <trkpt lat="45.77016" lon="6.08605">
        <ele>1469</ele>
        <time>2000-01-01T05:14:54.000Z</time>
      </trkpt>
      <trkpt lat="45.77004" lon="6.08604">
        <ele>1467.3</ele>
        <time>2000-01-01T05:15:04.000Z</time>
      </trkpt>
      <trkpt lat="45.76995" lon="6.08603">
        <ele>1469</ele>
        <time>2000-01-01T05:15:14.000Z</time>
      </trkpt>
      <trkpt lat="45.76988" lon="6.08605">
        <ele>1464.6</ele>
        <time>2000-01-01T05:15:24.000Z</time>
      </trkpt>
      <trkpt lat="45.76982" lon="6.08607">
        <ele>1464</ele>
        <time>2000-01-01T05:15:34.000Z</time>
      </trkpt>
      <trkpt lat="45.76976" lon="6.08612">
        <ele>1461</ele>
        <time>2000-01-01T05:15:44.000Z</time>
      </trkpt>
      <trkpt lat="45.76967" lon="6.08619">
        <ele>1463.4</ele>
        <time>2000-01-01T05:15:54.000Z</time>
      </trkpt>
      <trkpt lat="45.7693" lon="6.08656">
        <ele>1460</ele>
        <time>2000-01-01T05:16:04.000Z</time>
      </trkpt>
      <trkpt lat="45.76919" lon="6.08666">
        <ele>1457.6</ele>
        <time>2000-01-01T05:16:14.000Z</time>
      </trkpt>
      <trkpt lat="45.76907" lon="6.08672">
        <ele>1460</ele>
        <time>2000-01-01T05:16:24.000Z</time>
      </trkpt>
      <trkpt lat="45.769" lon="6.08675">
        <ele>1454</ele>
        <time>2000-01-01T05:16:34.000Z</time>
      </trkpt>
      <trkpt lat="45.76891" lon="6.08678">
        <ele>1452.1</ele>
        <time>2000-01-01T05:16:44.000Z</time>
      </trkpt>
      <trkpt lat="45.76884" lon="6.08679">
        <ele>1460</ele>
        <time>2000-01-01T05:16:54.000Z</time>
      </trkpt>
      <trkpt lat="45.76875" lon="6.08679">
        <ele>1448.9</ele>
        <time>2000-01-01T05:17:04.000Z</time>
      </trkpt>
      <trkpt lat="45.7687" lon="6.08679">
        <ele>1448</ele>
        <time>2000-01-01T05:17:14.000Z</time>
      </trkpt>
      <trkpt lat="45.76861" lon="6.08675">
        <ele>1452</ele>
        <time>2000-01-01T05:17:24.000Z</time>
      </trkpt>
      <trkpt lat="45.76856" lon="6.08672">
        <ele>1444.2</ele>
        <time>2000-01-01T05:17:34.000Z</time>
      </trkpt>
      <trkpt lat="45.7685" lon="6.0867">
        <ele>1443</ele>
        <time>2000-01-01T05:17:44.000Z</time>
      </trkpt>
      <trkpt lat="45.76844" lon="6.08668">
        <ele>1441.7</ele>
        <time>2000-01-01T05:17:54.000Z</time>
      </trkpt>
      <trkpt lat="45.7684" lon="6.08667">
        <ele>1442</ele>
        <time>2000-01-01T05:18:04.000Z</time>
      </trkpt>
      <trkpt lat="45.76835" lon="6.08665">
        <ele>1439.8</ele>
        <time>2000-01-01T05:18:14.000Z</time>
      </trkpt>
      <trkpt lat="45.76826" lon="6.08664">
        <ele>1437.9</ele>
        <time>2000-01-01T05:18:24.000Z</time>
      </trkpt>
      <trkpt lat="45.7682" lon="6.08665">
        <ele>1430</ele>
        <time>2000-01-01T05:18:34.000Z</time>
      </trkpt>
      <trkpt lat="45.76813" lon="6.08666">
        <ele>1436.1</ele>
        <time>2000-01-01T05:18:44.000Z</time>
      </trkpt>
      <trkpt lat="45.76809" lon="6.08667">
        <ele>1435.6</ele>
        <time>2000-01-01T05:18:54.000Z</time>
      </trkpt>
      <trkpt lat="45.76802" lon="6.08667">
        <ele>1434.3</ele>
        <time>2000-01-01T05:19:04.000Z</time>
      </trkpt>
      <trkpt lat="45.76797" lon="6.08666">
        <ele>1416</ele>
        <time>2000-01-01T05:19:14.000Z</time>
      </trkpt>
      <trkpt lat="45.76792" lon="6.08664">
        <ele>1431.4</ele>
        <time>2000-01-01T05:19:24.000Z</time>
      </trkpt>
      <trkpt lat="45.76785" lon="6.08662">
        <ele>1429.5</ele>
        <time>2000-01-01T05:19:34.000Z</time>
      </trkpt>
      <trkpt lat="45.7676" lon="6.08658">
        <ele>1411</ele>
        <time>2000-01-01T05:19:44.000Z</time>
      </trkpt>
      <trkpt lat="45.76743" lon="6.08656">
        <ele>1422.3</ele>
        <time>2000-01-01T05:19:54.000Z</time>
      </trkpt>
      <trkpt lat="45.76745" lon="6.08651">
        <ele>1411</ele>
        <time>2000-01-01T05:20:04.000Z</time>
      </trkpt>
      <trkpt lat="45.76747" lon="6.08645">
        <ele>1420.8</ele>
        <time>2000-01-01T05:20:14.000Z</time>
      </trkpt>
      <trkpt lat="45.76752" lon="6.08637">
        <ele>1419.5</ele>
        <time>2000-01-01T05:20:24.000Z</time>
      </trkpt>
      <trkpt lat="45.76755" lon="6.08627">
        <ele>1403</ele>
        <time>2000-01-01T05:20:34.000Z</time>
      </trkpt>
      <trkpt lat="45.76757" lon="6.08619">
        <ele>1413.6</ele>
        <time>2000-01-01T05:20:44.000Z</time>
      </trkpt>
      <trkpt lat="45.7676" lon="6.08604">
        <ele>1408</ele>
        <time>2000-01-01T05:20:54.000Z</time>
      </trkpt>
      <trkpt lat="45.76761" lon="6.0859">
        <ele>1390</ele>
        <time>2000-01-01T05:21:04.000Z</time>
      </trkpt>
      <trkpt lat="45.76764" lon="6.08575">
        <ele>1395.6</ele>
        <time>2000-01-01T05:21:14.000Z</time>
      </trkpt>
      <trkpt lat="45.76766" lon="6.08564">
        <ele>1390.7</ele>
        <time>2000-01-01T05:21:24.000Z</time>
      </trkpt>
      <trkpt lat="45.7677" lon="6.08557">
        <ele>1376</ele>
        <time>2000-01-01T05:21:34.000Z</time>
      </trkpt>
      <trkpt lat="45.76771" lon="6.08557">
        <ele>1387.9</ele>
        <time>2000-01-01T05:21:44.000Z</time>
      </trkpt>
      <trkpt lat="45.76775" lon="6.08555">
        <ele>1387.4</ele>
        <time>2000-01-01T05:21:54.000Z</time>
      </trkpt>
      <trkpt lat="45.76785" lon="6.08554">
        <ele>1388</ele>
        <time>2000-01-01T05:22:04.000Z</time>
      </trkpt>
      <trkpt lat="45.76792" lon="6.08554">
        <ele>1371</ele>
        <time>2000-01-01T05:22:14.000Z</time>
      </trkpt>
      <trkpt lat="45.76801" lon="6.08553">
        <ele>1389.2</ele>
        <time>2000-01-01T05:22:24.000Z</time>
      </trkpt>
      <trkpt lat="45.76807" lon="6.0855">
        <ele>1388.4</ele>
        <time>2000-01-01T05:22:34.000Z</time>
      </trkpt>
      <trkpt lat="45.76813" lon="6.08546">
        <ele>1377</ele>
        <time>2000-01-01T05:22:44.000Z</time>
      </trkpt>
      <trkpt lat="45.76822" lon="6.08538">
        <ele>1384.7</ele>
        <time>2000-01-01T05:22:54.000Z</time>
      </trkpt>
      <trkpt lat="45.76827" lon="6.08534">
        <ele>1383.7</ele>
        <time>2000-01-01T05:23:04.000Z</time>
      </trkpt>
      <trkpt lat="45.76832" lon="6.08531">
        <ele>1384</ele>
        <time>2000-01-01T05:23:14.000Z</time>
      </trkpt>
      <trkpt lat="45.76839" lon="6.0853">
        <ele>1385</ele>
        <time>2000-01-01T05:23:24.000Z</time>
      </trkpt>
      <trkpt lat="45.76846" lon="6.08529">
        <ele>1387</ele>
        <time>2000-01-01T05:23:34.000Z</time>
      </trkpt>
      <trkpt lat="45.76853" lon="6.08525">
        <ele>1383</ele>
        <time>2000-01-01T05:23:44.000Z</time>
      </trkpt>
      <trkpt lat="45.7686" lon="6.08518">
        <ele>1388.4</ele>
        <time>2000-01-01T05:23:54.000Z</time>
      </trkpt>
      <trkpt lat="45.76863" lon="6.0851">
        <ele>1387.2</ele>
        <time>2000-01-01T05:24:04.000Z</time>
      </trkpt>
      <trkpt lat="45.76866" lon="6.08496">
        <ele>1382</ele>
        <time>2000-01-01T05:24:14.000Z</time>
      </trkpt>
      <trkpt lat="45.76868" lon="6.08467">
        <ele>1375</ele>
        <time>2000-01-01T05:24:24.000Z</time>
      </trkpt>
      <trkpt lat="45.76873" lon="6.08429">
        <ele>1360</ele>
        <time>2000-01-01T05:24:34.000Z</time>
      </trkpt>
      <trkpt lat="45.76874" lon="6.08417">
        <ele>1363.7</ele>
        <time>2000-01-01T05:24:44.000Z</time>
      </trkpt>
      <trkpt lat="45.76878" lon="6.08408">
        <ele>1361.7</ele>
        <time>2000-01-01T05:24:54.000Z</time>
      </trkpt>
      <trkpt lat="45.76883" lon="6.08403">
        <ele>1357</ele>
        <time>2000-01-01T05:25:04.000Z</time>
      </trkpt>
      <trkpt lat="45.7689" lon="6.084">
        <ele>1363.1</ele>
        <time>2000-01-01T05:25:14.000Z</time>
      </trkpt>
      <trkpt lat="45.76898" lon="6.08396">
        <ele>1363.5</ele>
        <time>2000-01-01T05:25:24.000Z</time>
      </trkpt>
      <trkpt lat="45.76901" lon="6.08392">
        <ele>1357</ele>
        <time>2000-01-01T05:25:34.000Z</time>
      </trkpt>
      <trkpt lat="45.76906" lon="6.08384">
        <ele>1359.8</ele>
        <time>2000-01-01T05:25:44.000Z</time>
      </trkpt>
      <trkpt lat="45.76911" lon="6.08378">
        <ele>1358.1</ele>
        <time>2000-01-01T05:25:54.000Z</time>
      </trkpt>
      <trkpt lat="45.76918" lon="6.08372">
        <ele>1357</ele>
        <time>2000-01-01T05:26:04.000Z</time>
      </trkpt>
      <trkpt lat="45.76928" lon="6.08366">
        <ele>1353.9</ele>
        <time>2000-01-01T05:26:14.000Z</time>
      </trkpt>
      <trkpt lat="45.76949" lon="6.0836">
        <ele>1358</ele>
        <time>2000-01-01T05:26:24.000Z</time>
      </trkpt>
      <trkpt lat="45.76963" lon="6.08356">
        <ele>1348.6</ele>
        <time>2000-01-01T05:26:34.000Z</time>
      </trkpt>
      <trkpt lat="45.76966" lon="6.08353">
        <ele>1347</ele>
        <time>2000-01-01T05:26:44.000Z</time>
      </trkpt>
      <trkpt lat="45.76971" lon="6.08352">
        <ele>1350</ele>
        <time>2000-01-01T05:26:54.000Z</time>
      </trkpt>
      <trkpt lat="45.76973" lon="6.08352">
        <ele>1346.5</ele>
        <time>2000-01-01T05:27:04.000Z</time>
      </trkpt>
      <trkpt lat="45.7698" lon="6.0835">
        <ele>1346.4</ele>
        <time>2000-01-01T05:27:14.000Z</time>
      </trkpt>
      <trkpt lat="45.76981" lon="6.08348">
        <ele>1345.6</ele>
        <time>2000-01-01T05:27:24.000Z</time>
      </trkpt>
      <trkpt lat="45.76981" lon="6.08345">
        <ele>1344.2</ele>
        <time>2000-01-01T05:27:34.000Z</time>
      </trkpt>
      <trkpt lat="45.7698" lon="6.08343">
        <ele>1343.2</ele>
        <time>2000-01-01T05:27:44.000Z</time>
      </trkpt>
      <trkpt lat="45.7697" lon="6.08337">
        <ele>1343</ele>
        <time>2000-01-01T05:27:54.000Z</time>
      </trkpt>
      <trkpt lat="45.76958" lon="6.08325">
        <ele>1332.6</ele>
        <time>2000-01-01T05:28:04.000Z</time>
      </trkpt>
      <trkpt lat="45.76948" lon="6.08317">
        <ele>1331</ele>
        <time>2000-01-01T05:28:14.000Z</time>
      </trkpt>
      <trkpt lat="45.76942" lon="6.08312">
        <ele>1324.4</ele>
        <time>2000-01-01T05:28:24.000Z</time>
      </trkpt>
      <trkpt lat="45.76938" lon="6.08311">
        <ele>1323.7</ele>
        <time>2000-01-01T05:28:34.000Z</time>
      </trkpt>
      <trkpt lat="45.76931" lon="6.08305">
        <ele>1320.3</ele>
        <time>2000-01-01T05:28:44.000Z</time>
      </trkpt>
      <trkpt lat="45.7692" lon="6.08295">
        <ele>1318</ele>
        <time>2000-01-01T05:28:54.000Z</time>
      </trkpt>
      <trkpt lat="45.76915" lon="6.08289">
        <ele>1311.5</ele>
        <time>2000-01-01T05:29:04.000Z</time>
      </trkpt>
      <trkpt lat="45.76908" lon="6.08286">
        <ele>1309.1</ele>
        <time>2000-01-01T05:29:14.000Z</time>
      </trkpt>
      <trkpt lat="45.76909" lon="6.08284">
        <ele>1308.2</ele>
        <time>2000-01-01T05:29:24.000Z</time>
      </trkpt>
      <trkpt lat="45.76917" lon="6.08281">
        <ele>1318</ele>
        <time>2000-01-01T05:29:34.000Z</time>
      </trkpt>
      <trkpt lat="45.76926" lon="6.08281">
        <ele>1308.9</ele>
        <time>2000-01-01T05:29:44.000Z</time>
      </trkpt>
      <trkpt lat="45.76934" lon="6.08283">
        <ele>1310.8</ele>
        <time>2000-01-01T05:29:54.000Z</time>
      </trkpt>
      <trkpt lat="45.76948" lon="6.08285">
        <ele>1320</ele>
        <time>2000-01-01T05:30:04.000Z</time>
      </trkpt>
      <trkpt lat="45.76956" lon="6.08283">
        <ele>1315.2</ele>
        <time>2000-01-01T05:30:14.000Z</time>
      </trkpt>
      <trkpt lat="45.76959" lon="6.08281">
        <ele>1315.3</ele>
        <time>2000-01-01T05:30:24.000Z</time>
      </trkpt>
      <trkpt lat="45.76959" lon="6.08278">
        <ele>1314.3</ele>
        <time>2000-01-01T05:30:34.000Z</time>
      </trkpt>
      <trkpt lat="45.76958" lon="6.08277">
        <ele>1313.7</ele>
        <time>2000-01-01T05:30:44.000Z</time>
      </trkpt>
      <trkpt lat="45.76954" lon="6.08274">
        <ele>1320</ele>
        <time>2000-01-01T05:30:54.000Z</time>
      </trkpt>
      <trkpt lat="45.76937" lon="6.08253">
        <ele>1312</ele>
        <time>2000-01-01T05:31:04.000Z</time>
      </trkpt>
      <trkpt lat="45.76928" lon="6.08243">
        <ele>1296</ele>
        <time>2000-01-01T05:31:14.000Z</time>
      </trkpt>
      <trkpt lat="45.76921" lon="6.08234">
        <ele>1306</ele>
        <time>2000-01-01T05:31:24.000Z</time>
      </trkpt>
      <trkpt lat="45.76917" lon="6.08228">
        <ele>1288.8</ele>
        <time>2000-01-01T05:31:34.000Z</time>
      </trkpt>
      <trkpt lat="45.76906" lon="6.08211">
        <ele>1301</ele>
        <time>2000-01-01T05:31:44.000Z</time>
      </trkpt>
      <trkpt lat="45.769" lon="6.08201">
        <ele>1275.8</ele>
        <time>2000-01-01T05:31:54.000Z</time>
      </trkpt>
      <trkpt lat="45.76896" lon="6.08193">
        <ele>1271.8</ele>
        <time>2000-01-01T05:32:04.000Z</time>
      </trkpt>
      <trkpt lat="45.76891" lon="6.08185">
        <ele>1279</ele>
        <time>2000-01-01T05:32:14.000Z</time>
      </trkpt>
      <trkpt lat="45.76887" lon="6.08181">
        <ele>1264.7</ele>
        <time>2000-01-01T05:32:24.000Z</time>
      </trkpt>
      <trkpt lat="45.76882" lon="6.08176">
        <ele>1261.5</ele>
        <time>2000-01-01T05:32:34.000Z</time>
      </trkpt>
      <trkpt lat="45.76875" lon="6.08171">
        <ele>1281</ele>
        <time>2000-01-01T05:32:44.000Z</time>
      </trkpt>
      <trkpt lat="45.76874" lon="6.08171">
        <ele>1257.4</ele>
        <time>2000-01-01T05:32:54.000Z</time>
      </trkpt>
      <trkpt lat="45.76863" lon="6.08183">
        <ele>1259.5</ele>
        <time>2000-01-01T05:33:04.000Z</time>
      </trkpt>
      <trkpt lat="45.76852" lon="6.08194">
        <ele>1274</ele>
        <time>2000-01-01T05:33:14.000Z</time>
      </trkpt>
      <trkpt lat="45.7684" lon="6.08201">
        <ele>1261.9</ele>
        <time>2000-01-01T05:33:24.000Z</time>
      </trkpt>
      <trkpt lat="45.76827" lon="6.08206">
        <ele>1268</ele>
        <time>2000-01-01T05:33:34.000Z</time>
      </trkpt>
      <trkpt lat="45.76815" lon="6.08214">
        <ele>1258.4</ele>
        <time>2000-01-01T05:33:44.000Z</time>
      </trkpt>
      <trkpt lat="45.7681" lon="6.08222">
        <ele>1265</ele>
        <time>2000-01-01T05:33:54.000Z</time>
      </trkpt>
      <trkpt lat="45.76805" lon="6.0823">
        <ele>1260.3</ele>
        <time>2000-01-01T05:34:04.000Z</time>
      </trkpt>
      <trkpt lat="45.76796" lon="6.08238">
        <ele>1258.8</ele>
        <time>2000-01-01T05:34:14.000Z</time>
      </trkpt>
      <trkpt lat="45.7679" lon="6.08246">
        <ele>1258</ele>
        <time>2000-01-01T05:34:24.000Z</time>
      </trkpt>
      <trkpt lat="45.76778" lon="6.08266">
        <ele>1258</ele>
        <time>2000-01-01T05:34:34.000Z</time>
      </trkpt>
      <trkpt lat="45.76769" lon="6.08282">
        <ele>1261.7</ele>
        <time>2000-01-01T05:34:44.000Z</time>
      </trkpt>
      <trkpt lat="45.76761" lon="6.08294">
        <ele>1260</ele>
        <time>2000-01-01T05:34:54.000Z</time>
      </trkpt>
      <trkpt lat="45.76745" lon="6.08307">
        <ele>1260.8</ele>
        <time>2000-01-01T05:35:04.000Z</time>
      </trkpt>
      <trkpt lat="45.76717" lon="6.08328">
        <ele>1255</ele>
        <time>2000-01-01T05:35:14.000Z</time>
      </trkpt>
      <trkpt lat="45.76687" lon="6.08349">
        <ele>1259</ele>
        <time>2000-01-01T05:35:24.000Z</time>
      </trkpt>
      <trkpt lat="45.76662" lon="6.08364">
        <ele>1252</ele>
        <time>2000-01-01T05:35:34.000Z</time>
      </trkpt>
      <trkpt lat="45.76628" lon="6.08379">
        <ele>1253</ele>
        <time>2000-01-01T05:35:44.000Z</time>
      </trkpt>
      <trkpt lat="45.76595" lon="6.08392">
        <ele>1251</ele>
        <time>2000-01-01T05:35:54.000Z</time>
      </trkpt>
      <trkpt lat="45.76578" lon="6.08399">
        <ele>1258</ele>
        <time>2000-01-01T05:36:04.000Z</time>
      </trkpt>
      <trkpt lat="45.76566" lon="6.08404">
        <ele>1249</ele>
        <time>2000-01-01T05:36:14.000Z</time>
      </trkpt>
      <trkpt lat="45.76557" lon="6.0841">
        <ele>1258</ele>
        <time>2000-01-01T05:36:24.000Z</time>
      </trkpt>
      <trkpt lat="45.7655" lon="6.08418">
        <ele>1259.9</ele>
        <time>2000-01-01T05:36:34.000Z</time>
      </trkpt>
      <trkpt lat="45.76546" lon="6.08424">
        <ele>1254</ele>
        <time>2000-01-01T05:36:44.000Z</time>
      </trkpt>
      <trkpt lat="45.76537" lon="6.08437">
        <ele>1264.7</ele>
        <time>2000-01-01T05:36:54.000Z</time>
      </trkpt>
      <trkpt lat="45.76529" lon="6.08446">
        <ele>1260</ele>
        <time>2000-01-01T05:37:04.000Z</time>
      </trkpt>
      <trkpt lat="45.76526" lon="6.08441">
        <ele>1262.6</ele>
        <time>2000-01-01T05:37:14.000Z</time>
      </trkpt>
      <trkpt lat="45.76526" lon="6.08441">
        <ele>1262.6</ele>
        <time>2000-01-01T05:37:24.000Z</time>
      </trkpt>
      <trkpt lat="45.76529" lon="6.08446">
        <ele>1266.1</ele>
        <time>2000-01-01T05:37:34.000Z</time>
      </trkpt>
      <trkpt lat="45.76525" lon="6.0845">
        <ele>1266.2</ele>
        <time>2000-01-01T05:37:44.000Z</time>
      </trkpt>
      <trkpt lat="45.76504" lon="6.08467">
        <ele>1258</ele>
        <time>2000-01-01T05:37:54.000Z</time>
      </trkpt>
      <trkpt lat="45.76485" lon="6.08486">
        <ele>1260</ele>
        <time>2000-01-01T05:38:04.000Z</time>
      </trkpt>
      <trkpt lat="45.76478" lon="6.08498">
        <ele>1262.4</ele>
        <time>2000-01-01T05:38:14.000Z</time>
      </trkpt>
      <trkpt lat="45.76469" lon="6.08518">
        <ele>1263</ele>
        <time>2000-01-01T05:38:24.000Z</time>
      </trkpt>
      <trkpt lat="45.76465" lon="6.08533">
        <ele>1266.3</ele>
        <time>2000-01-01T05:38:34.000Z</time>
      </trkpt>
      <trkpt lat="45.76462" lon="6.08541">
        <ele>1267.3</ele>
        <time>2000-01-01T05:38:44.000Z</time>
      </trkpt>
      <trkpt lat="45.76456" lon="6.08549">
        <ele>1263</ele>
        <time>2000-01-01T05:38:54.000Z</time>
      </trkpt>
      <trkpt lat="45.7645" lon="6.08554">
        <ele>1266.5</ele>
        <time>2000-01-01T05:39:04.000Z</time>
      </trkpt>
      <trkpt lat="45.76445" lon="6.08554">
        <ele>1264.7</ele>
        <time>2000-01-01T05:39:14.000Z</time>
      </trkpt>
      <trkpt lat="45.76439" lon="6.08552">
        <ele>1262.4</ele>
        <time>2000-01-01T05:39:24.000Z</time>
      </trkpt>
      <trkpt lat="45.76434" lon="6.08551">
        <ele>1264</ele>
        <time>2000-01-01T05:39:34.000Z</time>
      </trkpt>
      <trkpt lat="45.76429" lon="6.08552">
        <ele>1259.7</ele>
        <time>2000-01-01T05:39:44.000Z</time>
      </trkpt>
      <trkpt lat="45.76423" lon="6.08555">
        <ele>1259.4</ele>
        <time>2000-01-01T05:39:54.000Z</time>
      </trkpt>
      <trkpt lat="45.76415" lon="6.08561">
        <ele>1264</ele>
        <time>2000-01-01T05:40:04.000Z</time>
      </trkpt>
      <trkpt lat="45.76408" lon="6.08567">
        <ele>1260.4</ele>
        <time>2000-01-01T05:40:14.000Z</time>
      </trkpt>
      <trkpt lat="45.76401" lon="6.08571">
        <ele>1259.9</ele>
        <time>2000-01-01T05:40:24.000Z</time>
      </trkpt>
      <trkpt lat="45.76393" lon="6.08576">
        <ele>1258</ele>
        <time>2000-01-01T05:40:34.000Z</time>
      </trkpt>
      <trkpt lat="45.76374" lon="6.08584">
        <ele>1236</ele>
        <time>2000-01-01T05:40:44.000Z</time>
      </trkpt>
      <trkpt lat="45.76366" lon="6.08585">
        <ele>1251.4</ele>
        <time>2000-01-01T05:40:54.000Z</time>
      </trkpt>
      <trkpt lat="45.76358" lon="6.08588">
        <ele>1248.8</ele>
        <time>2000-01-01T05:41:04.000Z</time>
      </trkpt>
      <trkpt lat="45.76351" lon="6.08591">
        <ele>1236</ele>
        <time>2000-01-01T05:41:14.000Z</time>
      </trkpt>
      <trkpt lat="45.76342" lon="6.08599">
        <ele>1245.4</ele>
        <time>2000-01-01T05:41:24.000Z</time>
      </trkpt>
      <trkpt lat="45.76336" lon="6.08605">
        <ele>1244.7</ele>
        <time>2000-01-01T05:41:34.000Z</time>
      </trkpt>
      <trkpt lat="45.76329" lon="6.08611">
        <ele>1231</ele>
        <time>2000-01-01T05:41:44.000Z</time>
      </trkpt>
      <trkpt lat="45.76322" lon="6.0862">
        <ele>1242.6</ele>
        <time>2000-01-01T05:41:54.000Z</time>
      </trkpt>
      <trkpt lat="45.763" lon="6.08654">
        <ele>1227</ele>
        <time>2000-01-01T05:42:04.000Z</time>
      </trkpt>
      <trkpt lat="45.76286" lon="6.08672">
        <ele>1230</ele>
        <time>2000-01-01T05:42:14.000Z</time>
      </trkpt>
      <trkpt lat="45.76256" lon="6.0871">
        <ele>1219</ele>
        <time>2000-01-01T05:42:24.000Z</time>
      </trkpt>
      <trkpt lat="45.76235" lon="6.08734">
        <ele>1224</ele>
        <time>2000-01-01T05:42:34.000Z</time>
      </trkpt>
      <trkpt lat="45.76212" lon="6.0876">
        <ele>1230</ele>
        <time>2000-01-01T05:42:44.000Z</time>
      </trkpt>
      <trkpt lat="45.76201" lon="6.0877">
        <ele>1227.3</ele>
        <time>2000-01-01T05:42:54.000Z</time>
      </trkpt>
      <trkpt lat="45.76194" lon="6.08776">
        <ele>1221</ele>
        <time>2000-01-01T05:43:04.000Z</time>
      </trkpt>
      <trkpt lat="45.76183" lon="6.08783">
        <ele>1226.2</ele>
        <time>2000-01-01T05:43:14.000Z</time>
      </trkpt>
      <trkpt lat="45.76164" lon="6.0879">
        <ele>1213</ele>
        <time>2000-01-01T05:43:24.000Z</time>
      </trkpt>
      <trkpt lat="45.76155" lon="6.08796">
        <ele>1222.6</ele>
        <time>2000-01-01T05:43:34.000Z</time>
      </trkpt>
      <trkpt lat="45.76143" lon="6.08805">
        <ele>1213</ele>
        <time>2000-01-01T05:43:44.000Z</time>
      </trkpt>
      <trkpt lat="45.76134" lon="6.08815">
        <ele>1219.8</ele>
        <time>2000-01-01T05:43:54.000Z</time>
      </trkpt>
      <trkpt lat="45.76125" lon="6.08824">
        <ele>1217</ele>
        <time>2000-01-01T05:44:04.000Z</time>
      </trkpt>
      <trkpt lat="45.76121" lon="6.08827">
        <ele>1217.9</ele>
        <time>2000-01-01T05:44:14.000Z</time>
      </trkpt>
      <trkpt lat="45.76115" lon="6.08828">
        <ele>1215.2</ele>
        <time>2000-01-01T05:44:24.000Z</time>
      </trkpt>
      <trkpt lat="45.76106" lon="6.08829">
        <ele>1217</ele>
        <time>2000-01-01T05:44:34.000Z</time>
      </trkpt>
      <trkpt lat="45.76088" lon="6.0883">
        <ele>1210.8</ele>
        <time>2000-01-01T05:44:44.000Z</time>
      </trkpt>
      <trkpt lat="45.76069" lon="6.08829">
        <ele>1183</ele>
        <time>2000-01-01T05:44:54.000Z</time>
      </trkpt>
      <trkpt lat="45.76053" lon="6.0883">
        <ele>1202.1</ele>
        <time>2000-01-01T05:45:04.000Z</time>
      </trkpt>
      <trkpt lat="45.76026" lon="6.08835">
        <ele>1179</ele>
        <time>2000-01-01T05:45:14.000Z</time>
      </trkpt>
      <trkpt lat="45.7601" lon="6.08838">
        <ele>1190.8</ele>
        <time>2000-01-01T05:45:24.000Z</time>
      </trkpt>
      <trkpt lat="45.75994" lon="6.08843">
        <ele>1169</ele>
        <time>2000-01-01T05:45:34.000Z</time>
      </trkpt>
      <trkpt lat="45.7598" lon="6.08848">
        <ele>1181.5</ele>
        <time>2000-01-01T05:45:44.000Z</time>
      </trkpt>
      <trkpt lat="45.75973" lon="6.08853">
        <ele>1167</ele>
        <time>2000-01-01T05:45:54.000Z</time>
      </trkpt>
      <trkpt lat="45.75968" lon="6.08858">
        <ele>1176.8</ele>
        <time>2000-01-01T05:46:04.000Z</time>
      </trkpt>
      <trkpt lat="45.7596" lon="6.08867">
        <ele>1174.1</ele>
        <time>2000-01-01T05:46:14.000Z</time>
      </trkpt>
      <trkpt lat="45.75949" lon="6.08882">
        <ele>1162</ele>
        <time>2000-01-01T05:46:24.000Z</time>
      </trkpt>
      <trkpt lat="45.7594" lon="6.08897">
        <ele>1166.7</ele>
        <time>2000-01-01T05:46:34.000Z</time>
      </trkpt>
      <trkpt lat="45.75934" lon="6.08911">
        <ele>1148</ele>
        <time>2000-01-01T05:46:44.000Z</time>
      </trkpt>
      <trkpt lat="45.75925" lon="6.08922">
        <ele>1161.2</ele>
        <time>2000-01-01T05:46:54.000Z</time>
      </trkpt>
      <trkpt lat="45.75914" lon="6.08936">
        <ele>1148</ele>
        <time>2000-01-01T05:47:04.000Z</time>
      </trkpt>
      <trkpt lat="45.75909" lon="6.08941">
        <ele>1156.6</ele>
        <time>2000-01-01T05:47:14.000Z</time>
      </trkpt>
      <trkpt lat="45.75905" lon="6.08944">
        <ele>1155.8</ele>
        <time>2000-01-01T05:47:24.000Z</time>
      </trkpt>
      <trkpt lat="45.75895" lon="6.0895">
        <ele>1144</ele>
        <time>2000-01-01T05:47:34.000Z</time>
      </trkpt>
      <trkpt lat="45.75881" lon="6.08957">
        <ele>1149.5</ele>
        <time>2000-01-01T05:47:44.000Z</time>
      </trkpt>
      <trkpt lat="45.75872" lon="6.08963">
        <ele>1141</ele>
        <time>2000-01-01T05:47:54.000Z</time>
      </trkpt>
      <trkpt lat="45.75863" lon="6.08972">
        <ele>1148.7</ele>
        <time>2000-01-01T05:48:04.000Z</time>
      </trkpt>
      <trkpt lat="45.75853" lon="6.08983">
        <ele>1141</ele>
        <time>2000-01-01T05:48:14.000Z</time>
      </trkpt>
      <trkpt lat="45.7584" lon="6.08996">
        <ele>1145.6</ele>
        <time>2000-01-01T05:48:24.000Z</time>
      </trkpt>
      <trkpt lat="45.7583" lon="6.09003">
        <ele>1142</ele>
        <time>2000-01-01T05:48:34.000Z</time>
      </trkpt>
      <trkpt lat="45.75816" lon="6.09012">
        <ele>1146.1</ele>
        <time>2000-01-01T05:48:44.000Z</time>
      </trkpt>
      <trkpt lat="45.75811" lon="6.09013">
        <ele>1136</ele>
        <time>2000-01-01T05:48:54.000Z</time>
      </trkpt>
      <trkpt lat="45.75807" lon="6.09012">
        <ele>1143.5</ele>
        <time>2000-01-01T05:49:04.000Z</time>
      </trkpt>
      <trkpt lat="45.75803" lon="6.09009">
        <ele>1141.6</ele>
        <time>2000-01-01T05:49:14.000Z</time>
      </trkpt>
      <trkpt lat="45.75799" lon="6.09002">
        <ele>1138.8</ele>
        <time>2000-01-01T05:49:24.000Z</time>
      </trkpt>
      <trkpt lat="45.75793" lon="6.08989">
        <ele>1131</ele>
        <time>2000-01-01T05:49:34.000Z</time>
      </trkpt>
      <trkpt lat="45.75782" lon="6.08986">
        <ele>1138.7</ele>
        <time>2000-01-01T05:49:44.000Z</time>
      </trkpt>
      <trkpt lat="45.7577" lon="6.0898">
        <ele>1131</ele>
        <time>2000-01-01T05:49:54.000Z</time>
      </trkpt>
      <trkpt lat="45.75755" lon="6.08971">
        <ele>1133.8</ele>
        <time>2000-01-01T05:50:04.000Z</time>
      </trkpt>
      <trkpt lat="45.75744" lon="6.08964">
        <ele>1118</ele>
        <time>2000-01-01T05:50:14.000Z</time>
      </trkpt>
      <trkpt lat="45.75737" lon="6.08966">
        <ele>1127.5</ele>
        <time>2000-01-01T05:50:24.000Z</time>
      </trkpt>
      <trkpt lat="45.75729" lon="6.08969">
        <ele>1125.9</ele>
        <time>2000-01-01T05:50:34.000Z</time>
      </trkpt>
      <trkpt lat="45.75697" lon="6.08996">
        <ele>1114</ele>
        <time>2000-01-01T05:50:44.000Z</time>
      </trkpt>
      <trkpt lat="45.75667" lon="6.09023">
        <ele>1111</ele>
        <time>2000-01-01T05:50:54.000Z</time>
      </trkpt>
      <trkpt lat="45.75646" lon="6.09049">
        <ele>1103</ele>
        <time>2000-01-01T05:51:04.000Z</time>
      </trkpt>
      <trkpt lat="45.75627" lon="6.09072">
        <ele>1096</ele>
        <time>2000-01-01T05:51:14.000Z</time>
      </trkpt>
      <trkpt lat="45.75605" lon="6.09098">
        <ele>1096</ele>
        <time>2000-01-01T05:51:24.000Z</time>
      </trkpt>
      <trkpt lat="45.7558" lon="6.09133">
        <ele>1084</ele>
        <time>2000-01-01T05:51:34.000Z</time>
      </trkpt>
      <trkpt lat="45.75554" lon="6.09168">
        <ele>1077</ele>
        <time>2000-01-01T05:51:44.000Z</time>
      </trkpt>
      <trkpt lat="45.75528" lon="6.09203">
        <ele>1065</ele>
        <time>2000-01-01T05:51:54.000Z</time>
      </trkpt>
      <trkpt lat="45.75502" lon="6.0924">
        <ele>1057</ele>
        <time>2000-01-01T05:52:04.000Z</time>
      </trkpt>
      <trkpt lat="45.75482" lon="6.09269">
        <ele>1045</ele>
        <time>2000-01-01T05:52:14.000Z</time>
      </trkpt>
      <trkpt lat="45.75451" lon="6.09313">
        <ele>1041</ele>
        <time>2000-01-01T05:52:24.000Z</time>
      </trkpt>
      <trkpt lat="45.75435" lon="6.09336">
        <ele>1032</ele>
        <time>2000-01-01T05:52:34.000Z</time>
      </trkpt>
      <trkpt lat="45.75413" lon="6.09368">
        <ele>1027</ele>
        <time>2000-01-01T05:52:44.000Z</time>
      </trkpt>
      <trkpt lat="45.75403" lon="6.09381">
        <ele>1025.7</ele>
        <time>2000-01-01T05:52:54.000Z</time>
      </trkpt>
      <trkpt lat="45.7539" lon="6.09398">
        <ele>1024</ele>
        <time>2000-01-01T05:53:04.000Z</time>
      </trkpt>
      <trkpt lat="45.75373" lon="6.09419">
        <ele>1017</ele>
        <time>2000-01-01T05:53:14.000Z</time>
      </trkpt>
      <trkpt lat="45.75367" lon="6.0943">
        <ele>1012</ele>
        <time>2000-01-01T05:53:24.000Z</time>
      </trkpt>
      <trkpt lat="45.75359" lon="6.09444">
        <ele>1015</ele>
        <time>2000-01-01T05:53:34.000Z</time>
      </trkpt>
      <trkpt lat="45.75343" lon="6.09467">
        <ele>1003</ele>
        <time>2000-01-01T05:53:44.000Z</time>
      </trkpt>
      <trkpt lat="45.75339" lon="6.09475">
        <ele>1002.6</ele>
        <time>2000-01-01T05:53:54.000Z</time>
      </trkpt>
      <trkpt lat="45.75333" lon="6.09491">
        <ele>1002</ele>
        <time>2000-01-01T05:54:04.000Z</time>
      </trkpt>
      <trkpt lat="45.75325" lon="6.09511">
        <ele>996.5</ele>
        <time>2000-01-01T05:54:14.000Z</time>
      </trkpt>
      <trkpt lat="45.75312" lon="6.09543">
        <ele>991</ele>
        <time>2000-01-01T05:54:24.000Z</time>
      </trkpt>
      <trkpt lat="45.75308" lon="6.09552">
        <ele>988.4</ele>
        <time>2000-01-01T05:54:34.000Z</time>
      </trkpt>
      <trkpt lat="45.75304" lon="6.0956">
        <ele>986.5</ele>
        <time>2000-01-01T05:54:44.000Z</time>
      </trkpt>
      <trkpt lat="45.75297" lon="6.09573">
        <ele>987</ele>
        <time>2000-01-01T05:54:54.000Z</time>
      </trkpt>
      <trkpt lat="45.75288" lon="6.09591">
        <ele>980.4</ele>
        <time>2000-01-01T05:55:04.000Z</time>
      </trkpt>
      <trkpt lat="45.7528" lon="6.09601">
        <ele>984</ele>
        <time>2000-01-01T05:55:14.000Z</time>
      </trkpt>
      <trkpt lat="45.75272" lon="6.09611">
        <ele>973.3</ele>
        <time>2000-01-01T05:55:24.000Z</time>
      </trkpt>
      <trkpt lat="45.75263" lon="6.0962">
        <ele>981</ele>
        <time>2000-01-01T05:55:34.000Z</time>
      </trkpt>
      <trkpt lat="45.75254" lon="6.09628">
        <ele>966.7</ele>
        <time>2000-01-01T05:55:44.000Z</time>
      </trkpt>
      <trkpt lat="45.75241" lon="6.09636">
        <ele>978</ele>
        <time>2000-01-01T05:55:54.000Z</time>
      </trkpt>
      <trkpt lat="45.75236" lon="6.0964">
        <ele>960.3</ele>
        <time>2000-01-01T05:56:04.000Z</time>
      </trkpt>
      <trkpt lat="45.7523" lon="6.09645">
        <ele>959.6</ele>
        <time>2000-01-01T05:56:14.000Z</time>
      </trkpt>
      <trkpt lat="45.75223" lon="6.09653">
        <ele>970</ele>
        <time>2000-01-01T05:56:24.000Z</time>
      </trkpt>
      <trkpt lat="45.75215" lon="6.09659">
        <ele>959.2</ele>
        <time>2000-01-01T05:56:34.000Z</time>
      </trkpt>
      <trkpt lat="45.75206" lon="6.09666">
        <ele>967</ele>
        <time>2000-01-01T05:56:44.000Z</time>
      </trkpt>
      <trkpt lat="45.75198" lon="6.09674">
        <ele>959.2</ele>
        <time>2000-01-01T05:56:54.000Z</time>
      </trkpt>
      <trkpt lat="45.75192" lon="6.0968">
        <ele>959.1</ele>
        <time>2000-01-01T05:57:04.000Z</time>
      </trkpt>
      <trkpt lat="45.75187" lon="6.09686">
        <ele>960</ele>
        <time>2000-01-01T05:57:14.000Z</time>
      </trkpt>
      <trkpt lat="45.7518" lon="6.09693">
        <ele>957.7</ele>
        <time>2000-01-01T05:57:24.000Z</time>
      </trkpt>
      <trkpt lat="45.75174" lon="6.097">
        <ele>957</ele>
        <time>2000-01-01T05:57:34.000Z</time>
      </trkpt>
      <trkpt lat="45.75167" lon="6.09707">
        <ele>954</ele>
        <time>2000-01-01T05:57:44.000Z</time>
      </trkpt>
      <trkpt lat="45.75161" lon="6.09712">
        <ele>954.7</ele>
        <time>2000-01-01T05:57:54.000Z</time>
      </trkpt>
      <trkpt lat="45.75155" lon="6.09718">
        <ele>954</ele>
        <time>2000-01-01T05:58:04.000Z</time>
      </trkpt>
      <trkpt lat="45.75141" lon="6.09732">
        <ele>947</ele>
        <time>2000-01-01T05:58:14.000Z</time>
      </trkpt>
      <trkpt lat="45.75134" lon="6.09736">
        <ele>949.8</ele>
        <time>2000-01-01T05:58:24.000Z</time>
      </trkpt>
      <trkpt lat="45.75127" lon="6.09737">
        <ele>946.4</ele>
        <time>2000-01-01T05:58:34.000Z</time>
      </trkpt>
      <trkpt lat="45.75119" lon="6.09737">
        <ele>938</ele>
        <time>2000-01-01T05:58:44.000Z</time>
      </trkpt>
      <trkpt lat="45.75107" lon="6.09738">
        <ele>935.5</ele>
        <time>2000-01-01T05:58:54.000Z</time>
      </trkpt>
      <trkpt lat="45.75098" lon="6.09739">
        <ele>924</ele>
        <time>2000-01-01T05:59:04.000Z</time>
      </trkpt>
      <trkpt lat="45.75089" lon="6.09738">
        <ele>924.1</ele>
        <time>2000-01-01T05:59:14.000Z</time>
      </trkpt>
      <trkpt lat="45.75083" lon="6.09741">
        <ele>921.2</ele>
        <time>2000-01-01T05:59:24.000Z</time>
      </trkpt>
      <trkpt lat="45.75076" lon="6.09747">
        <ele>921</ele>
        <time>2000-01-01T05:59:34.000Z</time>
      </trkpt>
      <trkpt lat="45.7507" lon="6.09754">
        <ele>916.8</ele>
        <time>2000-01-01T05:59:44.000Z</time>
      </trkpt>
      <trkpt lat="45.75041" lon="6.09788">
        <ele>916</ele>
        <time>2000-01-01T05:59:54.000Z</time>
      </trkpt>
      <trkpt lat="45.75033" lon="6.09798">
        <ele>904.8</ele>
        <time>2000-01-01T06:00:04.000Z</time>
      </trkpt>
      <trkpt lat="45.75026" lon="6.09806">
        <ele>912</ele>
        <time>2000-01-01T06:00:14.000Z</time>
      </trkpt>
      <trkpt lat="45.75021" lon="6.09807">
        <ele>899.4</ele>
        <time>2000-01-01T06:00:24.000Z</time>
      </trkpt>
      <trkpt lat="45.75014" lon="6.09807">
        <ele>895.4</ele>
        <time>2000-01-01T06:00:34.000Z</time>
      </trkpt>
      <trkpt lat="45.75007" lon="6.09803">
        <ele>902</ele>
        <time>2000-01-01T06:00:44.000Z</time>
      </trkpt>
      <trkpt lat="45.75006" lon="6.09802">
        <ele>889.6</ele>
        <time>2000-01-01T06:00:54.000Z</time>
      </trkpt>
      <trkpt lat="45.75005" lon="6.09803">
        <ele>889.2</ele>
        <time>2000-01-01T06:01:04.000Z</time>
      </trkpt>
      <trkpt lat="45.75005" lon="6.09803">
        <ele>889.2</ele>
        <time>2000-01-01T06:01:14.000Z</time>
      </trkpt>
      <trkpt lat="45.75006" lon="6.09802">
        <ele>889.6</ele>
        <time>2000-01-01T06:01:24.000Z</time>
      </trkpt>
      <trkpt lat="45.75004" lon="6.098">
        <ele>887.9</ele>
        <time>2000-01-01T06:01:34.000Z</time>
      </trkpt>
      <trkpt lat="45.75" lon="6.09793">
        <ele>883.8</ele>
        <time>2000-01-01T06:01:44.000Z</time>
      </trkpt>
      <trkpt lat="45.74988" lon="6.09766">
        <ele>880</ele>
        <time>2000-01-01T06:01:54.000Z</time>
      </trkpt>
      <trkpt lat="45.74979" lon="6.09748">
        <ele>866.4</ele>
        <time>2000-01-01T06:02:04.000Z</time>
      </trkpt>
      <trkpt lat="45.74974" lon="6.09736">
        <ele>872</ele>
        <time>2000-01-01T06:02:14.000Z</time>
      </trkpt>
      <trkpt lat="45.74971" lon="6.09725">
        <ele>859.8</ele>
        <time>2000-01-01T06:02:24.000Z</time>
      </trkpt>
      <trkpt lat="45.74969" lon="6.09715">
        <ele>856.7</ele>
        <time>2000-01-01T06:02:34.000Z</time>
      </trkpt>
      <trkpt lat="45.74969" lon="6.09704">
        <ele>863</ele>
        <time>2000-01-01T06:02:44.000Z</time>
      </trkpt>
      <trkpt lat="45.7497" lon="6.09696">
        <ele>852.5</ele>
        <time>2000-01-01T06:02:54.000Z</time>
      </trkpt>
      <trkpt lat="45.74969" lon="6.09691">
        <ele>851.6</ele>
        <time>2000-01-01T06:03:04.000Z</time>
      </trkpt>
      <trkpt lat="45.74965" lon="6.09682">
        <ele>849.8</ele>
        <time>2000-01-01T06:03:14.000Z</time>
      </trkpt>
      <trkpt lat="45.74962" lon="6.09677">
        <ele>855</ele>
        <time>2000-01-01T06:03:24.000Z</time>
      </trkpt>
      <trkpt lat="45.74959" lon="6.0967">
        <ele>847.3</ele>
        <time>2000-01-01T06:03:34.000Z</time>
      </trkpt>
      <trkpt lat="45.74956" lon="6.09662">
        <ele>845</ele>
        <time>2000-01-01T06:03:44.000Z</time>
      </trkpt>
      <trkpt lat="45.74957" lon="6.09651">
        <ele>845</ele>
        <time>2000-01-01T06:03:54.000Z</time>
      </trkpt>
      <trkpt lat="45.7496" lon="6.09641">
        <ele>841.9</ele>
        <time>2000-01-01T06:04:04.000Z</time>
      </trkpt>
      <trkpt lat="45.74964" lon="6.09635">
        <ele>841.9</ele>
        <time>2000-01-01T06:04:14.000Z</time>
      </trkpt>
      <trkpt lat="45.74969" lon="6.09628">
        <ele>835</ele>
        <time>2000-01-01T06:04:24.000Z</time>
      </trkpt>
      <trkpt lat="45.74972" lon="6.09624">
        <ele>841.4</ele>
        <time>2000-01-01T06:04:34.000Z</time>
      </trkpt>
      <trkpt lat="45.74974" lon="6.0962">
        <ele>840.8</ele>
        <time>2000-01-01T06:04:44.000Z</time>
      </trkpt>
      <trkpt lat="45.74977" lon="6.09612">
        <ele>839.1</ele>
        <time>2000-01-01T06:04:54.000Z</time>
      </trkpt>
      <trkpt lat="45.74984" lon="6.09575">
        <ele>825</ele>
        <time>2000-01-01T06:05:04.000Z</time>
      </trkpt>
      <trkpt lat="45.74985" lon="6.09565">
        <ele>831.3</ele>
        <time>2000-01-01T06:05:14.000Z</time>
      </trkpt>
      <trkpt lat="45.74986" lon="6.09554">
        <ele>828.9</ele>
        <time>2000-01-01T06:05:24.000Z</time>
      </trkpt>
      <trkpt lat="45.74987" lon="6.09543">
        <ele>810</ele>
        <time>2000-01-01T06:05:34.000Z</time>
      </trkpt>
      <trkpt lat="45.74988" lon="6.09538">
        <ele>823.9</ele>
        <time>2000-01-01T06:05:44.000Z</time>
      </trkpt>
      <trkpt lat="45.74989" lon="6.09535">
        <ele>823.5</ele>
        <time>2000-01-01T06:05:54.000Z</time>
      </trkpt>
      <trkpt lat="45.7499" lon="6.09532">
        <ele>823.2</ele>
        <time>2000-01-01T06:06:04.000Z</time>
      </trkpt>
      <trkpt lat="45.74994" lon="6.09525">
        <ele>823.2</ele>
        <time>2000-01-01T06:06:14.000Z</time>
      </trkpt>
      <trkpt lat="45.75011" lon="6.095">
        <ele>808</ele>
        <time>2000-01-01T06:06:24.000Z</time>
      </trkpt>
      <trkpt lat="45.75033" lon="6.09472">
        <ele>806</ele>
        <time>2000-01-01T06:06:34.000Z</time>
      </trkpt>
      <trkpt lat="45.7505" lon="6.09447">
        <ele>804</ele>
        <time>2000-01-01T06:06:44.000Z</time>
      </trkpt>
      <trkpt lat="45.75076" lon="6.09414">
        <ele>803</ele>
        <time>2000-01-01T06:06:54.000Z</time>
      </trkpt>
      <trkpt lat="45.75086" lon="6.09401">
        <ele>796.2</ele>
        <time>2000-01-01T06:07:04.000Z</time>
      </trkpt>
      <trkpt lat="45.7509" lon="6.09392">
        <ele>796</ele>
        <time>2000-01-01T06:07:14.000Z</time>
      </trkpt>
      <trkpt lat="45.75091" lon="6.09381">
        <ele>790.6</ele>
        <time>2000-01-01T06:07:24.000Z</time>
      </trkpt>
      <trkpt lat="45.75092" lon="6.09368">
        <ele>787.8</ele>
        <time>2000-01-01T06:07:34.000Z</time>
      </trkpt>
      <trkpt lat="45.75092" lon="6.09345">
        <ele>766</ele>
        <time>2000-01-01T06:07:44.000Z</time>
      </trkpt>
      <trkpt lat="45.75092" lon="6.0933">
        <ele>781.1</ele>
        <time>2000-01-01T06:07:54.000Z</time>
      </trkpt>
      <trkpt lat="45.75092" lon="6.09321">
        <ele>779.2</ele>
        <time>2000-01-01T06:08:04.000Z</time>
      </trkpt>
      <trkpt lat="45.75094" lon="6.09313">
        <ele>770</ele>
        <time>2000-01-01T06:08:14.000Z</time>
      </trkpt>
      <trkpt lat="45.75097" lon="6.09303">
        <ele>778.9</ele>
        <time>2000-01-01T06:08:24.000Z</time>
      </trkpt>
      <trkpt lat="45.75099" lon="6.09293">
        <ele>776.9</ele>
        <time>2000-01-01T06:08:34.000Z</time>
      </trkpt>
      <trkpt lat="45.75103" lon="6.09277">
        <ele>767</ele>
        <time>2000-01-01T06:08:44.000Z</time>
      </trkpt>
      <trkpt lat="45.75107" lon="6.09266">
        <ele>773.2</ele>
        <time>2000-01-01T06:08:54.000Z</time>
      </trkpt>
      <trkpt lat="45.75111" lon="6.09257">
        <ele>771.9</ele>
        <time>2000-01-01T06:09:04.000Z</time>
      </trkpt>
      <trkpt lat="45.7512" lon="6.09242">
        <ele>764</ele>
        <time>2000-01-01T06:09:14.000Z</time>
      </trkpt>
      <trkpt lat="45.75141" lon="6.09209">
        <ele>761</ele>
        <time>2000-01-01T06:09:24.000Z</time>
      </trkpt>
      <trkpt lat="45.7516" lon="6.09178">
        <ele>758</ele>
        <time>2000-01-01T06:09:34.000Z</time>
      </trkpt>
      <trkpt lat="45.7518" lon="6.0915">
        <ele>746</ele>
        <time>2000-01-01T06:09:44.000Z</time>
      </trkpt>
      <trkpt lat="45.75205" lon="6.09111">
        <ele>743</ele>
        <time>2000-01-01T06:09:54.000Z</time>
      </trkpt>
      <trkpt lat="45.75234" lon="6.09067">
        <ele>743</ele>
        <time>2000-01-01T06:10:04.000Z</time>
      </trkpt>
      <trkpt lat="45.75258" lon="6.0903">
        <ele>743</ele>
        <time>2000-01-01T06:10:14.000Z</time>
      </trkpt>
      <trkpt lat="45.75266" lon="6.09015">
        <ele>745</ele>
        <time>2000-01-01T06:10:24.000Z</time>
      </trkpt>
      <trkpt lat="45.75271" lon="6.09001">
        <ele>744</ele>
        <time>2000-01-01T06:10:34.000Z</time>
      </trkpt>
      <trkpt lat="45.75274" lon="6.08987">
        <ele>739.6</ele>
        <time>2000-01-01T06:10:44.000Z</time>
      </trkpt>
      <trkpt lat="45.75275" lon="6.08978">
        <ele>738.7</ele>
        <time>2000-01-01T06:10:54.000Z</time>
      </trkpt>
      <trkpt lat="45.75274" lon="6.08971">
        <ele>739</ele>
        <time>2000-01-01T06:11:04.000Z</time>
      </trkpt>
      <trkpt lat="45.75273" lon="6.08963">
        <ele>736.4</ele>
        <time>2000-01-01T06:11:14.000Z</time>
      </trkpt>
      <trkpt lat="45.75271" lon="6.08953">
        <ele>734.9</ele>
        <time>2000-01-01T06:11:24.000Z</time>
      </trkpt>
      <trkpt lat="45.75269" lon="6.0894">
        <ele>734</ele>
        <time>2000-01-01T06:11:34.000Z</time>
      </trkpt>
      <trkpt lat="45.75262" lon="6.08916">
        <ele>730.7</ele>
        <time>2000-01-01T06:11:44.000Z</time>
      </trkpt>
      <trkpt lat="45.75259" lon="6.08897">
        <ele>727</ele>
        <time>2000-01-01T06:11:54.000Z</time>
      </trkpt>
      <trkpt lat="45.75258" lon="6.08881">
        <ele>727.7</ele>
        <time>2000-01-01T06:12:04.000Z</time>
      </trkpt>
      <trkpt lat="45.75259" lon="6.08869">
        <ele>721</ele>
        <time>2000-01-01T06:12:14.000Z</time>
      </trkpt>
      <trkpt lat="45.75261" lon="6.08854">
        <ele>727.1</ele>
        <time>2000-01-01T06:12:24.000Z</time>
      </trkpt>
      <trkpt lat="45.75261" lon="6.08841">
        <ele>716</ele>
        <time>2000-01-01T06:12:34.000Z</time>
      </trkpt>
      <trkpt lat="45.75262" lon="6.08829">
        <ele>723.5</ele>
        <time>2000-01-01T06:12:44.000Z</time>
      </trkpt>
      <trkpt lat="45.75263" lon="6.08823">
        <ele>722.6</ele>
        <time>2000-01-01T06:12:54.000Z</time>
      </trkpt>
      <trkpt lat="45.75266" lon="6.08811">
        <ele>716</ele>
        <time>2000-01-01T06:13:04.000Z</time>
      </trkpt>
      <trkpt lat="45.75274" lon="6.08792">
        <ele>719.9</ele>
        <time>2000-01-01T06:13:14.000Z</time>
      </trkpt>
      <trkpt lat="45.75281" lon="6.08773">
        <ele>715</ele>
        <time>2000-01-01T06:13:24.000Z</time>
      </trkpt>
      <trkpt lat="45.75286" lon="6.08755">
        <ele>717.4</ele>
        <time>2000-01-01T06:13:34.000Z</time>
      </trkpt>
      <trkpt lat="45.75289" lon="6.08739">
        <ele>714</ele>
        <time>2000-01-01T06:13:44.000Z</time>
      </trkpt>
      <trkpt lat="45.75292" lon="6.08723">
        <ele>717.1</ele>
        <time>2000-01-01T06:13:54.000Z</time>
      </trkpt>
      <trkpt lat="45.75292" lon="6.08712">
        <ele>714</ele>
        <time>2000-01-01T06:14:04.000Z</time>
      </trkpt>
      <trkpt lat="45.75293" lon="6.08704">
        <ele>715.7</ele>
        <time>2000-01-01T06:14:14.000Z</time>
      </trkpt>
      <trkpt lat="45.75291" lon="6.08691">
        <ele>714</ele>
        <time>2000-01-01T06:14:24.000Z</time>
      </trkpt>
      <trkpt lat="45.75288" lon="6.08676">
        <ele>714</ele>
        <time>2000-01-01T06:14:34.000Z</time>
      </trkpt>
      <trkpt lat="45.75287" lon="6.08662">
        <ele>710.5</ele>
        <time>2000-01-01T06:14:44.000Z</time>
      </trkpt>
      <trkpt lat="45.75287" lon="6.08644">
        <ele>714</ele>
        <time>2000-01-01T06:14:54.000Z</time>
      </trkpt>
      <trkpt lat="45.75288" lon="6.08637">
        <ele>709.9</ele>
        <time>2000-01-01T06:15:04.000Z</time>
      </trkpt>
      <trkpt lat="45.75275" lon="6.08636">
        <ele>704.7</ele>
        <time>2000-01-01T06:15:14.000Z</time>
      </trkpt>
      <trkpt lat="45.75275" lon="6.08636">
        <ele>704.7</ele>
        <time>2000-01-01T06:15:24.000Z</time>
      </trkpt>
      <trkpt lat="45.75288" lon="6.08637">
        <ele>714</ele>
        <time>2000-01-01T06:15:34.000Z</time>
      </trkpt>
      <trkpt lat="45.75289" lon="6.08616">
        <ele>708.8</ele>
        <time>2000-01-01T06:15:44.000Z</time>
      </trkpt>
      <trkpt lat="45.75288" lon="6.08609">
        <ele>712</ele>
        <time>2000-01-01T06:15:54.000Z</time>
      </trkpt>
      <trkpt lat="45.75284" lon="6.086">
        <ele>705.3</ele>
        <time>2000-01-01T06:16:04.000Z</time>
      </trkpt>
      <trkpt lat="45.7528" lon="6.08589">
        <ele>702.5</ele>
        <time>2000-01-01T06:16:14.000Z</time>
      </trkpt>
      <trkpt lat="45.75278" lon="6.08576">
        <ele>708</ele>
        <time>2000-01-01T06:16:24.000Z</time>
      </trkpt>
      <trkpt lat="45.75277" lon="6.08556">
        <ele>697.7</ele>
        <time>2000-01-01T06:16:34.000Z</time>
      </trkpt>
      <trkpt lat="45.75275" lon="6.08532">
        <ele>700</ele>
        <time>2000-01-01T06:16:44.000Z</time>
      </trkpt>
      <trkpt lat="45.75271" lon="6.08512">
        <ele>693.1</ele>
        <time>2000-01-01T06:16:54.000Z</time>
      </trkpt>
      <trkpt lat="45.75268" lon="6.08501">
        <ele>693</ele>
        <time>2000-01-01T06:17:04.000Z</time>
      </trkpt>
      <trkpt lat="45.75266" lon="6.08487">
        <ele>691.2</ele>
        <time>2000-01-01T06:17:14.000Z</time>
      </trkpt>
      <trkpt lat="45.75265" lon="6.08469">
        <ele>691</ele>
        <time>2000-01-01T06:17:24.000Z</time>
      </trkpt>
      <trkpt lat="45.75265" lon="6.08455">
        <ele>690.5</ele>
        <time>2000-01-01T06:17:34.000Z</time>
      </trkpt>
      <trkpt lat="45.75267" lon="6.08432">
        <ele>690</ele>
        <time>2000-01-01T06:17:44.000Z</time>
      </trkpt>
      <trkpt lat="45.75269" lon="6.08413">
        <ele>689.2</ele>
        <time>2000-01-01T06:17:54.000Z</time>
      </trkpt>
      <trkpt lat="45.7527" lon="6.08399">
        <ele>689</ele>
        <time>2000-01-01T06:18:04.000Z</time>
      </trkpt>
      <trkpt lat="45.75275" lon="6.08377">
        <ele>687.2</ele>
        <time>2000-01-01T06:18:14.000Z</time>
      </trkpt>
      <trkpt lat="45.75277" lon="6.08365">
        <ele>686</ele>
        <time>2000-01-01T06:18:24.000Z</time>
      </trkpt>
      <trkpt lat="45.7528" lon="6.08348">
        <ele>685.4</ele>
        <time>2000-01-01T06:18:34.000Z</time>
      </trkpt>
      <trkpt lat="45.75285" lon="6.0833">
        <ele>680</ele>
        <time>2000-01-01T06:18:44.000Z</time>
      </trkpt>
      <trkpt lat="45.75289" lon="6.08315">
        <ele>682.3</ele>
        <time>2000-01-01T06:18:54.000Z</time>
      </trkpt>
      <trkpt lat="45.75295" lon="6.08299">
        <ele>678</ele>
        <time>2000-01-01T06:19:04.000Z</time>
      </trkpt>
      <trkpt lat="45.75307" lon="6.08276">
        <ele>678</ele>
        <time>2000-01-01T06:19:14.000Z</time>
      </trkpt>
      <trkpt lat="45.75318" lon="6.08258">
        <ele>677.8</ele>
        <time>2000-01-01T06:19:24.000Z</time>
      </trkpt>
      <trkpt lat="45.75323" lon="6.08245">
        <ele>678</ele>
        <time>2000-01-01T06:19:34.000Z</time>
      </trkpt>
      <trkpt lat="45.75327" lon="6.08233">
        <ele>677.2</ele>
        <time>2000-01-01T06:19:44.000Z</time>
      </trkpt>
      <trkpt lat="45.75334" lon="6.08214">
        <ele>677</ele>
        <time>2000-01-01T06:19:54.000Z</time>
      </trkpt>
      <trkpt lat="45.75327" lon="6.08204">
        <ele>676.8</ele>
        <time>2000-01-01T06:20:04.000Z</time>
      </trkpt>
      <trkpt lat="45.7532" lon="6.08189">
        <ele>677</ele>
        <time>2000-01-01T06:20:14.000Z</time>
      </trkpt>
      <trkpt lat="45.75313" lon="6.08175">
        <ele>673.2</ele>
        <time>2000-01-01T06:20:24.000Z</time>
      </trkpt>
      <trkpt lat="45.75309" lon="6.0817">
        <ele>671.6</ele>
        <time>2000-01-01T06:20:34.000Z</time>
      </trkpt>
      <trkpt lat="45.75306" lon="6.08168">
        <ele>677</ele>
        <time>2000-01-01T06:20:44.000Z</time>
      </trkpt>
      <trkpt lat="45.75303" lon="6.08167">
        <ele>669.5</ele>
        <time>2000-01-01T06:20:54.000Z</time>
      </trkpt>
      <trkpt lat="45.75303" lon="6.08167">
        <ele>669.5</ele>
        <time>2000-01-01T06:21:04.000Z</time>
      </trkpt>
      <trkpt lat="45.75303" lon="6.08167">
        <ele>669.5</ele>
        <time>2000-01-01T06:21:14.000Z</time>
      </trkpt>
      <trkpt lat="45.75301" lon="6.08166">
        <ele>669.3</ele>
        <time>2000-01-01T06:21:24.000Z</time>
      </trkpt>
      <trkpt lat="45.75297" lon="6.08166">
        <ele>668.5</ele>
        <time>2000-01-01T06:21:34.000Z</time>
      </trkpt>
      <trkpt lat="45.75293" lon="6.08168">
        <ele>667.7</ele>
        <time>2000-01-01T06:21:44.000Z</time>
      </trkpt>
      <trkpt lat="45.75288" lon="6.08169">
        <ele>666.8</ele>
        <time>2000-01-01T06:21:54.000Z</time>
      </trkpt>
      <trkpt lat="45.75284" lon="6.0817">
        <ele>669</ele>
        <time>2000-01-01T06:22:04.000Z</time>
      </trkpt>
      <trkpt lat="45.75278" lon="6.08169">
        <ele>665</ele>
        <time>2000-01-01T06:22:14.000Z</time>
      </trkpt>
      <trkpt lat="45.7527" lon="6.08164">
        <ele>663.6</ele>
        <time>2000-01-01T06:22:24.000Z</time>
      </trkpt>
      <trkpt lat="45.75261" lon="6.0816">
        <ele>662</ele>
        <time>2000-01-01T06:22:34.000Z</time>
      </trkpt>
      <trkpt lat="45.75255" lon="6.08159">
        <ele>660.7</ele>
        <time>2000-01-01T06:22:44.000Z</time>
      </trkpt>
      <trkpt lat="45.75242" lon="6.08159">
        <ele>662</ele>
        <time>2000-01-01T06:22:54.000Z</time>
      </trkpt>
      <trkpt lat="45.75232" lon="6.0816">
        <ele>656.7</ele>
        <time>2000-01-01T06:23:04.000Z</time>
      </trkpt>
      <trkpt lat="45.75232" lon="6.08149">
        <ele>656.5</ele>
        <time>2000-01-01T06:23:14.000Z</time>
      </trkpt>
      <trkpt lat="45.75233" lon="6.08139">
        <ele>659</ele>
        <time>2000-01-01T06:23:24.000Z</time>
      </trkpt>
      <trkpt lat="45.75219" lon="6.08125">
        <ele>654</ele>
        <time>2000-01-01T06:23:34.000Z</time>
      </trkpt>
      <trkpt lat="45.75212" lon="6.08121">
        <ele>657</ele>
        <time>2000-01-01T06:23:44.000Z</time>
      </trkpt>
      <trkpt lat="45.75203" lon="6.08115">
        <ele>651.3</ele>
        <time>2000-01-01T06:23:54.000Z</time>
      </trkpt>
      <trkpt lat="45.75196" lon="6.08108">
        <ele>650</ele>
        <time>2000-01-01T06:24:04.000Z</time>
      </trkpt>
      <trkpt lat="45.75194" lon="6.08105">
        <ele>650</ele>
        <time>2000-01-01T06:24:14.000Z</time>
      </trkpt>
      <trkpt lat="45.75194" lon="6.08101">
        <ele>649.2</ele>
        <time>2000-01-01T06:24:24.000Z</time>
      </trkpt>
      <trkpt lat="45.75193" lon="6.08084">
        <ele>647.8</ele>
        <time>2000-01-01T06:24:34.000Z</time>
      </trkpt>
      <trkpt lat="45.75191" lon="6.08074">
        <ele>648</ele>
        <time>2000-01-01T06:24:44.000Z</time>
      </trkpt>
      <trkpt lat="45.75189" lon="6.08066">
        <ele>646</ele>
        <time>2000-01-01T06:24:54.000Z</time>
      </trkpt>
      <trkpt lat="45.75186" lon="6.0806">
        <ele>645.1</ele>
        <time>2000-01-01T06:25:04.000Z</time>
      </trkpt>
      <trkpt lat="45.75182" lon="6.08068">
        <ele>645.1</ele>
        <time>2000-01-01T06:25:14.000Z</time>
      </trkpt>
      <trkpt lat="45.75175" lon="6.08078">
        <ele>645</ele>
        <time>2000-01-01T06:25:24.000Z</time>
      </trkpt>
      <trkpt lat="45.7517" lon="6.08088">
        <ele>644.5</ele>
        <time>2000-01-01T06:25:34.000Z</time>
      </trkpt>
      <trkpt lat="45.75167" lon="6.08092">
        <ele>644.1</ele>
        <time>2000-01-01T06:25:44.000Z</time>
      </trkpt>
      <trkpt lat="45.75165" lon="6.081">
        <ele>643.6</ele>
        <time>2000-01-01T06:25:54.000Z</time>
      </trkpt>
      <trkpt lat="45.75161" lon="6.08116">
        <ele>643</ele>
        <time>2000-01-01T06:26:04.000Z</time>
      </trkpt>
      <trkpt lat="45.75157" lon="6.08135">
        <ele>641.9</ele>
        <time>2000-01-01T06:26:14.000Z</time>
      </trkpt>
      <trkpt lat="45.75152" lon="6.08161">
        <ele>640</ele>
        <time>2000-01-01T06:26:24.000Z</time>
      </trkpt>
      <trkpt lat="45.75149" lon="6.08176">
        <ele>640.4</ele>
        <time>2000-01-01T06:26:34.000Z</time>
      </trkpt>
      <trkpt lat="45.75148" lon="6.0818">
        <ele>640.3</ele>
        <time>2000-01-01T06:26:44.000Z</time>
      </trkpt>
      <trkpt lat="45.75138" lon="6.08218">
        <ele>638</ele>
        <time>2000-01-01T06:26:54.000Z</time>
      </trkpt>
      <trkpt lat="45.7513" lon="6.08248">
        <ele>634</ele>
        <time>2000-01-01T06:27:04.000Z</time>
      </trkpt>
      <trkpt lat="45.75124" lon="6.08262">
        <ele>639</ele>
        <time>2000-01-01T06:27:14.000Z</time>
      </trkpt>
      <trkpt lat="45.75115" lon="6.08286">
        <ele>633</ele>
        <time>2000-01-01T06:27:24.000Z</time>
      </trkpt>
      <trkpt lat="45.75104" lon="6.08316">
        <ele>633</ele>
        <time>2000-01-01T06:27:34.000Z</time>
      </trkpt>
      <trkpt lat="45.75099" lon="6.08333">
        <ele>635.6</ele>
        <time>2000-01-01T06:27:44.000Z</time>
      </trkpt>
      <trkpt lat="45.75094" lon="6.08348">
        <ele>632</ele>
        <time>2000-01-01T06:27:54.000Z</time>
      </trkpt>
      <trkpt lat="45.75089" lon="6.08369">
        <ele>635</ele>
        <time>2000-01-01T06:28:04.000Z</time>
      </trkpt>
      <trkpt lat="45.75086" lon="6.08387">
        <ele>633</ele>
        <time>2000-01-01T06:28:14.000Z</time>
      </trkpt>
      <trkpt lat="45.75083" lon="6.08403">
        <ele>635.4</ele>
        <time>2000-01-01T06:28:24.000Z</time>
      </trkpt>
      <trkpt lat="45.75079" lon="6.08418">
        <ele>634</ele>
        <time>2000-01-01T06:28:34.000Z</time>
      </trkpt>
      <trkpt lat="45.75072" lon="6.08447">
        <ele>633</ele>
        <time>2000-01-01T06:28:44.000Z</time>
      </trkpt>
      <trkpt lat="45.75065" lon="6.0847">
        <ele>635.8</ele>
        <time>2000-01-01T06:28:54.000Z</time>
      </trkpt>
      <trkpt lat="45.75059" lon="6.08491">
        <ele>633</ele>
        <time>2000-01-01T06:29:04.000Z</time>
      </trkpt>
      <trkpt lat="45.7505" lon="6.08514">
        <ele>635.5</ele>
        <time>2000-01-01T06:29:14.000Z</time>
      </trkpt>
      <trkpt lat="45.75038" lon="6.08548">
        <ele>631</ele>
        <time>2000-01-01T06:29:24.000Z</time>
      </trkpt>
      <trkpt lat="45.75025" lon="6.08573">
        <ele>630</ele>
        <time>2000-01-01T06:29:34.000Z</time>
      </trkpt>
      <trkpt lat="45.75012" lon="6.086">
        <ele>629</ele>
        <time>2000-01-01T06:29:44.000Z</time>
      </trkpt>
      <trkpt lat="45.75008" lon="6.08611">
        <ele>630.3</ele>
        <time>2000-01-01T06:29:54.000Z</time>
      </trkpt>
      <trkpt lat="45.75006" lon="6.08622">
        <ele>630.4</ele>
        <time>2000-01-01T06:30:04.000Z</time>
      </trkpt>
      <trkpt lat="45.75003" lon="6.08636">
        <ele>629</ele>
        <time>2000-01-01T06:30:14.000Z</time>
      </trkpt>
      <trkpt lat="45.75001" lon="6.08653">
        <ele>630.7</ele>
        <time>2000-01-01T06:30:24.000Z</time>
      </trkpt>
      <trkpt lat="45.74999" lon="6.08666">
        <ele>629</ele>
        <time>2000-01-01T06:30:34.000Z</time>
      </trkpt>
      <trkpt lat="45.74996" lon="6.08681">
        <ele>630.4</ele>
        <time>2000-01-01T06:30:44.000Z</time>
      </trkpt>
      <trkpt lat="45.74995" lon="6.08691">
        <ele>630.4</ele>
        <time>2000-01-01T06:30:54.000Z</time>
      </trkpt>
      <trkpt lat="45.74995" lon="6.087">
        <ele>629</ele>
        <time>2000-01-01T06:31:04.000Z</time>
      </trkpt>
      <trkpt lat="45.74996" lon="6.08709">
        <ele>630.9</ele>
        <time>2000-01-01T06:31:14.000Z</time>
      </trkpt>
      <trkpt lat="45.74999" lon="6.08726">
        <ele>631.9</ele>
        <time>2000-01-01T06:31:24.000Z</time>
      </trkpt>
      <trkpt lat="45.74999" lon="6.08733">
        <ele>630</ele>
        <time>2000-01-01T06:31:34.000Z</time>
      </trkpt>
      <trkpt lat="45.74997" lon="6.08743">
        <ele>632.1</ele>
        <time>2000-01-01T06:31:44.000Z</time>
      </trkpt>
      <trkpt lat="45.74993" lon="6.0876">
        <ele>631</ele>
        <time>2000-01-01T06:31:54.000Z</time>
      </trkpt>
      <trkpt lat="45.74986" lon="6.08779">
        <ele>631.5</ele>
        <time>2000-01-01T06:32:04.000Z</time>
      </trkpt>
      <trkpt lat="45.74975" lon="6.08806">
        <ele>632</ele>
        <time>2000-01-01T06:32:14.000Z</time>
      </trkpt>
      <trkpt lat="45.74969" lon="6.0883">
        <ele>631.2</ele>
        <time>2000-01-01T06:32:24.000Z</time>
      </trkpt>
      <trkpt lat="45.74964" lon="6.08847">
        <ele>634</ele>
        <time>2000-01-01T06:32:34.000Z</time>
      </trkpt>
      <trkpt lat="45.74962" lon="6.08864">
        <ele>631.4</ele>
        <time>2000-01-01T06:32:44.000Z</time>
      </trkpt>
      <trkpt lat="45.74961" lon="6.08878">
        <ele>636</ele>
        <time>2000-01-01T06:32:54.000Z</time>
      </trkpt>
      <trkpt lat="45.74961" lon="6.08892">
        <ele>630.9</ele>
        <time>2000-01-01T06:33:04.000Z</time>
      </trkpt>
      <trkpt lat="45.74962" lon="6.08905">
        <ele>633</ele>
        <time>2000-01-01T06:33:14.000Z</time>
      </trkpt>
      <trkpt lat="45.74961" lon="6.08913">
        <ele>632</ele>
        <time>2000-01-01T06:33:24.000Z</time>
      </trkpt>
      <trkpt lat="45.7496" lon="6.08919">
        <ele>632.3</ele>
        <time>2000-01-01T06:33:34.000Z</time>
      </trkpt>
      <trkpt lat="45.74954" lon="6.08933">
        <ele>633</ele>
        <time>2000-01-01T06:33:44.000Z</time>
      </trkpt>
      <trkpt lat="45.74941" lon="6.0896">
        <ele>631</ele>
        <time>2000-01-01T06:33:54.000Z</time>
      </trkpt>
      <trkpt lat="45.74929" lon="6.08986">
        <ele>631</ele>
        <time>2000-01-01T06:34:04.000Z</time>
      </trkpt>
      <trkpt lat="45.74922" lon="6.08999">
        <ele>634.6</ele>
        <time>2000-01-01T06:34:14.000Z</time>
      </trkpt>
      <trkpt lat="45.74918" lon="6.09009">
        <ele>631</ele>
        <time>2000-01-01T06:34:24.000Z</time>
      </trkpt>
      <trkpt lat="45.74913" lon="6.09027">
        <ele>634.6</ele>
        <time>2000-01-01T06:34:34.000Z</time>
      </trkpt>
      <trkpt lat="45.74908" lon="6.09054">
        <ele>629</ele>
        <time>2000-01-01T06:34:44.000Z</time>
      </trkpt>
      <trkpt lat="45.74903" lon="6.0907">
        <ele>633.1</ele>
        <time>2000-01-01T06:34:54.000Z</time>
      </trkpt>
      <trkpt lat="45.74897" lon="6.09086">
        <ele>629</ele>
        <time>2000-01-01T06:35:04.000Z</time>
      </trkpt>
      <trkpt lat="45.74886" lon="6.09108">
        <ele>629</ele>
        <time>2000-01-01T06:35:14.000Z</time>
      </trkpt>
      <trkpt lat="45.74875" lon="6.09136">
        <ele>628</ele>
        <time>2000-01-01T06:35:24.000Z</time>
      </trkpt>
      <trkpt lat="45.74868" lon="6.09149">
        <ele>631.4</ele>
        <time>2000-01-01T06:35:34.000Z</time>
      </trkpt>
      <trkpt lat="45.74862" lon="6.09161">
        <ele>628</ele>
        <time>2000-01-01T06:35:44.000Z</time>
      </trkpt>
      <trkpt lat="45.74853" lon="6.09175">
        <ele>632.3</ele>
        <time>2000-01-01T06:35:54.000Z</time>
      </trkpt>
      <trkpt lat="45.74849" lon="6.09184">
        <ele>621</ele>
        <time>2000-01-01T06:36:04.000Z</time>
      </trkpt>
      <trkpt lat="45.74846" lon="6.09192">
        <ele>631.3</ele>
        <time>2000-01-01T06:36:14.000Z</time>
      </trkpt>
      <trkpt lat="45.74845" lon="6.09203">
        <ele>631.2</ele>
        <time>2000-01-01T06:36:24.000Z</time>
      </trkpt>
      <trkpt lat="45.74842" lon="6.09224">
        <ele>620</ele>
        <time>2000-01-01T06:36:34.000Z</time>
      </trkpt>
      <trkpt lat="45.7484" lon="6.0925">
        <ele>629.4</ele>
        <time>2000-01-01T06:36:44.000Z</time>
      </trkpt>
      <trkpt lat="45.74838" lon="6.09269">
        <ele>620</ele>
        <time>2000-01-01T06:36:54.000Z</time>
      </trkpt>
      <trkpt lat="45.74835" lon="6.09276">
        <ele>626.7</ele>
        <time>2000-01-01T06:37:04.000Z</time>
      </trkpt>
      <trkpt lat="45.74832" lon="6.09282">
        <ele>625.8</ele>
        <time>2000-01-01T06:37:14.000Z</time>
      </trkpt>
      <trkpt lat="45.74826" lon="6.0929">
        <ele>618</ele>
        <time>2000-01-01T06:37:24.000Z</time>
      </trkpt>
      <trkpt lat="45.7481" lon="6.09306">
        <ele>616</ele>
        <time>2000-01-01T06:37:34.000Z</time>
      </trkpt>
      <trkpt lat="45.74794" lon="6.09321">
        <ele>614</ele>
        <time>2000-01-01T06:37:44.000Z</time>
      </trkpt>
      <trkpt lat="45.74779" lon="6.09338">
        <ele>618.9</ele>
        <time>2000-01-01T06:37:54.000Z</time>
      </trkpt>
      <trkpt lat="45.74766" lon="6.09352">
        <ele>613</ele>
        <time>2000-01-01T06:38:04.000Z</time>
      </trkpt>
      <trkpt lat="45.74755" lon="6.09363">
        <ele>616.4</ele>
        <time>2000-01-01T06:38:14.000Z</time>
      </trkpt>
      <trkpt lat="45.74746" lon="6.09374">
        <ele>613</ele>
        <time>2000-01-01T06:38:24.000Z</time>
      </trkpt>
      <trkpt lat="45.74738" lon="6.09387">
        <ele>613.9</ele>
        <time>2000-01-01T06:38:34.000Z</time>
      </trkpt>
      <trkpt lat="45.7473" lon="6.094">
        <ele>614</ele>
        <time>2000-01-01T06:38:44.000Z</time>
      </trkpt>
      <trkpt lat="45.74725" lon="6.09412">
        <ele>611.4</ele>
        <time>2000-01-01T06:38:54.000Z</time>
      </trkpt>
      <trkpt lat="45.74724" lon="6.09415">
        <ele>611.3</ele>
        <time>2000-01-01T06:39:04.000Z</time>
      </trkpt>
      <trkpt lat="45.74725" lon="6.09418">
        <ele>611.7</ele>
        <time>2000-01-01T06:39:14.000Z</time>
      </trkpt>
      <trkpt lat="45.74729" lon="6.09422">
        <ele>616</ele>
        <time>2000-01-01T06:39:24.000Z</time>
      </trkpt>
      <trkpt lat="45.74734" lon="6.09428">
        <ele>614.8</ele>
        <time>2000-01-01T06:39:34.000Z</time>
      </trkpt>
      <trkpt lat="45.74737" lon="6.09433">
        <ele>616</ele>
        <time>2000-01-01T06:39:44.000Z</time>
      </trkpt>
      <trkpt lat="45.74741" lon="6.09443">
        <ele>623</ele>
        <time>2000-01-01T06:39:54.000Z</time>
      </trkpt>
      <trkpt lat="45.74743" lon="6.09456">
        <ele>620.6</ele>
        <time>2000-01-01T06:40:04.000Z</time>
      </trkpt>
      <trkpt lat="45.74741" lon="6.09472">
        <ele>621</ele>
        <time>2000-01-01T06:40:14.000Z</time>
      </trkpt>
      <trkpt lat="45.74738" lon="6.0949">
        <ele>626.9</ele>
        <time>2000-01-01T06:40:24.000Z</time>
      </trkpt>
      <trkpt lat="45.74733" lon="6.09505">
        <ele>625</ele>
        <time>2000-01-01T06:40:34.000Z</time>
      </trkpt>
      <trkpt lat="45.74729" lon="6.09513">
        <ele>629.9</ele>
        <time>2000-01-01T06:40:44.000Z</time>
      </trkpt>
      <trkpt lat="45.74722" lon="6.09527">
        <ele>629</ele>
        <time>2000-01-01T06:40:54.000Z</time>
      </trkpt>
      <trkpt lat="45.74701" lon="6.09552">
        <ele>628</ele>
        <time>2000-01-01T06:41:04.000Z</time>
      </trkpt>
      <trkpt lat="45.74687" lon="6.09569">
        <ele>626.4</ele>
        <time>2000-01-01T06:41:14.000Z</time>
      </trkpt>
      <trkpt lat="45.74672" lon="6.09583">
        <ele>627</ele>
        <time>2000-01-01T06:41:24.000Z</time>
      </trkpt>
      <trkpt lat="45.74659" lon="6.0959">
        <ele>620.9</ele>
        <time>2000-01-01T06:41:34.000Z</time>
      </trkpt>
      <trkpt lat="45.7465" lon="6.09598">
        <ele>624</ele>
        <time>2000-01-01T06:41:44.000Z</time>
      </trkpt>
      <trkpt lat="45.74641" lon="6.09606">
        <ele>624</ele>
        <time>2000-01-01T06:41:54.000Z</time>
      </trkpt>
      <trkpt lat="45.7463" lon="6.09622">
        <ele>622</ele>
        <time>2000-01-01T06:42:04.000Z</time>
      </trkpt>
      <trkpt lat="45.74611" lon="6.09649">
        <ele>621</ele>
        <time>2000-01-01T06:42:14.000Z</time>
      </trkpt>
      <trkpt lat="45.74593" lon="6.09676">
        <ele>622</ele>
        <time>2000-01-01T06:42:24.000Z</time>
      </trkpt>
      <trkpt lat="45.74575" lon="6.09699">
        <ele>622</ele>
        <time>2000-01-01T06:42:34.000Z</time>
      </trkpt>
      <trkpt lat="45.7456" lon="6.09716">
        <ele>629.7</ele>
        <time>2000-01-01T06:42:44.000Z</time>
      </trkpt>
      <trkpt lat="45.74545" lon="6.09729">
        <ele>620</ele>
        <time>2000-01-01T06:42:54.000Z</time>
      </trkpt>
      <trkpt lat="45.74517" lon="6.09738">
        <ele>619</ele>
        <time>2000-01-01T06:43:04.000Z</time>
      </trkpt>
      <trkpt lat="45.74508" lon="6.09736">
        <ele>626</ele>
        <time>2000-01-01T06:43:14.000Z</time>
      </trkpt>
      <trkpt lat="45.74501" lon="6.09734">
        <ele>624.5</ele>
        <time>2000-01-01T06:43:24.000Z</time>
      </trkpt>
      <trkpt lat="45.74495" lon="6.09734">
        <ele>619</ele>
        <time>2000-01-01T06:43:34.000Z</time>
      </trkpt>
      <trkpt lat="45.74489" lon="6.09734">
        <ele>625.8</ele>
        <time>2000-01-01T06:43:44.000Z</time>
      </trkpt>
      <trkpt lat="45.74483" lon="6.09737">
        <ele>627.4</ele>
        <time>2000-01-01T06:43:54.000Z</time>
      </trkpt>
      <trkpt lat="45.74477" lon="6.09741">
        <ele>624</ele>
        <time>2000-01-01T06:44:04.000Z</time>
      </trkpt>
      <trkpt lat="45.74473" lon="6.09746">
        <ele>630.9</ele>
        <time>2000-01-01T06:44:14.000Z</time>
      </trkpt>
      <trkpt lat="45.74469" lon="6.09751">
        <ele>630.6</ele>
        <time>2000-01-01T06:44:24.000Z</time>
      </trkpt>
      <trkpt lat="45.74467" lon="6.0976">
        <ele>630.4</ele>
        <time>2000-01-01T06:44:34.000Z</time>
      </trkpt>
      <trkpt lat="45.74463" lon="6.09773">
        <ele>630</ele>
        <time>2000-01-01T06:44:44.000Z</time>
      </trkpt>
      <trkpt lat="45.74461" lon="6.09783">
        <ele>629.4</ele>
        <time>2000-01-01T06:44:54.000Z</time>
      </trkpt>
      <trkpt lat="45.7446" lon="6.09793">
        <ele>630.5</ele>
        <time>2000-01-01T06:45:04.000Z</time>
      </trkpt>
      <trkpt lat="45.74457" lon="6.09809">
        <ele>633</ele>
        <time>2000-01-01T06:45:14.000Z</time>
      </trkpt>
      <trkpt lat="45.74455" lon="6.09817">
        <ele>632</ele>
        <time>2000-01-01T06:45:24.000Z</time>
      </trkpt>
      <trkpt lat="45.74449" lon="6.09827">
        <ele>630.9</ele>
        <time>2000-01-01T06:45:34.000Z</time>
      </trkpt>
      <trkpt lat="45.74443" lon="6.09837">
        <ele>636</ele>
        <time>2000-01-01T06:45:44.000Z</time>
      </trkpt>
      <trkpt lat="45.74429" lon="6.09852">
        <ele>635.7</ele>
        <time>2000-01-01T06:45:54.000Z</time>
      </trkpt>
      <trkpt lat="45.7441" lon="6.09871">
        <ele>636</ele>
        <time>2000-01-01T06:46:04.000Z</time>
      </trkpt>
      <trkpt lat="45.74397" lon="6.09885">
        <ele>641.4</ele>
        <time>2000-01-01T06:46:14.000Z</time>
      </trkpt>
      <trkpt lat="45.74378" lon="6.09907">
        <ele>634</ele>
        <time>2000-01-01T06:46:24.000Z</time>
      </trkpt>
      <trkpt lat="45.7436" lon="6.09925">
        <ele>637</ele>
        <time>2000-01-01T06:46:34.000Z</time>
      </trkpt>
      <trkpt lat="45.74354" lon="6.0993">
        <ele>640.2</ele>
        <time>2000-01-01T06:46:44.000Z</time>
      </trkpt>
      <trkpt lat="45.74345" lon="6.09937">
        <ele>640.2</ele>
        <time>2000-01-01T06:46:54.000Z</time>
      </trkpt>
      <trkpt lat="45.74335" lon="6.0994">
        <ele>640</ele>
        <time>2000-01-01T06:47:04.000Z</time>
      </trkpt>
      <trkpt lat="45.74323" lon="6.09944">
        <ele>638.4</ele>
        <time>2000-01-01T06:47:14.000Z</time>
      </trkpt>
      <trkpt lat="45.74299" lon="6.09946">
        <ele>643</ele>
        <time>2000-01-01T06:47:24.000Z</time>
      </trkpt>
      <trkpt lat="45.74284" lon="6.09944">
        <ele>633.6</ele>
        <time>2000-01-01T06:47:34.000Z</time>
      </trkpt>
      <trkpt lat="45.74272" lon="6.09942">
        <ele>643</ele>
        <time>2000-01-01T06:47:44.000Z</time>
      </trkpt>
      <trkpt lat="45.74263" lon="6.09939">
        <ele>630</ele>
        <time>2000-01-01T06:47:54.000Z</time>
      </trkpt>
      <trkpt lat="45.74253" lon="6.09933">
        <ele>626</ele>
        <time>2000-01-01T06:48:04.000Z</time>
      </trkpt>
      <trkpt lat="45.74244" lon="6.09928">
        <ele>623.3</ele>
        <time>2000-01-01T06:48:14.000Z</time>
      </trkpt>
      <trkpt lat="45.74235" lon="6.09926">
        <ele>621.6</ele>
        <time>2000-01-01T06:48:24.000Z</time>
      </trkpt>
      <trkpt lat="45.74226" lon="6.09926">
        <ele>625</ele>
        <time>2000-01-01T06:48:34.000Z</time>
      </trkpt>
      <trkpt lat="45.74212" lon="6.09926">
        <ele>618</ele>
        <time>2000-01-01T06:48:44.000Z</time>
      </trkpt>
      <trkpt lat="45.742" lon="6.09926">
        <ele>616</ele>
        <time>2000-01-01T06:48:54.000Z</time>
      </trkpt>
      <trkpt lat="45.74176" lon="6.09929">
        <ele>606</ele>
        <time>2000-01-01T06:49:04.000Z</time>
      </trkpt>
      <trkpt lat="45.74163" lon="6.09931">
        <ele>607.6</ele>
        <time>2000-01-01T06:49:14.000Z</time>
      </trkpt>
      <trkpt lat="45.74151" lon="6.09932">
        <ele>597</ele>
        <time>2000-01-01T06:49:24.000Z</time>
      </trkpt>
      <trkpt lat="45.74141" lon="6.09935">
        <ele>606.2</ele>
        <time>2000-01-01T06:49:34.000Z</time>
      </trkpt>
      <trkpt lat="45.74136" lon="6.09934">
        <ele>605.2</ele>
        <time>2000-01-01T06:49:44.000Z</time>
      </trkpt>
      <trkpt lat="45.74131" lon="6.09932">
        <ele>597</ele>
        <time>2000-01-01T06:49:54.000Z</time>
      </trkpt>
      <trkpt lat="45.74126" lon="6.09932">
        <ele>603.1</ele>
        <time>2000-01-01T06:50:04.000Z</time>
      </trkpt>
      <trkpt lat="45.7412" lon="6.09932">
        <ele>602.4</ele>
        <time>2000-01-01T06:50:14.000Z</time>
      </trkpt>
      <trkpt lat="45.74116" lon="6.09933">
        <ele>602.4</ele>
        <time>2000-01-01T06:50:24.000Z</time>
      </trkpt>
      <trkpt lat="45.74112" lon="6.09933">
        <ele>594</ele>
        <time>2000-01-01T06:50:34.000Z</time>
      </trkpt>
      <trkpt lat="45.74102" lon="6.09935">
        <ele>601</ele>
        <time>2000-01-01T06:50:44.000Z</time>
      </trkpt>
      <trkpt lat="45.74088" lon="6.09938">
        <ele>598</ele>
        <time>2000-01-01T06:50:54.000Z</time>
      </trkpt>
      <trkpt lat="45.74079" lon="6.0994">
        <ele>600.1</ele>
        <time>2000-01-01T06:51:04.000Z</time>
      </trkpt>
      <trkpt lat="45.74071" lon="6.09942">
        <ele>600.2</ele>
        <time>2000-01-01T06:51:14.000Z</time>
      </trkpt>
      <trkpt lat="45.74063" lon="6.09945">
        <ele>596</ele>
        <time>2000-01-01T06:51:24.000Z</time>
      </trkpt>
      <trkpt lat="45.74045" lon="6.09956">
        <ele>594</ele>
        <time>2000-01-01T06:51:34.000Z</time>
      </trkpt>
      <trkpt lat="45.74037" lon="6.09958">
        <ele>602.3</ele>
        <time>2000-01-01T06:51:44.000Z</time>
      </trkpt>
      <trkpt lat="45.74026" lon="6.09956">
        <ele>594</ele>
        <time>2000-01-01T06:51:54.000Z</time>
      </trkpt>
      <trkpt lat="45.74018" lon="6.09955">
        <ele>600.2</ele>
        <time>2000-01-01T06:52:04.000Z</time>
      </trkpt>
      <trkpt lat="45.74011" lon="6.09954">
        <ele>600.1</ele>
        <time>2000-01-01T06:52:14.000Z</time>
      </trkpt>
      <trkpt lat="45.74002" lon="6.09956">
        <ele>591</ele>
        <time>2000-01-01T06:52:24.000Z</time>
      </trkpt>
      <trkpt lat="45.73997" lon="6.09957">
        <ele>601.2</ele>
        <time>2000-01-01T06:52:34.000Z</time>
      </trkpt>
      <trkpt lat="45.7399" lon="6.09959">
        <ele>601.3</ele>
        <time>2000-01-01T06:52:44.000Z</time>
      </trkpt>
      <trkpt lat="45.73983" lon="6.09959">
        <ele>586</ele>
        <time>2000-01-01T06:52:54.000Z</time>
      </trkpt>
      <trkpt lat="45.73974" lon="6.09961">
        <ele>600.7</ele>
        <time>2000-01-01T06:53:04.000Z</time>
      </trkpt>
      <trkpt lat="45.73967" lon="6.09962">
        <ele>600.7</ele>
        <time>2000-01-01T06:53:14.000Z</time>
      </trkpt>
      <trkpt lat="45.7396" lon="6.0996">
        <ele>580</ele>
        <time>2000-01-01T06:53:24.000Z</time>
      </trkpt>
      <trkpt lat="45.73949" lon="6.09956">
        <ele>597.1</ele>
        <time>2000-01-01T06:53:34.000Z</time>
      </trkpt>
      <trkpt lat="45.73938" lon="6.09958">
        <ele>578</ele>
        <time>2000-01-01T06:53:44.000Z</time>
      </trkpt>
      <trkpt lat="45.73923" lon="6.09954">
        <ele>595.5</ele>
        <time>2000-01-01T06:53:54.000Z</time>
      </trkpt>
      <trkpt lat="45.73914" lon="6.09952">
        <ele>578</ele>
        <time>2000-01-01T06:54:04.000Z</time>
      </trkpt>
      <trkpt lat="45.7391" lon="6.09953">
        <ele>594.9</ele>
        <time>2000-01-01T06:54:14.000Z</time>
      </trkpt>
      <trkpt lat="45.73904" lon="6.09955">
        <ele>595.5</ele>
        <time>2000-01-01T06:54:24.000Z</time>
      </trkpt>
      <trkpt lat="45.73893" lon="6.09956">
        <ele>579</ele>
        <time>2000-01-01T06:54:34.000Z</time>
      </trkpt>
      <trkpt lat="45.73885" lon="6.09956">
        <ele>595.2</ele>
        <time>2000-01-01T06:54:44.000Z</time>
      </trkpt>
      <trkpt lat="45.73875" lon="6.09955">
        <ele>594.7</ele>
        <time>2000-01-01T06:54:54.000Z</time>
      </trkpt>
      <trkpt lat="45.73864" lon="6.09954">
        <ele>580</ele>
        <time>2000-01-01T06:55:04.000Z</time>
      </trkpt>
      <trkpt lat="45.73857" lon="6.0996">
        <ele>595.1</ele>
        <time>2000-01-01T06:55:14.000Z</time>
      </trkpt>
      <trkpt lat="45.73847" lon="6.0998">
        <ele>596</ele>
        <time>2000-01-01T06:55:24.000Z</time>
      </trkpt>
      <trkpt lat="45.73837" lon="6.1">
        <ele>607.1</ele>
        <time>2000-01-01T06:55:34.000Z</time>
      </trkpt>
      <trkpt lat="45.73832" lon="6.10009">
        <ele>606</ele>
        <time>2000-01-01T06:55:44.000Z</time>
      </trkpt>
      <trkpt lat="45.73823" lon="6.10028">
        <ele>617</ele>
        <time>2000-01-01T06:55:54.000Z</time>
      </trkpt>
      <trkpt lat="45.73812" lon="6.10038">
        <ele>612</ele>
        <time>2000-01-01T06:56:04.000Z</time>
      </trkpt>
      <trkpt lat="45.73779" lon="6.10061">
        <ele>624</ele>
        <time>2000-01-01T06:56:14.000Z</time>
      </trkpt>
      <trkpt lat="45.73748" lon="6.10086">
        <ele>628</ele>
        <time>2000-01-01T06:56:24.000Z</time>
      </trkpt>
      <trkpt lat="45.73729" lon="6.10092">
        <ele>633</ele>
        <time>2000-01-01T06:56:34.000Z</time>
      </trkpt>
      <trkpt lat="45.73704" lon="6.10102">
        <ele>648</ele>
        <time>2000-01-01T06:56:44.000Z</time>
      </trkpt>
      <trkpt lat="45.73684" lon="6.1011">
        <ele>651</ele>
        <time>2000-01-01T06:56:54.000Z</time>
      </trkpt>
      <trkpt lat="45.73675" lon="6.10113">
        <ele>645.2</ele>
        <time>2000-01-01T06:57:04.000Z</time>
      </trkpt>
      <trkpt lat="45.7367" lon="6.10115">
        <ele>645.9</ele>
        <time>2000-01-01T06:57:14.000Z</time>
      </trkpt>
      <trkpt lat="45.73667" lon="6.10118">
        <ele>646.7</ele>
        <time>2000-01-01T06:57:24.000Z</time>
      </trkpt>
      <trkpt lat="45.73666" lon="6.10122">
        <ele>651</ele>
        <time>2000-01-01T06:57:34.000Z</time>
      </trkpt>
      <trkpt lat="45.73663" lon="6.10125">
        <ele>648.8</ele>
        <time>2000-01-01T06:57:44.000Z</time>
      </trkpt>
      <trkpt lat="45.7366" lon="6.10128">
        <ele>649.8</ele>
        <time>2000-01-01T06:57:54.000Z</time>
      </trkpt>
      <trkpt lat="45.73656" lon="6.10128">
        <ele>650.1</ele>
        <time>2000-01-01T06:58:04.000Z</time>
      </trkpt>
      <trkpt lat="45.73653" lon="6.10126">
        <ele>649.8</ele>
        <time>2000-01-01T06:58:14.000Z</time>
      </trkpt>
      <trkpt lat="45.73645" lon="6.10131">
        <ele>655</ele>
        <time>2000-01-01T06:58:24.000Z</time>
      </trkpt>
      <trkpt lat="45.73638" lon="6.10133">
        <ele>653.3</ele>
        <time>2000-01-01T06:58:34.000Z</time>
      </trkpt>
      <trkpt lat="45.73639" lon="6.10144">
        <ele>656.5</ele>
        <time>2000-01-01T06:58:44.000Z</time>
      </trkpt>
      <trkpt lat="45.73639" lon="6.1015">
        <ele>655</ele>
        <time>2000-01-01T06:58:54.000Z</time>
      </trkpt>
      <trkpt lat="45.73638" lon="6.10153">
        <ele>659.2</ele>
        <time>2000-01-01T06:59:04.000Z</time>
      </trkpt>
      <trkpt lat="45.73636" lon="6.10155">
        <ele>660.2</ele>
        <time>2000-01-01T06:59:14.000Z</time>
      </trkpt>
      <trkpt lat="45.73632" lon="6.10153">
        <ele>660.4</ele>
        <time>2000-01-01T06:59:24.000Z</time>
      </trkpt>
      <trkpt lat="45.73629" lon="6.10152">
        <ele>660.7</ele>
        <time>2000-01-01T06:59:34.000Z</time>
      </trkpt>
      <trkpt lat="45.73625" lon="6.10144">
        <ele>660</ele>
        <time>2000-01-01T06:59:44.000Z</time>
      </trkpt>
      <trkpt lat="45.73624" lon="6.10158">
        <ele>663.6</ele>
        <time>2000-01-01T06:59:54.000Z</time>
      </trkpt>
      <trkpt lat="45.7362" lon="6.10157">
        <ele>664.1</ele>
        <time>2000-01-01T07:00:04.000Z</time>
      </trkpt>
      <trkpt lat="45.73617" lon="6.10159">
        <ele>665.3</ele>
        <time>2000-01-01T07:00:14.000Z</time>
      </trkpt>
      <trkpt lat="45.73615" lon="6.1016">
        <ele>660</ele>
        <time>2000-01-01T07:00:24.000Z</time>
      </trkpt>
      <trkpt lat="45.73611" lon="6.10159">
        <ele>666.5</ele>
        <time>2000-01-01T07:00:34.000Z</time>
      </trkpt>
      <trkpt lat="45.73609" lon="6.10161">
        <ele>667.3</ele>
        <time>2000-01-01T07:00:44.000Z</time>
      </trkpt>
      <trkpt lat="45.73606" lon="6.10162">
        <ele>667.9</ele>
        <time>2000-01-01T07:00:54.000Z</time>
      </trkpt>
      <trkpt lat="45.73603" lon="6.10163">
        <ele>668.4</ele>
        <time>2000-01-01T07:01:04.000Z</time>
      </trkpt>
      <trkpt lat="45.73597" lon="6.10168">
        <ele>669</ele>
        <time>2000-01-01T07:01:14.000Z</time>
      </trkpt>
      <trkpt lat="45.73594" lon="6.10172">
        <ele>671.7</ele>
        <time>2000-01-01T07:01:24.000Z</time>
      </trkpt>
      <trkpt lat="45.73591" lon="6.10169">
        <ele>671.1</ele>
        <time>2000-01-01T07:01:34.000Z</time>
      </trkpt>
      <trkpt lat="45.73588" lon="6.10169">
        <ele>671.3</ele>
        <time>2000-01-01T07:01:44.000Z</time>
      </trkpt>
      <trkpt lat="45.73583" lon="6.10184">
        <ele>669</ele>
        <time>2000-01-01T07:01:54.000Z</time>
      </trkpt>
      <trkpt lat="45.73583" lon="6.10188">
        <ele>676.3</ele>
        <time>2000-01-01T07:02:04.000Z</time>
      </trkpt>
      <trkpt lat="45.73581" lon="6.10196">
        <ele>678.3</ele>
        <time>2000-01-01T07:02:14.000Z</time>
      </trkpt>
      <trkpt lat="45.7358" lon="6.10204">
        <ele>681</ele>
        <time>2000-01-01T07:02:24.000Z</time>
      </trkpt>
      <trkpt lat="45.73577" lon="6.10208">
        <ele>682</ele>
        <time>2000-01-01T07:02:34.000Z</time>
      </trkpt>
      <trkpt lat="45.73571" lon="6.10211">
        <ele>690</ele>
        <time>2000-01-01T07:02:44.000Z</time>
      </trkpt>
      <trkpt lat="45.73567" lon="6.10211">
        <ele>681.5</ele>
        <time>2000-01-01T07:02:54.000Z</time>
      </trkpt>
      <trkpt lat="45.73564" lon="6.10217">
        <ele>682.9</ele>
        <time>2000-01-01T07:03:04.000Z</time>
      </trkpt>
      <trkpt lat="45.73562" lon="6.10223">
        <ele>684.4</ele>
        <time>2000-01-01T07:03:14.000Z</time>
      </trkpt>
      <trkpt lat="45.73559" lon="6.10222">
        <ele>683.6</ele>
        <time>2000-01-01T07:03:24.000Z</time>
      </trkpt>
      <trkpt lat="45.73559" lon="6.10232">
        <ele>691</ele>
        <time>2000-01-01T07:03:34.000Z</time>
      </trkpt>
      <trkpt lat="45.73558" lon="6.10242">
        <ele>689.9</ele>
        <time>2000-01-01T07:03:44.000Z</time>
      </trkpt>
      <trkpt lat="45.73552" lon="6.10246">
        <ele>690.9</ele>
        <time>2000-01-01T07:03:54.000Z</time>
      </trkpt>
      <trkpt lat="45.73549" lon="6.10253">
        <ele>705</ele>
        <time>2000-01-01T07:04:04.000Z</time>
      </trkpt>
      <trkpt lat="45.73545" lon="6.10263">
        <ele>695.7</ele>
        <time>2000-01-01T07:04:14.000Z</time>
      </trkpt>
      <trkpt lat="45.73546" lon="6.10268">
        <ele>696.9</ele>
        <time>2000-01-01T07:04:24.000Z</time>
      </trkpt>
      <trkpt lat="45.73547" lon="6.10274">
        <ele>698.4</ele>
        <time>2000-01-01T07:04:34.000Z</time>
      </trkpt>
      <trkpt lat="45.73548" lon="6.10278">
        <ele>712</ele>
        <time>2000-01-01T07:04:44.000Z</time>
      </trkpt>
      <trkpt lat="45.7354" lon="6.10285">
        <ele>701.6</ele>
        <time>2000-01-01T07:04:54.000Z</time>
      </trkpt>
      <trkpt lat="45.73536" lon="6.10291">
        <ele>703.3</ele>
        <time>2000-01-01T07:05:04.000Z</time>
      </trkpt>
      <trkpt lat="45.7354" lon="6.10299">
        <ele>712</ele>
        <time>2000-01-01T07:05:14.000Z</time>
      </trkpt>
      <trkpt lat="45.73539" lon="6.10303">
        <ele>706.7</ele>
        <time>2000-01-01T07:05:24.000Z</time>
      </trkpt>
      <trkpt lat="45.73542" lon="6.10305">
        <ele>707.4</ele>
        <time>2000-01-01T07:05:34.000Z</time>
      </trkpt>
      <trkpt lat="45.73545" lon="6.1031">
        <ele>708.9</ele>
        <time>2000-01-01T07:05:44.000Z</time>
      </trkpt>
      <trkpt lat="45.7355" lon="6.10313">
        <ele>709.8</ele>
        <time>2000-01-01T07:05:54.000Z</time>
      </trkpt>
      <trkpt lat="45.73549" lon="6.10315">
        <ele>710.3</ele>
        <time>2000-01-01T07:06:04.000Z</time>
      </trkpt>
      <trkpt lat="45.73545" lon="6.10315">
        <ele>721</ele>
        <time>2000-01-01T07:06:14.000Z</time>
      </trkpt>
      <trkpt lat="45.73542" lon="6.10316">
        <ele>710.5</ele>
        <time>2000-01-01T07:06:24.000Z</time>
      </trkpt>
      <trkpt lat="45.73535" lon="6.10318">
        <ele>711.1</ele>
        <time>2000-01-01T07:06:34.000Z</time>
      </trkpt>
      <trkpt lat="45.73531" lon="6.1032">
        <ele>711.7</ele>
        <time>2000-01-01T07:06:44.000Z</time>
      </trkpt>
      <trkpt lat="45.73528" lon="6.10321">
        <ele>712</ele>
        <time>2000-01-01T07:06:54.000Z</time>
      </trkpt>
      <trkpt lat="45.73527" lon="6.10321">
        <ele>712.2</ele>
        <time>2000-01-01T07:07:04.000Z</time>
      </trkpt>
      <trkpt lat="45.73525" lon="6.10321">
        <ele>729</ele>
        <time>2000-01-01T07:07:14.000Z</time>
      </trkpt>
      <trkpt lat="45.73521" lon="6.10324">
        <ele>715</ele>
        <time>2000-01-01T07:07:24.000Z</time>
      </trkpt>
      <trkpt lat="45.73517" lon="6.10328">
        <ele>717.5</ele>
        <time>2000-01-01T07:07:34.000Z</time>
      </trkpt>
      <trkpt lat="45.73514" lon="6.10331">
        <ele>719.3</ele>
        <time>2000-01-01T07:07:44.000Z</time>
      </trkpt>
      <trkpt lat="45.73512" lon="6.10336">
        <ele>721.5</ele>
        <time>2000-01-01T07:07:54.000Z</time>
      </trkpt>
      <trkpt lat="45.73514" lon="6.1034">
        <ele>733</ele>
        <time>2000-01-01T07:08:04.000Z</time>
      </trkpt>
      <trkpt lat="45.73516" lon="6.10344">
        <ele>723.2</ele>
        <time>2000-01-01T07:08:14.000Z</time>
      </trkpt>
      <trkpt lat="45.73518" lon="6.10346">
        <ele>723.4</ele>
        <time>2000-01-01T07:08:24.000Z</time>
      </trkpt>
      <trkpt lat="45.7352" lon="6.10347">
        <ele>723.2</ele>
        <time>2000-01-01T07:08:34.000Z</time>
      </trkpt>
      <trkpt lat="45.73518" lon="6.10351">
        <ele>725.2</ele>
        <time>2000-01-01T07:08:44.000Z</time>
      </trkpt>
      <trkpt lat="45.73517" lon="6.10359">
        <ele>728.3</ele>
        <time>2000-01-01T07:08:54.000Z</time>
      </trkpt>
      <trkpt lat="45.73521" lon="6.10363">
        <ele>737</ele>
        <time>2000-01-01T07:09:04.000Z</time>
      </trkpt>
      <trkpt lat="45.73523" lon="6.10372">
        <ele>732.5</ele>
        <time>2000-01-01T07:09:14.000Z</time>
      </trkpt>
      <trkpt lat="45.73528" lon="6.10375">
        <ele>733</ele>
        <time>2000-01-01T07:09:24.000Z</time>
      </trkpt>
      <trkpt lat="45.73536" lon="6.1038">
        <ele>737</ele>
        <time>2000-01-01T07:09:34.000Z</time>
      </trkpt>
      <trkpt lat="45.73538" lon="6.10381">
        <ele>735.7</ele>
        <time>2000-01-01T07:09:44.000Z</time>
      </trkpt>
      <trkpt lat="45.7354" lon="6.10383">
        <ele>736.5</ele>
        <time>2000-01-01T07:09:54.000Z</time>
      </trkpt>
      <trkpt lat="45.73542" lon="6.10386">
        <ele>737.7</ele>
        <time>2000-01-01T07:10:04.000Z</time>
      </trkpt>
      <trkpt lat="45.73544" lon="6.10388">
        <ele>738.5</ele>
        <time>2000-01-01T07:10:14.000Z</time>
      </trkpt>
      <trkpt lat="45.73546" lon="6.10391">
        <ele>739.6</ele>
        <time>2000-01-01T07:10:24.000Z</time>
      </trkpt>
      <trkpt lat="45.7355" lon="6.10394">
        <ele>740.5</ele>
        <time>2000-01-01T07:10:34.000Z</time>
      </trkpt>
      <trkpt lat="45.73554" lon="6.10395">
        <ele>737</ele>
        <time>2000-01-01T07:10:44.000Z</time>
      </trkpt>
      <trkpt lat="45.73559" lon="6.10395">
        <ele>740.6</ele>
        <time>2000-01-01T07:10:54.000Z</time>
      </trkpt>
      <trkpt lat="45.73562" lon="6.10399">
        <ele>742.2</ele>
        <time>2000-01-01T07:11:04.000Z</time>
      </trkpt>
      <trkpt lat="45.73564" lon="6.10402">
        <ele>743.4</ele>
        <time>2000-01-01T07:11:14.000Z</time>
      </trkpt>
      <trkpt lat="45.73568" lon="6.10411">
        <ele>746.3</ele>
        <time>2000-01-01T07:11:24.000Z</time>
      </trkpt>
      <trkpt lat="45.73571" lon="6.10419">
        <ele>750</ele>
        <time>2000-01-01T07:11:34.000Z</time>
      </trkpt>
      <trkpt lat="45.73573" lon="6.10425">
        <ele>750.3</ele>
        <time>2000-01-01T07:11:44.000Z</time>
      </trkpt>
      <trkpt lat="45.73575" lon="6.10435">
        <ele>752.6</ele>
        <time>2000-01-01T07:11:54.000Z</time>
      </trkpt>
      <trkpt lat="45.73576" lon="6.1044">
        <ele>753.6</ele>
        <time>2000-01-01T07:12:04.000Z</time>
      </trkpt>
      <trkpt lat="45.73585" lon="6.10451">
        <ele>759</ele>
        <time>2000-01-01T07:12:14.000Z</time>
      </trkpt>
      <trkpt lat="45.73587" lon="6.10454">
        <ele>754.1</ele>
        <time>2000-01-01T07:12:24.000Z</time>
      </trkpt>
      <trkpt lat="45.73587" lon="6.10458">
        <ele>755.2</ele>
        <time>2000-01-01T07:12:34.000Z</time>
      </trkpt>
      <trkpt lat="45.73584" lon="6.10462">
        <ele>756.4</ele>
        <time>2000-01-01T07:12:44.000Z</time>
      </trkpt>
      <trkpt lat="45.73581" lon="6.10463">
        <ele>757.4</ele>
        <time>2000-01-01T07:12:54.000Z</time>
      </trkpt>
      <trkpt lat="45.73576" lon="6.10464">
        <ele>759.2</ele>
        <time>2000-01-01T07:13:04.000Z</time>
      </trkpt>
      <trkpt lat="45.73573" lon="6.10467">
        <ele>765</ele>
        <time>2000-01-01T07:13:14.000Z</time>
      </trkpt>
      <trkpt lat="45.73569" lon="6.10473">
        <ele>763.2</ele>
        <time>2000-01-01T07:13:24.000Z</time>
      </trkpt>
      <trkpt lat="45.73565" lon="6.10479">
        <ele>764.5</ele>
        <time>2000-01-01T07:13:34.000Z</time>
      </trkpt>
      <trkpt lat="45.73562" lon="6.10486">
        <ele>765.2</ele>
        <time>2000-01-01T07:13:44.000Z</time>
      </trkpt>
      <trkpt lat="45.73557" lon="6.10492">
        <ele>769</ele>
        <time>2000-01-01T07:13:54.000Z</time>
      </trkpt>
      <trkpt lat="45.73554" lon="6.10495">
        <ele>765.3</ele>
        <time>2000-01-01T07:14:04.000Z</time>
      </trkpt>
      <trkpt lat="45.73551" lon="6.10497">
        <ele>764.9</ele>
        <time>2000-01-01T07:14:14.000Z</time>
      </trkpt>
      <trkpt lat="45.73549" lon="6.10502">
        <ele>764.3</ele>
        <time>2000-01-01T07:14:24.000Z</time>
      </trkpt>
      <trkpt lat="45.73548" lon="6.10505">
        <ele>764</ele>
        <time>2000-01-01T07:14:34.000Z</time>
      </trkpt>
      <trkpt lat="45.73544" lon="6.10511">
        <ele>773</ele>
        <time>2000-01-01T07:14:44.000Z</time>
      </trkpt>
      <trkpt lat="45.73538" lon="6.10513">
        <ele>762.6</ele>
        <time>2000-01-01T07:14:54.000Z</time>
      </trkpt>
      <trkpt lat="45.73534" lon="6.10513">
        <ele>762.4</ele>
        <time>2000-01-01T07:15:04.000Z</time>
      </trkpt>
      <trkpt lat="45.7353" lon="6.10512">
        <ele>762.3</ele>
        <time>2000-01-01T07:15:14.000Z</time>
      </trkpt>
      <trkpt lat="45.73526" lon="6.10511">
        <ele>762</ele>
        <time>2000-01-01T07:15:24.000Z</time>
      </trkpt>
      <trkpt lat="45.73519" lon="6.10509">
        <ele>773</ele>
        <time>2000-01-01T07:15:34.000Z</time>
      </trkpt>
      <trkpt lat="45.73515" lon="6.10506">
        <ele>761.3</ele>
        <time>2000-01-01T07:15:44.000Z</time>
      </trkpt>
      <trkpt lat="45.7351" lon="6.10501">
        <ele>761</ele>
        <time>2000-01-01T07:15:54.000Z</time>
      </trkpt>
      <trkpt lat="45.73507" lon="6.10499">
        <ele>760.9</ele>
        <time>2000-01-01T07:16:04.000Z</time>
      </trkpt>
      <trkpt lat="45.73505" lon="6.105">
        <ele>760.5</ele>
        <time>2000-01-01T07:16:14.000Z</time>
      </trkpt>
      <trkpt lat="45.73504" lon="6.10493">
        <ele>773</ele>
        <time>2000-01-01T07:16:24.000Z</time>
      </trkpt>
      <trkpt lat="45.73502" lon="6.10485">
        <ele>761.9</ele>
        <time>2000-01-01T07:16:34.000Z</time>
      </trkpt>
      <trkpt lat="45.73499" lon="6.10479">
        <ele>762.4</ele>
        <time>2000-01-01T07:16:44.000Z</time>
      </trkpt>
      <trkpt lat="45.73496" lon="6.10476">
        <ele>763.2</ele>
        <time>2000-01-01T07:16:54.000Z</time>
      </trkpt>
      <trkpt lat="45.73491" lon="6.10472">
        <ele>772</ele>
        <time>2000-01-01T07:17:04.000Z</time>
      </trkpt>
      <trkpt lat="45.73489" lon="6.10467">
        <ele>764.4</ele>
        <time>2000-01-01T07:17:14.000Z</time>
      </trkpt>
      <trkpt lat="45.73485" lon="6.10462">
        <ele>764.5</ele>
        <time>2000-01-01T07:17:24.000Z</time>
      </trkpt>
      <trkpt lat="45.73478" lon="6.10456">
        <ele>764.4</ele>
        <time>2000-01-01T07:17:34.000Z</time>
      </trkpt>
      <trkpt lat="45.73472" lon="6.10451">
        <ele>770</ele>
        <time>2000-01-01T07:17:44.000Z</time>
      </trkpt>
      <trkpt lat="45.73469" lon="6.10445">
        <ele>763.4</ele>
        <time>2000-01-01T07:17:54.000Z</time>
      </trkpt>
      <trkpt lat="45.73462" lon="6.10439">
        <ele>763.2</ele>
        <time>2000-01-01T07:18:04.000Z</time>
      </trkpt>
      <trkpt lat="45.73453" lon="6.10432">
        <ele>770</ele>
        <time>2000-01-01T07:18:14.000Z</time>
      </trkpt>
      <trkpt lat="45.73448" lon="6.10428">
        <ele>763.2</ele>
        <time>2000-01-01T07:18:24.000Z</time>
      </trkpt>
      <trkpt lat="45.73442" lon="6.10421">
        <ele>762.4</ele>
        <time>2000-01-01T07:18:34.000Z</time>
      </trkpt>
      <trkpt lat="45.73436" lon="6.10418">
        <ele>770</ele>
        <time>2000-01-01T07:18:44.000Z</time>
      </trkpt>
      <trkpt lat="45.73431" lon="6.10416">
        <ele>761.1</ele>
        <time>2000-01-01T07:18:54.000Z</time>
      </trkpt>
      <trkpt lat="45.7343" lon="6.10412">
        <ele>761.4</ele>
        <time>2000-01-01T07:19:04.000Z</time>
      </trkpt>
      <trkpt lat="45.7343" lon="6.10405">
        <ele>762</ele>
        <time>2000-01-01T07:19:14.000Z</time>
      </trkpt>
      <trkpt lat="45.7343" lon="6.10397">
        <ele>762.7</ele>
        <time>2000-01-01T07:19:24.000Z</time>
      </trkpt>
      <trkpt lat="45.73433" lon="6.10387">
        <ele>770</ele>
        <time>2000-01-01T07:19:34.000Z</time>
      </trkpt>
      <trkpt lat="45.73433" lon="6.10378">
        <ele>762.5</ele>
        <time>2000-01-01T07:19:44.000Z</time>
      </trkpt>
      <trkpt lat="45.73432" lon="6.10368">
        <ele>761.7</ele>
        <time>2000-01-01T07:19:54.000Z</time>
      </trkpt>
      <trkpt lat="45.73429" lon="6.10359">
        <ele>768</ele>
        <time>2000-01-01T07:20:04.000Z</time>
      </trkpt>
      <trkpt lat="45.73426" lon="6.10351">
        <ele>762.1</ele>
        <time>2000-01-01T07:20:14.000Z</time>
      </trkpt>
      <trkpt lat="45.73423" lon="6.10344">
        <ele>763</ele>
        <time>2000-01-01T07:20:24.000Z</time>
      </trkpt>
      <trkpt lat="45.73421" lon="6.10342">
        <ele>763.8</ele>
        <time>2000-01-01T07:20:34.000Z</time>
      </trkpt>
      <trkpt lat="45.73416" lon="6.10338">
        <ele>769</ele>
        <time>2000-01-01T07:20:44.000Z</time>
      </trkpt>
      <trkpt lat="45.73413" lon="6.10337">
        <ele>765.5</ele>
        <time>2000-01-01T07:20:54.000Z</time>
      </trkpt>
      <trkpt lat="45.73408" lon="6.10334">
        <ele>764.7</ele>
        <time>2000-01-01T07:21:04.000Z</time>
      </trkpt>
      <trkpt lat="45.73402" lon="6.1033">
        <ele>764.1</ele>
        <time>2000-01-01T07:21:14.000Z</time>
      </trkpt>
      <trkpt lat="45.73394" lon="6.10327">
        <ele>768</ele>
        <time>2000-01-01T07:21:24.000Z</time>
      </trkpt>
      <trkpt lat="45.73389" lon="6.10327">
        <ele>762.5</ele>
        <time>2000-01-01T07:21:34.000Z</time>
      </trkpt>
      <trkpt lat="45.73385" lon="6.10327">
        <ele>761.9</ele>
        <time>2000-01-01T07:21:44.000Z</time>
      </trkpt>
      <trkpt lat="45.73378" lon="6.10327">
        <ele>760.8</ele>
        <time>2000-01-01T07:21:54.000Z</time>
      </trkpt>
      <trkpt lat="45.73371" lon="6.10327">
        <ele>768</ele>
        <time>2000-01-01T07:22:04.000Z</time>
      </trkpt>
      <trkpt lat="45.73367" lon="6.10325">
        <ele>759.2</ele>
        <time>2000-01-01T07:22:14.000Z</time>
      </trkpt>
      <trkpt lat="45.73365" lon="6.1032">
        <ele>759.1</ele>
        <time>2000-01-01T07:22:24.000Z</time>
      </trkpt>
      <trkpt lat="45.73361" lon="6.10315">
        <ele>758.6</ele>
        <time>2000-01-01T07:22:34.000Z</time>
      </trkpt>
      <trkpt lat="45.73356" lon="6.10315">
        <ele>758</ele>
        <time>2000-01-01T07:22:44.000Z</time>
      </trkpt>
      <trkpt lat="45.73349" lon="6.10318">
        <ele>765</ele>
        <time>2000-01-01T07:22:54.000Z</time>
      </trkpt>
      <trkpt lat="45.73346" lon="6.10319">
        <ele>756.4</ele>
        <time>2000-01-01T07:23:04.000Z</time>
      </trkpt>
      <trkpt lat="45.73341" lon="6.10318">
        <ele>755.8</ele>
        <time>2000-01-01T07:23:14.000Z</time>
      </trkpt>
      <trkpt lat="45.73337" lon="6.10319">
        <ele>755.1</ele>
        <time>2000-01-01T07:23:24.000Z</time>
      </trkpt>
      <trkpt lat="45.73334" lon="6.10317">
        <ele>755</ele>
        <time>2000-01-01T07:23:34.000Z</time>
      </trkpt>
      <trkpt lat="45.7333" lon="6.10317">
        <ele>765</ele>
        <time>2000-01-01T07:23:44.000Z</time>
      </trkpt>
      <trkpt lat="45.73324" lon="6.10308">
        <ele>755.3</ele>
        <time>2000-01-01T07:23:54.000Z</time>
      </trkpt>
      <trkpt lat="45.73322" lon="6.10298">
        <ele>756.2</ele>
        <time>2000-01-01T07:24:04.000Z</time>
      </trkpt>
      <trkpt lat="45.73319" lon="6.1029">
        <ele>765</ele>
        <time>2000-01-01T07:24:14.000Z</time>
      </trkpt>
      <trkpt lat="45.73317" lon="6.10283">
        <ele>757.1</ele>
        <time>2000-01-01T07:24:24.000Z</time>
      </trkpt>
      <trkpt lat="45.73316" lon="6.10275">
        <ele>757.6</ele>
        <time>2000-01-01T07:24:34.000Z</time>
      </trkpt>
      <trkpt lat="45.73316" lon="6.10264">
        <ele>758.2</ele>
        <time>2000-01-01T07:24:44.000Z</time>
      </trkpt>
      <trkpt lat="45.73315" lon="6.10255">
        <ele>766</ele>
        <time>2000-01-01T07:24:54.000Z</time>
      </trkpt>
      <trkpt lat="45.73313" lon="6.10247">
        <ele>758</ele>
        <time>2000-01-01T07:25:04.000Z</time>
      </trkpt>
      <trkpt lat="45.73311" lon="6.10241">
        <ele>756.8</ele>
        <time>2000-01-01T07:25:14.000Z</time>
      </trkpt>
      <trkpt lat="45.73309" lon="6.10235">
        <ele>755.6</ele>
        <time>2000-01-01T07:25:24.000Z</time>
      </trkpt>
      <trkpt lat="45.73307" lon="6.10227">
        <ele>764</ele>
        <time>2000-01-01T07:25:34.000Z</time>
      </trkpt>
      <trkpt lat="45.73307" lon="6.1022">
        <ele>753.9</ele>
        <time>2000-01-01T07:25:44.000Z</time>
      </trkpt>
      <trkpt lat="45.73306" lon="6.10218">
        <ele>754.2</ele>
        <time>2000-01-01T07:25:54.000Z</time>
      </trkpt>
      <trkpt lat="45.73303" lon="6.10215">
        <ele>754.7</ele>
        <time>2000-01-01T07:26:04.000Z</time>
      </trkpt>
      <trkpt lat="45.733" lon="6.10215">
        <ele>754.7</ele>
        <time>2000-01-01T07:26:14.000Z</time>
      </trkpt>
      <trkpt lat="45.73297" lon="6.10213">
        <ele>754.9</ele>
        <time>2000-01-01T07:26:24.000Z</time>
      </trkpt>
      <trkpt lat="45.73294" lon="6.10211">
        <ele>763</ele>
        <time>2000-01-01T07:26:34.000Z</time>
      </trkpt>
      <trkpt lat="45.73292" lon="6.10207">
        <ele>755.5</ele>
        <time>2000-01-01T07:26:44.000Z</time>
      </trkpt>
      <trkpt lat="45.73291" lon="6.10202">
        <ele>755.9</ele>
        <time>2000-01-01T07:26:54.000Z</time>
      </trkpt>
      <trkpt lat="45.73285" lon="6.10197">
        <ele>755.4</ele>
        <time>2000-01-01T07:27:04.000Z</time>
      </trkpt>
      <trkpt lat="45.73279" lon="6.10192">
        <ele>763</ele>
        <time>2000-01-01T07:27:14.000Z</time>
      </trkpt>
      <trkpt lat="45.73273" lon="6.10189">
        <ele>754.3</ele>
        <time>2000-01-01T07:27:24.000Z</time>
      </trkpt>
      <trkpt lat="45.73271" lon="6.10189">
        <ele>754.2</ele>
        <time>2000-01-01T07:27:34.000Z</time>
      </trkpt>
      <trkpt lat="45.73269" lon="6.10187">
        <ele>754.2</ele>
        <time>2000-01-01T07:27:44.000Z</time>
      </trkpt>
      <trkpt lat="45.73264" lon="6.10184">
        <ele>754</ele>
        <time>2000-01-01T07:27:54.000Z</time>
      </trkpt>
      <trkpt lat="45.7326" lon="6.1018">
        <ele>758</ele>
        <time>2000-01-01T07:28:04.000Z</time>
      </trkpt>
      <trkpt lat="45.7325" lon="6.10179">
        <ele>752.6</ele>
        <time>2000-01-01T07:28:14.000Z</time>
      </trkpt>
      <trkpt lat="45.73245" lon="6.1018">
        <ele>752.2</ele>
        <time>2000-01-01T07:28:24.000Z</time>
      </trkpt>
      <trkpt lat="45.73239" lon="6.10186">
        <ele>754</ele>
        <time>2000-01-01T07:28:34.000Z</time>
      </trkpt>
      <trkpt lat="45.73233" lon="6.10194">
        <ele>750.2</ele>
        <time>2000-01-01T07:28:44.000Z</time>
      </trkpt>
      <trkpt lat="45.73231" lon="6.10196">
        <ele>749.8</ele>
        <time>2000-01-01T07:28:54.000Z</time>
      </trkpt>
      <trkpt lat="45.73229" lon="6.10201">
        <ele>748.9</ele>
        <time>2000-01-01T07:29:04.000Z</time>
      </trkpt>
      <trkpt lat="45.73225" lon="6.10208">
        <ele>753</ele>
        <time>2000-01-01T07:29:14.000Z</time>
      </trkpt>
      <trkpt lat="45.73218" lon="6.10223">
        <ele>744.4</ele>
        <time>2000-01-01T07:29:24.000Z</time>
      </trkpt>
      <trkpt lat="45.73213" lon="6.10231">
        <ele>753</ele>
        <time>2000-01-01T07:29:34.000Z</time>
      </trkpt>
      <trkpt lat="45.73202" lon="6.1024">
        <ele>739.5</ele>
        <time>2000-01-01T07:29:44.000Z</time>
      </trkpt>
      <trkpt lat="45.73195" lon="6.10248">
        <ele>740</ele>
        <time>2000-01-01T07:29:54.000Z</time>
      </trkpt>
      <trkpt lat="45.73187" lon="6.10253">
        <ele>734.9</ele>
        <time>2000-01-01T07:30:04.000Z</time>
      </trkpt>
      <trkpt lat="45.73182" lon="6.10258">
        <ele>734.5</ele>
        <time>2000-01-01T07:30:14.000Z</time>
      </trkpt>
      <trkpt lat="45.73176" lon="6.10265">
        <ele>738</ele>
        <time>2000-01-01T07:30:24.000Z</time>
      </trkpt>
      <trkpt lat="45.73169" lon="6.10274">
        <ele>731.1</ele>
        <time>2000-01-01T07:30:34.000Z</time>
      </trkpt>
      <trkpt lat="45.73165" lon="6.10277">
        <ele>729.8</ele>
        <time>2000-01-01T07:30:44.000Z</time>
      </trkpt>
      <trkpt lat="45.73158" lon="6.10282">
        <ele>731</ele>
        <time>2000-01-01T07:30:54.000Z</time>
      </trkpt>
      <trkpt lat="45.73154" lon="6.10286">
        <ele>726.5</ele>
        <time>2000-01-01T07:31:04.000Z</time>
      </trkpt>
      <trkpt lat="45.73149" lon="6.10292">
        <ele>724.8</ele>
        <time>2000-01-01T07:31:14.000Z</time>
      </trkpt>
      <trkpt lat="45.73148" lon="6.10297">
        <ele>724.1</ele>
        <time>2000-01-01T07:31:24.000Z</time>
      </trkpt>
      <trkpt lat="45.73148" lon="6.10307">
        <ele>728</ele>
        <time>2000-01-01T07:31:34.000Z</time>
      </trkpt>
      <trkpt lat="45.73146" lon="6.10318">
        <ele>722.8</ele>
        <time>2000-01-01T07:31:44.000Z</time>
      </trkpt>
      <trkpt lat="45.73141" lon="6.10326">
        <ele>721.5</ele>
        <time>2000-01-01T07:31:54.000Z</time>
      </trkpt>
      <trkpt lat="45.73135" lon="6.1034">
        <ele>726</ele>
        <time>2000-01-01T07:32:04.000Z</time>
      </trkpt>
      <trkpt lat="45.73135" lon="6.10347">
        <ele>719.9</ele>
        <time>2000-01-01T07:32:14.000Z</time>
      </trkpt>
      <trkpt lat="45.73135" lon="6.10359">
        <ele>719.8</ele>
        <time>2000-01-01T07:32:24.000Z</time>
      </trkpt>
      <trkpt lat="45.73136" lon="6.10366">
        <ele>719.4</ele>
        <time>2000-01-01T07:32:34.000Z</time>
      </trkpt>
      <trkpt lat="45.7314" lon="6.10371">
        <ele>724</ele>
        <time>2000-01-01T07:32:44.000Z</time>
      </trkpt>
      <trkpt lat="45.73145" lon="6.10381">
        <ele>719.6</ele>
        <time>2000-01-01T07:32:54.000Z</time>
      </trkpt>
      <trkpt lat="45.7315" lon="6.1039">
        <ele>719.7</ele>
        <time>2000-01-01T07:33:04.000Z</time>
      </trkpt>
      <trkpt lat="45.73152" lon="6.104">
        <ele>720</ele>
        <time>2000-01-01T07:33:14.000Z</time>
      </trkpt>
      <trkpt lat="45.73148" lon="6.10396">
        <ele>718.9</ele>
        <time>2000-01-01T07:33:24.000Z</time>
      </trkpt>
      <trkpt lat="45.73143" lon="6.10395">
        <ele>717.8</ele>
        <time>2000-01-01T07:33:34.000Z</time>
      </trkpt>
      <trkpt lat="45.73133" lon="6.10396">
        <ele>720</ele>
        <time>2000-01-01T07:33:44.000Z</time>
      </trkpt>
      <trkpt lat="45.73127" lon="6.10395">
        <ele>713.8</ele>
        <time>2000-01-01T07:33:54.000Z</time>
      </trkpt>
      <trkpt lat="45.73119" lon="6.10394">
        <ele>711.8</ele>
        <time>2000-01-01T07:34:04.000Z</time>
      </trkpt>
      <trkpt lat="45.73112" lon="6.10395">
        <ele>717</ele>
        <time>2000-01-01T07:34:14.000Z</time>
      </trkpt>
      <trkpt lat="45.73093" lon="6.10398">
        <ele>710</ele>
        <time>2000-01-01T07:34:24.000Z</time>
      </trkpt>
      <trkpt lat="45.73088" lon="6.10398">
        <ele>703</ele>
        <time>2000-01-01T07:34:34.000Z</time>
      </trkpt>
      <trkpt lat="45.7308" lon="6.10399">
        <ele>700.6</ele>
        <time>2000-01-01T07:34:44.000Z</time>
      </trkpt>
      <trkpt lat="45.73072" lon="6.10405">
        <ele>710</ele>
        <time>2000-01-01T07:34:54.000Z</time>
      </trkpt>
      <trkpt lat="45.73068" lon="6.10412">
        <ele>696.3</ele>
        <time>2000-01-01T07:35:04.000Z</time>
      </trkpt>
      <trkpt lat="45.73065" lon="6.10413">
        <ele>695.3</ele>
        <time>2000-01-01T07:35:14.000Z</time>
      </trkpt>
      <trkpt lat="45.73062" lon="6.10418">
        <ele>694.1</ele>
        <time>2000-01-01T07:35:24.000Z</time>
      </trkpt>
      <trkpt lat="45.73057" lon="6.10424">
        <ele>699</ele>
        <time>2000-01-01T07:35:34.000Z</time>
      </trkpt>
      <trkpt lat="45.73056" lon="6.10429">
        <ele>692.1</ele>
        <time>2000-01-01T07:35:44.000Z</time>
      </trkpt>
      <trkpt lat="45.7306" lon="6.10437">
        <ele>693.4</ele>
        <time>2000-01-01T07:35:54.000Z</time>
      </trkpt>
      <trkpt lat="45.73056" lon="6.10445">
        <ele>692.1</ele>
        <time>2000-01-01T07:36:04.000Z</time>
      </trkpt>
      <trkpt lat="45.7305" lon="6.10448">
        <ele>689</ele>
        <time>2000-01-01T07:36:14.000Z</time>
      </trkpt>
      <trkpt lat="45.73046" lon="6.10454">
        <ele>688.9</ele>
        <time>2000-01-01T07:36:24.000Z</time>
      </trkpt>
      <trkpt lat="45.73042" lon="6.10456">
        <ele>687.7</ele>
        <time>2000-01-01T07:36:34.000Z</time>
      </trkpt>
      <trkpt lat="45.73028" lon="6.10454">
        <ele>689</ele>
        <time>2000-01-01T07:36:44.000Z</time>
      </trkpt>
      <trkpt lat="45.7302" lon="6.10459">
        <ele>681.5</ele>
        <time>2000-01-01T07:36:54.000Z</time>
      </trkpt>
      <trkpt lat="45.73015" lon="6.10457">
        <ele>680.3</ele>
        <time>2000-01-01T07:37:04.000Z</time>
      </trkpt>
      <trkpt lat="45.73009" lon="6.10457">
        <ele>687</ele>
        <time>2000-01-01T07:37:14.000Z</time>
      </trkpt>
      <trkpt lat="45.73007" lon="6.10459">
        <ele>678.2</ele>
        <time>2000-01-01T07:37:24.000Z</time>
      </trkpt>
      <trkpt lat="45.73006" lon="6.10462">
        <ele>677.9</ele>
        <time>2000-01-01T07:37:34.000Z</time>
      </trkpt>
      <trkpt lat="45.73001" lon="6.10463">
        <ele>676.6</ele>
        <time>2000-01-01T07:37:44.000Z</time>
      </trkpt>
      <trkpt lat="45.72998" lon="6.10465">
        <ele>676.1</ele>
        <time>2000-01-01T07:37:54.000Z</time>
      </trkpt>
      <trkpt lat="45.72997" lon="6.10467">
        <ele>675.9</ele>
        <time>2000-01-01T07:38:04.000Z</time>
      </trkpt>
      <trkpt lat="45.72993" lon="6.10469">
        <ele>687</ele>
        <time>2000-01-01T07:38:14.000Z</time>
      </trkpt>
      <trkpt lat="45.72988" lon="6.1047">
        <ele>674.5</ele>
        <time>2000-01-01T07:38:24.000Z</time>
      </trkpt>
      <trkpt lat="45.72981" lon="6.10471">
        <ele>673.5</ele>
        <time>2000-01-01T07:38:34.000Z</time>
      </trkpt>
      <trkpt lat="45.72976" lon="6.10482">
        <ele>684</ele>
        <time>2000-01-01T07:38:44.000Z</time>
      </trkpt>
      <trkpt lat="45.72975" lon="6.10489">
        <ele>669.6</ele>
        <time>2000-01-01T07:38:54.000Z</time>
      </trkpt>
      <trkpt lat="45.72969" lon="6.10496">
        <ele>667.3</ele>
        <time>2000-01-01T07:39:04.000Z</time>
      </trkpt>
      <trkpt lat="45.72967" lon="6.10501">
        <ele>666.1</ele>
        <time>2000-01-01T07:39:14.000Z</time>
      </trkpt>
      <trkpt lat="45.72962" lon="6.10505">
        <ele>681</ele>
        <time>2000-01-01T07:39:24.000Z</time>
      </trkpt>
      <trkpt lat="45.72957" lon="6.10508">
        <ele>663.6</ele>
        <time>2000-01-01T07:39:34.000Z</time>
      </trkpt>
      <trkpt lat="45.72953" lon="6.10511">
        <ele>662.5</ele>
        <time>2000-01-01T07:39:44.000Z</time>
      </trkpt>
      <trkpt lat="45.72948" lon="6.10512">
        <ele>661.5</ele>
        <time>2000-01-01T07:39:54.000Z</time>
      </trkpt>
      <trkpt lat="45.72945" lon="6.10511">
        <ele>661.1</ele>
        <time>2000-01-01T07:40:04.000Z</time>
      </trkpt>
      <trkpt lat="45.72942" lon="6.10514">
        <ele>680</ele>
        <time>2000-01-01T07:40:14.000Z</time>
      </trkpt>
      <trkpt lat="45.72932" lon="6.10515">
        <ele>659</ele>
        <time>2000-01-01T07:40:24.000Z</time>
      </trkpt>
      <trkpt lat="45.72925" lon="6.10515">
        <ele>658.2</ele>
        <time>2000-01-01T07:40:34.000Z</time>
      </trkpt>
      <trkpt lat="45.7292" lon="6.10513">
        <ele>680</ele>
        <time>2000-01-01T07:40:44.000Z</time>
      </trkpt>
      <trkpt lat="45.72916" lon="6.10512">
        <ele>657.8</ele>
        <time>2000-01-01T07:40:54.000Z</time>
      </trkpt>
      <trkpt lat="45.72913" lon="6.10513">
        <ele>657.5</ele>
        <time>2000-01-01T07:41:04.000Z</time>
      </trkpt>
      <trkpt lat="45.72906" lon="6.10508">
        <ele>657.9</ele>
        <time>2000-01-01T07:41:14.000Z</time>
      </trkpt>
      <trkpt lat="45.72886" lon="6.10508">
        <ele>675</ele>
        <time>2000-01-01T07:41:24.000Z</time>
      </trkpt>
      <trkpt lat="45.72876" lon="6.10506">
        <ele>656.3</ele>
        <time>2000-01-01T07:41:34.000Z</time>
      </trkpt>
      <trkpt lat="45.72866" lon="6.10505">
        <ele>667</ele>
        <time>2000-01-01T07:41:44.000Z</time>
      </trkpt>
      <trkpt lat="45.72861" lon="6.10502">
        <ele>655.8</ele>
        <time>2000-01-01T07:41:54.000Z</time>
      </trkpt>
      <trkpt lat="45.72847" lon="6.105">
        <ele>661</ele>
        <time>2000-01-01T07:42:04.000Z</time>
      </trkpt>
      <trkpt lat="45.72842" lon="6.10498">
        <ele>655</ele>
        <time>2000-01-01T07:42:14.000Z</time>
      </trkpt>
      <trkpt lat="45.72837" lon="6.105">
        <ele>654.3</ele>
        <time>2000-01-01T07:42:24.000Z</time>
      </trkpt>
      <trkpt lat="45.72833" lon="6.10504">
        <ele>653.7</ele>
        <time>2000-01-01T07:42:34.000Z</time>
      </trkpt>
      <trkpt lat="45.72829" lon="6.10508">
        <ele>661</ele>
        <time>2000-01-01T07:42:44.000Z</time>
      </trkpt>
      <trkpt lat="45.72821" lon="6.10509">
        <ele>652.6</ele>
        <time>2000-01-01T07:42:54.000Z</time>
      </trkpt>
      <trkpt lat="45.72816" lon="6.10509">
        <ele>652.3</ele>
        <time>2000-01-01T07:43:04.000Z</time>
      </trkpt>
      <trkpt lat="45.72809" lon="6.10508">
        <ele>660</ele>
        <time>2000-01-01T07:43:14.000Z</time>
      </trkpt>
      <trkpt lat="45.72802" lon="6.10509">
        <ele>651.5</ele>
        <time>2000-01-01T07:43:24.000Z</time>
      </trkpt>
      <trkpt lat="45.72793" lon="6.10512">
        <ele>651.1</ele>
        <time>2000-01-01T07:43:34.000Z</time>
      </trkpt>
      <trkpt lat="45.72747" lon="6.10529">
        <ele>654</ele>
        <time>2000-01-01T07:43:44.000Z</time>
      </trkpt>
      <trkpt lat="45.72724" lon="6.10538">
        <ele>648</ele>
        <time>2000-01-01T07:43:54.000Z</time>
      </trkpt>
      <trkpt lat="45.727" lon="6.10546">
        <ele>646</ele>
        <time>2000-01-01T07:44:04.000Z</time>
      </trkpt>
      <trkpt lat="45.72656" lon="6.10562">
        <ele>635</ele>
        <time>2000-01-01T07:44:14.000Z</time>
      </trkpt>
      <trkpt lat="45.72631" lon="6.10572">
        <ele>635</ele>
        <time>2000-01-01T07:44:24.000Z</time>
      </trkpt>
      <trkpt lat="45.72625" lon="6.10573">
        <ele>640.1</ele>
        <time>2000-01-01T07:44:34.000Z</time>
      </trkpt>
      <trkpt lat="45.72618" lon="6.10574">
        <ele>639.8</ele>
        <time>2000-01-01T07:44:44.000Z</time>
      </trkpt>
      <trkpt lat="45.72613" lon="6.10574">
        <ele>639.7</ele>
        <time>2000-01-01T07:44:54.000Z</time>
      </trkpt>
      <trkpt lat="45.72611" lon="6.10574">
        <ele>635</ele>
        <time>2000-01-01T07:45:04.000Z</time>
      </trkpt>
      <trkpt lat="45.72619" lon="6.10579">
        <ele>639.4</ele>
        <time>2000-01-01T07:45:14.000Z</time>
      </trkpt>
      <trkpt lat="45.72629" lon="6.10584">
        <ele>635</ele>
        <time>2000-01-01T07:45:24.000Z</time>
      </trkpt>
      <trkpt lat="45.72638" lon="6.10587">
        <ele>638.5</ele>
        <time>2000-01-01T07:45:34.000Z</time>
      </trkpt>
      <trkpt lat="45.72641" lon="6.10589">
        <ele>638.4</ele>
        <time>2000-01-01T07:45:44.000Z</time>
      </trkpt>
      <trkpt lat="45.72645" lon="6.10592">
        <ele>638.5</ele>
        <time>2000-01-01T07:45:54.000Z</time>
      </trkpt>
      <trkpt lat="45.72651" lon="6.10597">
        <ele>636</ele>
        <time>2000-01-01T07:46:04.000Z</time>
      </trkpt>
      <trkpt lat="45.7266" lon="6.10603">
        <ele>639</ele>
        <time>2000-01-01T07:46:14.000Z</time>
      </trkpt>
      <trkpt lat="45.72674" lon="6.10616">
        <ele>638</ele>
        <time>2000-01-01T07:46:24.000Z</time>
      </trkpt>
      <trkpt lat="45.72684" lon="6.10627">
        <ele>641</ele>
        <time>2000-01-01T07:46:34.000Z</time>
      </trkpt>
      <trkpt lat="45.72692" lon="6.10636">
        <ele>641</ele>
        <time>2000-01-01T07:46:44.000Z</time>
      </trkpt>
      <trkpt lat="45.72704" lon="6.10647">
        <ele>641.6</ele>
        <time>2000-01-01T07:46:54.000Z</time>
      </trkpt>
      <trkpt lat="45.72716" lon="6.10657">
        <ele>644</ele>
        <time>2000-01-01T07:47:04.000Z</time>
      </trkpt>
      <trkpt lat="45.72729" lon="6.10669">
        <ele>641.9</ele>
        <time>2000-01-01T07:47:14.000Z</time>
      </trkpt>
      <trkpt lat="45.72745" lon="6.10682">
        <ele>644</ele>
        <time>2000-01-01T07:47:24.000Z</time>
      </trkpt>
      <trkpt lat="45.72763" lon="6.10693">
        <ele>644</ele>
        <time>2000-01-01T07:47:34.000Z</time>
      </trkpt>
      <trkpt lat="45.72773" lon="6.10698">
        <ele>643.1</ele>
        <time>2000-01-01T07:47:44.000Z</time>
      </trkpt>
      <trkpt lat="45.72778" lon="6.107">
        <ele>643.4</ele>
        <time>2000-01-01T07:47:54.000Z</time>
      </trkpt>
      <trkpt lat="45.72783" lon="6.10704">
        <ele>645</ele>
        <time>2000-01-01T07:48:04.000Z</time>
      </trkpt>
      <trkpt lat="45.72787" lon="6.10709">
        <ele>644.1</ele>
        <time>2000-01-01T07:48:14.000Z</time>
      </trkpt>
      <trkpt lat="45.72791" lon="6.10713">
        <ele>644.2</ele>
        <time>2000-01-01T07:48:24.000Z</time>
      </trkpt>
      <trkpt lat="45.72793" lon="6.10717">
        <ele>644</ele>
        <time>2000-01-01T07:48:34.000Z</time>
      </trkpt>
      <trkpt lat="45.72795" lon="6.10721">
        <ele>643.7</ele>
        <time>2000-01-01T07:48:44.000Z</time>
      </trkpt>
      <trkpt lat="45.72793" lon="6.10724">
        <ele>647</ele>
        <time>2000-01-01T07:48:54.000Z</time>
      </trkpt>
      <trkpt lat="45.72789" lon="6.10725">
        <ele>642.1</ele>
        <time>2000-01-01T07:49:04.000Z</time>
      </trkpt>
      <trkpt lat="45.72787" lon="6.10727">
        <ele>641.5</ele>
        <time>2000-01-01T07:49:14.000Z</time>
      </trkpt>
      <trkpt lat="45.72781" lon="6.10731">
        <ele>640.1</ele>
        <time>2000-01-01T07:49:24.000Z</time>
      </trkpt>
      <trkpt lat="45.72775" lon="6.10734">
        <ele>647</ele>
        <time>2000-01-01T07:49:34.000Z</time>
      </trkpt>
      <trkpt lat="45.72768" lon="6.10739">
        <ele>637.7</ele>
        <time>2000-01-01T07:49:44.000Z</time>
      </trkpt>
      <trkpt lat="45.72766" lon="6.10741">
        <ele>637.2</ele>
        <time>2000-01-01T07:49:54.000Z</time>
      </trkpt>
      <trkpt lat="45.72758" lon="6.10739">
        <ele>640</ele>
        <time>2000-01-01T07:50:04.000Z</time>
      </trkpt>
      <trkpt lat="45.72757" lon="6.10741">
        <ele>636.3</ele>
        <time>2000-01-01T07:50:14.000Z</time>
      </trkpt>
      <trkpt lat="45.72754" lon="6.10744">
        <ele>635.5</ele>
        <time>2000-01-01T07:50:24.000Z</time>
      </trkpt>
      <trkpt lat="45.72752" lon="6.10744">
        <ele>635.3</ele>
        <time>2000-01-01T07:50:34.000Z</time>
      </trkpt>
      <trkpt lat="45.72746" lon="6.10744">
        <ele>634.4</ele>
        <time>2000-01-01T07:50:44.000Z</time>
      </trkpt>
      <trkpt lat="45.72743" lon="6.10744">
        <ele>633.9</ele>
        <time>2000-01-01T07:50:54.000Z</time>
      </trkpt>
      <trkpt lat="45.72737" lon="6.10742">
        <ele>639</ele>
        <time>2000-01-01T07:51:04.000Z</time>
      </trkpt>
      <trkpt lat="45.72735" lon="6.10741">
        <ele>633.3</ele>
        <time>2000-01-01T07:51:14.000Z</time>
      </trkpt>
      <trkpt lat="45.72726" lon="6.1074">
        <ele>632.1</ele>
        <time>2000-01-01T07:51:24.000Z</time>
      </trkpt>
      <trkpt lat="45.72724" lon="6.10742">
        <ele>631.3</ele>
        <time>2000-01-01T07:51:34.000Z</time>
      </trkpt>
      <trkpt lat="45.72719" lon="6.1074">
        <ele>631.6</ele>
        <time>2000-01-01T07:51:44.000Z</time>
      </trkpt>
      <trkpt lat="45.72715" lon="6.10738">
        <ele>639</ele>
        <time>2000-01-01T07:51:54.000Z</time>
      </trkpt>
      <trkpt lat="45.72713" lon="6.10736">
        <ele>632.5</ele>
        <time>2000-01-01T07:52:04.000Z</time>
      </trkpt>
      <trkpt lat="45.72712" lon="6.10738">
        <ele>632.1</ele>
        <time>2000-01-01T07:52:14.000Z</time>
      </trkpt>
      <trkpt lat="45.72711" lon="6.1074">
        <ele>631.7</ele>
        <time>2000-01-01T07:52:24.000Z</time>
      </trkpt>
      <trkpt lat="45.72709" lon="6.10742">
        <ele>631.4</ele>
        <time>2000-01-01T07:52:34.000Z</time>
      </trkpt>
      <trkpt lat="45.72708" lon="6.10746">
        <ele>630.7</ele>
        <time>2000-01-01T07:52:44.000Z</time>
      </trkpt>
      <trkpt lat="45.72709" lon="6.10747">
        <ele>630.5</ele>
        <time>2000-01-01T07:52:54.000Z</time>
      </trkpt>
      <trkpt lat="45.7271" lon="6.1075">
        <ele>629.9</ele>
        <time>2000-01-01T07:53:04.000Z</time>
      </trkpt>
      <trkpt lat="45.72713" lon="6.10751">
        <ele>629.7</ele>
        <time>2000-01-01T07:53:14.000Z</time>
      </trkpt>
      <trkpt lat="45.72713" lon="6.10754">
        <ele>639</ele>
        <time>2000-01-01T07:53:24.000Z</time>
      </trkpt>
      <trkpt lat="45.72713" lon="6.10756">
        <ele>629.9</ele>
        <time>2000-01-01T07:53:34.000Z</time>
      </trkpt>
      <trkpt lat="45.72713" lon="6.1076">
        <ele>630</ele>
        <time>2000-01-01T07:53:44.000Z</time>
      </trkpt>
      <trkpt lat="45.72713" lon="6.10765">
        <ele>630.2</ele>
        <time>2000-01-01T07:53:54.000Z</time>
      </trkpt>
      <trkpt lat="45.72715" lon="6.10769">
        <ele>630.5</ele>
        <time>2000-01-01T07:54:04.000Z</time>
      </trkpt>
      <trkpt lat="45.72717" lon="6.10771">
        <ele>630.8</ele>
        <time>2000-01-01T07:54:14.000Z</time>
      </trkpt>
      <trkpt lat="45.72717" lon="6.10782">
        <ele>639</ele>
        <time>2000-01-01T07:54:24.000Z</time>
      </trkpt>
      <trkpt lat="45.72715" lon="6.1079">
        <ele>633</ele>
        <time>2000-01-01T07:54:34.000Z</time>
      </trkpt>
      <trkpt lat="45.72712" lon="6.10802">
        <ele>634.6</ele>
        <time>2000-01-01T07:54:44.000Z</time>
      </trkpt>
      <trkpt lat="45.7271" lon="6.10816">
        <ele>638</ele>
        <time>2000-01-01T07:54:54.000Z</time>
      </trkpt>
      <trkpt lat="45.72707" lon="6.10825">
        <ele>637.3</ele>
        <time>2000-01-01T07:55:04.000Z</time>
      </trkpt>
      <trkpt lat="45.72706" lon="6.10829">
        <ele>637.7</ele>
        <time>2000-01-01T07:55:14.000Z</time>
      </trkpt>
      <trkpt lat="45.72704" lon="6.10833">
        <ele>637.7</ele>
        <time>2000-01-01T07:55:24.000Z</time>
      </trkpt>
      <trkpt lat="45.72703" lon="6.10839">
        <ele>637.7</ele>
        <time>2000-01-01T07:55:34.000Z</time>
      </trkpt>
      <trkpt lat="45.72706" lon="6.10864">
        <ele>639</ele>
        <time>2000-01-01T07:55:44.000Z</time>
      </trkpt>
      <trkpt lat="45.72707" lon="6.10877">
        <ele>639.6</ele>
        <time>2000-01-01T07:55:54.000Z</time>
      </trkpt>
      <trkpt lat="45.72708" lon="6.10885">
        <ele>639.9</ele>
        <time>2000-01-01T07:56:04.000Z</time>
      </trkpt>
      <trkpt lat="45.72707" lon="6.10889">
        <ele>639.8</ele>
        <time>2000-01-01T07:56:14.000Z</time>
      </trkpt>
      <trkpt lat="45.72709" lon="6.10899">
        <ele>641</ele>
        <time>2000-01-01T07:56:24.000Z</time>
      </trkpt>
      <trkpt lat="45.72713" lon="6.1091">
        <ele>641.4</ele>
        <time>2000-01-01T07:56:34.000Z</time>
      </trkpt>
      <trkpt lat="45.72716" lon="6.10914">
        <ele>642.3</ele>
        <time>2000-01-01T07:56:44.000Z</time>
      </trkpt>
      <trkpt lat="45.7272" lon="6.10918">
        <ele>643.3</ele>
        <time>2000-01-01T07:56:54.000Z</time>
      </trkpt>
      <trkpt lat="45.72727" lon="6.10932">
        <ele>651</ele>
        <time>2000-01-01T07:57:04.000Z</time>
      </trkpt>
      <trkpt lat="45.7273" lon="6.10942">
        <ele>641.6</ele>
        <time>2000-01-01T07:57:14.000Z</time>
      </trkpt>
      <trkpt lat="45.72733" lon="6.10949">
        <ele>641.6</ele>
        <time>2000-01-01T07:57:24.000Z</time>
      </trkpt>
      <trkpt lat="45.72737" lon="6.10954">
        <ele>641.9</ele>
        <time>2000-01-01T07:57:34.000Z</time>
      </trkpt>
      <trkpt lat="45.72745" lon="6.10963">
        <ele>657</ele>
        <time>2000-01-01T07:57:44.000Z</time>
      </trkpt>
      <trkpt lat="45.72746" lon="6.10968">
        <ele>644.4</ele>
        <time>2000-01-01T07:57:54.000Z</time>
      </trkpt>
      <trkpt lat="45.72749" lon="6.10973">
        <ele>645.9</ele>
        <time>2000-01-01T07:58:04.000Z</time>
      </trkpt>
      <trkpt lat="45.72749" lon="6.10978">
        <ele>646.6</ele>
        <time>2000-01-01T07:58:14.000Z</time>
      </trkpt>
      <trkpt lat="45.72751" lon="6.10982">
        <ele>647.4</ele>
        <time>2000-01-01T07:58:24.000Z</time>
      </trkpt>
      <trkpt lat="45.72752" lon="6.10984">
        <ele>647.8</ele>
        <time>2000-01-01T07:58:34.000Z</time>
      </trkpt>
      <trkpt lat="45.72751" lon="6.10986">
        <ele>648</ele>
        <time>2000-01-01T07:58:44.000Z</time>
      </trkpt>
      <trkpt lat="45.72756" lon="6.10989">
        <ele>657</ele>
        <time>2000-01-01T07:58:54.000Z</time>
      </trkpt>
      <trkpt lat="45.72761" lon="6.10996">
        <ele>650.1</ele>
        <time>2000-01-01T07:59:04.000Z</time>
      </trkpt>
      <trkpt lat="45.72764" lon="6.11001">
        <ele>651.2</ele>
        <time>2000-01-01T07:59:14.000Z</time>
      </trkpt>
      <trkpt lat="45.72767" lon="6.11008">
        <ele>652.6</ele>
        <time>2000-01-01T07:59:24.000Z</time>
      </trkpt>
      <trkpt lat="45.72766" lon="6.11014">
        <ele>654</ele>
        <time>2000-01-01T07:59:34.000Z</time>
      </trkpt>
      <trkpt lat="45.72764" lon="6.11021">
        <ele>654.4</ele>
        <time>2000-01-01T07:59:44.000Z</time>
      </trkpt>
      <trkpt lat="45.7276" lon="6.11028">
        <ele>655.1</ele>
        <time>2000-01-01T07:59:54.000Z</time>
      </trkpt>
      <trkpt lat="45.72751" lon="6.11032">
        <ele>654</ele>
        <time>2000-01-01T08:00:04.000Z</time>
      </trkpt>
      <trkpt lat="45.72746" lon="6.11046">
        <ele>655.4</ele>
        <time>2000-01-01T08:00:14.000Z</time>
      </trkpt>
      <trkpt lat="45.72742" lon="6.11057">
        <ele>653</ele>
        <time>2000-01-01T08:00:24.000Z</time>
      </trkpt>
      <trkpt lat="45.72741" lon="6.11067">
        <ele>658.2</ele>
        <time>2000-01-01T08:00:34.000Z</time>
      </trkpt>
      <trkpt lat="45.72737" lon="6.11076">
        <ele>659.6</ele>
        <time>2000-01-01T08:00:44.000Z</time>
      </trkpt>
      <trkpt lat="45.72735" lon="6.11088">
        <ele>653</ele>
        <time>2000-01-01T08:00:54.000Z</time>
      </trkpt>
      <trkpt lat="45.72734" lon="6.11104">
        <ele>664.1</ele>
        <time>2000-01-01T08:01:04.000Z</time>
      </trkpt>
      <trkpt lat="45.72734" lon="6.11123">
        <ele>660</ele>
        <time>2000-01-01T08:01:14.000Z</time>
      </trkpt>
      <trkpt lat="45.72731" lon="6.11135">
        <ele>667.8</ele>
        <time>2000-01-01T08:01:24.000Z</time>
      </trkpt>
      <trkpt lat="45.72732" lon="6.11143">
        <ele>668.8</ele>
        <time>2000-01-01T08:01:34.000Z</time>
      </trkpt>
      <trkpt lat="45.72727" lon="6.11155">
        <ele>668</ele>
        <time>2000-01-01T08:01:44.000Z</time>
      </trkpt>
      <trkpt lat="45.72721" lon="6.11162">
        <ele>670.4</ele>
        <time>2000-01-01T08:01:54.000Z</time>
      </trkpt>
      <trkpt lat="45.72717" lon="6.11171">
        <ele>671.3</ele>
        <time>2000-01-01T08:02:04.000Z</time>
      </trkpt>
      <trkpt lat="45.72711" lon="6.11172">
        <ele>672</ele>
        <time>2000-01-01T08:02:14.000Z</time>
      </trkpt>
      <trkpt lat="45.72708" lon="6.11181">
        <ele>672</ele>
        <time>2000-01-01T08:02:24.000Z</time>
      </trkpt>
      <trkpt lat="45.72707" lon="6.11195">
        <ele>673.5</ele>
        <time>2000-01-01T08:02:34.000Z</time>
      </trkpt>
      <trkpt lat="45.72704" lon="6.11211">
        <ele>674</ele>
        <time>2000-01-01T08:02:44.000Z</time>
      </trkpt>
      <trkpt lat="45.72701" lon="6.11218">
        <ele>675.1</ele>
        <time>2000-01-01T08:02:54.000Z</time>
      </trkpt>
      <trkpt lat="45.72699" lon="6.11235">
        <ele>677.1</ele>
        <time>2000-01-01T08:03:04.000Z</time>
      </trkpt>
      <trkpt lat="45.72697" lon="6.11257">
        <ele>675</ele>
        <time>2000-01-01T08:03:14.000Z</time>
      </trkpt>
      <trkpt lat="45.72696" lon="6.11269">
        <ele>681.8</ele>
        <time>2000-01-01T08:03:24.000Z</time>
      </trkpt>
      <trkpt lat="45.72694" lon="6.11283">
        <ele>683.8</ele>
        <time>2000-01-01T08:03:34.000Z</time>
      </trkpt>
      <trkpt lat="45.72691" lon="6.11298">
        <ele>676</ele>
        <time>2000-01-01T08:03:44.000Z</time>
      </trkpt>
      <trkpt lat="45.72689" lon="6.11307">
        <ele>687.1</ele>
        <time>2000-01-01T08:03:54.000Z</time>
      </trkpt>
      <trkpt lat="45.72689" lon="6.11312">
        <ele>687.7</ele>
        <time>2000-01-01T08:04:04.000Z</time>
      </trkpt>
      <trkpt lat="45.72686" lon="6.11322">
        <ele>688.6</ele>
        <time>2000-01-01T08:04:14.000Z</time>
      </trkpt>
      <trkpt lat="45.72682" lon="6.11331">
        <ele>681</ele>
        <time>2000-01-01T08:04:24.000Z</time>
      </trkpt>
      <trkpt lat="45.72679" lon="6.11343">
        <ele>690.6</ele>
        <time>2000-01-01T08:04:34.000Z</time>
      </trkpt>
      <trkpt lat="45.72675" lon="6.11351">
        <ele>691.4</ele>
        <time>2000-01-01T08:04:44.000Z</time>
      </trkpt>
      <trkpt lat="45.72673" lon="6.1136">
        <ele>687</ele>
        <time>2000-01-01T08:04:54.000Z</time>
      </trkpt>
      <trkpt lat="45.7267" lon="6.11364">
        <ele>693</ele>
        <time>2000-01-01T08:05:04.000Z</time>
      </trkpt>
      <trkpt lat="45.72663" lon="6.11374">
        <ele>694.8</ele>
        <time>2000-01-01T08:05:14.000Z</time>
      </trkpt>
      <trkpt lat="45.72657" lon="6.11384">
        <ele>687</ele>
        <time>2000-01-01T08:05:24.000Z</time>
      </trkpt>
      <trkpt lat="45.7265" lon="6.11391">
        <ele>696.5</ele>
        <time>2000-01-01T08:05:34.000Z</time>
      </trkpt>
      <trkpt lat="45.72644" lon="6.114">
        <ele>697.6</ele>
        <time>2000-01-01T08:05:44.000Z</time>
      </trkpt>
      <trkpt lat="45.72638" lon="6.11405">
        <ele>687</ele>
        <time>2000-01-01T08:05:54.000Z</time>
      </trkpt>
      <trkpt lat="45.72633" lon="6.11414">
        <ele>699.3</ele>
        <time>2000-01-01T08:06:04.000Z</time>
      </trkpt>
      <trkpt lat="45.7263" lon="6.1142">
        <ele>700.1</ele>
        <time>2000-01-01T08:06:14.000Z</time>
      </trkpt>
      <trkpt lat="45.72624" lon="6.11428">
        <ele>697</ele>
        <time>2000-01-01T08:06:24.000Z</time>
      </trkpt>
      <trkpt lat="45.72621" lon="6.11435">
        <ele>701.7</ele>
        <time>2000-01-01T08:06:34.000Z</time>
      </trkpt>
      <trkpt lat="45.72619" lon="6.11443">
        <ele>703.1</ele>
        <time>2000-01-01T08:06:44.000Z</time>
      </trkpt>
      <trkpt lat="45.72616" lon="6.11452">
        <ele>699</ele>
        <time>2000-01-01T08:06:54.000Z</time>
      </trkpt>
      <trkpt lat="45.72613" lon="6.11457">
        <ele>705.1</ele>
        <time>2000-01-01T08:07:04.000Z</time>
      </trkpt>
      <trkpt lat="45.72611" lon="6.11463">
        <ele>706</ele>
        <time>2000-01-01T08:07:14.000Z</time>
      </trkpt>
      <trkpt lat="45.7261" lon="6.11473">
        <ele>707.9</ele>
        <time>2000-01-01T08:07:24.000Z</time>
      </trkpt>
      <trkpt lat="45.72607" lon="6.11486">
        <ele>704</ele>
        <time>2000-01-01T08:07:34.000Z</time>
      </trkpt>
      <trkpt lat="45.72605" lon="6.11497">
        <ele>710.4</ele>
        <time>2000-01-01T08:07:44.000Z</time>
      </trkpt>
      <trkpt lat="45.72602" lon="6.11509">
        <ele>711.6</ele>
        <time>2000-01-01T08:07:54.000Z</time>
      </trkpt>
      <trkpt lat="45.726" lon="6.11523">
        <ele>708</ele>
        <time>2000-01-01T08:08:04.000Z</time>
      </trkpt>
      <trkpt lat="45.72599" lon="6.11536">
        <ele>714.4</ele>
        <time>2000-01-01T08:08:14.000Z</time>
      </trkpt>
      <trkpt lat="45.72596" lon="6.11548">
        <ele>715.7</ele>
        <time>2000-01-01T08:08:24.000Z</time>
      </trkpt>
      <trkpt lat="45.72594" lon="6.11558">
        <ele>713</ele>
        <time>2000-01-01T08:08:34.000Z</time>
      </trkpt>
      <trkpt lat="45.72591" lon="6.1157">
        <ele>717.8</ele>
        <time>2000-01-01T08:08:44.000Z</time>
      </trkpt>
      <trkpt lat="45.72587" lon="6.11583">
        <ele>716</ele>
        <time>2000-01-01T08:08:54.000Z</time>
      </trkpt>
      <trkpt lat="45.72582" lon="6.11594">
        <ele>719.8</ele>
        <time>2000-01-01T08:09:04.000Z</time>
      </trkpt>
      <trkpt lat="45.72577" lon="6.11607">
        <ele>717</ele>
        <time>2000-01-01T08:09:14.000Z</time>
      </trkpt>
      <trkpt lat="45.7257" lon="6.11621">
        <ele>721.8</ele>
        <time>2000-01-01T08:09:24.000Z</time>
      </trkpt>
      <trkpt lat="45.72558" lon="6.1165">
        <ele>720</ele>
        <time>2000-01-01T08:09:34.000Z</time>
      </trkpt>
      <trkpt lat="45.7255" lon="6.11669">
        <ele>724.4</ele>
        <time>2000-01-01T08:09:44.000Z</time>
      </trkpt>
      <trkpt lat="45.72544" lon="6.11685">
        <ele>726</ele>
        <time>2000-01-01T08:09:54.000Z</time>
      </trkpt>
      <trkpt lat="45.72535" lon="6.11709">
        <ele>728</ele>
        <time>2000-01-01T08:10:04.000Z</time>
      </trkpt>
      <trkpt lat="45.72528" lon="6.11734">
        <ele>727</ele>
        <time>2000-01-01T08:10:14.000Z</time>
      </trkpt>
      <trkpt lat="45.72519" lon="6.11749">
        <ele>731.9</ele>
        <time>2000-01-01T08:10:24.000Z</time>
      </trkpt>
      <trkpt lat="45.72504" lon="6.1177">
        <ele>728</ele>
        <time>2000-01-01T08:10:34.000Z</time>
      </trkpt>
      <trkpt lat="45.72506" lon="6.11767">
        <ele>733.2</ele>
        <time>2000-01-01T08:10:44.000Z</time>
      </trkpt>
      <trkpt lat="45.72523" lon="6.11764">
        <ele>732</ele>
        <time>2000-01-01T08:10:54.000Z</time>
      </trkpt>
      <trkpt lat="45.72543" lon="6.11766">
        <ele>732</ele>
        <time>2000-01-01T08:11:04.000Z</time>
      </trkpt>
      <trkpt lat="45.72552" lon="6.11766">
        <ele>733.2</ele>
        <time>2000-01-01T08:11:14.000Z</time>
      </trkpt>
      <trkpt lat="45.7256" lon="6.11765">
        <ele>732.9</ele>
        <time>2000-01-01T08:11:24.000Z</time>
      </trkpt>
      <trkpt lat="45.7258" lon="6.11766">
        <ele>730</ele>
        <time>2000-01-01T08:11:34.000Z</time>
      </trkpt>
      <trkpt lat="45.7259" lon="6.11767">
        <ele>732</ele>
        <time>2000-01-01T08:11:44.000Z</time>
      </trkpt>
      <trkpt lat="45.72602" lon="6.11769">
        <ele>730</ele>
        <time>2000-01-01T08:11:54.000Z</time>
      </trkpt>
      <trkpt lat="45.72619" lon="6.11777">
        <ele>731.4</ele>
        <time>2000-01-01T08:12:04.000Z</time>
      </trkpt>
      <trkpt lat="45.72638" lon="6.11786">
        <ele>731</ele>
        <time>2000-01-01T08:12:14.000Z</time>
      </trkpt>
      <trkpt lat="45.72669" lon="6.118">
        <ele>730</ele>
        <time>2000-01-01T08:12:24.000Z</time>
      </trkpt>
      <trkpt lat="45.72686" lon="6.11807">
        <ele>730</ele>
        <time>2000-01-01T08:12:34.000Z</time>
      </trkpt>
      <trkpt lat="45.72697" lon="6.1181">
        <ele>729</ele>
        <time>2000-01-01T08:12:44.000Z</time>
      </trkpt>
      <trkpt lat="45.72707" lon="6.1181">
        <ele>728.3</ele>
        <time>2000-01-01T08:12:54.000Z</time>
      </trkpt>
      <trkpt lat="45.72727" lon="6.11805">
        <ele>726</ele>
        <time>2000-01-01T08:13:04.000Z</time>
      </trkpt>
      <trkpt lat="45.72738" lon="6.11802">
        <ele>725.6</ele>
        <time>2000-01-01T08:13:14.000Z</time>
      </trkpt>
      <trkpt lat="45.72745" lon="6.11802">
        <ele>725.1</ele>
        <time>2000-01-01T08:13:24.000Z</time>
      </trkpt>
      <trkpt lat="45.72751" lon="6.11808">
        <ele>726</ele>
        <time>2000-01-01T08:13:34.000Z</time>
      </trkpt>
      <trkpt lat="45.72756" lon="6.11815">
        <ele>725</ele>
        <time>2000-01-01T08:13:44.000Z</time>
      </trkpt>
      <trkpt lat="45.72761" lon="6.11831">
        <ele>727</ele>
        <time>2000-01-01T08:13:54.000Z</time>
      </trkpt>
      <trkpt lat="45.72764" lon="6.11846">
        <ele>726.2</ele>
        <time>2000-01-01T08:14:04.000Z</time>
      </trkpt>
      <trkpt lat="45.72765" lon="6.11863">
        <ele>728</ele>
        <time>2000-01-01T08:14:14.000Z</time>
      </trkpt>
      <trkpt lat="45.72763" lon="6.11891">
        <ele>729</ele>
        <time>2000-01-01T08:14:24.000Z</time>
      </trkpt>
      <trkpt lat="45.72762" lon="6.11917">
        <ele>732.2</ele>
        <time>2000-01-01T08:14:34.000Z</time>
      </trkpt>
      <trkpt lat="45.72762" lon="6.11958">
        <ele>733</ele>
        <time>2000-01-01T08:14:44.000Z</time>
      </trkpt>
      <trkpt lat="45.72761" lon="6.11993">
        <ele>738</ele>
        <time>2000-01-01T08:14:54.000Z</time>
      </trkpt>
      <trkpt lat="45.72762" lon="6.12018">
        <ele>739.1</ele>
        <time>2000-01-01T08:15:04.000Z</time>
      </trkpt>
      <trkpt lat="45.72764" lon="6.12039">
        <ele>740</ele>
        <time>2000-01-01T08:15:14.000Z</time>
      </trkpt>
      <trkpt lat="45.72765" lon="6.12061">
        <ele>741.4</ele>
        <time>2000-01-01T08:15:24.000Z</time>
      </trkpt>
      <trkpt lat="45.72763" lon="6.12078">
        <ele>744</ele>
        <time>2000-01-01T08:15:34.000Z</time>
      </trkpt>
      <trkpt lat="45.72758" lon="6.12091">
        <ele>742.7</ele>
        <time>2000-01-01T08:15:44.000Z</time>
      </trkpt>
      <trkpt lat="45.72755" lon="6.12104">
        <ele>744</ele>
        <time>2000-01-01T08:15:54.000Z</time>
      </trkpt>
      <trkpt lat="45.72755" lon="6.12113">
        <ele>741.7</ele>
        <time>2000-01-01T08:16:04.000Z</time>
      </trkpt>
      <trkpt lat="45.72758" lon="6.1212">
        <ele>742.5</ele>
        <time>2000-01-01T08:16:14.000Z</time>
      </trkpt>
      <trkpt lat="45.72764" lon="6.12127">
        <ele>744</ele>
        <time>2000-01-01T08:16:24.000Z</time>
      </trkpt>
      <trkpt lat="45.72771" lon="6.12135">
        <ele>743.8</ele>
        <time>2000-01-01T08:16:34.000Z</time>
      </trkpt>
      <trkpt lat="45.72778" lon="6.12142">
        <ele>744.5</ele>
        <time>2000-01-01T08:16:44.000Z</time>
      </trkpt>
      <trkpt lat="45.72785" lon="6.1215">
        <ele>746</ele>
        <time>2000-01-01T08:16:54.000Z</time>
      </trkpt>
      <trkpt lat="45.72791" lon="6.12159">
        <ele>745.6</ele>
        <time>2000-01-01T08:17:04.000Z</time>
      </trkpt>
      <trkpt lat="45.72798" lon="6.12167">
        <ele>745.4</ele>
        <time>2000-01-01T08:17:14.000Z</time>
      </trkpt>
      <trkpt lat="45.72804" lon="6.12177">
        <ele>751</ele>
        <time>2000-01-01T08:17:24.000Z</time>
      </trkpt>
      <trkpt lat="45.72811" lon="6.12189">
        <ele>746.3</ele>
        <time>2000-01-01T08:17:34.000Z</time>
      </trkpt>
      <trkpt lat="45.72817" lon="6.12198">
        <ele>754</ele>
        <time>2000-01-01T08:17:44.000Z</time>
      </trkpt>
      <trkpt lat="45.72824" lon="6.12209">
        <ele>745.6</ele>
        <time>2000-01-01T08:17:54.000Z</time>
      </trkpt>
      <trkpt lat="45.7283" lon="6.1222">
        <ele>755</ele>
        <time>2000-01-01T08:18:04.000Z</time>
      </trkpt>
      <trkpt lat="45.72836" lon="6.12233">
        <ele>745.3</ele>
        <time>2000-01-01T08:18:14.000Z</time>
      </trkpt>
      <trkpt lat="45.72842" lon="6.12244">
        <ele>756</ele>
        <time>2000-01-01T08:18:24.000Z</time>
      </trkpt>
      <trkpt lat="45.72847" lon="6.12256">
        <ele>746.3</ele>
        <time>2000-01-01T08:18:34.000Z</time>
      </trkpt>
      <trkpt lat="45.72853" lon="6.12269">
        <ele>756</ele>
        <time>2000-01-01T08:18:44.000Z</time>
      </trkpt>
      <trkpt lat="45.72858" lon="6.12283">
        <ele>743.9</ele>
        <time>2000-01-01T08:18:54.000Z</time>
      </trkpt>
      <trkpt lat="45.72862" lon="6.12292">
        <ele>742.8</ele>
        <time>2000-01-01T08:19:04.000Z</time>
      </trkpt>
      <trkpt lat="45.72867" lon="6.12304">
        <ele>753</ele>
        <time>2000-01-01T08:19:14.000Z</time>
      </trkpt>
      <trkpt lat="45.72872" lon="6.12314">
        <ele>741.7</ele>
        <time>2000-01-01T08:19:24.000Z</time>
      </trkpt>
      <trkpt lat="45.72877" lon="6.12324">
        <ele>741.8</ele>
        <time>2000-01-01T08:19:34.000Z</time>
      </trkpt>
      <trkpt lat="45.72882" lon="6.12334">
        <ele>753</ele>
        <time>2000-01-01T08:19:44.000Z</time>
      </trkpt>
      <trkpt lat="45.72887" lon="6.12346">
        <ele>741.4</ele>
        <time>2000-01-01T08:19:54.000Z</time>
      </trkpt>
      <trkpt lat="45.72891" lon="6.12358">
        <ele>753</ele>
        <time>2000-01-01T08:20:04.000Z</time>
      </trkpt>
      <trkpt lat="45.72896" lon="6.12369">
        <ele>741.2</ele>
        <time>2000-01-01T08:20:14.000Z</time>
      </trkpt>
      <trkpt lat="45.729" lon="6.12382">
        <ele>741.3</ele>
        <time>2000-01-01T08:20:24.000Z</time>
      </trkpt>
      <trkpt lat="45.72903" lon="6.12395">
        <ele>752</ele>
        <time>2000-01-01T08:20:34.000Z</time>
      </trkpt>
      <trkpt lat="45.72907" lon="6.12407">
        <ele>741.1</ele>
        <time>2000-01-01T08:20:44.000Z</time>
      </trkpt>
      <trkpt lat="45.7291" lon="6.12417">
        <ele>740.9</ele>
        <time>2000-01-01T08:20:54.000Z</time>
      </trkpt>
      <trkpt lat="45.72913" lon="6.12429">
        <ele>753</ele>
        <time>2000-01-01T08:21:04.000Z</time>
      </trkpt>
      <trkpt lat="45.72916" lon="6.12439">
        <ele>740</ele>
        <time>2000-01-01T08:21:14.000Z</time>
      </trkpt>
      <trkpt lat="45.7292" lon="6.12451">
        <ele>739.7</ele>
        <time>2000-01-01T08:21:24.000Z</time>
      </trkpt>
      <trkpt lat="45.72926" lon="6.1247">
        <ele>755</ele>
        <time>2000-01-01T08:21:34.000Z</time>
      </trkpt>
      <trkpt lat="45.72931" lon="6.12485">
        <ele>739.8</ele>
        <time>2000-01-01T08:21:44.000Z</time>
      </trkpt>
      <trkpt lat="45.72938" lon="6.12505">
        <ele>755</ele>
        <time>2000-01-01T08:21:54.000Z</time>
      </trkpt>
      <trkpt lat="45.72941" lon="6.12514">
        <ele>739.5</ele>
        <time>2000-01-01T08:22:04.000Z</time>
      </trkpt>
      <trkpt lat="45.72944" lon="6.12524">
        <ele>739.7</ele>
        <time>2000-01-01T08:22:14.000Z</time>
      </trkpt>
      <trkpt lat="45.72947" lon="6.12534">
        <ele>755</ele>
        <time>2000-01-01T08:22:24.000Z</time>
      </trkpt>
      <trkpt lat="45.72951" lon="6.12543">
        <ele>738.9</ele>
        <time>2000-01-01T08:22:34.000Z</time>
      </trkpt>
      <trkpt lat="45.72955" lon="6.12553">
        <ele>738.4</ele>
        <time>2000-01-01T08:22:44.000Z</time>
      </trkpt>
      <trkpt lat="45.72959" lon="6.12562">
        <ele>755</ele>
        <time>2000-01-01T08:22:54.000Z</time>
      </trkpt>
      <trkpt lat="45.72964" lon="6.12572">
        <ele>738.7</ele>
        <time>2000-01-01T08:23:04.000Z</time>
      </trkpt>
      <trkpt lat="45.72968" lon="6.12579">
        <ele>739</ele>
        <time>2000-01-01T08:23:14.000Z</time>
      </trkpt>
      <trkpt lat="45.72973" lon="6.12587">
        <ele>754</ele>
        <time>2000-01-01T08:23:24.000Z</time>
      </trkpt>
      <trkpt lat="45.72979" lon="6.12595">
        <ele>739.5</ele>
        <time>2000-01-01T08:23:34.000Z</time>
      </trkpt>
      <trkpt lat="45.72984" lon="6.12603">
        <ele>739.9</ele>
        <time>2000-01-01T08:23:44.000Z</time>
      </trkpt>
      <trkpt lat="45.72991" lon="6.12614">
        <ele>754</ele>
        <time>2000-01-01T08:23:54.000Z</time>
      </trkpt>
      <trkpt lat="45.72998" lon="6.12624">
        <ele>741.2</ele>
        <time>2000-01-01T08:24:04.000Z</time>
      </trkpt>
      <trkpt lat="45.73006" lon="6.12633">
        <ele>754</ele>
        <time>2000-01-01T08:24:14.000Z</time>
      </trkpt>
      <trkpt lat="45.73012" lon="6.12641">
        <ele>741.5</ele>
        <time>2000-01-01T08:24:24.000Z</time>
      </trkpt>
      <trkpt lat="45.73019" lon="6.1265">
        <ele>742</ele>
        <time>2000-01-01T08:24:34.000Z</time>
      </trkpt>
      <trkpt lat="45.73028" lon="6.12661">
        <ele>752</ele>
        <time>2000-01-01T08:24:44.000Z</time>
      </trkpt>
      <trkpt lat="45.73034" lon="6.12669">
        <ele>743.3</ele>
        <time>2000-01-01T08:24:54.000Z</time>
      </trkpt>
      <trkpt lat="45.73043" lon="6.1268">
        <ele>752</ele>
        <time>2000-01-01T08:25:04.000Z</time>
      </trkpt>
      <trkpt lat="45.73046" lon="6.12687">
        <ele>741.1</ele>
        <time>2000-01-01T08:25:14.000Z</time>
      </trkpt>
      <trkpt lat="45.73048" lon="6.12695">
        <ele>741</ele>
        <time>2000-01-01T08:25:24.000Z</time>
      </trkpt>
      <trkpt lat="45.7305" lon="6.12705">
        <ele>740</ele>
        <time>2000-01-01T08:25:34.000Z</time>
      </trkpt>
      <trkpt lat="45.7305" lon="6.12713">
        <ele>753</ele>
        <time>2000-01-01T08:25:44.000Z</time>
      </trkpt>
      <trkpt lat="45.73049" lon="6.12721">
        <ele>740.3</ele>
        <time>2000-01-01T08:25:54.000Z</time>
      </trkpt>
      <trkpt lat="45.73049" lon="6.12729">
        <ele>741.4</ele>
        <time>2000-01-01T08:26:04.000Z</time>
      </trkpt>
      <trkpt lat="45.73049" lon="6.12733">
        <ele>742</ele>
        <time>2000-01-01T08:26:14.000Z</time>
      </trkpt>
      <trkpt lat="45.7305" lon="6.12737">
        <ele>742.1</ele>
        <time>2000-01-01T08:26:24.000Z</time>
      </trkpt>
      <trkpt lat="45.73053" lon="6.12741">
        <ele>754</ele>
        <time>2000-01-01T08:26:34.000Z</time>
      </trkpt>
      <trkpt lat="45.73057" lon="6.12746">
        <ele>740.9</ele>
        <time>2000-01-01T08:26:44.000Z</time>
      </trkpt>
      <trkpt lat="45.73061" lon="6.1275">
        <ele>740.8</ele>
        <time>2000-01-01T08:26:54.000Z</time>
      </trkpt>
      <trkpt lat="45.73064" lon="6.12759">
        <ele>742.3</ele>
        <time>2000-01-01T08:27:04.000Z</time>
      </trkpt>
      <trkpt lat="45.73067" lon="6.12771">
        <ele>755</ele>
        <time>2000-01-01T08:27:14.000Z</time>
      </trkpt>
      <trkpt lat="45.73068" lon="6.1278">
        <ele>746.1</ele>
        <time>2000-01-01T08:27:24.000Z</time>
      </trkpt>
      <trkpt lat="45.73069" lon="6.12789">
        <ele>747</ele>
        <time>2000-01-01T08:27:34.000Z</time>
      </trkpt>
      <trkpt lat="45.7307" lon="6.12799">
        <ele>756</ele>
        <time>2000-01-01T08:27:44.000Z</time>
      </trkpt>
      <trkpt lat="45.73072" lon="6.12808">
        <ele>749.1</ele>
        <time>2000-01-01T08:27:54.000Z</time>
      </trkpt>
      <trkpt lat="45.73075" lon="6.12818">
        <ele>751.7</ele>
        <time>2000-01-01T08:28:04.000Z</time>
      </trkpt>
      <trkpt lat="45.73079" lon="6.12826">
        <ele>763</ele>
        <time>2000-01-01T08:28:14.000Z</time>
      </trkpt>
      <trkpt lat="45.73082" lon="6.12832">
        <ele>754.9</ele>
        <time>2000-01-01T08:28:24.000Z</time>
      </trkpt>
      <trkpt lat="45.73084" lon="6.12839">
        <ele>755.7</ele>
        <time>2000-01-01T08:28:34.000Z</time>
      </trkpt>
      <trkpt lat="45.73086" lon="6.12846">
        <ele>755.8</ele>
        <time>2000-01-01T08:28:44.000Z</time>
      </trkpt>
      <trkpt lat="45.73087" lon="6.12855">
        <ele>770</ele>
        <time>2000-01-01T08:28:54.000Z</time>
      </trkpt>
      <trkpt lat="45.73087" lon="6.12867">
        <ele>758.8</ele>
        <time>2000-01-01T08:29:04.000Z</time>
      </trkpt>
      <trkpt lat="45.73089" lon="6.12877">
        <ele>759.9</ele>
        <time>2000-01-01T08:29:14.000Z</time>
      </trkpt>
      <trkpt lat="45.73091" lon="6.12886">
        <ele>779</ele>
        <time>2000-01-01T08:29:24.000Z</time>
      </trkpt>
      <trkpt lat="45.73095" lon="6.12897">
        <ele>761.5</ele>
        <time>2000-01-01T08:29:34.000Z</time>
      </trkpt>
      <trkpt lat="45.73094" lon="6.1291">
        <ele>763.5</ele>
        <time>2000-01-01T08:29:44.000Z</time>
      </trkpt>
      <trkpt lat="45.73094" lon="6.12934">
        <ele>782</ele>
        <time>2000-01-01T08:29:54.000Z</time>
      </trkpt>
      <trkpt lat="45.73092" lon="6.12951">
        <ele>763.7</ele>
        <time>2000-01-01T08:30:04.000Z</time>
      </trkpt>
      <trkpt lat="45.73092" lon="6.12968">
        <ele>790</ele>
        <time>2000-01-01T08:30:14.000Z</time>
      </trkpt>
      <trkpt lat="45.73091" lon="6.12992">
        <ele>766.8</ele>
        <time>2000-01-01T08:30:24.000Z</time>
      </trkpt>
      <trkpt lat="45.73093" lon="6.13011">
        <ele>793</ele>
        <time>2000-01-01T08:30:34.000Z</time>
      </trkpt>
      <trkpt lat="45.73095" lon="6.13026">
        <ele>768.2</ele>
        <time>2000-01-01T08:30:44.000Z</time>
      </trkpt>
      <trkpt lat="45.73099" lon="6.13037">
        <ele>793</ele>
        <time>2000-01-01T08:30:54.000Z</time>
      </trkpt>
      <trkpt lat="45.73103" lon="6.1305">
        <ele>766.8</ele>
        <time>2000-01-01T08:31:04.000Z</time>
      </trkpt>
      <trkpt lat="45.73108" lon="6.1306">
        <ele>765.5</ele>
        <time>2000-01-01T08:31:14.000Z</time>
      </trkpt>
      <trkpt lat="45.73113" lon="6.13073">
        <ele>793</ele>
        <time>2000-01-01T08:31:24.000Z</time>
      </trkpt>
      <trkpt lat="45.73113" lon="6.13079">
        <ele>764.9</ele>
        <time>2000-01-01T08:31:34.000Z</time>
      </trkpt>
      <trkpt lat="45.73117" lon="6.13094">
        <ele>764.8</ele>
        <time>2000-01-01T08:31:44.000Z</time>
      </trkpt>
      <trkpt lat="45.73118" lon="6.13106">
        <ele>790</ele>
        <time>2000-01-01T08:31:54.000Z</time>
      </trkpt>
      <trkpt lat="45.7312" lon="6.13117">
        <ele>766.4</ele>
        <time>2000-01-01T08:32:04.000Z</time>
      </trkpt>
      <trkpt lat="45.73126" lon="6.13127">
        <ele>765.7</ele>
        <time>2000-01-01T08:32:14.000Z</time>
      </trkpt>
      <trkpt lat="45.73131" lon="6.13133">
        <ele>787</ele>
        <time>2000-01-01T08:32:24.000Z</time>
      </trkpt>
      <trkpt lat="45.73144" lon="6.13139">
        <ele>762.3</ele>
        <time>2000-01-01T08:32:34.000Z</time>
      </trkpt>
      <trkpt lat="45.73147" lon="6.13143">
        <ele>761.6</ele>
        <time>2000-01-01T08:32:44.000Z</time>
      </trkpt>
      <trkpt lat="45.7315" lon="6.13152">
        <ele>787</ele>
        <time>2000-01-01T08:32:54.000Z</time>
      </trkpt>
      <trkpt lat="45.73155" lon="6.13161">
        <ele>760.5</ele>
        <time>2000-01-01T08:33:04.000Z</time>
      </trkpt>
      <trkpt lat="45.73158" lon="6.13168">
        <ele>760.4</ele>
        <time>2000-01-01T08:33:14.000Z</time>
      </trkpt>
      <trkpt lat="45.73161" lon="6.13182">
        <ele>783</ele>
        <time>2000-01-01T08:33:24.000Z</time>
      </trkpt>
      <trkpt lat="45.73164" lon="6.13192">
        <ele>762.2</ele>
        <time>2000-01-01T08:33:34.000Z</time>
      </trkpt>
      <trkpt lat="45.73167" lon="6.13208">
        <ele>783</ele>
        <time>2000-01-01T08:33:44.000Z</time>
      </trkpt>
      <trkpt lat="45.73165" lon="6.13214">
        <ele>763.8</ele>
        <time>2000-01-01T08:33:54.000Z</time>
      </trkpt>
      <trkpt lat="45.73163" lon="6.13221">
        <ele>764.8</ele>
        <time>2000-01-01T08:34:04.000Z</time>
      </trkpt>
      <trkpt lat="45.7316" lon="6.13232">
        <ele>766.5</ele>
        <time>2000-01-01T08:34:14.000Z</time>
      </trkpt>
      <trkpt lat="45.73163" lon="6.13237">
        <ele>784</ele>
        <time>2000-01-01T08:34:24.000Z</time>
      </trkpt>
      <trkpt lat="45.73161" lon="6.13244">
        <ele>767.2</ele>
        <time>2000-01-01T08:34:34.000Z</time>
      </trkpt>
      <trkpt lat="45.73157" lon="6.13249">
        <ele>768.7</ele>
        <time>2000-01-01T08:34:44.000Z</time>
      </trkpt>
      <trkpt lat="45.73155" lon="6.13253">
        <ele>769.5</ele>
        <time>2000-01-01T08:34:54.000Z</time>
      </trkpt>
      <trkpt lat="45.73156" lon="6.13261">
        <ele>783</ele>
        <time>2000-01-01T08:35:04.000Z</time>
      </trkpt>
      <trkpt lat="45.73163" lon="6.13275">
        <ele>768.7</ele>
        <time>2000-01-01T08:35:14.000Z</time>
      </trkpt>
      <trkpt lat="45.73162" lon="6.13278">
        <ele>769.2</ele>
        <time>2000-01-01T08:35:24.000Z</time>
      </trkpt>
      <trkpt lat="45.73161" lon="6.13282">
        <ele>769.5</ele>
        <time>2000-01-01T08:35:34.000Z</time>
      </trkpt>
      <trkpt lat="45.73174" lon="6.13295">
        <ele>783</ele>
        <time>2000-01-01T08:35:44.000Z</time>
      </trkpt>
      <trkpt lat="45.73175" lon="6.13308">
        <ele>764.6</ele>
        <time>2000-01-01T08:35:54.000Z</time>
      </trkpt>
      <trkpt lat="45.73182" lon="6.1332">
        <ele>783</ele>
        <time>2000-01-01T08:36:04.000Z</time>
      </trkpt>
      <trkpt lat="45.73179" lon="6.13325">
        <ele>764.4</ele>
        <time>2000-01-01T08:36:14.000Z</time>
      </trkpt>
      <trkpt lat="45.73179" lon="6.1334">
        <ele>765.5</ele>
        <time>2000-01-01T08:36:24.000Z</time>
      </trkpt>
      <trkpt lat="45.73183" lon="6.13344">
        <ele>783</ele>
        <time>2000-01-01T08:36:34.000Z</time>
      </trkpt>
      <trkpt lat="45.73185" lon="6.13344">
        <ele>763.8</ele>
        <time>2000-01-01T08:36:44.000Z</time>
      </trkpt>
      <trkpt lat="45.73187" lon="6.13337">
        <ele>762.3</ele>
        <time>2000-01-01T08:36:54.000Z</time>
      </trkpt>
      <trkpt lat="45.7319" lon="6.13328">
        <ele>760.2</ele>
        <time>2000-01-01T08:37:04.000Z</time>
      </trkpt>
      <trkpt lat="45.7319" lon="6.13321">
        <ele>783</ele>
        <time>2000-01-01T08:37:14.000Z</time>
      </trkpt>
      <trkpt lat="45.73194" lon="6.13318">
        <ele>757.5</ele>
        <time>2000-01-01T08:37:24.000Z</time>
      </trkpt>
      <trkpt lat="45.73197" lon="6.13321">
        <ele>756.6</ele>
        <time>2000-01-01T08:37:34.000Z</time>
      </trkpt>
      <trkpt lat="45.73198" lon="6.13326">
        <ele>756.9</ele>
        <time>2000-01-01T08:37:44.000Z</time>
      </trkpt>
      <trkpt lat="45.73203" lon="6.13328">
        <ele>755.3</ele>
        <time>2000-01-01T08:37:54.000Z</time>
      </trkpt>
      <trkpt lat="45.73206" lon="6.13334">
        <ele>783</ele>
        <time>2000-01-01T08:38:04.000Z</time>
      </trkpt>
      <trkpt lat="45.73207" lon="6.13341">
        <ele>756.2</ele>
        <time>2000-01-01T08:38:14.000Z</time>
      </trkpt>
      <trkpt lat="45.7321" lon="6.13346">
        <ele>756</ele>
        <time>2000-01-01T08:38:24.000Z</time>
      </trkpt>
      <trkpt lat="45.73211" lon="6.13356">
        <ele>757.4</ele>
        <time>2000-01-01T08:38:34.000Z</time>
      </trkpt>
      <trkpt lat="45.73213" lon="6.13364">
        <ele>777</ele>
        <time>2000-01-01T08:38:44.000Z</time>
      </trkpt>
      <trkpt lat="45.73217" lon="6.13368">
        <ele>757.6</ele>
        <time>2000-01-01T08:38:54.000Z</time>
      </trkpt>
      <trkpt lat="45.73221" lon="6.13362">
        <ele>755.5</ele>
        <time>2000-01-01T08:39:04.000Z</time>
      </trkpt>
      <trkpt lat="45.73225" lon="6.13355">
        <ele>754.4</ele>
        <time>2000-01-01T08:39:14.000Z</time>
      </trkpt>
      <trkpt lat="45.73228" lon="6.13341">
        <ele>774</ele>
        <time>2000-01-01T08:39:24.000Z</time>
      </trkpt>
      <trkpt lat="45.7323" lon="6.1333">
        <ele>750.7</ele>
        <time>2000-01-01T08:39:34.000Z</time>
      </trkpt>
      <trkpt lat="45.73238" lon="6.13315">
        <ele>773</ele>
        <time>2000-01-01T08:39:44.000Z</time>
      </trkpt>
      <trkpt lat="45.7324" lon="6.13311">
        <ele>748.7</ele>
        <time>2000-01-01T08:39:54.000Z</time>
      </trkpt>
      <trkpt lat="45.73242" lon="6.1331">
        <ele>749.1</ele>
        <time>2000-01-01T08:40:04.000Z</time>
      </trkpt>
      <trkpt lat="45.73245" lon="6.13312">
        <ele>750.5</ele>
        <time>2000-01-01T08:40:14.000Z</time>
      </trkpt>
      <trkpt lat="45.73247" lon="6.13315">
        <ele>751.8</ele>
        <time>2000-01-01T08:40:24.000Z</time>
      </trkpt>
      <trkpt lat="45.73248" lon="6.1333">
        <ele>773</ele>
        <time>2000-01-01T08:40:34.000Z</time>
      </trkpt>
      <trkpt lat="45.73251" lon="6.13337">
        <ele>755.9</ele>
        <time>2000-01-01T08:40:44.000Z</time>
      </trkpt>
      <trkpt lat="45.73253" lon="6.13348">
        <ele>756.3</ele>
        <time>2000-01-01T08:40:54.000Z</time>
      </trkpt>
      <trkpt lat="45.73253" lon="6.13355">
        <ele>774</ele>
        <time>2000-01-01T08:41:04.000Z</time>
      </trkpt>
      <trkpt lat="45.73257" lon="6.13359">
        <ele>755.6</ele>
        <time>2000-01-01T08:41:14.000Z</time>
      </trkpt>
      <trkpt lat="45.73269" lon="6.13379">
        <ele>774</ele>
        <time>2000-01-01T08:41:24.000Z</time>
      </trkpt>
      <trkpt lat="45.73265" lon="6.13393">
        <ele>750.6</ele>
        <time>2000-01-01T08:41:34.000Z</time>
      </trkpt>
      <trkpt lat="45.73278" lon="6.13437">
        <ele>772</ele>
        <time>2000-01-01T08:41:44.000Z</time>
      </trkpt>
      <trkpt lat="45.73275" lon="6.1345">
        <ele>749.3</ele>
        <time>2000-01-01T08:41:54.000Z</time>
      </trkpt>
      <trkpt lat="45.73273" lon="6.13468">
        <ele>762</ele>
        <time>2000-01-01T08:42:04.000Z</time>
      </trkpt>
      <trkpt lat="45.73272" lon="6.1348">
        <ele>750</ele>
        <time>2000-01-01T08:42:14.000Z</time>
      </trkpt>
      <trkpt lat="45.73273" lon="6.13491">
        <ele>750</ele>
        <time>2000-01-01T08:42:24.000Z</time>
      </trkpt>
      <trkpt lat="45.73276" lon="6.13502">
        <ele>757</ele>
        <time>2000-01-01T08:42:34.000Z</time>
      </trkpt>
      <trkpt lat="45.73278" lon="6.13511">
        <ele>749.8</ele>
        <time>2000-01-01T08:42:44.000Z</time>
      </trkpt>
      <trkpt lat="45.73279" lon="6.1352">
        <ele>750.3</ele>
        <time>2000-01-01T08:42:54.000Z</time>
      </trkpt>
      <trkpt lat="45.73284" lon="6.13528">
        <ele>754</ele>
        <time>2000-01-01T08:43:04.000Z</time>
      </trkpt>
      <trkpt lat="45.7329" lon="6.13542">
        <ele>750.5</ele>
        <time>2000-01-01T08:43:14.000Z</time>
      </trkpt>
      <trkpt lat="45.73293" lon="6.13549">
        <ele>750.8</ele>
        <time>2000-01-01T08:43:24.000Z</time>
      </trkpt>
      <trkpt lat="45.733" lon="6.13556">
        <ele>754</ele>
        <time>2000-01-01T08:43:34.000Z</time>
      </trkpt>
      <trkpt lat="45.73301" lon="6.13564">
        <ele>750.4</ele>
        <time>2000-01-01T08:43:44.000Z</time>
      </trkpt>
      <trkpt lat="45.73305" lon="6.13574">
        <ele>750</ele>
        <time>2000-01-01T08:43:54.000Z</time>
      </trkpt>
      <trkpt lat="45.73306" lon="6.13582">
        <ele>757</ele>
        <time>2000-01-01T08:44:04.000Z</time>
      </trkpt>
      <trkpt lat="45.73307" lon="6.13592">
        <ele>748.8</ele>
        <time>2000-01-01T08:44:14.000Z</time>
      </trkpt>
      <trkpt lat="45.73308" lon="6.13599">
        <ele>747.9</ele>
        <time>2000-01-01T08:44:24.000Z</time>
      </trkpt>
      <trkpt lat="45.73312" lon="6.1362">
        <ele>757</ele>
        <time>2000-01-01T08:44:34.000Z</time>
      </trkpt>
      <trkpt lat="45.73314" lon="6.13636">
        <ele>743.8</ele>
        <time>2000-01-01T08:44:44.000Z</time>
      </trkpt>
      <trkpt lat="45.73327" lon="6.13642">
        <ele>756</ele>
        <time>2000-01-01T08:44:54.000Z</time>
      </trkpt>
      <trkpt lat="45.73328" lon="6.13648">
        <ele>737.8</ele>
        <time>2000-01-01T08:45:04.000Z</time>
      </trkpt>
      <trkpt lat="45.73328" lon="6.13658">
        <ele>737.5</ele>
        <time>2000-01-01T08:45:14.000Z</time>
      </trkpt>
      <trkpt lat="45.73329" lon="6.13666">
        <ele>737</ele>
        <time>2000-01-01T08:45:24.000Z</time>
      </trkpt>
      <trkpt lat="45.73326" lon="6.13675">
        <ele>756</ele>
        <time>2000-01-01T08:45:34.000Z</time>
      </trkpt>
      <trkpt lat="45.73327" lon="6.1369">
        <ele>735.5</ele>
        <time>2000-01-01T08:45:44.000Z</time>
      </trkpt>
      <trkpt lat="45.73322" lon="6.13699">
        <ele>736.1</ele>
        <time>2000-01-01T08:45:54.000Z</time>
      </trkpt>
      <trkpt lat="45.73325" lon="6.13711">
        <ele>762</ele>
        <time>2000-01-01T08:46:04.000Z</time>
      </trkpt>
      <trkpt lat="45.73321" lon="6.13721">
        <ele>736.3</ele>
        <time>2000-01-01T08:46:14.000Z</time>
      </trkpt>
      <trkpt lat="45.73339" lon="6.13737">
        <ele>762</ele>
        <time>2000-01-01T08:46:24.000Z</time>
      </trkpt>
      <trkpt lat="45.73347" lon="6.1375">
        <ele>737</ele>
        <time>2000-01-01T08:46:34.000Z</time>
      </trkpt>
      <trkpt lat="45.73355" lon="6.13768">
        <ele>763</ele>
        <time>2000-01-01T08:46:44.000Z</time>
      </trkpt>
      <trkpt lat="45.73361" lon="6.13791">
        <ele>739.5</ele>
        <time>2000-01-01T08:46:54.000Z</time>
      </trkpt>
      <trkpt lat="45.73357" lon="6.13833">
        <ele>764</ele>
        <time>2000-01-01T08:47:04.000Z</time>
      </trkpt>
      <trkpt lat="45.73348" lon="6.13849">
        <ele>749</ele>
        <time>2000-01-01T08:47:14.000Z</time>
      </trkpt>
      <trkpt lat="45.73346" lon="6.13872">
        <ele>763</ele>
        <time>2000-01-01T08:47:24.000Z</time>
      </trkpt>
      <trkpt lat="45.73349" lon="6.13881">
        <ele>753.4</ele>
        <time>2000-01-01T08:47:34.000Z</time>
      </trkpt>
      <trkpt lat="45.73355" lon="6.1389">
        <ele>753.6</ele>
        <time>2000-01-01T08:47:44.000Z</time>
      </trkpt>
      <trkpt lat="45.7335" lon="6.13889">
        <ele>763</ele>
        <time>2000-01-01T08:47:54.000Z</time>
      </trkpt>
      <trkpt lat="45.73346" lon="6.13886">
        <ele>755.2</ele>
        <time>2000-01-01T08:48:04.000Z</time>
      </trkpt>
      <trkpt lat="45.73346" lon="6.13886">
        <ele>755.2</ele>
        <time>2000-01-01T08:48:14.000Z</time>
      </trkpt>
      <trkpt lat="45.73343" lon="6.13882">
        <ele>755.3</ele>
        <time>2000-01-01T08:48:24.000Z</time>
      </trkpt>
      <trkpt lat="45.73338" lon="6.1387">
        <ele>754.8</ele>
        <time>2000-01-01T08:48:34.000Z</time>
      </trkpt>
      <trkpt lat="45.73343" lon="6.13882">
        <ele>763</ele>
        <time>2000-01-01T08:48:44.000Z</time>
      </trkpt>
      <trkpt lat="45.73346" lon="6.13886">
        <ele>755.2</ele>
        <time>2000-01-01T08:48:54.000Z</time>
      </trkpt>
      <trkpt lat="45.73346" lon="6.13886">
        <ele>755.2</ele>
        <time>2000-01-01T08:49:04.000Z</time>
      </trkpt>
      <trkpt lat="45.7335" lon="6.13889">
        <ele>754.8</ele>
        <time>2000-01-01T08:49:14.000Z</time>
      </trkpt>
      <trkpt lat="45.73355" lon="6.1389">
        <ele>753.6</ele>
        <time>2000-01-01T08:49:24.000Z</time>
      </trkpt>
      <trkpt lat="45.73359" lon="6.13889">
        <ele>752.5</ele>
        <time>2000-01-01T08:49:34.000Z</time>
      </trkpt>
      <trkpt lat="45.73364" lon="6.13887">
        <ele>763</ele>
        <time>2000-01-01T08:49:44.000Z</time>
      </trkpt>
      <trkpt lat="45.73384" lon="6.13867">
        <ele>761</ele>
        <time>2000-01-01T08:49:54.000Z</time>
      </trkpt>
      <trkpt lat="45.7339" lon="6.1386">
        <ele>753.3</ele>
        <time>2000-01-01T08:50:04.000Z</time>
      </trkpt>
      <trkpt lat="45.73392" lon="6.13856">
        <ele>753.9</ele>
        <time>2000-01-01T08:50:14.000Z</time>
      </trkpt>
      <trkpt lat="45.73408" lon="6.13831">
        <ele>762</ele>
        <time>2000-01-01T08:50:24.000Z</time>
      </trkpt>
      <trkpt lat="45.73415" lon="6.13806">
        <ele>763</ele>
        <time>2000-01-01T08:50:34.000Z</time>
      </trkpt>
      <trkpt lat="45.73417" lon="6.13787">
        <ele>758.8</ele>
        <time>2000-01-01T08:50:44.000Z</time>
      </trkpt>
      <trkpt lat="45.73421" lon="6.13746">
        <ele>766</ele>
        <time>2000-01-01T08:50:54.000Z</time>
      </trkpt>
      <trkpt lat="45.73425" lon="6.13709">
        <ele>766</ele>
        <time>2000-01-01T08:51:04.000Z</time>
      </trkpt>
      <trkpt lat="45.7343" lon="6.13688">
        <ele>762.5</ele>
        <time>2000-01-01T08:51:14.000Z</time>
      </trkpt>
      <trkpt lat="45.73434" lon="6.13684">
        <ele>768</ele>
        <time>2000-01-01T08:51:24.000Z</time>
      </trkpt>
      <trkpt lat="45.73439" lon="6.13683">
        <ele>762.9</ele>
        <time>2000-01-01T08:51:34.000Z</time>
      </trkpt>
      <trkpt lat="45.73446" lon="6.13686">
        <ele>764.2</ele>
        <time>2000-01-01T08:51:44.000Z</time>
      </trkpt>
      <trkpt lat="45.73452" lon="6.13683">
        <ele>763.4</ele>
        <time>2000-01-01T08:51:54.000Z</time>
      </trkpt>
      <trkpt lat="45.73458" lon="6.13685">
        <ele>770</ele>
        <time>2000-01-01T08:52:04.000Z</time>
      </trkpt>
      <trkpt lat="45.73468" lon="6.13694">
        <ele>767.5</ele>
        <time>2000-01-01T08:52:14.000Z</time>
      </trkpt>
      <trkpt lat="45.73477" lon="6.13698">
        <ele>774</ele>
        <time>2000-01-01T08:52:24.000Z</time>
      </trkpt>
      <trkpt lat="45.73485" lon="6.13704">
        <ele>770.9</ele>
        <time>2000-01-01T08:52:34.000Z</time>
      </trkpt>
      <trkpt lat="45.73494" lon="6.13713">
        <ele>779</ele>
        <time>2000-01-01T08:52:44.000Z</time>
      </trkpt>
      <trkpt lat="45.73503" lon="6.13721">
        <ele>779.3</ele>
        <time>2000-01-01T08:52:54.000Z</time>
      </trkpt>
      <trkpt lat="45.73511" lon="6.13725">
        <ele>779</ele>
        <time>2000-01-01T08:53:04.000Z</time>
      </trkpt>
      <trkpt lat="45.73518" lon="6.13729">
        <ele>780.1</ele>
        <time>2000-01-01T08:53:14.000Z</time>
      </trkpt>
      <trkpt lat="45.73527" lon="6.13736">
        <ele>781</ele>
        <time>2000-01-01T08:53:24.000Z</time>
      </trkpt>
      <trkpt lat="45.73532" lon="6.13745">
        <ele>781</ele>
        <time>2000-01-01T08:53:34.000Z</time>
      </trkpt>
      <trkpt lat="45.73529" lon="6.13751">
        <ele>783.2</ele>
        <time>2000-01-01T08:53:44.000Z</time>
      </trkpt>
      <trkpt lat="45.73527" lon="6.13757">
        <ele>783.7</ele>
        <time>2000-01-01T08:53:54.000Z</time>
      </trkpt>
      <trkpt lat="45.73525" lon="6.13762">
        <ele>784.1</ele>
        <time>2000-01-01T08:54:04.000Z</time>
      </trkpt>
      <trkpt lat="45.73524" lon="6.13769">
        <ele>784.8</ele>
        <time>2000-01-01T08:54:14.000Z</time>
      </trkpt>
      <trkpt lat="45.73525" lon="6.13775">
        <ele>783</ele>
        <time>2000-01-01T08:54:24.000Z</time>
      </trkpt>
      <trkpt lat="45.73525" lon="6.13786">
        <ele>785.8</ele>
        <time>2000-01-01T08:54:34.000Z</time>
      </trkpt>
      <trkpt lat="45.73524" lon="6.13793">
        <ele>785.8</ele>
        <time>2000-01-01T08:54:44.000Z</time>
      </trkpt>
      <trkpt lat="45.73523" lon="6.13797">
        <ele>785.8</ele>
        <time>2000-01-01T08:54:54.000Z</time>
      </trkpt>
      <trkpt lat="45.7352" lon="6.13803">
        <ele>786</ele>
        <time>2000-01-01T08:55:04.000Z</time>
      </trkpt>
      <trkpt lat="45.73518" lon="6.13812">
        <ele>786</ele>
        <time>2000-01-01T08:55:14.000Z</time>
      </trkpt>
      <trkpt lat="45.73516" lon="6.13818">
        <ele>786.3</ele>
        <time>2000-01-01T08:55:24.000Z</time>
      </trkpt>
      <trkpt lat="45.73515" lon="6.13825">
        <ele>786.6</ele>
        <time>2000-01-01T08:55:34.000Z</time>
      </trkpt>
      <trkpt lat="45.73518" lon="6.13827">
        <ele>786</ele>
        <time>2000-01-01T08:55:44.000Z</time>
      </trkpt>
      <trkpt lat="45.73521" lon="6.13835">
        <ele>787.7</ele>
        <time>2000-01-01T08:55:54.000Z</time>
      </trkpt>
      <trkpt lat="45.73525" lon="6.13844">
        <ele>789.5</ele>
        <time>2000-01-01T08:56:04.000Z</time>
      </trkpt>
      <trkpt lat="45.73528" lon="6.13852">
        <ele>797</ele>
        <time>2000-01-01T08:56:14.000Z</time>
      </trkpt>
      <trkpt lat="45.73534" lon="6.13863">
        <ele>793.1</ele>
        <time>2000-01-01T08:56:24.000Z</time>
      </trkpt>
      <trkpt lat="45.73538" lon="6.13872">
        <ele>794</ele>
        <time>2000-01-01T08:56:34.000Z</time>
      </trkpt>
      <trkpt lat="45.73543" lon="6.13878">
        <ele>797</ele>
        <time>2000-01-01T08:56:44.000Z</time>
      </trkpt>
      <trkpt lat="45.73551" lon="6.13892">
        <ele>797.6</ele>
        <time>2000-01-01T08:56:54.000Z</time>
      </trkpt>
      <trkpt lat="45.73564" lon="6.13918">
        <ele>809</ele>
        <time>2000-01-01T08:57:04.000Z</time>
      </trkpt>
      <trkpt lat="45.73584" lon="6.1396">
        <ele>814</ele>
        <time>2000-01-01T08:57:14.000Z</time>
      </trkpt>
      <trkpt lat="45.73593" lon="6.13986">
        <ele>814</ele>
        <time>2000-01-01T08:57:24.000Z</time>
      </trkpt>
      <trkpt lat="45.73601" lon="6.14006">
        <ele>815.3</ele>
        <time>2000-01-01T08:57:34.000Z</time>
      </trkpt>
      <trkpt lat="45.73606" lon="6.14017">
        <ele>815</ele>
        <time>2000-01-01T08:57:44.000Z</time>
      </trkpt>
      <trkpt lat="45.73611" lon="6.14027">
        <ele>816</ele>
        <time>2000-01-01T08:57:54.000Z</time>
      </trkpt>
      <trkpt lat="45.73617" lon="6.14038">
        <ele>816.6</ele>
        <time>2000-01-01T08:58:04.000Z</time>
      </trkpt>
      <trkpt lat="45.73628" lon="6.14053">
        <ele>817</ele>
        <time>2000-01-01T08:58:14.000Z</time>
      </trkpt>
      <trkpt lat="45.73629" lon="6.14057">
        <ele>817.7</ele>
        <time>2000-01-01T08:58:24.000Z</time>
      </trkpt>
      <trkpt lat="45.73633" lon="6.1406">
        <ele>818.1</ele>
        <time>2000-01-01T08:58:34.000Z</time>
      </trkpt>
      <trkpt lat="45.73638" lon="6.14066">
        <ele>818.7</ele>
        <time>2000-01-01T08:58:44.000Z</time>
      </trkpt>
      <trkpt lat="45.73645" lon="6.14073">
        <ele>822</ele>
        <time>2000-01-01T08:58:54.000Z</time>
      </trkpt>
      <trkpt lat="45.73651" lon="6.1408">
        <ele>820.7</ele>
        <time>2000-01-01T08:59:04.000Z</time>
      </trkpt>
      <trkpt lat="45.73657" lon="6.14086">
        <ele>821.5</ele>
        <time>2000-01-01T08:59:14.000Z</time>
      </trkpt>
      <trkpt lat="45.73661" lon="6.14091">
        <ele>823</ele>
        <time>2000-01-01T08:59:24.000Z</time>
      </trkpt>
      <trkpt lat="45.73664" lon="6.14096">
        <ele>822.7</ele>
        <time>2000-01-01T08:59:34.000Z</time>
      </trkpt>
      <trkpt lat="45.73667" lon="6.14102">
        <ele>823.4</ele>
        <time>2000-01-01T08:59:44.000Z</time>
      </trkpt>
      <trkpt lat="45.7367" lon="6.14106">
        <ele>824.2</ele>
        <time>2000-01-01T08:59:54.000Z</time>
      </trkpt>
      <trkpt lat="45.73672" lon="6.14109">
        <ele>824.8</ele>
        <time>2000-01-01T09:00:04.000Z</time>
      </trkpt>
      <trkpt lat="45.73675" lon="6.1411">
        <ele>823</ele>
        <time>2000-01-01T09:00:14.000Z</time>
      </trkpt>
      <trkpt lat="45.73679" lon="6.14109">
        <ele>826.1</ele>
        <time>2000-01-01T09:00:24.000Z</time>
      </trkpt>
      <trkpt lat="45.73683" lon="6.14105">
        <ele>826.5</ele>
        <time>2000-01-01T09:00:34.000Z</time>
      </trkpt>
      <trkpt lat="45.73686" lon="6.14098">
        <ele>826.5</ele>
        <time>2000-01-01T09:00:44.000Z</time>
      </trkpt>
      <trkpt lat="45.7369" lon="6.14091">
        <ele>823</ele>
        <time>2000-01-01T09:00:54.000Z</time>
      </trkpt>
      <trkpt lat="45.73694" lon="6.14085">
        <ele>827</ele>
        <time>2000-01-01T09:01:04.000Z</time>
      </trkpt>
      <trkpt lat="45.73699" lon="6.14082">
        <ele>826.8</ele>
        <time>2000-01-01T09:01:14.000Z</time>
      </trkpt>
      <trkpt lat="45.73701" lon="6.14083">
        <ele>827</ele>
        <time>2000-01-01T09:01:24.000Z</time>
      </trkpt>
      <trkpt lat="45.737" lon="6.14087">
        <ele>827.3</ele>
        <time>2000-01-01T09:01:34.000Z</time>
      </trkpt>
      <trkpt lat="45.73704" lon="6.14093">
        <ele>826</ele>
        <time>2000-01-01T09:01:44.000Z</time>
      </trkpt>
      <trkpt lat="45.73708" lon="6.14097">
        <ele>828.2</ele>
        <time>2000-01-01T09:01:54.000Z</time>
      </trkpt>
      <trkpt lat="45.73712" lon="6.141">
        <ele>828.6</ele>
        <time>2000-01-01T09:02:04.000Z</time>
      </trkpt>
      <trkpt lat="45.73719" lon="6.14104">
        <ele>829.1</ele>
        <time>2000-01-01T09:02:14.000Z</time>
      </trkpt>
      <trkpt lat="45.7373" lon="6.14107">
        <ele>831</ele>
        <time>2000-01-01T09:02:24.000Z</time>
      </trkpt>
      <trkpt lat="45.73739" lon="6.14109">
        <ele>830.3</ele>
        <time>2000-01-01T09:02:34.000Z</time>
      </trkpt>
      <trkpt lat="45.73745" lon="6.14112">
        <ele>830.9</ele>
        <time>2000-01-01T09:02:44.000Z</time>
      </trkpt>
      <trkpt lat="45.73747" lon="6.14114">
        <ele>831.2</ele>
        <time>2000-01-01T09:02:54.000Z</time>
      </trkpt>
      <trkpt lat="45.73751" lon="6.14117">
        <ele>832</ele>
        <time>2000-01-01T09:03:04.000Z</time>
      </trkpt>
      <trkpt lat="45.73764" lon="6.14129">
        <ele>833.8</ele>
        <time>2000-01-01T09:03:14.000Z</time>
      </trkpt>
      <trkpt lat="45.7377" lon="6.14135">
        <ele>837</ele>
        <time>2000-01-01T09:03:24.000Z</time>
      </trkpt>
      <trkpt lat="45.73775" lon="6.14139">
        <ele>834.9</ele>
        <time>2000-01-01T09:03:34.000Z</time>
      </trkpt>
      <trkpt lat="45.73782" lon="6.1415">
        <ele>837</ele>
        <time>2000-01-01T09:03:44.000Z</time>
      </trkpt>
      <trkpt lat="45.73787" lon="6.14171">
        <ele>846</ele>
        <time>2000-01-01T09:03:54.000Z</time>
      </trkpt>
      <trkpt lat="45.73789" lon="6.14181">
        <ele>841.5</ele>
        <time>2000-01-01T09:04:04.000Z</time>
      </trkpt>
      <trkpt lat="45.73792" lon="6.14191">
        <ele>842.7</ele>
        <time>2000-01-01T09:04:14.000Z</time>
      </trkpt>
      <trkpt lat="45.73792" lon="6.14198">
        <ele>850</ele>
        <time>2000-01-01T09:04:24.000Z</time>
      </trkpt>
      <trkpt lat="45.73791" lon="6.14203">
        <ele>844.2</ele>
        <time>2000-01-01T09:04:34.000Z</time>
      </trkpt>
      <trkpt lat="45.73788" lon="6.14208">
        <ele>844.7</ele>
        <time>2000-01-01T09:04:44.000Z</time>
      </trkpt>
      <trkpt lat="45.73784" lon="6.14213">
        <ele>845.1</ele>
        <time>2000-01-01T09:04:54.000Z</time>
      </trkpt>
      <trkpt lat="45.7378" lon="6.14218">
        <ele>850</ele>
        <time>2000-01-01T09:05:04.000Z</time>
      </trkpt>
      <trkpt lat="45.73778" lon="6.14226">
        <ele>846.3</ele>
        <time>2000-01-01T09:05:14.000Z</time>
      </trkpt>
      <trkpt lat="45.73782" lon="6.14226">
        <ele>846.6</ele>
        <time>2000-01-01T09:05:24.000Z</time>
      </trkpt>
      <trkpt lat="45.73784" lon="6.14225">
        <ele>846.7</ele>
        <time>2000-01-01T09:05:34.000Z</time>
      </trkpt>
      <trkpt lat="45.73782" lon="6.14246">
        <ele>850</ele>
        <time>2000-01-01T09:05:44.000Z</time>
      </trkpt>
      <trkpt lat="45.73779" lon="6.14263">
        <ele>849.6</ele>
        <time>2000-01-01T09:05:54.000Z</time>
      </trkpt>
      <trkpt lat="45.73777" lon="6.14271">
        <ele>850.2</ele>
        <time>2000-01-01T09:06:04.000Z</time>
      </trkpt>
      <trkpt lat="45.73775" lon="6.14278">
        <ele>850</ele>
        <time>2000-01-01T09:06:14.000Z</time>
      </trkpt>
      <trkpt lat="45.73771" lon="6.14283">
        <ele>851.7</ele>
        <time>2000-01-01T09:06:24.000Z</time>
      </trkpt>
      <trkpt lat="45.73767" lon="6.1429">
        <ele>852.7</ele>
        <time>2000-01-01T09:06:34.000Z</time>
      </trkpt>
      <trkpt lat="45.73762" lon="6.14294">
        <ele>852.5</ele>
        <time>2000-01-01T09:06:44.000Z</time>
      </trkpt>
      <trkpt lat="45.73755" lon="6.14301">
        <ele>848</ele>
        <time>2000-01-01T09:06:54.000Z</time>
      </trkpt>
      <trkpt lat="45.73747" lon="6.1431">
        <ele>852.1</ele>
        <time>2000-01-01T09:07:04.000Z</time>
      </trkpt>
      <trkpt lat="45.7374" lon="6.14318">
        <ele>850</ele>
        <time>2000-01-01T09:07:14.000Z</time>
      </trkpt>
      <trkpt lat="45.73731" lon="6.14328">
        <ele>854</ele>
        <time>2000-01-01T09:07:24.000Z</time>
      </trkpt>
      <trkpt lat="45.73717" lon="6.14348">
        <ele>852</ele>
        <time>2000-01-01T09:07:34.000Z</time>
      </trkpt>
      <trkpt lat="45.73713" lon="6.14354">
        <ele>857.3</ele>
        <time>2000-01-01T09:07:44.000Z</time>
      </trkpt>
      <trkpt lat="45.7371" lon="6.1436">
        <ele>858.1</ele>
        <time>2000-01-01T09:07:54.000Z</time>
      </trkpt>
      <trkpt lat="45.73706" lon="6.14371">
        <ele>855</ele>
        <time>2000-01-01T09:08:04.000Z</time>
      </trkpt>
      <trkpt lat="45.73704" lon="6.14379">
        <ele>858.6</ele>
        <time>2000-01-01T09:08:14.000Z</time>
      </trkpt>
      <trkpt lat="45.73704" lon="6.14388">
        <ele>859.3</ele>
        <time>2000-01-01T09:08:24.000Z</time>
      </trkpt>
      <trkpt lat="45.73703" lon="6.14398">
        <ele>859.5</ele>
        <time>2000-01-01T09:08:34.000Z</time>
      </trkpt>
      <trkpt lat="45.73703" lon="6.14406">
        <ele>858</ele>
        <time>2000-01-01T09:08:44.000Z</time>
      </trkpt>
      <trkpt lat="45.73703" lon="6.14417">
        <ele>860.3</ele>
        <time>2000-01-01T09:08:54.000Z</time>
      </trkpt>
      <trkpt lat="45.73702" lon="6.14434">
        <ele>862</ele>
        <time>2000-01-01T09:09:04.000Z</time>
      </trkpt>
      <trkpt lat="45.73701" lon="6.14446">
        <ele>861.5</ele>
        <time>2000-01-01T09:09:14.000Z</time>
      </trkpt>
      <trkpt lat="45.73699" lon="6.14457">
        <ele>861.5</ele>
        <time>2000-01-01T09:09:24.000Z</time>
      </trkpt>
      <trkpt lat="45.73697" lon="6.14468">
        <ele>866</ele>
        <time>2000-01-01T09:09:34.000Z</time>
      </trkpt>
      <trkpt lat="45.73695" lon="6.14479">
        <ele>861.9</ele>
        <time>2000-01-01T09:09:44.000Z</time>
      </trkpt>
      <trkpt lat="45.73693" lon="6.14488">
        <ele>862.6</ele>
        <time>2000-01-01T09:09:54.000Z</time>
      </trkpt>
      <trkpt lat="45.7369" lon="6.14499">
        <ele>865</ele>
        <time>2000-01-01T09:10:04.000Z</time>
      </trkpt>
      <trkpt lat="45.73686" lon="6.14511">
        <ele>864.2</ele>
        <time>2000-01-01T09:10:14.000Z</time>
      </trkpt>
      <trkpt lat="45.73681" lon="6.14532">
        <ele>865</ele>
        <time>2000-01-01T09:10:24.000Z</time>
      </trkpt>
      <trkpt lat="45.73679" lon="6.14542">
        <ele>866</ele>
        <time>2000-01-01T09:10:34.000Z</time>
      </trkpt>
      <trkpt lat="45.73678" lon="6.14552">
        <ele>866.7</ele>
        <time>2000-01-01T09:10:44.000Z</time>
      </trkpt>
      <trkpt lat="45.73677" lon="6.14561">
        <ele>865</ele>
        <time>2000-01-01T09:10:54.000Z</time>
      </trkpt>
      <trkpt lat="45.73676" lon="6.14569">
        <ele>867.8</ele>
        <time>2000-01-01T09:11:04.000Z</time>
      </trkpt>
      <trkpt lat="45.73676" lon="6.14578">
        <ele>868.6</ele>
        <time>2000-01-01T09:11:14.000Z</time>
      </trkpt>
      <trkpt lat="45.73676" lon="6.14588">
        <ele>865</ele>
        <time>2000-01-01T09:11:24.000Z</time>
      </trkpt>
      <trkpt lat="45.73676" lon="6.14597">
        <ele>868.5</ele>
        <time>2000-01-01T09:11:34.000Z</time>
      </trkpt>
      <trkpt lat="45.73677" lon="6.14606">
        <ele>868.5</ele>
        <time>2000-01-01T09:11:44.000Z</time>
      </trkpt>
      <trkpt lat="45.73678" lon="6.14618">
        <ele>865</ele>
        <time>2000-01-01T09:11:54.000Z</time>
      </trkpt>
      <trkpt lat="45.73681" lon="6.14635">
        <ele>870.1</ele>
        <time>2000-01-01T09:12:04.000Z</time>
      </trkpt>
      <trkpt lat="45.73683" lon="6.14653">
        <ele>865</ele>
        <time>2000-01-01T09:12:14.000Z</time>
      </trkpt>
      <trkpt lat="45.73683" lon="6.14664">
        <ele>871.6</ele>
        <time>2000-01-01T09:12:24.000Z</time>
      </trkpt>
      <trkpt lat="45.73683" lon="6.14673">
        <ele>872.8</ele>
        <time>2000-01-01T09:12:34.000Z</time>
      </trkpt>
      <trkpt lat="45.73682" lon="6.14681">
        <ele>867</ele>
        <time>2000-01-01T09:12:44.000Z</time>
      </trkpt>
      <trkpt lat="45.73679" lon="6.14698">
        <ele>876</ele>
        <time>2000-01-01T09:12:54.000Z</time>
      </trkpt>
      <trkpt lat="45.73673" lon="6.14726">
        <ele>872</ele>
        <time>2000-01-01T09:13:04.000Z</time>
      </trkpt>
      <trkpt lat="45.73667" lon="6.1476">
        <ele>871</ele>
        <time>2000-01-01T09:13:14.000Z</time>
      </trkpt>
      <trkpt lat="45.73665" lon="6.1477">
        <ele>881.5</ele>
        <time>2000-01-01T09:13:24.000Z</time>
      </trkpt>
      <trkpt lat="45.73662" lon="6.1478">
        <ele>882.1</ele>
        <time>2000-01-01T09:13:34.000Z</time>
      </trkpt>
      <trkpt lat="45.73658" lon="6.14791">
        <ele>874</ele>
        <time>2000-01-01T09:13:44.000Z</time>
      </trkpt>
      <trkpt lat="45.73655" lon="6.148">
        <ele>883.8</ele>
        <time>2000-01-01T09:13:54.000Z</time>
      </trkpt>
      <trkpt lat="45.73651" lon="6.1481">
        <ele>884.9</ele>
        <time>2000-01-01T09:14:04.000Z</time>
      </trkpt>
      <trkpt lat="45.73649" lon="6.14815">
        <ele>877</ele>
        <time>2000-01-01T09:14:14.000Z</time>
      </trkpt>
      <trkpt lat="45.73646" lon="6.14821">
        <ele>885.5</ele>
        <time>2000-01-01T09:14:24.000Z</time>
      </trkpt>
      <trkpt lat="45.73645" lon="6.14828">
        <ele>886.6</ele>
        <time>2000-01-01T09:14:34.000Z</time>
      </trkpt>
      <trkpt lat="45.73643" lon="6.14838">
        <ele>887.2</ele>
        <time>2000-01-01T09:14:44.000Z</time>
      </trkpt>
      <trkpt lat="45.73643" lon="6.14848">
        <ele>884</ele>
        <time>2000-01-01T09:14:54.000Z</time>
      </trkpt>
      <trkpt lat="45.73641" lon="6.14858">
        <ele>888</ele>
        <time>2000-01-01T09:15:04.000Z</time>
      </trkpt>
      <trkpt lat="45.73635" lon="6.14868">
        <ele>886.3</ele>
        <time>2000-01-01T09:15:14.000Z</time>
      </trkpt>
      <trkpt lat="45.7363" lon="6.14876">
        <ele>884</ele>
        <time>2000-01-01T09:15:24.000Z</time>
      </trkpt>
      <trkpt lat="45.73625" lon="6.14883">
        <ele>885.8</ele>
        <time>2000-01-01T09:15:34.000Z</time>
      </trkpt>
      <trkpt lat="45.73619" lon="6.14891">
        <ele>886.1</ele>
        <time>2000-01-01T09:15:44.000Z</time>
      </trkpt>
      <trkpt lat="45.73611" lon="6.14902">
        <ele>882</ele>
        <time>2000-01-01T09:15:54.000Z</time>
      </trkpt>
      <trkpt lat="45.73595" lon="6.14929">
        <ele>885</ele>
        <time>2000-01-01T09:16:04.000Z</time>
      </trkpt>
      <trkpt lat="45.73585" lon="6.14945">
        <ele>887.5</ele>
        <time>2000-01-01T09:16:14.000Z</time>
      </trkpt>
      <trkpt lat="45.73577" lon="6.14961">
        <ele>889</ele>
        <time>2000-01-01T09:16:24.000Z</time>
      </trkpt>
      <trkpt lat="45.73572" lon="6.1497">
        <ele>888.2</ele>
        <time>2000-01-01T09:16:34.000Z</time>
      </trkpt>
      <trkpt lat="45.73562" lon="6.14993">
        <ele>889</ele>
        <time>2000-01-01T09:16:44.000Z</time>
      </trkpt>
      <trkpt lat="45.73556" lon="6.15008">
        <ele>888.7</ele>
        <time>2000-01-01T09:16:54.000Z</time>
      </trkpt>
      <trkpt lat="45.73551" lon="6.15025">
        <ele>892</ele>
        <time>2000-01-01T09:17:04.000Z</time>
      </trkpt>
      <trkpt lat="45.73548" lon="6.15034">
        <ele>888.3</ele>
        <time>2000-01-01T09:17:14.000Z</time>
      </trkpt>
      <trkpt lat="45.73545" lon="6.15042">
        <ele>888.7</ele>
        <time>2000-01-01T09:17:24.000Z</time>
      </trkpt>
      <trkpt lat="45.73544" lon="6.15045">
        <ele>889</ele>
        <time>2000-01-01T09:17:34.000Z</time>
      </trkpt>
      <trkpt lat="45.73542" lon="6.15048">
        <ele>889.1</ele>
        <time>2000-01-01T09:17:44.000Z</time>
      </trkpt>
      <trkpt lat="45.73538" lon="6.15052">
        <ele>892</ele>
        <time>2000-01-01T09:17:54.000Z</time>
      </trkpt>
      <trkpt lat="45.73533" lon="6.15054">
        <ele>888.5</ele>
        <time>2000-01-01T09:18:04.000Z</time>
      </trkpt>
      <trkpt lat="45.73529" lon="6.15055">
        <ele>888.1</ele>
        <time>2000-01-01T09:18:14.000Z</time>
      </trkpt>
      <trkpt lat="45.73523" lon="6.15056">
        <ele>888.4</ele>
        <time>2000-01-01T09:18:24.000Z</time>
      </trkpt>
      <trkpt lat="45.73517" lon="6.15057">
        <ele>885</ele>
        <time>2000-01-01T09:18:34.000Z</time>
      </trkpt>
      <trkpt lat="45.73502" lon="6.15058">
        <ele>890.2</ele>
        <time>2000-01-01T09:18:44.000Z</time>
      </trkpt>
      <trkpt lat="45.73494" lon="6.15061">
        <ele>885</ele>
        <time>2000-01-01T09:18:54.000Z</time>
      </trkpt>
      <trkpt lat="45.73485" lon="6.15066">
        <ele>889</ele>
        <time>2000-01-01T09:19:04.000Z</time>
      </trkpt>
      <trkpt lat="45.73478" lon="6.15077">
        <ele>885</ele>
        <time>2000-01-01T09:19:14.000Z</time>
      </trkpt>
      <trkpt lat="45.73464" lon="6.15107">
        <ele>888</ele>
        <time>2000-01-01T09:19:24.000Z</time>
      </trkpt>
      <trkpt lat="45.73443" lon="6.15161">
        <ele>886</ele>
        <time>2000-01-01T09:19:34.000Z</time>
      </trkpt>
      <trkpt lat="45.73429" lon="6.15195">
        <ele>890</ele>
        <time>2000-01-01T09:19:44.000Z</time>
      </trkpt>
      <trkpt lat="45.7342" lon="6.15221">
        <ele>888</ele>
        <time>2000-01-01T09:19:54.000Z</time>
      </trkpt>
      <trkpt lat="45.73409" lon="6.15251">
        <ele>890</ele>
        <time>2000-01-01T09:20:04.000Z</time>
      </trkpt>
      <trkpt lat="45.73401" lon="6.15271">
        <ele>895.9</ele>
        <time>2000-01-01T09:20:14.000Z</time>
      </trkpt>
      <trkpt lat="45.73398" lon="6.15277">
        <ele>892</ele>
        <time>2000-01-01T09:20:24.000Z</time>
      </trkpt>
      <trkpt lat="45.73385" lon="6.15297">
        <ele>892</ele>
        <time>2000-01-01T09:20:34.000Z</time>
      </trkpt>
      <trkpt lat="45.73369" lon="6.1532">
        <ele>895</ele>
        <time>2000-01-01T09:20:44.000Z</time>
      </trkpt>
      <trkpt lat="45.7336" lon="6.15337">
        <ele>896.1</ele>
        <time>2000-01-01T09:20:54.000Z</time>
      </trkpt>
      <trkpt lat="45.73352" lon="6.15358">
        <ele>894</ele>
        <time>2000-01-01T09:21:04.000Z</time>
      </trkpt>
      <trkpt lat="45.73349" lon="6.15368">
        <ele>896.3</ele>
        <time>2000-01-01T09:21:14.000Z</time>
      </trkpt>
      <trkpt lat="45.73337" lon="6.15399">
        <ele>894</ele>
        <time>2000-01-01T09:21:24.000Z</time>
      </trkpt>
      <trkpt lat="45.73326" lon="6.15412">
        <ele>902.8</ele>
        <time>2000-01-01T09:21:34.000Z</time>
      </trkpt>
      <trkpt lat="45.73313" lon="6.15432">
        <ele>899</ele>
        <time>2000-01-01T09:21:44.000Z</time>
      </trkpt>
      <trkpt lat="45.73303" lon="6.15451">
        <ele>895.4</ele>
        <time>2000-01-01T09:21:54.000Z</time>
      </trkpt>
      <trkpt lat="45.73299" lon="6.15475">
        <ele>904</ele>
        <time>2000-01-01T09:22:04.000Z</time>
      </trkpt>
      <trkpt lat="45.73298" lon="6.15492">
        <ele>898.4</ele>
        <time>2000-01-01T09:22:14.000Z</time>
      </trkpt>
      <trkpt lat="45.73298" lon="6.155">
        <ele>898.8</ele>
        <time>2000-01-01T09:22:24.000Z</time>
      </trkpt>
      <trkpt lat="45.73297" lon="6.15509">
        <ele>905</ele>
        <time>2000-01-01T09:22:34.000Z</time>
      </trkpt>
      <trkpt lat="45.73296" lon="6.15515">
        <ele>901.1</ele>
        <time>2000-01-01T09:22:44.000Z</time>
      </trkpt>
      <trkpt lat="45.73293" lon="6.15521">
        <ele>900.9</ele>
        <time>2000-01-01T09:22:54.000Z</time>
      </trkpt>
      <trkpt lat="45.73278" lon="6.15544">
        <ele>905</ele>
        <time>2000-01-01T09:23:04.000Z</time>
      </trkpt>
      <trkpt lat="45.73274" lon="6.15566">
        <ele>897</ele>
        <time>2000-01-01T09:23:14.000Z</time>
      </trkpt>
      <trkpt lat="45.73272" lon="6.15576">
        <ele>908</ele>
        <time>2000-01-01T09:23:24.000Z</time>
      </trkpt>
      <trkpt lat="45.73268" lon="6.1558">
        <ele>897.4</ele>
        <time>2000-01-01T09:23:34.000Z</time>
      </trkpt>
      <trkpt lat="45.73263" lon="6.15581">
        <ele>897.2</ele>
        <time>2000-01-01T09:23:44.000Z</time>
      </trkpt>
      <trkpt lat="45.73253" lon="6.15581">
        <ele>908</ele>
        <time>2000-01-01T09:23:54.000Z</time>
      </trkpt>
      <trkpt lat="45.73247" lon="6.15579">
        <ele>897.1</ele>
        <time>2000-01-01T09:24:04.000Z</time>
      </trkpt>
      <trkpt lat="45.73243" lon="6.15578">
        <ele>898</ele>
        <time>2000-01-01T09:24:14.000Z</time>
      </trkpt>
      <trkpt lat="45.7324" lon="6.15574">
        <ele>898.3</ele>
        <time>2000-01-01T09:24:24.000Z</time>
      </trkpt>
      <trkpt lat="45.73237" lon="6.15572">
        <ele>898.8</ele>
        <time>2000-01-01T09:24:34.000Z</time>
      </trkpt>
      <trkpt lat="45.7323" lon="6.15573">
        <ele>909</ele>
        <time>2000-01-01T09:24:44.000Z</time>
      </trkpt>
      <trkpt lat="45.73223" lon="6.15576">
        <ele>903</ele>
        <time>2000-01-01T09:24:54.000Z</time>
      </trkpt>
      <trkpt lat="45.73215" lon="6.15586">
        <ele>906.3</ele>
        <time>2000-01-01T09:25:04.000Z</time>
      </trkpt>
      <trkpt lat="45.73213" lon="6.15592">
        <ele>909</ele>
        <time>2000-01-01T09:25:14.000Z</time>
      </trkpt>
      <trkpt lat="45.73211" lon="6.15606">
        <ele>911.1</ele>
        <time>2000-01-01T09:25:24.000Z</time>
      </trkpt>
      <trkpt lat="45.73211" lon="6.15617">
        <ele>913.2</ele>
        <time>2000-01-01T09:25:34.000Z</time>
      </trkpt>
      <trkpt lat="45.73212" lon="6.1563">
        <ele>920</ele>
        <time>2000-01-01T09:25:44.000Z</time>
      </trkpt>
      <trkpt lat="45.73217" lon="6.15648">
        <ele>917.9</ele>
        <time>2000-01-01T09:25:54.000Z</time>
      </trkpt>
      <trkpt lat="45.73219" lon="6.15664">
        <ele>928</ele>
        <time>2000-01-01T09:26:04.000Z</time>
      </trkpt>
      <trkpt lat="45.73221" lon="6.15674">
        <ele>921.4</ele>
        <time>2000-01-01T09:26:14.000Z</time>
      </trkpt>
      <trkpt lat="45.73221" lon="6.15693">
        <ele>935</ele>
        <time>2000-01-01T09:26:24.000Z</time>
      </trkpt>
      <trkpt lat="45.73225" lon="6.15705">
        <ele>924.9</ele>
        <time>2000-01-01T09:26:34.000Z</time>
      </trkpt>
      <trkpt lat="45.73226" lon="6.15717">
        <ele>926.8</ele>
        <time>2000-01-01T09:26:44.000Z</time>
      </trkpt>
      <trkpt lat="45.73221" lon="6.15753">
        <ele>950</ele>
        <time>2000-01-01T09:26:54.000Z</time>
      </trkpt>
      <trkpt lat="45.73225" lon="6.15766">
        <ele>936.5</ele>
        <time>2000-01-01T09:27:04.000Z</time>
      </trkpt>
      <trkpt lat="45.73225" lon="6.1578">
        <ele>956</ele>
        <time>2000-01-01T09:27:14.000Z</time>
      </trkpt>
      <trkpt lat="45.73227" lon="6.15786">
        <ele>937.6</ele>
        <time>2000-01-01T09:27:24.000Z</time>
      </trkpt>
      <trkpt lat="45.73223" lon="6.15795">
        <ele>939.6</ele>
        <time>2000-01-01T09:27:34.000Z</time>
      </trkpt>
      <trkpt lat="45.73217" lon="6.15793">
        <ele>942.2</ele>
        <time>2000-01-01T09:27:44.000Z</time>
      </trkpt>
      <trkpt lat="45.73209" lon="6.1579">
        <ele>963</ele>
        <time>2000-01-01T09:27:54.000Z</time>
      </trkpt>
      <trkpt lat="45.73202" lon="6.15784">
        <ele>947.8</ele>
        <time>2000-01-01T09:28:04.000Z</time>
      </trkpt>
      <trkpt lat="45.73194" lon="6.15774">
        <ele>963</ele>
        <time>2000-01-01T09:28:14.000Z</time>
      </trkpt>
      <trkpt lat="45.73181" lon="6.15763">
        <ele>952.7</ele>
        <time>2000-01-01T09:28:24.000Z</time>
      </trkpt>
      <trkpt lat="45.73166" lon="6.15767">
        <ele>962</ele>
        <time>2000-01-01T09:28:34.000Z</time>
      </trkpt>
      <trkpt lat="45.73155" lon="6.1578">
        <ele>961.2</ele>
        <time>2000-01-01T09:28:44.000Z</time>
      </trkpt>
      <trkpt lat="45.73148" lon="6.15788">
        <ele>961</ele>
        <time>2000-01-01T09:28:54.000Z</time>
      </trkpt>
      <trkpt lat="45.73135" lon="6.15796">
        <ele>964.8</ele>
        <time>2000-01-01T09:29:04.000Z</time>
      </trkpt>
      <trkpt lat="45.73105" lon="6.15808">
        <ele>961</ele>
        <time>2000-01-01T09:29:14.000Z</time>
      </trkpt>
      <trkpt lat="45.73073" lon="6.15822">
        <ele>961</ele>
        <time>2000-01-01T09:29:24.000Z</time>
      </trkpt>
      <trkpt lat="45.73044" lon="6.15837">
        <ele>969</ele>
        <time>2000-01-01T09:29:34.000Z</time>
      </trkpt>
      <trkpt lat="45.73009" lon="6.15851">
        <ele>981</ele>
        <time>2000-01-01T09:29:44.000Z</time>
      </trkpt>
      <trkpt lat="45.72985" lon="6.15861">
        <ele>991</ele>
        <time>2000-01-01T09:29:54.000Z</time>
      </trkpt>
      <trkpt lat="45.7297" lon="6.15874">
        <ele>978.3</ele>
        <time>2000-01-01T09:30:04.000Z</time>
      </trkpt>
      <trkpt lat="45.72936" lon="6.159">
        <ele>1003</ele>
        <time>2000-01-01T09:30:14.000Z</time>
      </trkpt>
      <trkpt lat="45.72925" lon="6.15915">
        <ele>991</ele>
        <time>2000-01-01T09:30:24.000Z</time>
      </trkpt>
      <trkpt lat="45.72916" lon="6.15932">
        <ele>1001</ele>
        <time>2000-01-01T09:30:34.000Z</time>
      </trkpt>
      <trkpt lat="45.72908" lon="6.15937">
        <ele>995.6</ele>
        <time>2000-01-01T09:30:44.000Z</time>
      </trkpt>
      <trkpt lat="45.72916" lon="6.15932">
        <ele>993.3</ele>
        <time>2000-01-01T09:30:54.000Z</time>
      </trkpt>
      <trkpt lat="45.72923" lon="6.15961">
        <ele>1000</ele>
        <time>2000-01-01T09:31:04.000Z</time>
      </trkpt>
      <trkpt lat="45.72927" lon="6.15969">
        <ele>991.4</ele>
        <time>2000-01-01T09:31:14.000Z</time>
      </trkpt>
      <trkpt lat="45.72939" lon="6.1598">
        <ele>1000</ele>
        <time>2000-01-01T09:31:24.000Z</time>
      </trkpt>
      <trkpt lat="45.72951" lon="6.15995">
        <ele>990</ele>
        <time>2000-01-01T09:31:34.000Z</time>
      </trkpt>
      <trkpt lat="45.72956" lon="6.16022">
        <ele>1006</ele>
        <time>2000-01-01T09:31:44.000Z</time>
      </trkpt>
      <trkpt lat="45.72959" lon="6.16049">
        <ele>1006</ele>
        <time>2000-01-01T09:31:54.000Z</time>
      </trkpt>
      <trkpt lat="45.72958" lon="6.16085">
        <ele>1005</ele>
        <time>2000-01-01T09:32:04.000Z</time>
      </trkpt>
      <trkpt lat="45.72948" lon="6.16145">
        <ele>1005</ele>
        <time>2000-01-01T09:32:14.000Z</time>
      </trkpt>
      <trkpt lat="45.72948" lon="6.1616">
        <ele>1001.3</ele>
        <time>2000-01-01T09:32:24.000Z</time>
      </trkpt>
      <trkpt lat="45.72954" lon="6.16165">
        <ele>1001.1</ele>
        <time>2000-01-01T09:32:34.000Z</time>
      </trkpt>
      <trkpt lat="45.72968" lon="6.16158">
        <ele>1005</ele>
        <time>2000-01-01T09:32:44.000Z</time>
      </trkpt>
      <trkpt lat="45.72982" lon="6.16146">
        <ele>994.6</ele>
        <time>2000-01-01T09:32:54.000Z</time>
      </trkpt>
      <trkpt lat="45.72991" lon="6.16142">
        <ele>1000</ele>
        <time>2000-01-01T09:33:04.000Z</time>
      </trkpt>
      <trkpt lat="45.73003" lon="6.16155">
        <ele>989</ele>
        <time>2000-01-01T09:33:14.000Z</time>
      </trkpt>
      <trkpt lat="45.73011" lon="6.1616">
        <ele>1000</ele>
        <time>2000-01-01T09:33:24.000Z</time>
      </trkpt>
      <trkpt lat="45.73023" lon="6.16152">
        <ele>986.7</ele>
        <time>2000-01-01T09:33:34.000Z</time>
      </trkpt>
      <trkpt lat="45.73042" lon="6.16135">
        <ele>1000</ele>
        <time>2000-01-01T09:33:44.000Z</time>
      </trkpt>
      <trkpt lat="45.73051" lon="6.16137">
        <ele>982.2</ele>
        <time>2000-01-01T09:33:54.000Z</time>
      </trkpt>
      <trkpt lat="45.73074" lon="6.16153">
        <ele>985</ele>
        <time>2000-01-01T09:34:04.000Z</time>
      </trkpt>
      <trkpt lat="45.73086" lon="6.16162">
        <ele>974.8</ele>
        <time>2000-01-01T09:34:14.000Z</time>
      </trkpt>
      <trkpt lat="45.73097" lon="6.16165">
        <ele>983</ele>
        <time>2000-01-01T09:34:24.000Z</time>
      </trkpt>
      <trkpt lat="45.73106" lon="6.16161">
        <ele>974.4</ele>
        <time>2000-01-01T09:34:34.000Z</time>
      </trkpt>
      <trkpt lat="45.73116" lon="6.16159">
        <ele>983</ele>
        <time>2000-01-01T09:34:44.000Z</time>
      </trkpt>
      <trkpt lat="45.73128" lon="6.16167">
        <ele>974.6</ele>
        <time>2000-01-01T09:34:54.000Z</time>
      </trkpt>
      <trkpt lat="45.73143" lon="6.16168">
        <ele>983</ele>
        <time>2000-01-01T09:35:04.000Z</time>
      </trkpt>
      <trkpt lat="45.73149" lon="6.16155">
        <ele>976.1</ele>
        <time>2000-01-01T09:35:14.000Z</time>
      </trkpt>
      <trkpt lat="45.73155" lon="6.16134">
        <ele>984</ele>
        <time>2000-01-01T09:35:24.000Z</time>
      </trkpt>
      <trkpt lat="45.73164" lon="6.16122">
        <ele>976.4</ele>
        <time>2000-01-01T09:35:34.000Z</time>
      </trkpt>
      <trkpt lat="45.73168" lon="6.16124">
        <ele>977.5</ele>
        <time>2000-01-01T09:35:44.000Z</time>
      </trkpt>
      <trkpt lat="45.73171" lon="6.16125">
        <ele>989</ele>
        <time>2000-01-01T09:35:54.000Z</time>
      </trkpt>
      <trkpt lat="45.73171" lon="6.16125">
        <ele>978.3</ele>
        <time>2000-01-01T09:36:04.000Z</time>
      </trkpt>
      <trkpt lat="45.73174" lon="6.16127">
        <ele>979.4</ele>
        <time>2000-01-01T09:36:14.000Z</time>
      </trkpt>
      <trkpt lat="45.73177" lon="6.16136">
        <ele>982.4</ele>
        <time>2000-01-01T09:36:24.000Z</time>
      </trkpt>
      <trkpt lat="45.7318" lon="6.16147">
        <ele>984.3</ele>
        <time>2000-01-01T09:36:34.000Z</time>
      </trkpt>
      <trkpt lat="45.73182" lon="6.16154">
        <ele>990</ele>
        <time>2000-01-01T09:36:44.000Z</time>
      </trkpt>
      <trkpt lat="45.73185" lon="6.16161">
        <ele>986.3</ele>
        <time>2000-01-01T09:36:54.000Z</time>
      </trkpt>
      <trkpt lat="45.73188" lon="6.16168">
        <ele>987.5</ele>
        <time>2000-01-01T09:37:04.000Z</time>
      </trkpt>
      <trkpt lat="45.73192" lon="6.16175">
        <ele>989.2</ele>
        <time>2000-01-01T09:37:14.000Z</time>
      </trkpt>
      <trkpt lat="45.73195" lon="6.16181">
        <ele>993</ele>
        <time>2000-01-01T09:37:24.000Z</time>
      </trkpt>
      <trkpt lat="45.73198" lon="6.16187">
        <ele>990.9</ele>
        <time>2000-01-01T09:37:34.000Z</time>
      </trkpt>
      <trkpt lat="45.73201" lon="6.16193">
        <ele>991.4</ele>
        <time>2000-01-01T09:37:44.000Z</time>
      </trkpt>
      <trkpt lat="45.73204" lon="6.16199">
        <ele>991.3</ele>
        <time>2000-01-01T09:37:54.000Z</time>
      </trkpt>
      <trkpt lat="45.73208" lon="6.16205">
        <ele>997</ele>
        <time>2000-01-01T09:38:04.000Z</time>
      </trkpt>
      <trkpt lat="45.73213" lon="6.16213">
        <ele>992</ele>
        <time>2000-01-01T09:38:14.000Z</time>
      </trkpt>
      <trkpt lat="45.73216" lon="6.16219">
        <ele>992.8</ele>
        <time>2000-01-01T09:38:24.000Z</time>
      </trkpt>
      <trkpt lat="45.73219" lon="6.16225">
        <ele>993.4</ele>
        <time>2000-01-01T09:38:34.000Z</time>
      </trkpt>
      <trkpt lat="45.73223" lon="6.16233">
        <ele>998</ele>
        <time>2000-01-01T09:38:44.000Z</time>
      </trkpt>
      <trkpt lat="45.73228" lon="6.1624">
        <ele>992.7</ele>
        <time>2000-01-01T09:38:54.000Z</time>
      </trkpt>
      <trkpt lat="45.73232" lon="6.16246">
        <ele>992.3</ele>
        <time>2000-01-01T09:39:04.000Z</time>
      </trkpt>
      <trkpt lat="45.73235" lon="6.1625">
        <ele>992.1</ele>
        <time>2000-01-01T09:39:14.000Z</time>
      </trkpt>
      <trkpt lat="45.73238" lon="6.16253">
        <ele>999</ele>
        <time>2000-01-01T09:39:24.000Z</time>
      </trkpt>
      <trkpt lat="45.73241" lon="6.16255">
        <ele>991.8</ele>
        <time>2000-01-01T09:39:34.000Z</time>
      </trkpt>
      <trkpt lat="45.73245" lon="6.1626">
        <ele>991.8</ele>
        <time>2000-01-01T09:39:44.000Z</time>
      </trkpt>
      <trkpt lat="45.73248" lon="6.16266">
        <ele>992.1</ele>
        <time>2000-01-01T09:39:54.000Z</time>
      </trkpt>
      <trkpt lat="45.73252" lon="6.16273">
        <ele>1001</ele>
        <time>2000-01-01T09:40:04.000Z</time>
      </trkpt>
      <trkpt lat="45.73257" lon="6.1628">
        <ele>994</ele>
        <time>2000-01-01T09:40:14.000Z</time>
      </trkpt>
      <trkpt lat="45.73264" lon="6.16284">
        <ele>995.4</ele>
        <time>2000-01-01T09:40:24.000Z</time>
      </trkpt>
      <trkpt lat="45.73271" lon="6.16284">
        <ele>1004</ele>
        <time>2000-01-01T09:40:34.000Z</time>
      </trkpt>
      <trkpt lat="45.73277" lon="6.16282">
        <ele>996.7</ele>
        <time>2000-01-01T09:40:44.000Z</time>
      </trkpt>
      <trkpt lat="45.73288" lon="6.16281">
        <ele>998</ele>
        <time>2000-01-01T09:40:54.000Z</time>
      </trkpt>
      <trkpt lat="45.73298" lon="6.16277">
        <ele>1004</ele>
        <time>2000-01-01T09:41:04.000Z</time>
      </trkpt>
      <trkpt lat="45.73303" lon="6.16277">
        <ele>999.5</ele>
        <time>2000-01-01T09:41:14.000Z</time>
      </trkpt>
      <trkpt lat="45.73309" lon="6.16276">
        <ele>1000.4</ele>
        <time>2000-01-01T09:41:24.000Z</time>
      </trkpt>
      <trkpt lat="45.7333" lon="6.16277">
        <ele>1010</ele>
        <time>2000-01-01T09:41:34.000Z</time>
      </trkpt>
      <trkpt lat="45.73342" lon="6.16277">
        <ele>1006.4</ele>
        <time>2000-01-01T09:41:44.000Z</time>
      </trkpt>
      <trkpt lat="45.7335" lon="6.16276">
        <ele>1016</ele>
        <time>2000-01-01T09:41:54.000Z</time>
      </trkpt>
      <trkpt lat="45.7336" lon="6.1627">
        <ele>1008.1</ele>
        <time>2000-01-01T09:42:04.000Z</time>
      </trkpt>
      <trkpt lat="45.73377" lon="6.16261">
        <ele>1016</ele>
        <time>2000-01-01T09:42:14.000Z</time>
      </trkpt>
      <trkpt lat="45.73388" lon="6.16256">
        <ele>1006.9</ele>
        <time>2000-01-01T09:42:24.000Z</time>
      </trkpt>
      <trkpt lat="45.73399" lon="6.16251">
        <ele>1016</ele>
        <time>2000-01-01T09:42:34.000Z</time>
      </trkpt>
      <trkpt lat="45.73403" lon="6.16246">
        <ele>1008.8</ele>
        <time>2000-01-01T09:42:44.000Z</time>
      </trkpt>
      <trkpt lat="45.73407" lon="6.16239">
        <ele>1009.3</ele>
        <time>2000-01-01T09:42:54.000Z</time>
      </trkpt>
      <trkpt lat="45.73411" lon="6.16232">
        <ele>1009.7</ele>
        <time>2000-01-01T09:43:04.000Z</time>
      </trkpt>
      <trkpt lat="45.73416" lon="6.16226">
        <ele>1017</ele>
        <time>2000-01-01T09:43:14.000Z</time>
      </trkpt>
      <trkpt lat="45.73427" lon="6.16224">
        <ele>1012.4</ele>
        <time>2000-01-01T09:43:24.000Z</time>
      </trkpt>
      <trkpt lat="45.7344" lon="6.16219">
        <ele>1017</ele>
        <time>2000-01-01T09:43:34.000Z</time>
      </trkpt>
      <trkpt lat="45.73461" lon="6.16211">
        <ele>1017</ele>
        <time>2000-01-01T09:43:44.000Z</time>
      </trkpt>
      <trkpt lat="45.73472" lon="6.16207">
        <ele>1018.9</ele>
        <time>2000-01-01T09:43:54.000Z</time>
      </trkpt>
      <trkpt lat="45.73476" lon="6.16203">
        <ele>1019</ele>
        <time>2000-01-01T09:44:04.000Z</time>
      </trkpt>
      <trkpt lat="45.73481" lon="6.16193">
        <ele>1018</ele>
        <time>2000-01-01T09:44:14.000Z</time>
      </trkpt>
      <trkpt lat="45.73486" lon="6.16179">
        <ele>1019.2</ele>
        <time>2000-01-01T09:44:24.000Z</time>
      </trkpt>
      <trkpt lat="45.73493" lon="6.16167">
        <ele>1028</ele>
        <time>2000-01-01T09:44:34.000Z</time>
      </trkpt>
      <trkpt lat="45.73497" lon="6.16165">
        <ele>1019.9</ele>
        <time>2000-01-01T09:44:44.000Z</time>
      </trkpt>
      <trkpt lat="45.73501" lon="6.16166">
        <ele>1020.2</ele>
        <time>2000-01-01T09:44:54.000Z</time>
      </trkpt>
      <trkpt lat="45.73506" lon="6.16167">
        <ele>1020.7</ele>
        <time>2000-01-01T09:45:04.000Z</time>
      </trkpt>
      <trkpt lat="45.73514" lon="6.16175">
        <ele>1028</ele>
        <time>2000-01-01T09:45:14.000Z</time>
      </trkpt>
      <trkpt lat="45.73509" lon="6.16188">
        <ele>1021.5</ele>
        <time>2000-01-01T09:45:24.000Z</time>
      </trkpt>
      <trkpt lat="45.73504" lon="6.16204">
        <ele>1024</ele>
        <time>2000-01-01T09:45:34.000Z</time>
      </trkpt>
      <trkpt lat="45.73494" lon="6.16232">
        <ele>1023</ele>
        <time>2000-01-01T09:45:44.000Z</time>
      </trkpt>
      <trkpt lat="45.735" lon="6.16239">
        <ele>1022.6</ele>
        <time>2000-01-01T09:45:54.000Z</time>
      </trkpt>
      <trkpt lat="45.73494" lon="6.16232">
        <ele>1021.8</ele>
        <time>2000-01-01T09:46:04.000Z</time>
      </trkpt>
      <trkpt lat="45.73489" lon="6.16249">
        <ele>1023</ele>
        <time>2000-01-01T09:46:14.000Z</time>
      </trkpt>
      <trkpt lat="45.73474" lon="6.16295">
        <ele>1028</ele>
        <time>2000-01-01T09:46:24.000Z</time>
      </trkpt>
      <trkpt lat="45.73464" lon="6.16326">
        <ele>1029</ele>
        <time>2000-01-01T09:46:34.000Z</time>
      </trkpt>
      <trkpt lat="45.73453" lon="6.16352">
        <ele>1027</ele>
        <time>2000-01-01T09:46:44.000Z</time>
      </trkpt>
      <trkpt lat="45.73446" lon="6.16366">
        <ele>1022.6</ele>
        <time>2000-01-01T09:46:54.000Z</time>
      </trkpt>
      <trkpt lat="45.73438" lon="6.1638">
        <ele>1026</ele>
        <time>2000-01-01T09:47:04.000Z</time>
      </trkpt>
      <trkpt lat="45.7343" lon="6.16399">
        <ele>1025.9</ele>
        <time>2000-01-01T09:47:14.000Z</time>
      </trkpt>
      <trkpt lat="45.73421" lon="6.16419">
        <ele>1027</ele>
        <time>2000-01-01T09:47:24.000Z</time>
      </trkpt>
      <trkpt lat="45.73414" lon="6.16431">
        <ele>1027</ele>
        <time>2000-01-01T09:47:34.000Z</time>
      </trkpt>
      <trkpt lat="45.73409" lon="6.16435">
        <ele>1027.3</ele>
        <time>2000-01-01T09:47:44.000Z</time>
      </trkpt>
      <trkpt lat="45.73404" lon="6.16437">
        <ele>1028</ele>
        <time>2000-01-01T09:47:54.000Z</time>
      </trkpt>
      <trkpt lat="45.73397" lon="6.16446">
        <ele>1028.3</ele>
        <time>2000-01-01T09:48:04.000Z</time>
      </trkpt>
      <trkpt lat="45.7339" lon="6.16451">
        <ele>1029.4</ele>
        <time>2000-01-01T09:48:14.000Z</time>
      </trkpt>
      <trkpt lat="45.73384" lon="6.16453">
        <ele>1028</ele>
        <time>2000-01-01T09:48:24.000Z</time>
      </trkpt>
      <trkpt lat="45.73378" lon="6.16457">
        <ele>1031.1</ele>
        <time>2000-01-01T09:48:34.000Z</time>
      </trkpt>
      <trkpt lat="45.73371" lon="6.16461">
        <ele>1032.1</ele>
        <time>2000-01-01T09:48:44.000Z</time>
      </trkpt>
      <trkpt lat="45.73367" lon="6.16466">
        <ele>1033</ele>
        <time>2000-01-01T09:48:54.000Z</time>
      </trkpt>
      <trkpt lat="45.73363" lon="6.16473">
        <ele>1034.1</ele>
        <time>2000-01-01T09:49:04.000Z</time>
      </trkpt>
      <trkpt lat="45.73361" lon="6.16478">
        <ele>1034.4</ele>
        <time>2000-01-01T09:49:14.000Z</time>
      </trkpt>
      <trkpt lat="45.73361" lon="6.16479">
        <ele>1034.5</ele>
        <time>2000-01-01T09:49:24.000Z</time>
      </trkpt>
      <trkpt lat="45.73352" lon="6.16487">
        <ele>1033</ele>
        <time>2000-01-01T09:49:34.000Z</time>
      </trkpt>
      <trkpt lat="45.73348" lon="6.16491">
        <ele>1034.9</ele>
        <time>2000-01-01T09:49:44.000Z</time>
      </trkpt>
      <trkpt lat="45.73341" lon="6.16497">
        <ele>1035.1</ele>
        <time>2000-01-01T09:49:54.000Z</time>
      </trkpt>
      <trkpt lat="45.73336" lon="6.165">
        <ele>1035.1</ele>
        <time>2000-01-01T09:50:04.000Z</time>
      </trkpt>
      <trkpt lat="45.7333" lon="6.16502">
        <ele>1034</ele>
        <time>2000-01-01T09:50:14.000Z</time>
      </trkpt>
      <trkpt lat="45.73326" lon="6.16503">
        <ele>1034.8</ele>
        <time>2000-01-01T09:50:24.000Z</time>
      </trkpt>
      <trkpt lat="45.7332" lon="6.16504">
        <ele>1034.5</ele>
        <time>2000-01-01T09:50:34.000Z</time>
      </trkpt>
      <trkpt lat="45.73315" lon="6.16507">
        <ele>1034.8</ele>
        <time>2000-01-01T09:50:44.000Z</time>
      </trkpt>
      <trkpt lat="45.73311" lon="6.1651">
        <ele>1030</ele>
        <time>2000-01-01T09:50:54.000Z</time>
      </trkpt>
      <trkpt lat="45.73306" lon="6.16514">
        <ele>1036.1</ele>
        <time>2000-01-01T09:51:04.000Z</time>
      </trkpt>
      <trkpt lat="45.733" lon="6.16515">
        <ele>1035.6</ele>
        <time>2000-01-01T09:51:14.000Z</time>
      </trkpt>
      <trkpt lat="45.73294" lon="6.16516">
        <ele>1035.2</ele>
        <time>2000-01-01T09:51:24.000Z</time>
      </trkpt>
      <trkpt lat="45.73288" lon="6.16516">
        <ele>1030</ele>
        <time>2000-01-01T09:51:34.000Z</time>
      </trkpt>
      <trkpt lat="45.73281" lon="6.16519">
        <ele>1034.5</ele>
        <time>2000-01-01T09:51:44.000Z</time>
      </trkpt>
      <trkpt lat="45.73275" lon="6.16523">
        <ele>1034.5</ele>
        <time>2000-01-01T09:51:54.000Z</time>
      </trkpt>
      <trkpt lat="45.7327" lon="6.16527">
        <ele>1029</ele>
        <time>2000-01-01T09:52:04.000Z</time>
      </trkpt>
      <trkpt lat="45.73264" lon="6.16532">
        <ele>1032.9</ele>
        <time>2000-01-01T09:52:14.000Z</time>
      </trkpt>
      <trkpt lat="45.7326" lon="6.16536">
        <ele>1032.4</ele>
        <time>2000-01-01T09:52:24.000Z</time>
      </trkpt>
      <trkpt lat="45.73257" lon="6.16539">
        <ele>1032.2</ele>
        <time>2000-01-01T09:52:34.000Z</time>
      </trkpt>
      <trkpt lat="45.73254" lon="6.16544">
        <ele>1029</ele>
        <time>2000-01-01T09:52:44.000Z</time>
      </trkpt>
      <trkpt lat="45.73252" lon="6.16549">
        <ele>1033.6</ele>
        <time>2000-01-01T09:52:54.000Z</time>
      </trkpt>
      <trkpt lat="45.73249" lon="6.16554">
        <ele>1034.1</ele>
        <time>2000-01-01T09:53:04.000Z</time>
      </trkpt>
      <trkpt lat="45.73246" lon="6.1656">
        <ele>1034</ele>
        <time>2000-01-01T09:53:14.000Z</time>
      </trkpt>
      <trkpt lat="45.73244" lon="6.16566">
        <ele>1034.2</ele>
        <time>2000-01-01T09:53:24.000Z</time>
      </trkpt>
      <trkpt lat="45.73241" lon="6.16572">
        <ele>1030</ele>
        <time>2000-01-01T09:53:34.000Z</time>
      </trkpt>
      <trkpt lat="45.73237" lon="6.1658">
        <ele>1034.1</ele>
        <time>2000-01-01T09:53:44.000Z</time>
      </trkpt>
      <trkpt lat="45.73234" lon="6.16587">
        <ele>1034.3</ele>
        <time>2000-01-01T09:53:54.000Z</time>
      </trkpt>
      <trkpt lat="45.73232" lon="6.16594">
        <ele>1034.7</ele>
        <time>2000-01-01T09:54:04.000Z</time>
      </trkpt>
      <trkpt lat="45.73229" lon="6.16602">
        <ele>1031</ele>
        <time>2000-01-01T09:54:14.000Z</time>
      </trkpt>
      <trkpt lat="45.73226" lon="6.1661">
        <ele>1035.6</ele>
        <time>2000-01-01T09:54:24.000Z</time>
      </trkpt>
      <trkpt lat="45.73224" lon="6.16618">
        <ele>1035.6</ele>
        <time>2000-01-01T09:54:34.000Z</time>
      </trkpt>
      <trkpt lat="45.73223" lon="6.16624">
        <ele>1035.6</ele>
        <time>2000-01-01T09:54:44.000Z</time>
      </trkpt>
      <trkpt lat="45.7322" lon="6.16634">
        <ele>1036</ele>
        <time>2000-01-01T09:54:54.000Z</time>
      </trkpt>
      <trkpt lat="45.73221" lon="6.16642">
        <ele>1035.9</ele>
        <time>2000-01-01T09:55:04.000Z</time>
      </trkpt>
      <trkpt lat="45.73221" lon="6.16652">
        <ele>1036.7</ele>
        <time>2000-01-01T09:55:14.000Z</time>
      </trkpt>
      <trkpt lat="45.7322" lon="6.16659">
        <ele>1037</ele>
        <time>2000-01-01T09:55:24.000Z</time>
      </trkpt>
      <trkpt lat="45.73216" lon="6.1667">
        <ele>1041</ele>
        <time>2000-01-01T09:55:34.000Z</time>
      </trkpt>
      <trkpt lat="45.73214" lon="6.16677">
        <ele>1038.6</ele>
        <time>2000-01-01T09:55:44.000Z</time>
      </trkpt>
      <trkpt lat="45.73212" lon="6.16683">
        <ele>1039.5</ele>
        <time>2000-01-01T09:55:54.000Z</time>
      </trkpt>
      <trkpt lat="45.73211" lon="6.16691">
        <ele>1040.9</ele>
        <time>2000-01-01T09:56:04.000Z</time>
      </trkpt>
      <trkpt lat="45.7321" lon="6.16699">
        <ele>1046</ele>
        <time>2000-01-01T09:56:14.000Z</time>
      </trkpt>
      <trkpt lat="45.73209" lon="6.16707">
        <ele>1043.2</ele>
        <time>2000-01-01T09:56:24.000Z</time>
      </trkpt>
      <trkpt lat="45.73207" lon="6.16711">
        <ele>1043.4</ele>
        <time>2000-01-01T09:56:34.000Z</time>
      </trkpt>
      <trkpt lat="45.73205" lon="6.16716">
        <ele>1043.9</ele>
        <time>2000-01-01T09:56:44.000Z</time>
      </trkpt>
      <trkpt lat="45.73205" lon="6.16724">
        <ele>1045.2</ele>
        <time>2000-01-01T09:56:54.000Z</time>
      </trkpt>
      <trkpt lat="45.73205" lon="6.1673">
        <ele>1051</ele>
        <time>2000-01-01T09:57:04.000Z</time>
      </trkpt>
      <trkpt lat="45.73205" lon="6.16737">
        <ele>1047.4</ele>
        <time>2000-01-01T09:57:14.000Z</time>
      </trkpt>
      <trkpt lat="45.73204" lon="6.16744">
        <ele>1048.4</ele>
        <time>2000-01-01T09:57:24.000Z</time>
      </trkpt>
      <trkpt lat="45.73205" lon="6.16751">
        <ele>1049.6</ele>
        <time>2000-01-01T09:57:34.000Z</time>
      </trkpt>
      <trkpt lat="45.73205" lon="6.16758">
        <ele>1055</ele>
        <time>2000-01-01T09:57:44.000Z</time>
      </trkpt>
      <trkpt lat="45.73205" lon="6.16766">
        <ele>1050.5</ele>
        <time>2000-01-01T09:57:54.000Z</time>
      </trkpt>
      <trkpt lat="45.73205" lon="6.16773">
        <ele>1051</ele>
        <time>2000-01-01T09:58:04.000Z</time>
      </trkpt>
      <trkpt lat="45.73205" lon="6.16779">
        <ele>1051.4</ele>
        <time>2000-01-01T09:58:14.000Z</time>
      </trkpt>
      <trkpt lat="45.73204" lon="6.16785">
        <ele>1058</ele>
        <time>2000-01-01T09:58:24.000Z</time>
      </trkpt>
      <trkpt lat="45.73204" lon="6.16794">
        <ele>1052.2</ele>
        <time>2000-01-01T09:58:34.000Z</time>
      </trkpt>
      <trkpt lat="45.73202" lon="6.16799">
        <ele>1052.2</ele>
        <time>2000-01-01T09:58:44.000Z</time>
      </trkpt>
      <trkpt lat="45.732" lon="6.16806">
        <ele>1052.3</ele>
        <time>2000-01-01T09:58:54.000Z</time>
      </trkpt>
      <trkpt lat="45.73197" lon="6.16811">
        <ele>1059</ele>
        <time>2000-01-01T09:59:04.000Z</time>
      </trkpt>
      <trkpt lat="45.73194" lon="6.16816">
        <ele>1053.6</ele>
        <time>2000-01-01T09:59:14.000Z</time>
      </trkpt>
      <trkpt lat="45.73189" lon="6.16823">
        <ele>1054.6</ele>
        <time>2000-01-01T09:59:24.000Z</time>
      </trkpt>
      <trkpt lat="45.73184" lon="6.16827">
        <ele>1055</ele>
        <time>2000-01-01T09:59:34.000Z</time>
      </trkpt>
      <trkpt lat="45.73179" lon="6.16832">
        <ele>1065</ele>
        <time>2000-01-01T09:59:44.000Z</time>
      </trkpt>
      <trkpt lat="45.73174" lon="6.16839">
        <ele>1057.8</ele>
        <time>2000-01-01T09:59:54.000Z</time>
      </trkpt>
      <trkpt lat="45.73168" lon="6.16846">
        <ele>1059.7</ele>
        <time>2000-01-01T10:00:04.000Z</time>
      </trkpt>
      <trkpt lat="45.73163" lon="6.16853">
        <ele>1068</ele>
        <time>2000-01-01T10:00:14.000Z</time>
      </trkpt>
      <trkpt lat="45.7316" lon="6.16858">
        <ele>1062.7</ele>
        <time>2000-01-01T10:00:24.000Z</time>
      </trkpt>
      <trkpt lat="45.73155" lon="6.16864">
        <ele>1064.1</ele>
        <time>2000-01-01T10:00:34.000Z</time>
      </trkpt>
      <trkpt lat="45.73151" lon="6.16871">
        <ele>1066.3</ele>
        <time>2000-01-01T10:00:44.000Z</time>
      </trkpt>
      <trkpt lat="45.73147" lon="6.16878">
        <ele>1072</ele>
        <time>2000-01-01T10:00:54.000Z</time>
      </trkpt>
      <trkpt lat="45.73142" lon="6.16888">
        <ele>1071.3</ele>
        <time>2000-01-01T10:01:04.000Z</time>
      </trkpt>
      <trkpt lat="45.73138" lon="6.16895">
        <ele>1073</ele>
        <time>2000-01-01T10:01:14.000Z</time>
      </trkpt>
      <trkpt lat="45.73136" lon="6.169">
        <ele>1074.5</ele>
        <time>2000-01-01T10:01:24.000Z</time>
      </trkpt>
      <trkpt lat="45.73133" lon="6.16909">
        <ele>1078</ele>
        <time>2000-01-01T10:01:34.000Z</time>
      </trkpt>
      <trkpt lat="45.73129" lon="6.16917">
        <ele>1079.7</ele>
        <time>2000-01-01T10:01:44.000Z</time>
      </trkpt>
      <trkpt lat="45.73126" lon="6.16924">
        <ele>1082.5</ele>
        <time>2000-01-01T10:01:54.000Z</time>
      </trkpt>
      <trkpt lat="45.73123" lon="6.16931">
        <ele>1085.1</ele>
        <time>2000-01-01T10:02:04.000Z</time>
      </trkpt>
      <trkpt lat="45.73119" lon="6.16938">
        <ele>1092</ele>
        <time>2000-01-01T10:02:14.000Z</time>
      </trkpt>
      <trkpt lat="45.73116" lon="6.16942">
        <ele>1088.2</ele>
        <time>2000-01-01T10:02:24.000Z</time>
      </trkpt>
      <trkpt lat="45.73112" lon="6.16946">
        <ele>1088.9</ele>
        <time>2000-01-01T10:02:34.000Z</time>
      </trkpt>
      <trkpt lat="45.73107" lon="6.16948">
        <ele>1088.8</ele>
        <time>2000-01-01T10:02:44.000Z</time>
      </trkpt>
      <trkpt lat="45.73103" lon="6.1695">
        <ele>1089.1</ele>
        <time>2000-01-01T10:02:54.000Z</time>
      </trkpt>
      <trkpt lat="45.73099" lon="6.16953">
        <ele>1102</ele>
        <time>2000-01-01T10:03:04.000Z</time>
      </trkpt>
      <trkpt lat="45.73095" lon="6.1696">
        <ele>1092.5</ele>
        <time>2000-01-01T10:03:14.000Z</time>
      </trkpt>
      <trkpt lat="45.7309" lon="6.16965">
        <ele>1094.2</ele>
        <time>2000-01-01T10:03:24.000Z</time>
      </trkpt>
      <trkpt lat="45.73084" lon="6.16971">
        <ele>1105</ele>
        <time>2000-01-01T10:03:34.000Z</time>
      </trkpt>
      <trkpt lat="45.73079" lon="6.16976">
        <ele>1098</ele>
        <time>2000-01-01T10:03:44.000Z</time>
      </trkpt>
      <trkpt lat="45.73072" lon="6.16994">
        <ele>1108</ele>
        <time>2000-01-01T10:03:54.000Z</time>
      </trkpt>
      <trkpt lat="45.73065" lon="6.17006">
        <ele>1109.1</ele>
        <time>2000-01-01T10:04:04.000Z</time>
      </trkpt>
      <trkpt lat="45.73056" lon="6.17017">
        <ele>1112</ele>
        <time>2000-01-01T10:04:14.000Z</time>
      </trkpt>
      <trkpt lat="45.73051" lon="6.17032">
        <ele>1115.8</ele>
        <time>2000-01-01T10:04:24.000Z</time>
      </trkpt>
      <trkpt lat="45.73053" lon="6.17038">
        <ele>1119.1</ele>
        <time>2000-01-01T10:04:34.000Z</time>
      </trkpt>
      <trkpt lat="45.73059" lon="6.1704">
        <ele>1112</ele>
        <time>2000-01-01T10:04:44.000Z</time>
      </trkpt>
      <trkpt lat="45.73068" lon="6.17037">
        <ele>1123.4</ele>
        <time>2000-01-01T10:04:54.000Z</time>
      </trkpt>
      <trkpt lat="45.73073" lon="6.17034">
        <ele>1123.8</ele>
        <time>2000-01-01T10:05:04.000Z</time>
      </trkpt>
      <trkpt lat="45.73078" lon="6.17034">
        <ele>1112</ele>
        <time>2000-01-01T10:05:14.000Z</time>
      </trkpt>
      <trkpt lat="45.73082" lon="6.1704">
        <ele>1128.6</ele>
        <time>2000-01-01T10:05:24.000Z</time>
      </trkpt>
      <trkpt lat="45.73073" lon="6.17049">
        <ele>1129.1</ele>
        <time>2000-01-01T10:05:34.000Z</time>
      </trkpt>
      <trkpt lat="45.73054" lon="6.17064">
        <ele>1114</ele>
        <time>2000-01-01T10:05:44.000Z</time>
      </trkpt>
      <trkpt lat="45.73045" lon="6.17069">
        <ele>1133.3</ele>
        <time>2000-01-01T10:05:54.000Z</time>
      </trkpt>
      <trkpt lat="45.73036" lon="6.17075">
        <ele>1116</ele>
        <time>2000-01-01T10:06:04.000Z</time>
      </trkpt>
      <trkpt lat="45.73021" lon="6.17084">
        <ele>1140.2</ele>
        <time>2000-01-01T10:06:14.000Z</time>
      </trkpt>
      <trkpt lat="45.73002" lon="6.1709">
        <ele>1114</ele>
        <time>2000-01-01T10:06:24.000Z</time>
      </trkpt>
      <trkpt lat="45.72983" lon="6.171">
        <ele>1118</ele>
        <time>2000-01-01T10:06:34.000Z</time>
      </trkpt>
      <trkpt lat="45.7297" lon="6.17112">
        <ele>1143.3</ele>
        <time>2000-01-01T10:06:44.000Z</time>
      </trkpt>
      <trkpt lat="45.72956" lon="6.17121">
        <ele>1122</ele>
        <time>2000-01-01T10:06:54.000Z</time>
      </trkpt>
      <trkpt lat="45.72934" lon="6.17138">
        <ele>1134</ele>
        <time>2000-01-01T10:07:04.000Z</time>
      </trkpt>
      <trkpt lat="45.72923" lon="6.17151">
        <ele>1149.1</ele>
        <time>2000-01-01T10:07:14.000Z</time>
      </trkpt>
      <trkpt lat="45.7291" lon="6.17166">
        <ele>1141</ele>
        <time>2000-01-01T10:07:24.000Z</time>
      </trkpt>
      <trkpt lat="45.72899" lon="6.1718">
        <ele>1150.5</ele>
        <time>2000-01-01T10:07:34.000Z</time>
      </trkpt>
      <trkpt lat="45.72888" lon="6.17194">
        <ele>1143</ele>
        <time>2000-01-01T10:07:44.000Z</time>
      </trkpt>
      <trkpt lat="45.72874" lon="6.17213">
        <ele>1154</ele>
        <time>2000-01-01T10:07:54.000Z</time>
      </trkpt>
      <trkpt lat="45.72863" lon="6.17237">
        <ele>1154</ele>
        <time>2000-01-01T10:08:04.000Z</time>
      </trkpt>
      <trkpt lat="45.72855" lon="6.17257">
        <ele>1159.9</ele>
        <time>2000-01-01T10:08:14.000Z</time>
      </trkpt>
      <trkpt lat="45.72845" lon="6.17282">
        <ele>1165</ele>
        <time>2000-01-01T10:08:24.000Z</time>
      </trkpt>
      <trkpt lat="45.72835" lon="6.17306">
        <ele>1167</ele>
        <time>2000-01-01T10:08:34.000Z</time>
      </trkpt>
      <trkpt lat="45.72831" lon="6.1732">
        <ele>1165.1</ele>
        <time>2000-01-01T10:08:44.000Z</time>
      </trkpt>
      <trkpt lat="45.72827" lon="6.1734">
        <ele>1169</ele>
        <time>2000-01-01T10:08:54.000Z</time>
      </trkpt>
      <trkpt lat="45.72823" lon="6.17359">
        <ele>1167.4</ele>
        <time>2000-01-01T10:09:04.000Z</time>
      </trkpt>
      <trkpt lat="45.72821" lon="6.17373">
        <ele>1172</ele>
        <time>2000-01-01T10:09:14.000Z</time>
      </trkpt>
      <trkpt lat="45.72816" lon="6.17387">
        <ele>1168</ele>
        <time>2000-01-01T10:09:24.000Z</time>
      </trkpt>
      <trkpt lat="45.72818" lon="6.17393">
        <ele>1168.6</ele>
        <time>2000-01-01T10:09:34.000Z</time>
      </trkpt>
      <trkpt lat="45.72821" lon="6.17403">
        <ele>1178</ele>
        <time>2000-01-01T10:09:44.000Z</time>
      </trkpt>
      <trkpt lat="45.72823" lon="6.17412">
        <ele>1169.8</ele>
        <time>2000-01-01T10:09:54.000Z</time>
      </trkpt>
      <trkpt lat="45.72826" lon="6.17423">
        <ele>1170.4</ele>
        <time>2000-01-01T10:10:04.000Z</time>
      </trkpt>
      <trkpt lat="45.72829" lon="6.17437">
        <ele>1183</ele>
        <time>2000-01-01T10:10:14.000Z</time>
      </trkpt>
      <trkpt lat="45.72832" lon="6.17446">
        <ele>1172.2</ele>
        <time>2000-01-01T10:10:24.000Z</time>
      </trkpt>
      <trkpt lat="45.72834" lon="6.17456">
        <ele>1173.8</ele>
        <time>2000-01-01T10:10:34.000Z</time>
      </trkpt>
      <trkpt lat="45.72837" lon="6.17464">
        <ele>1192</ele>
        <time>2000-01-01T10:10:44.000Z</time>
      </trkpt>
      <trkpt lat="45.72839" lon="6.1747">
        <ele>1176</ele>
        <time>2000-01-01T10:10:54.000Z</time>
      </trkpt>
      <trkpt lat="45.72843" lon="6.17477">
        <ele>1176.9</ele>
        <time>2000-01-01T10:11:04.000Z</time>
      </trkpt>
      <trkpt lat="45.72844" lon="6.17493">
        <ele>1194</ele>
        <time>2000-01-01T10:11:14.000Z</time>
      </trkpt>
      <trkpt lat="45.72844" lon="6.17507">
        <ele>1180.6</ele>
        <time>2000-01-01T10:11:24.000Z</time>
      </trkpt>
      <trkpt lat="45.72845" lon="6.17517">
        <ele>1182.5</ele>
        <time>2000-01-01T10:11:34.000Z</time>
      </trkpt>
      <trkpt lat="45.72849" lon="6.17529">
        <ele>1195</ele>
        <time>2000-01-01T10:11:44.000Z</time>
      </trkpt>
      <trkpt lat="45.7285" lon="6.17533">
        <ele>1186.5</ele>
        <time>2000-01-01T10:11:54.000Z</time>
      </trkpt>
      <trkpt lat="45.72852" lon="6.17537">
        <ele>1187.7</ele>
        <time>2000-01-01T10:12:04.000Z</time>
      </trkpt>
      <trkpt lat="45.72854" lon="6.1754">
        <ele>1188.7</ele>
        <time>2000-01-01T10:12:14.000Z</time>
      </trkpt>
      <trkpt lat="45.72857" lon="6.17545">
        <ele>1190.2</ele>
        <time>2000-01-01T10:12:24.000Z</time>
      </trkpt>
      <trkpt lat="45.72859" lon="6.17548">
        <ele>1191.2</ele>
        <time>2000-01-01T10:12:34.000Z</time>
      </trkpt>
      <trkpt lat="45.72862" lon="6.17551">
        <ele>1207</ele>
        <time>2000-01-01T10:12:44.000Z</time>
      </trkpt>
      <trkpt lat="45.72865" lon="6.17556">
        <ele>1194.2</ele>
        <time>2000-01-01T10:12:54.000Z</time>
      </trkpt>
      <trkpt lat="45.72872" lon="6.17563">
        <ele>1197.5</ele>
        <time>2000-01-01T10:13:04.000Z</time>
      </trkpt>
      <trkpt lat="45.72875" lon="6.17567">
        <ele>1199.1</ele>
        <time>2000-01-01T10:13:14.000Z</time>
      </trkpt>
      <trkpt lat="45.7288" lon="6.17571">
        <ele>1226</ele>
        <time>2000-01-01T10:13:24.000Z</time>
      </trkpt>
      <trkpt lat="45.72885" lon="6.17575">
        <ele>1203.4</ele>
        <time>2000-01-01T10:13:34.000Z</time>
      </trkpt>
      <trkpt lat="45.72893" lon="6.17582">
        <ele>1207.4</ele>
        <time>2000-01-01T10:13:44.000Z</time>
      </trkpt>
      <trkpt lat="45.72896" lon="6.17589">
        <ele>1226</ele>
        <time>2000-01-01T10:13:54.000Z</time>
      </trkpt>
      <trkpt lat="45.72899" lon="6.17596">
        <ele>1212.9</ele>
        <time>2000-01-01T10:14:04.000Z</time>
      </trkpt>
      <trkpt lat="45.72902" lon="6.17603">
        <ele>1215.5</ele>
        <time>2000-01-01T10:14:14.000Z</time>
      </trkpt>
      <trkpt lat="45.72906" lon="6.17609">
        <ele>1218.1</ele>
        <time>2000-01-01T10:14:24.000Z</time>
      </trkpt>
      <trkpt lat="45.72909" lon="6.17615">
        <ele>1230</ele>
        <time>2000-01-01T10:14:34.000Z</time>
      </trkpt>
      <trkpt lat="45.72912" lon="6.1762">
        <ele>1221.9</ele>
        <time>2000-01-01T10:14:44.000Z</time>
      </trkpt>
      <trkpt lat="45.72916" lon="6.17626">
        <ele>1224</ele>
        <time>2000-01-01T10:14:54.000Z</time>
      </trkpt>
      <trkpt lat="45.72919" lon="6.17631">
        <ele>1225.4</ele>
        <time>2000-01-01T10:15:04.000Z</time>
      </trkpt>
      <trkpt lat="45.72906" lon="6.17632">
        <ele>1232</ele>
        <time>2000-01-01T10:15:14.000Z</time>
      </trkpt>
      <trkpt lat="45.72901" lon="6.17634">
        <ele>1221.6</ele>
        <time>2000-01-01T10:15:24.000Z</time>
      </trkpt>
      <trkpt lat="45.73006" lon="6.17801">
        <ele>1243</ele>
        <time>2000-01-01T10:15:34.000Z</time>
      </trkpt>
      <trkpt lat="45.7303" lon="6.17832">
        <ele>1251</ele>
        <time>2000-01-01T10:15:44.000Z</time>
      </trkpt>
      <trkpt lat="45.73053" lon="6.17863">
        <ele>1255</ele>
        <time>2000-01-01T10:15:54.000Z</time>
      </trkpt>
      <trkpt lat="45.73081" lon="6.17899">
        <ele>1256</ele>
        <time>2000-01-01T10:16:04.000Z</time>
      </trkpt>
      <trkpt lat="45.73104" lon="6.17923">
        <ele>1258</ele>
        <time>2000-01-01T10:16:14.000Z</time>
      </trkpt>
      <trkpt lat="45.73138" lon="6.17959">
        <ele>1260</ele>
        <time>2000-01-01T10:16:24.000Z</time>
      </trkpt>
      <trkpt lat="45.73144" lon="6.18004">
        <ele>1272</ele>
        <time>2000-01-01T10:16:34.000Z</time>
      </trkpt>
      <trkpt lat="45.73151" lon="6.18049">
        <ele>1275</ele>
        <time>2000-01-01T10:16:44.000Z</time>
      </trkpt>
      <trkpt lat="45.73159" lon="6.18101">
        <ele>1282</ele>
        <time>2000-01-01T10:16:54.000Z</time>
      </trkpt>
      <trkpt lat="45.73172" lon="6.18144">
        <ele>1289</ele>
        <time>2000-01-01T10:17:04.000Z</time>
      </trkpt>
      <trkpt lat="45.73185" lon="6.18186">
        <ele>1294</ele>
        <time>2000-01-01T10:17:14.000Z</time>
      </trkpt>
      <trkpt lat="45.73201" lon="6.18238">
        <ele>1299</ele>
        <time>2000-01-01T10:17:24.000Z</time>
      </trkpt>
      <trkpt lat="45.73207" lon="6.18281">
        <ele>1298</ele>
        <time>2000-01-01T10:17:34.000Z</time>
      </trkpt>
      <trkpt lat="45.73212" lon="6.18318">
        <ele>1298</ele>
        <time>2000-01-01T10:17:44.000Z</time>
      </trkpt>
      <trkpt lat="45.73219" lon="6.18363">
        <ele>1302</ele>
        <time>2000-01-01T10:17:54.000Z</time>
      </trkpt>
      <trkpt lat="45.73233" lon="6.18405">
        <ele>1309</ele>
        <time>2000-01-01T10:18:04.000Z</time>
      </trkpt>
      <trkpt lat="45.73247" lon="6.18448">
        <ele>1317</ele>
        <time>2000-01-01T10:18:14.000Z</time>
      </trkpt>
      <trkpt lat="45.73267" lon="6.18504">
        <ele>1326</ele>
        <time>2000-01-01T10:18:24.000Z</time>
      </trkpt>
      <trkpt lat="45.73264" lon="6.18517">
        <ele>1322.2</ele>
        <time>2000-01-01T10:18:34.000Z</time>
      </trkpt>
      <trkpt lat="45.73271" lon="6.1852">
        <ele>1321.9</ele>
        <time>2000-01-01T10:18:44.000Z</time>
      </trkpt>
      <trkpt lat="45.73272" lon="6.18522">
        <ele>1322.1</ele>
        <time>2000-01-01T10:18:54.000Z</time>
      </trkpt>
      <trkpt lat="45.73276" lon="6.18525">
        <ele>1326</ele>
        <time>2000-01-01T10:19:04.000Z</time>
      </trkpt>
      <trkpt lat="45.7328" lon="6.18527">
        <ele>1321.6</ele>
        <time>2000-01-01T10:19:14.000Z</time>
      </trkpt>
      <trkpt lat="45.73287" lon="6.18529">
        <ele>1320.9</ele>
        <time>2000-01-01T10:19:24.000Z</time>
      </trkpt>
      <trkpt lat="45.73293" lon="6.1853">
        <ele>1320.2</ele>
        <time>2000-01-01T10:19:34.000Z</time>
      </trkpt>
      <trkpt lat="45.73298" lon="6.1853">
        <ele>1326</ele>
        <time>2000-01-01T10:19:44.000Z</time>
      </trkpt>
      <trkpt lat="45.73302" lon="6.1853">
        <ele>1318.9</ele>
        <time>2000-01-01T10:19:54.000Z</time>
      </trkpt>
      <trkpt lat="45.73307" lon="6.1853">
        <ele>1318.2</ele>
        <time>2000-01-01T10:20:04.000Z</time>
      </trkpt>
      <trkpt lat="45.73311" lon="6.18528">
        <ele>1317.5</ele>
        <time>2000-01-01T10:20:14.000Z</time>
      </trkpt>
      <trkpt lat="45.73316" lon="6.18525">
        <ele>1316.5</ele>
        <time>2000-01-01T10:20:24.000Z</time>
      </trkpt>
      <trkpt lat="45.73321" lon="6.18524">
        <ele>1311</ele>
        <time>2000-01-01T10:20:34.000Z</time>
      </trkpt>
      <trkpt lat="45.73327" lon="6.18522">
        <ele>1314.9</ele>
        <time>2000-01-01T10:20:44.000Z</time>
      </trkpt>
      <trkpt lat="45.73335" lon="6.18522">
        <ele>1314</ele>
        <time>2000-01-01T10:20:54.000Z</time>
      </trkpt>
      <trkpt lat="45.73339" lon="6.18521">
        <ele>1313.4</ele>
        <time>2000-01-01T10:21:04.000Z</time>
      </trkpt>
      <trkpt lat="45.73343" lon="6.18521">
        <ele>1311</ele>
        <time>2000-01-01T10:21:14.000Z</time>
      </trkpt>
      <trkpt lat="45.73348" lon="6.1852">
        <ele>1312.3</ele>
        <time>2000-01-01T10:21:24.000Z</time>
      </trkpt>
      <trkpt lat="45.73352" lon="6.18519">
        <ele>1311.7</ele>
        <time>2000-01-01T10:21:34.000Z</time>
      </trkpt>
      <trkpt lat="45.73356" lon="6.18519">
        <ele>1311.3</ele>
        <time>2000-01-01T10:21:44.000Z</time>
      </trkpt>
      <trkpt lat="45.73366" lon="6.18519">
        <ele>1311</ele>
        <time>2000-01-01T10:21:54.000Z</time>
      </trkpt>
      <trkpt lat="45.7337" lon="6.18519">
        <ele>1309.6</ele>
        <time>2000-01-01T10:22:04.000Z</time>
      </trkpt>
      <trkpt lat="45.73374" lon="6.18519">
        <ele>1309</ele>
        <time>2000-01-01T10:22:14.000Z</time>
      </trkpt>
      <trkpt lat="45.73377" lon="6.18519">
        <ele>1308.6</ele>
        <time>2000-01-01T10:22:24.000Z</time>
      </trkpt>
      <trkpt lat="45.73381" lon="6.18521">
        <ele>1308.3</ele>
        <time>2000-01-01T10:22:34.000Z</time>
      </trkpt>
      <trkpt lat="45.73382" lon="6.18523">
        <ele>1308.4</ele>
        <time>2000-01-01T10:22:44.000Z</time>
      </trkpt>
      <trkpt lat="45.73387" lon="6.18524">
        <ele>1312</ele>
        <time>2000-01-01T10:22:54.000Z</time>
      </trkpt>
      <trkpt lat="45.73392" lon="6.18525">
        <ele>1307.2</ele>
        <time>2000-01-01T10:23:04.000Z</time>
      </trkpt>
      <trkpt lat="45.73396" lon="6.18528">
        <ele>1307</ele>
        <time>2000-01-01T10:23:14.000Z</time>
      </trkpt>
      <trkpt lat="45.73402" lon="6.18533">
        <ele>1306.9</ele>
        <time>2000-01-01T10:23:24.000Z</time>
      </trkpt>
      <trkpt lat="45.73405" lon="6.18534">
        <ele>1312</ele>
        <time>2000-01-01T10:23:34.000Z</time>
      </trkpt>
      <trkpt lat="45.73408" lon="6.18536">
        <ele>1306.4</ele>
        <time>2000-01-01T10:23:44.000Z</time>
      </trkpt>
      <trkpt lat="45.73417" lon="6.18546">
        <ele>1306.6</ele>
        <time>2000-01-01T10:23:54.000Z</time>
      </trkpt>
      <trkpt lat="45.73424" lon="6.18555">
        <ele>1312</ele>
        <time>2000-01-01T10:24:04.000Z</time>
      </trkpt>
      <trkpt lat="45.73434" lon="6.18574">
        <ele>1306.3</ele>
        <time>2000-01-01T10:24:14.000Z</time>
      </trkpt>
      <trkpt lat="45.73436" lon="6.1858">
        <ele>1311</ele>
        <time>2000-01-01T10:24:24.000Z</time>
      </trkpt>
      <trkpt lat="45.73438" lon="6.18584">
        <ele>1306.2</ele>
        <time>2000-01-01T10:24:34.000Z</time>
      </trkpt>
      <trkpt lat="45.7344" lon="6.1859">
        <ele>1306.8</ele>
        <time>2000-01-01T10:24:44.000Z</time>
      </trkpt>
      <trkpt lat="45.73442" lon="6.18593">
        <ele>1306.8</ele>
        <time>2000-01-01T10:24:54.000Z</time>
      </trkpt>
      <trkpt lat="45.73446" lon="6.18597">
        <ele>1306.8</ele>
        <time>2000-01-01T10:25:04.000Z</time>
      </trkpt>
      <trkpt lat="45.7345" lon="6.18599">
        <ele>1310</ele>
        <time>2000-01-01T10:25:14.000Z</time>
      </trkpt>
      <trkpt lat="45.73457" lon="6.186">
        <ele>1306.1</ele>
        <time>2000-01-01T10:25:24.000Z</time>
      </trkpt>
      <trkpt lat="45.73463" lon="6.18603">
        <ele>1306</ele>
        <time>2000-01-01T10:25:34.000Z</time>
      </trkpt>
      <trkpt lat="45.73468" lon="6.1861">
        <ele>1310</ele>
        <time>2000-01-01T10:25:44.000Z</time>
      </trkpt>
      <trkpt lat="45.73473" lon="6.18618">
        <ele>1308.6</ele>
        <time>2000-01-01T10:25:54.000Z</time>
      </trkpt>
      <trkpt lat="45.73478" lon="6.18628">
        <ele>1310</ele>
        <time>2000-01-01T10:26:04.000Z</time>
      </trkpt>
      <trkpt lat="45.73482" lon="6.18635">
        <ele>1307</ele>
        <time>2000-01-01T10:26:14.000Z</time>
      </trkpt>
      <trkpt lat="45.73485" lon="6.18642">
        <ele>1311.6</ele>
        <time>2000-01-01T10:26:24.000Z</time>
      </trkpt>
      <trkpt lat="45.73489" lon="6.18652">
        <ele>1313</ele>
        <time>2000-01-01T10:26:34.000Z</time>
      </trkpt>
      <trkpt lat="45.73491" lon="6.1866">
        <ele>1312</ele>
        <time>2000-01-01T10:26:44.000Z</time>
      </trkpt>
      <trkpt lat="45.73493" lon="6.18665">
        <ele>1314.9</ele>
        <time>2000-01-01T10:26:54.000Z</time>
      </trkpt>
      <trkpt lat="45.73498" lon="6.18669">
        <ele>1314.4</ele>
        <time>2000-01-01T10:27:04.000Z</time>
      </trkpt>
      <trkpt lat="45.73501" lon="6.18671">
        <ele>1314.2</ele>
        <time>2000-01-01T10:27:14.000Z</time>
      </trkpt>
      <trkpt lat="45.73507" lon="6.18671">
        <ele>1312</ele>
        <time>2000-01-01T10:27:24.000Z</time>
      </trkpt>
      <trkpt lat="45.73511" lon="6.18673">
        <ele>1313</ele>
        <time>2000-01-01T10:27:34.000Z</time>
      </trkpt>
      <trkpt lat="45.73516" lon="6.18678">
        <ele>1313.6</ele>
        <time>2000-01-01T10:27:44.000Z</time>
      </trkpt>
      <trkpt lat="45.7352" lon="6.18682">
        <ele>1314</ele>
        <time>2000-01-01T10:27:54.000Z</time>
      </trkpt>
      <trkpt lat="45.73525" lon="6.18683">
        <ele>1312</ele>
        <time>2000-01-01T10:28:04.000Z</time>
      </trkpt>
      <trkpt lat="45.7353" lon="6.18685">
        <ele>1312.9</ele>
        <time>2000-01-01T10:28:14.000Z</time>
      </trkpt>
      <trkpt lat="45.73537" lon="6.18686">
        <ele>1312.1</ele>
        <time>2000-01-01T10:28:24.000Z</time>
      </trkpt>
      <trkpt lat="45.73542" lon="6.18689">
        <ele>1312.1</ele>
        <time>2000-01-01T10:28:34.000Z</time>
      </trkpt>
      <trkpt lat="45.73547" lon="6.18695">
        <ele>1318</ele>
        <time>2000-01-01T10:28:44.000Z</time>
      </trkpt>
      <trkpt lat="45.73552" lon="6.18704">
        <ele>1313.3</ele>
        <time>2000-01-01T10:28:54.000Z</time>
      </trkpt>
      <trkpt lat="45.73556" lon="6.18717">
        <ele>1314.1</ele>
        <time>2000-01-01T10:29:04.000Z</time>
      </trkpt>
      <trkpt lat="45.73557" lon="6.18729">
        <ele>1322</ele>
        <time>2000-01-01T10:29:14.000Z</time>
      </trkpt>
      <trkpt lat="45.73557" lon="6.18737">
        <ele>1316.9</ele>
        <time>2000-01-01T10:29:24.000Z</time>
      </trkpt>
      <trkpt lat="45.7356" lon="6.18745">
        <ele>1317.7</ele>
        <time>2000-01-01T10:29:34.000Z</time>
      </trkpt>
      <trkpt lat="45.73565" lon="6.18752">
        <ele>1318.5</ele>
        <time>2000-01-01T10:29:44.000Z</time>
      </trkpt>
      <trkpt lat="45.73567" lon="6.18758">
        <ele>1327</ele>
        <time>2000-01-01T10:29:54.000Z</time>
      </trkpt>
      <trkpt lat="45.7357" lon="6.18764">
        <ele>1321.2</ele>
        <time>2000-01-01T10:30:04.000Z</time>
      </trkpt>
      <trkpt lat="45.73572" lon="6.18768">
        <ele>1322</ele>
        <time>2000-01-01T10:30:14.000Z</time>
      </trkpt>
      <trkpt lat="45.73576" lon="6.18772">
        <ele>1322.5</ele>
        <time>2000-01-01T10:30:24.000Z</time>
      </trkpt>
      <trkpt lat="45.73582" lon="6.18775">
        <ele>1323</ele>
        <time>2000-01-01T10:30:34.000Z</time>
      </trkpt>
      <trkpt lat="45.73587" lon="6.18774">
        <ele>1322.5</ele>
        <time>2000-01-01T10:30:44.000Z</time>
      </trkpt>
      <trkpt lat="45.73592" lon="6.18771">
        <ele>1322.5</ele>
        <time>2000-01-01T10:30:54.000Z</time>
      </trkpt>
      <trkpt lat="45.73598" lon="6.18767">
        <ele>1322.5</ele>
        <time>2000-01-01T10:31:04.000Z</time>
      </trkpt>
      <trkpt lat="45.73601" lon="6.18768">
        <ele>1324</ele>
        <time>2000-01-01T10:31:14.000Z</time>
      </trkpt>
      <trkpt lat="45.73603" lon="6.18768">
        <ele>1323.4</ele>
        <time>2000-01-01T10:31:24.000Z</time>
      </trkpt>
      <trkpt lat="45.73606" lon="6.1877">
        <ele>1324.2</ele>
        <time>2000-01-01T10:31:34.000Z</time>
      </trkpt>
      <trkpt lat="45.73612" lon="6.18776">
        <ele>1325.7</ele>
        <time>2000-01-01T10:31:44.000Z</time>
      </trkpt>
      <trkpt lat="45.73618" lon="6.18782">
        <ele>1322</ele>
        <time>2000-01-01T10:31:54.000Z</time>
      </trkpt>
      <trkpt lat="45.73625" lon="6.18785">
        <ele>1327.2</ele>
        <time>2000-01-01T10:32:04.000Z</time>
      </trkpt>
      <trkpt lat="45.73636" lon="6.18789">
        <ele>1327.6</ele>
        <time>2000-01-01T10:32:14.000Z</time>
      </trkpt>
      <trkpt lat="45.73647" lon="6.18793">
        <ele>1321</ele>
        <time>2000-01-01T10:32:24.000Z</time>
      </trkpt>
      <trkpt lat="45.73652" lon="6.18794">
        <ele>1327.1</ele>
        <time>2000-01-01T10:32:34.000Z</time>
      </trkpt>
      <trkpt lat="45.73658" lon="6.18792">
        <ele>1326</ele>
        <time>2000-01-01T10:32:44.000Z</time>
      </trkpt>
      <trkpt lat="45.73662" lon="6.18791">
        <ele>1325.4</ele>
        <time>2000-01-01T10:32:54.000Z</time>
      </trkpt>
      <trkpt lat="45.73671" lon="6.18793">
        <ele>1322</ele>
        <time>2000-01-01T10:33:04.000Z</time>
      </trkpt>
      <trkpt lat="45.73674" lon="6.18795">
        <ele>1323.9</ele>
        <time>2000-01-01T10:33:14.000Z</time>
      </trkpt>
      <trkpt lat="45.73681" lon="6.18801">
        <ele>1323.4</ele>
        <time>2000-01-01T10:33:24.000Z</time>
      </trkpt>
      <trkpt lat="45.73685" lon="6.18804">
        <ele>1323</ele>
        <time>2000-01-01T10:33:34.000Z</time>
      </trkpt>
      <trkpt lat="45.73688" lon="6.18811">
        <ele>1317</ele>
        <time>2000-01-01T10:33:44.000Z</time>
      </trkpt>
      <trkpt lat="45.73695" lon="6.18803">
        <ele>1320.4</ele>
        <time>2000-01-01T10:33:54.000Z</time>
      </trkpt>
      <trkpt lat="45.73699" lon="6.18802">
        <ele>1319.5</ele>
        <time>2000-01-01T10:34:04.000Z</time>
      </trkpt>
      <trkpt lat="45.7371" lon="6.18799">
        <ele>1317</ele>
        <time>2000-01-01T10:34:14.000Z</time>
      </trkpt>
      <trkpt lat="45.73717" lon="6.188">
        <ele>1316.2</ele>
        <time>2000-01-01T10:34:24.000Z</time>
      </trkpt>
      <trkpt lat="45.73723" lon="6.18805">
        <ele>1316.6</ele>
        <time>2000-01-01T10:34:34.000Z</time>
      </trkpt>
      <trkpt lat="45.73734" lon="6.18817">
        <ele>1318</ele>
        <time>2000-01-01T10:34:44.000Z</time>
      </trkpt>
      <trkpt lat="45.73743" lon="6.18823">
        <ele>1315.1</ele>
        <time>2000-01-01T10:34:54.000Z</time>
      </trkpt>
      <trkpt lat="45.73749" lon="6.18828">
        <ele>1314.8</ele>
        <time>2000-01-01T10:35:04.000Z</time>
      </trkpt>
      <trkpt lat="45.73754" lon="6.18829">
        <ele>1318</ele>
        <time>2000-01-01T10:35:14.000Z</time>
      </trkpt>
      <trkpt lat="45.7376" lon="6.18834">
        <ele>1313.6</ele>
        <time>2000-01-01T10:35:24.000Z</time>
      </trkpt>
      <trkpt lat="45.73771" lon="6.18841">
        <ele>1317</ele>
        <time>2000-01-01T10:35:34.000Z</time>
      </trkpt>
      <trkpt lat="45.73776" lon="6.18846">
        <ele>1312.2</ele>
        <time>2000-01-01T10:35:44.000Z</time>
      </trkpt>
      <trkpt lat="45.73782" lon="6.18848">
        <ele>1310.8</ele>
        <time>2000-01-01T10:35:54.000Z</time>
      </trkpt>
      <trkpt lat="45.73796" lon="6.18854">
        <ele>1317</ele>
        <time>2000-01-01T10:36:04.000Z</time>
      </trkpt>
      <trkpt lat="45.73809" lon="6.18858">
        <ele>1304.1</ele>
        <time>2000-01-01T10:36:14.000Z</time>
      </trkpt>
      <trkpt lat="45.73816" lon="6.18861">
        <ele>1305</ele>
        <time>2000-01-01T10:36:24.000Z</time>
      </trkpt>
      <trkpt lat="45.73824" lon="6.18865">
        <ele>1300.2</ele>
        <time>2000-01-01T10:36:34.000Z</time>
      </trkpt>
      <trkpt lat="45.7383" lon="6.18868">
        <ele>1298.7</ele>
        <time>2000-01-01T10:36:44.000Z</time>
      </trkpt>
      <trkpt lat="45.73838" lon="6.18871">
        <ele>1290</ele>
        <time>2000-01-01T10:36:54.000Z</time>
      </trkpt>
      <trkpt lat="45.73845" lon="6.18876">
        <ele>1295.2</ele>
        <time>2000-01-01T10:37:04.000Z</time>
      </trkpt>
      <trkpt lat="45.73853" lon="6.18883">
        <ele>1293.8</ele>
        <time>2000-01-01T10:37:14.000Z</time>
      </trkpt>
      <trkpt lat="45.73861" lon="6.18888">
        <ele>1286</ele>
        <time>2000-01-01T10:37:24.000Z</time>
      </trkpt>
      <trkpt lat="45.73867" lon="6.18891">
        <ele>1290.5</ele>
        <time>2000-01-01T10:37:34.000Z</time>
      </trkpt>
      <trkpt lat="45.73874" lon="6.18893">
        <ele>1288.6</ele>
        <time>2000-01-01T10:37:44.000Z</time>
      </trkpt>
      <trkpt lat="45.7388" lon="6.18895">
        <ele>1279</ele>
        <time>2000-01-01T10:37:54.000Z</time>
      </trkpt>
      <trkpt lat="45.73885" lon="6.18896">
        <ele>1285.5</ele>
        <time>2000-01-01T10:38:04.000Z</time>
      </trkpt>
      <trkpt lat="45.73892" lon="6.189">
        <ele>1283.3</ele>
        <time>2000-01-01T10:38:14.000Z</time>
      </trkpt>
      <trkpt lat="45.739" lon="6.18905">
        <ele>1279</ele>
        <time>2000-01-01T10:38:24.000Z</time>
      </trkpt>
      <trkpt lat="45.73903" lon="6.18909">
        <ele>1278.6</ele>
        <time>2000-01-01T10:38:34.000Z</time>
      </trkpt>
      <trkpt lat="45.73908" lon="6.18914">
        <ele>1276.6</ele>
        <time>2000-01-01T10:38:44.000Z</time>
      </trkpt>
      <trkpt lat="45.73913" lon="6.18917">
        <ele>1274.1</ele>
        <time>2000-01-01T10:38:54.000Z</time>
      </trkpt>
      <trkpt lat="45.73916" lon="6.18919">
        <ele>1272.5</ele>
        <time>2000-01-01T10:39:04.000Z</time>
      </trkpt>
      <trkpt lat="45.73917" lon="6.18923">
        <ele>1279</ele>
        <time>2000-01-01T10:39:14.000Z</time>
      </trkpt>
      <trkpt lat="45.73916" lon="6.18929">
        <ele>1272.8</ele>
        <time>2000-01-01T10:39:24.000Z</time>
      </trkpt>
      <trkpt lat="45.73915" lon="6.18938">
        <ele>1273.8</ele>
        <time>2000-01-01T10:39:34.000Z</time>
      </trkpt>
      <trkpt lat="45.73916" lon="6.18941">
        <ele>1273.3</ele>
        <time>2000-01-01T10:39:44.000Z</time>
      </trkpt>
      <trkpt lat="45.7392" lon="6.18943">
        <ele>1273</ele>
        <time>2000-01-01T10:39:54.000Z</time>
      </trkpt>
      <trkpt lat="45.73924" lon="6.18943">
        <ele>1274</ele>
        <time>2000-01-01T10:40:04.000Z</time>
      </trkpt>
      <trkpt lat="45.7393" lon="6.1894">
        <ele>1272.5</ele>
        <time>2000-01-01T10:40:14.000Z</time>
      </trkpt>
      <trkpt lat="45.73932" lon="6.18937">
        <ele>1271.7</ele>
        <time>2000-01-01T10:40:24.000Z</time>
      </trkpt>
      <trkpt lat="45.73939" lon="6.18934">
        <ele>1270.1</ele>
        <time>2000-01-01T10:40:34.000Z</time>
      </trkpt>
      <trkpt lat="45.73947" lon="6.18931">
        <ele>1270</ele>
        <time>2000-01-01T10:40:44.000Z</time>
      </trkpt>
      <trkpt lat="45.73952" lon="6.18929">
        <ele>1266.8</ele>
        <time>2000-01-01T10:40:54.000Z</time>
      </trkpt>
      <trkpt lat="45.73955" lon="6.1893">
        <ele>1266.9</ele>
        <time>2000-01-01T10:41:04.000Z</time>
      </trkpt>
      <trkpt lat="45.7396" lon="6.18933">
        <ele>1267.2</ele>
        <time>2000-01-01T10:41:14.000Z</time>
      </trkpt>
      <trkpt lat="45.73964" lon="6.18938">
        <ele>1271</ele>
        <time>2000-01-01T10:41:24.000Z</time>
      </trkpt>
      <trkpt lat="45.7397" lon="6.18942">
        <ele>1267.2</ele>
        <time>2000-01-01T10:41:34.000Z</time>
      </trkpt>
      <trkpt lat="45.73974" lon="6.18946">
        <ele>1266.8</ele>
        <time>2000-01-01T10:41:44.000Z</time>
      </trkpt>
      <trkpt lat="45.73976" lon="6.18951">
        <ele>1267</ele>
        <time>2000-01-01T10:41:54.000Z</time>
      </trkpt>
      <trkpt lat="45.73982" lon="6.18955">
        <ele>1267</ele>
        <time>2000-01-01T10:42:04.000Z</time>
      </trkpt>
      <trkpt lat="45.73985" lon="6.18959">
        <ele>1265.6</ele>
        <time>2000-01-01T10:42:14.000Z</time>
      </trkpt>
      <trkpt lat="45.73989" lon="6.18965">
        <ele>1265.3</ele>
        <time>2000-01-01T10:42:24.000Z</time>
      </trkpt>
      <trkpt lat="45.73993" lon="6.18969">
        <ele>1264.6</ele>
        <time>2000-01-01T10:42:34.000Z</time>
      </trkpt>
      <trkpt lat="45.73996" lon="6.18972">
        <ele>1264.1</ele>
        <time>2000-01-01T10:42:44.000Z</time>
      </trkpt>
      <trkpt lat="45.73999" lon="6.18973">
        <ele>1264</ele>
        <time>2000-01-01T10:42:54.000Z</time>
      </trkpt>
      <trkpt lat="45.74001" lon="6.18973">
        <ele>1262.9</ele>
        <time>2000-01-01T10:43:04.000Z</time>
      </trkpt>
      <trkpt lat="45.74004" lon="6.18975">
        <ele>1262.6</ele>
        <time>2000-01-01T10:43:14.000Z</time>
      </trkpt>
      <trkpt lat="45.74008" lon="6.18979">
        <ele>1262.3</ele>
        <time>2000-01-01T10:43:24.000Z</time>
      </trkpt>
      <trkpt lat="45.74013" lon="6.18982">
        <ele>1261.5</ele>
        <time>2000-01-01T10:43:34.000Z</time>
      </trkpt>
      <trkpt lat="45.74019" lon="6.18988">
        <ele>1264</ele>
        <time>2000-01-01T10:43:44.000Z</time>
      </trkpt>
      <trkpt lat="45.74023" lon="6.1899">
        <ele>1260</ele>
        <time>2000-01-01T10:43:54.000Z</time>
      </trkpt>
      <trkpt lat="45.74024" lon="6.18991">
        <ele>1259.8</ele>
        <time>2000-01-01T10:44:04.000Z</time>
      </trkpt>
      <trkpt lat="45.74027" lon="6.1899">
        <ele>1258.8</ele>
        <time>2000-01-01T10:44:14.000Z</time>
      </trkpt>
      <trkpt lat="45.74038" lon="6.18994">
        <ele>1259</ele>
        <time>2000-01-01T10:44:24.000Z</time>
      </trkpt>
      <trkpt lat="45.74043" lon="6.18994">
        <ele>1256.3</ele>
        <time>2000-01-01T10:44:34.000Z</time>
      </trkpt>
      <trkpt lat="45.74048" lon="6.18998">
        <ele>1256</ele>
        <time>2000-01-01T10:44:44.000Z</time>
      </trkpt>
      <trkpt lat="45.74056" lon="6.19004">
        <ele>1258</ele>
        <time>2000-01-01T10:44:54.000Z</time>
      </trkpt>
      <trkpt lat="45.74062" lon="6.19013">
        <ele>1255.9</ele>
        <time>2000-01-01T10:45:04.000Z</time>
      </trkpt>
      <trkpt lat="45.74069" lon="6.19021">
        <ele>1256.1</ele>
        <time>2000-01-01T10:45:14.000Z</time>
      </trkpt>
      <trkpt lat="45.7408" lon="6.19032">
        <ele>1257</ele>
        <time>2000-01-01T10:45:24.000Z</time>
      </trkpt>
      <trkpt lat="45.74094" lon="6.19041">
        <ele>1256.7</ele>
        <time>2000-01-01T10:45:34.000Z</time>
      </trkpt>
      <trkpt lat="45.74106" lon="6.19049">
        <ele>1259</ele>
        <time>2000-01-01T10:45:44.000Z</time>
      </trkpt>
      <trkpt lat="45.74114" lon="6.19052">
        <ele>1255.5</ele>
        <time>2000-01-01T10:45:54.000Z</time>
      </trkpt>
      <trkpt lat="45.74124" lon="6.19059">
        <ele>1261</ele>
        <time>2000-01-01T10:46:04.000Z</time>
      </trkpt>
      <trkpt lat="45.74132" lon="6.19065">
        <ele>1253.8</ele>
        <time>2000-01-01T10:46:14.000Z</time>
      </trkpt>
      <trkpt lat="45.74135" lon="6.19072">
        <ele>1253.9</ele>
        <time>2000-01-01T10:46:24.000Z</time>
      </trkpt>
      <trkpt lat="45.74136" lon="6.1908">
        <ele>1262</ele>
        <time>2000-01-01T10:46:34.000Z</time>
      </trkpt>
      <trkpt lat="45.74142" lon="6.19088">
        <ele>1254.5</ele>
        <time>2000-01-01T10:46:44.000Z</time>
      </trkpt>
      <trkpt lat="45.74149" lon="6.1909">
        <ele>1253.6</ele>
        <time>2000-01-01T10:46:54.000Z</time>
      </trkpt>
      <trkpt lat="45.74158" lon="6.19091">
        <ele>1262</ele>
        <time>2000-01-01T10:47:04.000Z</time>
      </trkpt>
      <trkpt lat="45.74166" lon="6.19094">
        <ele>1251.2</ele>
        <time>2000-01-01T10:47:14.000Z</time>
      </trkpt>
      <trkpt lat="45.74176" lon="6.19098">
        <ele>1248.8</ele>
        <time>2000-01-01T10:47:24.000Z</time>
      </trkpt>
      <trkpt lat="45.74181" lon="6.19111">
        <ele>1254</ele>
        <time>2000-01-01T10:47:34.000Z</time>
      </trkpt>
      <trkpt lat="45.74186" lon="6.19121">
        <ele>1249.7</ele>
        <time>2000-01-01T10:47:44.000Z</time>
      </trkpt>
      <trkpt lat="45.74187" lon="6.19129">
        <ele>1250.9</ele>
        <time>2000-01-01T10:47:54.000Z</time>
      </trkpt>
      <trkpt lat="45.74195" lon="6.19136">
        <ele>1254</ele>
        <time>2000-01-01T10:48:04.000Z</time>
      </trkpt>
      <trkpt lat="45.74227" lon="6.19157">
        <ele>1248</ele>
        <time>2000-01-01T10:48:14.000Z</time>
      </trkpt>
      <trkpt lat="45.74242" lon="6.19175">
        <ele>1249</ele>
        <time>2000-01-01T10:48:24.000Z</time>
      </trkpt>
      <trkpt lat="45.74259" lon="6.19203">
        <ele>1251</ele>
        <time>2000-01-01T10:48:34.000Z</time>
      </trkpt>
      <trkpt lat="45.74275" lon="6.19229">
        <ele>1251</ele>
        <time>2000-01-01T10:48:44.000Z</time>
      </trkpt>
      <trkpt lat="45.7429" lon="6.19256">
        <ele>1252</ele>
        <time>2000-01-01T10:48:54.000Z</time>
      </trkpt>
      <trkpt lat="45.74308" lon="6.19288">
        <ele>1249</ele>
        <time>2000-01-01T10:49:04.000Z</time>
      </trkpt>
      <trkpt lat="45.74321" lon="6.19318">
        <ele>1257</ele>
        <time>2000-01-01T10:49:14.000Z</time>
      </trkpt>
      <trkpt lat="45.7434" lon="6.19364">
        <ele>1266</ele>
        <time>2000-01-01T10:49:24.000Z</time>
      </trkpt>
      <trkpt lat="45.74361" lon="6.19419">
        <ele>1267</ele>
        <time>2000-01-01T10:49:34.000Z</time>
      </trkpt>
      <trkpt lat="45.74369" lon="6.19432">
        <ele>1250.3</ele>
        <time>2000-01-01T10:49:44.000Z</time>
      </trkpt>
      <trkpt lat="45.74379" lon="6.19448">
        <ele>1269</ele>
        <time>2000-01-01T10:49:54.000Z</time>
      </trkpt>
      <trkpt lat="45.74388" lon="6.19458">
        <ele>1244.5</ele>
        <time>2000-01-01T10:50:04.000Z</time>
      </trkpt>
      <trkpt lat="45.74398" lon="6.19467">
        <ele>1265</ele>
        <time>2000-01-01T10:50:14.000Z</time>
      </trkpt>
      <trkpt lat="45.74417" lon="6.19476">
        <ele>1261</ele>
        <time>2000-01-01T10:50:24.000Z</time>
      </trkpt>
      <trkpt lat="45.74436" lon="6.19483">
        <ele>1261</ele>
        <time>2000-01-01T10:50:34.000Z</time>
      </trkpt>
      <trkpt lat="45.74465" lon="6.19494">
        <ele>1260</ele>
        <time>2000-01-01T10:50:44.000Z</time>
      </trkpt>
      <trkpt lat="45.74483" lon="6.19503">
        <ele>1260</ele>
        <time>2000-01-01T10:50:54.000Z</time>
      </trkpt>
      <trkpt lat="45.74506" lon="6.19513">
        <ele>1259</ele>
        <time>2000-01-01T10:51:04.000Z</time>
      </trkpt>
      <trkpt lat="45.74531" lon="6.19529">
        <ele>1259</ele>
        <time>2000-01-01T10:51:14.000Z</time>
      </trkpt>
      <trkpt lat="45.74566" lon="6.19552">
        <ele>1259</ele>
        <time>2000-01-01T10:51:24.000Z</time>
      </trkpt>
      <trkpt lat="45.74594" lon="6.19571">
        <ele>1260</ele>
        <time>2000-01-01T10:51:34.000Z</time>
      </trkpt>
      <trkpt lat="45.74627" lon="6.19598">
        <ele>1258</ele>
        <time>2000-01-01T10:51:44.000Z</time>
      </trkpt>
      <trkpt lat="45.74647" lon="6.19614">
        <ele>1258</ele>
        <time>2000-01-01T10:51:54.000Z</time>
      </trkpt>
      <trkpt lat="45.74673" lon="6.19638">
        <ele>1258</ele>
        <time>2000-01-01T10:52:04.000Z</time>
      </trkpt>
      <trkpt lat="45.7469" lon="6.19658">
        <ele>1250</ele>
        <time>2000-01-01T10:52:14.000Z</time>
      </trkpt>
      <trkpt lat="45.74692" lon="6.19655">
        <ele>1226.9</ele>
        <time>2000-01-01T10:52:24.000Z</time>
      </trkpt>
      <trkpt lat="45.74696" lon="6.19653">
        <ele>1224.5</ele>
        <time>2000-01-01T10:52:34.000Z</time>
      </trkpt>
      <trkpt lat="45.74702" lon="6.19655">
        <ele>1222.9</ele>
        <time>2000-01-01T10:52:44.000Z</time>
      </trkpt>
      <trkpt lat="45.7471" lon="6.19659">
        <ele>1250</ele>
        <time>2000-01-01T10:52:54.000Z</time>
      </trkpt>
      <trkpt lat="45.74722" lon="6.19671">
        <ele>1220.6</ele>
        <time>2000-01-01T10:53:04.000Z</time>
      </trkpt>
      <trkpt lat="45.74737" lon="6.19693">
        <ele>1246</ele>
        <time>2000-01-01T10:53:14.000Z</time>
      </trkpt>
      <trkpt lat="45.74752" lon="6.19707">
        <ele>1220.5</ele>
        <time>2000-01-01T10:53:24.000Z</time>
      </trkpt>
      <trkpt lat="45.74778" lon="6.19734">
        <ele>1245</ele>
        <time>2000-01-01T10:53:34.000Z</time>
      </trkpt>
      <trkpt lat="45.74801" lon="6.19756">
        <ele>1245</ele>
        <time>2000-01-01T10:53:44.000Z</time>
      </trkpt>
      <trkpt lat="45.74821" lon="6.19782">
        <ele>1242</ele>
        <time>2000-01-01T10:53:54.000Z</time>
      </trkpt>
      <trkpt lat="45.74834" lon="6.19799">
        <ele>1215.7</ele>
        <time>2000-01-01T10:54:04.000Z</time>
      </trkpt>
      <trkpt lat="45.7484" lon="6.19807">
        <ele>1240</ele>
        <time>2000-01-01T10:54:14.000Z</time>
      </trkpt>
      <trkpt lat="45.74848" lon="6.19818">
        <ele>1212.4</ele>
        <time>2000-01-01T10:54:24.000Z</time>
      </trkpt>
      <trkpt lat="45.74843" lon="6.19796">
        <ele>1236</ele>
        <time>2000-01-01T10:54:34.000Z</time>
      </trkpt>
      <trkpt lat="45.74838" lon="6.19764">
        <ele>1233</ele>
        <time>2000-01-01T10:54:44.000Z</time>
      </trkpt>
      <trkpt lat="45.74837" lon="6.19746">
        <ele>1202.5</ele>
        <time>2000-01-01T10:54:54.000Z</time>
      </trkpt>
      <trkpt lat="45.74833" lon="6.19729">
        <ele>1229</ele>
        <time>2000-01-01T10:55:04.000Z</time>
      </trkpt>
      <trkpt lat="45.74829" lon="6.19714">
        <ele>1198.5</ele>
        <time>2000-01-01T10:55:14.000Z</time>
      </trkpt>
      <trkpt lat="45.74822" lon="6.19701">
        <ele>1221</ele>
        <time>2000-01-01T10:55:24.000Z</time>
      </trkpt>
      <trkpt lat="45.74814" lon="6.19689">
        <ele>1196.2</ele>
        <time>2000-01-01T10:55:34.000Z</time>
      </trkpt>
      <trkpt lat="45.74809" lon="6.19665">
        <ele>1215</ele>
        <time>2000-01-01T10:55:44.000Z</time>
      </trkpt>
      <trkpt lat="45.74804" lon="6.19639">
        <ele>1186.1</ele>
        <time>2000-01-01T10:55:54.000Z</time>
      </trkpt>
      <trkpt lat="45.74804" lon="6.19627">
        <ele>1208</ele>
        <time>2000-01-01T10:56:04.000Z</time>
      </trkpt>
      <trkpt lat="45.74817" lon="6.19627">
        <ele>1177</ele>
        <time>2000-01-01T10:56:14.000Z</time>
      </trkpt>
      <trkpt lat="45.74837" lon="6.1964">
        <ele>1201</ele>
        <time>2000-01-01T10:56:24.000Z</time>
      </trkpt>
      <trkpt lat="45.74859" lon="6.19654">
        <ele>1196</ele>
        <time>2000-01-01T10:56:34.000Z</time>
      </trkpt>
      <trkpt lat="45.74882" lon="6.1967">
        <ele>1197</ele>
        <time>2000-01-01T10:56:44.000Z</time>
      </trkpt>
      <trkpt lat="45.749" lon="6.19694">
        <ele>1192</ele>
        <time>2000-01-01T10:56:54.000Z</time>
      </trkpt>
      <trkpt lat="45.74913" lon="6.19717">
        <ele>1192</ele>
        <time>2000-01-01T10:57:04.000Z</time>
      </trkpt>
      <trkpt lat="45.74926" lon="6.19757">
        <ele>1192</ele>
        <time>2000-01-01T10:57:14.000Z</time>
      </trkpt>
      <trkpt lat="45.74938" lon="6.19779">
        <ele>1189</ele>
        <time>2000-01-01T10:57:24.000Z</time>
      </trkpt>
      <trkpt lat="45.74946" lon="6.19792">
        <ele>1153.3</ele>
        <time>2000-01-01T10:57:34.000Z</time>
      </trkpt>
      <trkpt lat="45.74955" lon="6.19797">
        <ele>1186</ele>
        <time>2000-01-01T10:57:44.000Z</time>
      </trkpt>
      <trkpt lat="45.74958" lon="6.19789">
        <ele>1146.8</ele>
        <time>2000-01-01T10:57:54.000Z</time>
      </trkpt>
      <trkpt lat="45.74954" lon="6.19761">
        <ele>1178</ele>
        <time>2000-01-01T10:58:04.000Z</time>
      </trkpt>
      <trkpt lat="45.74949" lon="6.19736">
        <ele>1143.1</ele>
        <time>2000-01-01T10:58:14.000Z</time>
      </trkpt>
      <trkpt lat="45.74944" lon="6.19706">
        <ele>1166</ele>
        <time>2000-01-01T10:58:24.000Z</time>
      </trkpt>
      <trkpt lat="45.74944" lon="6.1969">
        <ele>1139.6</ele>
        <time>2000-01-01T10:58:34.000Z</time>
      </trkpt>
      <trkpt lat="45.74946" lon="6.19686">
        <ele>1138</ele>
        <time>2000-01-01T10:58:44.000Z</time>
      </trkpt>
      <trkpt lat="45.74951" lon="6.19688">
        <ele>1159</ele>
        <time>2000-01-01T10:58:54.000Z</time>
      </trkpt>
      <trkpt lat="45.74958" lon="6.19695">
        <ele>1133.7</ele>
        <time>2000-01-01T10:59:04.000Z</time>
      </trkpt>
      <trkpt lat="45.74979" lon="6.19723">
        <ele>1154</ele>
        <time>2000-01-01T10:59:14.000Z</time>
      </trkpt>
      <trkpt lat="45.74995" lon="6.19747">
        <ele>1156</ele>
        <time>2000-01-01T10:59:24.000Z</time>
      </trkpt>
      <trkpt lat="45.75005" lon="6.19759">
        <ele>1121</ele>
        <time>2000-01-01T10:59:34.000Z</time>
      </trkpt>
      <trkpt lat="45.75013" lon="6.19777">
        <ele>1154</ele>
        <time>2000-01-01T10:59:44.000Z</time>
      </trkpt>
      <trkpt lat="45.75018" lon="6.19797">
        <ele>1114.8</ele>
        <time>2000-01-01T10:59:54.000Z</time>
      </trkpt>
      <trkpt lat="45.7502" lon="6.1981">
        <ele>1153</ele>
        <time>2000-01-01T11:00:04.000Z</time>
      </trkpt>
      <trkpt lat="45.75022" lon="6.19814">
        <ele>1111</ele>
        <time>2000-01-01T11:00:14.000Z</time>
      </trkpt>
      <trkpt lat="45.75026" lon="6.19814">
        <ele>1108.5</ele>
        <time>2000-01-01T11:00:24.000Z</time>
      </trkpt>
      <trkpt lat="45.75028" lon="6.19814">
        <ele>1107.3</ele>
        <time>2000-01-01T11:00:34.000Z</time>
      </trkpt>
      <trkpt lat="45.75037" lon="6.19803">
        <ele>1153</ele>
        <time>2000-01-01T11:00:44.000Z</time>
      </trkpt>
      <trkpt lat="45.75042" lon="6.19782">
        <ele>1101.8</ele>
        <time>2000-01-01T11:00:54.000Z</time>
      </trkpt>
      <trkpt lat="45.7504" lon="6.19745">
        <ele>1138</ele>
        <time>2000-01-01T11:01:04.000Z</time>
      </trkpt>
      <trkpt lat="45.75037" lon="6.19719">
        <ele>1100.2</ele>
        <time>2000-01-01T11:01:14.000Z</time>
      </trkpt>
      <trkpt lat="45.75037" lon="6.19704">
        <ele>1129</ele>
        <time>2000-01-01T11:01:24.000Z</time>
      </trkpt>
      <trkpt lat="45.75037" lon="6.19692">
        <ele>1094</ele>
        <time>2000-01-01T11:01:34.000Z</time>
      </trkpt>
      <trkpt lat="45.75038" lon="6.19682">
        <ele>1092.2</ele>
        <time>2000-01-01T11:01:44.000Z</time>
      </trkpt>
      <trkpt lat="45.75044" lon="6.19682">
        <ele>1125</ele>
        <time>2000-01-01T11:01:54.000Z</time>
      </trkpt>
      <trkpt lat="45.75057" lon="6.19693">
        <ele>1088.2</ele>
        <time>2000-01-01T11:02:04.000Z</time>
      </trkpt>
      <trkpt lat="45.75072" lon="6.19717">
        <ele>1108</ele>
        <time>2000-01-01T11:02:14.000Z</time>
      </trkpt>
      <trkpt lat="45.7508" lon="6.19735">
        <ele>1080.3</ele>
        <time>2000-01-01T11:02:24.000Z</time>
      </trkpt>
      <trkpt lat="45.75088" lon="6.19746">
        <ele>1102</ele>
        <time>2000-01-01T11:02:34.000Z</time>
      </trkpt>
      <trkpt lat="45.75093" lon="6.19749">
        <ele>1072.8</ele>
        <time>2000-01-01T11:02:44.000Z</time>
      </trkpt>
      <trkpt lat="45.75094" lon="6.19747">
        <ele>1072.4</ele>
        <time>2000-01-01T11:02:54.000Z</time>
      </trkpt>
      <trkpt lat="45.751" lon="6.19726">
        <ele>1093</ele>
        <time>2000-01-01T11:03:04.000Z</time>
      </trkpt>
      <trkpt lat="45.75111" lon="6.19698">
        <ele>1091</ele>
        <time>2000-01-01T11:03:14.000Z</time>
      </trkpt>
      <trkpt lat="45.75124" lon="6.19662">
        <ele>1089</ele>
        <time>2000-01-01T11:03:24.000Z</time>
      </trkpt>
      <trkpt lat="45.7512" lon="6.19631">
        <ele>1086</ele>
        <time>2000-01-01T11:03:34.000Z</time>
      </trkpt>
      <trkpt lat="45.75111" lon="6.19601">
        <ele>1077</ele>
        <time>2000-01-01T11:03:44.000Z</time>
      </trkpt>
      <trkpt lat="45.75099" lon="6.19575">
        <ele>1076</ele>
        <time>2000-01-01T11:03:54.000Z</time>
      </trkpt>
      <trkpt lat="45.7509" lon="6.19554">
        <ele>1049.7</ele>
        <time>2000-01-01T11:04:04.000Z</time>
      </trkpt>
      <trkpt lat="45.75072" lon="6.1952">
        <ele>1070</ele>
        <time>2000-01-01T11:04:14.000Z</time>
      </trkpt>
      <trkpt lat="45.75063" lon="6.19495">
        <ele>1064</ele>
        <time>2000-01-01T11:04:24.000Z</time>
      </trkpt>
      <trkpt lat="45.75059" lon="6.19472">
        <ele>1045</ele>
        <time>2000-01-01T11:04:34.000Z</time>
      </trkpt>
      <trkpt lat="45.75062" lon="6.19472">
        <ele>1061</ele>
        <time>2000-01-01T11:04:44.000Z</time>
      </trkpt>
      <trkpt lat="45.75076" lon="6.19485">
        <ele>1042</ele>
        <time>2000-01-01T11:04:54.000Z</time>
      </trkpt>
      <trkpt lat="45.75093" lon="6.19502">
        <ele>1054</ele>
        <time>2000-01-01T11:05:04.000Z</time>
      </trkpt>
      <trkpt lat="45.75102" lon="6.19512">
        <ele>1036.1</ele>
        <time>2000-01-01T11:05:14.000Z</time>
      </trkpt>
      <trkpt lat="45.75108" lon="6.19514">
        <ele>1034.3</ele>
        <time>2000-01-01T11:05:24.000Z</time>
      </trkpt>
      <trkpt lat="45.75118" lon="6.19513">
        <ele>1049</ele>
        <time>2000-01-01T11:05:34.000Z</time>
      </trkpt>
      <trkpt lat="45.75122" lon="6.19511">
        <ele>1030.8</ele>
        <time>2000-01-01T11:05:44.000Z</time>
      </trkpt>
      <trkpt lat="45.75131" lon="6.19505">
        <ele>1027.7</ele>
        <time>2000-01-01T11:05:54.000Z</time>
      </trkpt>
      <trkpt lat="45.75155" lon="6.19498">
        <ele>1045</ele>
        <time>2000-01-01T11:06:04.000Z</time>
      </trkpt>
      <trkpt lat="45.75191" lon="6.19507">
        <ele>1040</ele>
        <time>2000-01-01T11:06:14.000Z</time>
      </trkpt>
      <trkpt lat="45.75213" lon="6.1952">
        <ele>1036</ele>
        <time>2000-01-01T11:06:24.000Z</time>
      </trkpt>
      <trkpt lat="45.75238" lon="6.19532">
        <ele>1036</ele>
        <time>2000-01-01T11:06:34.000Z</time>
      </trkpt>
      <trkpt lat="45.75257" lon="6.19532">
        <ele>1025</ele>
        <time>2000-01-01T11:06:44.000Z</time>
      </trkpt>
      <trkpt lat="45.75276" lon="6.19524">
        <ele>1003</ele>
        <time>2000-01-01T11:06:54.000Z</time>
      </trkpt>
      <trkpt lat="45.75294" lon="6.19507">
        <ele>993</ele>
        <time>2000-01-01T11:07:04.000Z</time>
      </trkpt>
      <trkpt lat="45.75307" lon="6.19493">
        <ele>995.2</ele>
        <time>2000-01-01T11:07:14.000Z</time>
      </trkpt>
      <trkpt lat="45.75324" lon="6.19485">
        <ele>977</ele>
        <time>2000-01-01T11:07:24.000Z</time>
      </trkpt>
      <trkpt lat="45.7534" lon="6.19475">
        <ele>986.4</ele>
        <time>2000-01-01T11:07:34.000Z</time>
      </trkpt>
      <trkpt lat="45.75353" lon="6.19465">
        <ele>972</ele>
        <time>2000-01-01T11:07:44.000Z</time>
      </trkpt>
      <trkpt lat="45.75366" lon="6.19449">
        <ele>976.7</ele>
        <time>2000-01-01T11:07:54.000Z</time>
      </trkpt>
      <trkpt lat="45.75374" lon="6.19448">
        <ele>970</ele>
        <time>2000-01-01T11:08:04.000Z</time>
      </trkpt>
      <trkpt lat="45.75388" lon="6.19449">
        <ele>970.9</ele>
        <time>2000-01-01T11:08:14.000Z</time>
      </trkpt>
      <trkpt lat="45.75402" lon="6.19456">
        <ele>969</ele>
        <time>2000-01-01T11:08:24.000Z</time>
      </trkpt>
      <trkpt lat="45.75408" lon="6.19457">
        <ele>964</ele>
        <time>2000-01-01T11:08:34.000Z</time>
      </trkpt>
      <trkpt lat="45.75418" lon="6.1946">
        <ele>960</ele>
        <time>2000-01-01T11:08:44.000Z</time>
      </trkpt>
      <trkpt lat="45.75427" lon="6.19467">
        <ele>965</ele>
        <time>2000-01-01T11:08:54.000Z</time>
      </trkpt>
      <trkpt lat="45.75433" lon="6.19469">
        <ele>954.9</ele>
        <time>2000-01-01T11:09:04.000Z</time>
      </trkpt>
      <trkpt lat="45.75441" lon="6.19474">
        <ele>952</ele>
        <time>2000-01-01T11:09:14.000Z</time>
      </trkpt>
      <trkpt lat="45.75447" lon="6.19486">
        <ele>957</ele>
        <time>2000-01-01T11:09:24.000Z</time>
      </trkpt>
      <trkpt lat="45.75448" lon="6.19503">
        <ele>944.5</ele>
        <time>2000-01-01T11:09:34.000Z</time>
      </trkpt>
      <trkpt lat="45.75446" lon="6.1953">
        <ele>954</ele>
        <time>2000-01-01T11:09:44.000Z</time>
      </trkpt>
      <trkpt lat="45.75446" lon="6.19553">
        <ele>932.9</ele>
        <time>2000-01-01T11:09:54.000Z</time>
      </trkpt>
      <trkpt lat="45.75445" lon="6.19586">
        <ele>945</ele>
        <time>2000-01-01T11:10:04.000Z</time>
      </trkpt>
      <trkpt lat="45.75449" lon="6.19629">
        <ele>934</ele>
        <time>2000-01-01T11:10:14.000Z</time>
      </trkpt>
      <trkpt lat="45.75451" lon="6.19658">
        <ele>928</ele>
        <time>2000-01-01T11:10:24.000Z</time>
      </trkpt>
      <trkpt lat="45.75454" lon="6.19672">
        <ele>912.6</ele>
        <time>2000-01-01T11:10:34.000Z</time>
      </trkpt>
      <trkpt lat="45.75456" lon="6.19682">
        <ele>911.8</ele>
        <time>2000-01-01T11:10:44.000Z</time>
      </trkpt>
      <trkpt lat="45.75462" lon="6.19702">
        <ele>918</ele>
        <time>2000-01-01T11:10:54.000Z</time>
      </trkpt>
      <trkpt lat="45.75471" lon="6.19727">
        <ele>915</ele>
        <time>2000-01-01T11:11:04.000Z</time>
      </trkpt>
      <trkpt lat="45.75475" lon="6.19735">
        <ele>906.3</ele>
        <time>2000-01-01T11:11:14.000Z</time>
      </trkpt>
      <trkpt lat="45.75482" lon="6.1974">
        <ele>904.9</ele>
        <time>2000-01-01T11:11:24.000Z</time>
      </trkpt>
      <trkpt lat="45.75489" lon="6.19746">
        <ele>913</ele>
        <time>2000-01-01T11:11:34.000Z</time>
      </trkpt>
      <trkpt lat="45.75504" lon="6.19761">
        <ele>901.5</ele>
        <time>2000-01-01T11:11:44.000Z</time>
      </trkpt>
      <trkpt lat="45.75515" lon="6.19768">
        <ele>908</ele>
        <time>2000-01-01T11:11:54.000Z</time>
      </trkpt>
      <trkpt lat="45.75525" lon="6.19771">
        <ele>897</ele>
        <time>2000-01-01T11:12:04.000Z</time>
      </trkpt>
      <trkpt lat="45.75546" lon="6.19774">
        <ele>905</ele>
        <time>2000-01-01T11:12:14.000Z</time>
      </trkpt>
      <trkpt lat="45.75568" lon="6.19772">
        <ele>899</ele>
        <time>2000-01-01T11:12:24.000Z</time>
      </trkpt>
      <trkpt lat="45.75582" lon="6.19772">
        <ele>881.1</ele>
        <time>2000-01-01T11:12:34.000Z</time>
      </trkpt>
      <trkpt lat="45.75598" lon="6.19781">
        <ele>892</ele>
        <time>2000-01-01T11:12:44.000Z</time>
      </trkpt>
      <trkpt lat="45.75608" lon="6.19788">
        <ele>875</ele>
        <time>2000-01-01T11:12:54.000Z</time>
      </trkpt>
      <trkpt lat="45.75617" lon="6.19794">
        <ele>888</ele>
        <time>2000-01-01T11:13:04.000Z</time>
      </trkpt>
      <trkpt lat="45.75629" lon="6.19804">
        <ele>871.6</ele>
        <time>2000-01-01T11:13:14.000Z</time>
      </trkpt>
      <trkpt lat="45.75647" lon="6.19815">
        <ele>887</ele>
        <time>2000-01-01T11:13:24.000Z</time>
      </trkpt>
      <trkpt lat="45.75662" lon="6.19821">
        <ele>865.6</ele>
        <time>2000-01-01T11:13:34.000Z</time>
      </trkpt>
      <trkpt lat="45.75674" lon="6.19829">
        <ele>879</ele>
        <time>2000-01-01T11:13:44.000Z</time>
      </trkpt>
      <trkpt lat="45.75681" lon="6.19836">
        <ele>863.2</ele>
        <time>2000-01-01T11:13:54.000Z</time>
      </trkpt>
      <trkpt lat="45.75691" lon="6.1985">
        <ele>873</ele>
        <time>2000-01-01T11:14:04.000Z</time>
      </trkpt>
      <trkpt lat="45.75695" lon="6.1987">
        <ele>858.1</ele>
        <time>2000-01-01T11:14:14.000Z</time>
      </trkpt>
      <trkpt lat="45.75698" lon="6.19882">
        <ele>870</ele>
        <time>2000-01-01T11:14:24.000Z</time>
      </trkpt>
      <trkpt lat="45.75703" lon="6.19892">
        <ele>851.1</ele>
        <time>2000-01-01T11:14:34.000Z</time>
      </trkpt>
      <trkpt lat="45.75712" lon="6.19899">
        <ele>847.9</ele>
        <time>2000-01-01T11:14:44.000Z</time>
      </trkpt>
      <trkpt lat="45.75729" lon="6.19904">
        <ele>865</ele>
        <time>2000-01-01T11:14:54.000Z</time>
      </trkpt>
      <trkpt lat="45.75748" lon="6.19911">
        <ele>855</ele>
        <time>2000-01-01T11:15:04.000Z</time>
      </trkpt>
      <trkpt lat="45.75764" lon="6.19917">
        <ele>835</ele>
        <time>2000-01-01T11:15:14.000Z</time>
      </trkpt>
      <trkpt lat="45.75781" lon="6.19923">
        <ele>842</ele>
        <time>2000-01-01T11:15:24.000Z</time>
      </trkpt>
      <trkpt lat="45.75789" lon="6.19929">
        <ele>828.8</ele>
        <time>2000-01-01T11:15:34.000Z</time>
      </trkpt>
      <trkpt lat="45.75794" lon="6.19943">
        <ele>842</ele>
        <time>2000-01-01T11:15:44.000Z</time>
      </trkpt>
      <trkpt lat="45.75799" lon="6.19961">
        <ele>825.7</ele>
        <time>2000-01-01T11:15:54.000Z</time>
      </trkpt>
      <trkpt lat="45.75808" lon="6.19973">
        <ele>839</ele>
        <time>2000-01-01T11:16:04.000Z</time>
      </trkpt>
      <trkpt lat="45.75818" lon="6.19977">
        <ele>823.3</ele>
        <time>2000-01-01T11:16:14.000Z</time>
      </trkpt>
      <trkpt lat="45.75832" lon="6.19975">
        <ele>832</ele>
        <time>2000-01-01T11:16:24.000Z</time>
      </trkpt>
      <trkpt lat="45.75846" lon="6.19973">
        <ele>817.4</ele>
        <time>2000-01-01T11:16:34.000Z</time>
      </trkpt>
      <trkpt lat="45.75862" lon="6.19973">
        <ele>821</ele>
        <time>2000-01-01T11:16:44.000Z</time>
      </trkpt>
      <trkpt lat="45.75879" lon="6.19978">
        <ele>810.3</ele>
        <time>2000-01-01T11:16:54.000Z</time>
      </trkpt>
      <trkpt lat="45.75885" lon="6.19987">
        <ele>817</ele>
        <time>2000-01-01T11:17:04.000Z</time>
      </trkpt>
      <trkpt lat="45.75897" lon="6.20005">
        <ele>806.9</ele>
        <time>2000-01-01T11:17:14.000Z</time>
      </trkpt>
      <trkpt lat="45.75905" lon="6.20023">
        <ele>816</ele>
        <time>2000-01-01T11:17:24.000Z</time>
      </trkpt>
      <trkpt lat="45.75908" lon="6.20032">
        <ele>802.9</ele>
        <time>2000-01-01T11:17:34.000Z</time>
      </trkpt>
      <trkpt lat="45.75911" lon="6.20041">
        <ele>800.5</ele>
        <time>2000-01-01T11:17:44.000Z</time>
      </trkpt>
      <trkpt lat="45.75916" lon="6.20052">
        <ele>804</ele>
        <time>2000-01-01T11:17:54.000Z</time>
      </trkpt>
      <trkpt lat="45.7592" lon="6.20058">
        <ele>796.3</ele>
        <time>2000-01-01T11:18:04.000Z</time>
      </trkpt>
      <trkpt lat="45.75929" lon="6.20063">
        <ele>794.3</ele>
        <time>2000-01-01T11:18:14.000Z</time>
      </trkpt>
      <trkpt lat="45.75939" lon="6.20064">
        <ele>804</ele>
        <time>2000-01-01T11:18:24.000Z</time>
      </trkpt>
      <trkpt lat="45.75957" lon="6.20061">
        <ele>786</ele>
        <time>2000-01-01T11:18:34.000Z</time>
      </trkpt>
      <trkpt lat="45.75973" lon="6.20057">
        <ele>791</ele>
        <time>2000-01-01T11:18:44.000Z</time>
      </trkpt>
      <trkpt lat="45.75985" lon="6.20053">
        <ele>777.4</ele>
        <time>2000-01-01T11:18:54.000Z</time>
      </trkpt>
      <trkpt lat="45.75997" lon="6.20053">
        <ele>788</ele>
        <time>2000-01-01T11:19:04.000Z</time>
      </trkpt>
      <trkpt lat="45.76013" lon="6.20051">
        <ele>768.9</ele>
        <time>2000-01-01T11:19:14.000Z</time>
      </trkpt>
      <trkpt lat="45.7602" lon="6.2005">
        <ele>785</ele>
        <time>2000-01-01T11:19:24.000Z</time>
      </trkpt>
      <trkpt lat="45.7604" lon="6.20047">
        <ele>782</ele>
        <time>2000-01-01T11:19:34.000Z</time>
      </trkpt>
      <trkpt lat="45.76065" lon="6.20051">
        <ele>780</ele>
        <time>2000-01-01T11:19:44.000Z</time>
      </trkpt>
      <trkpt lat="45.76088" lon="6.20053">
        <ele>775</ele>
        <time>2000-01-01T11:19:54.000Z</time>
      </trkpt>
      <trkpt lat="45.76112" lon="6.2005">
        <ele>761</ele>
        <time>2000-01-01T11:20:04.000Z</time>
      </trkpt>
      <trkpt lat="45.76121" lon="6.20048">
        <ele>738</ele>
        <time>2000-01-01T11:20:14.000Z</time>
      </trkpt>
      <trkpt lat="45.76143" lon="6.20044">
        <ele>742</ele>
        <time>2000-01-01T11:20:24.000Z</time>
      </trkpt>
      <trkpt lat="45.76146" lon="6.20044">
        <ele>732.5</ele>
        <time>2000-01-01T11:20:34.000Z</time>
      </trkpt>
      <trkpt lat="45.76158" lon="6.20045">
        <ele>729.7</ele>
        <time>2000-01-01T11:20:44.000Z</time>
      </trkpt>
      <trkpt lat="45.76169" lon="6.20054">
        <ele>736</ele>
        <time>2000-01-01T11:20:54.000Z</time>
      </trkpt>
      <trkpt lat="45.76189" lon="6.20063">
        <ele>736</ele>
        <time>2000-01-01T11:21:04.000Z</time>
      </trkpt>
      <trkpt lat="45.76207" lon="6.20073">
        <ele>732</ele>
        <time>2000-01-01T11:21:14.000Z</time>
      </trkpt>
      <trkpt lat="45.76227" lon="6.20084">
        <ele>722</ele>
        <time>2000-01-01T11:21:24.000Z</time>
      </trkpt>
      <trkpt lat="45.76243" lon="6.20086">
        <ele>709</ele>
        <time>2000-01-01T11:21:34.000Z</time>
      </trkpt>
      <trkpt lat="45.76257" lon="6.20089">
        <ele>712</ele>
        <time>2000-01-01T11:21:44.000Z</time>
      </trkpt>
      <trkpt lat="45.76269" lon="6.20088">
        <ele>704.4</ele>
        <time>2000-01-01T11:21:54.000Z</time>
      </trkpt>
      <trkpt lat="45.76278" lon="6.20087">
        <ele>707</ele>
        <time>2000-01-01T11:22:04.000Z</time>
      </trkpt>
      <trkpt lat="45.76296" lon="6.20086">
        <ele>707</ele>
        <time>2000-01-01T11:22:14.000Z</time>
      </trkpt>
      <trkpt lat="45.76318" lon="6.20088">
        <ele>693</ele>
        <time>2000-01-01T11:22:24.000Z</time>
      </trkpt>
      <trkpt lat="45.76324" lon="6.20087">
        <ele>691.3</ele>
        <time>2000-01-01T11:22:34.000Z</time>
      </trkpt>
      <trkpt lat="45.76329" lon="6.20085">
        <ele>690</ele>
        <time>2000-01-01T11:22:44.000Z</time>
      </trkpt>
      <trkpt lat="45.76348" lon="6.20083">
        <ele>681</ele>
        <time>2000-01-01T11:22:54.000Z</time>
      </trkpt>
      <trkpt lat="45.7636" lon="6.20083">
        <ele>683.3</ele>
        <time>2000-01-01T11:23:04.000Z</time>
      </trkpt>
      <trkpt lat="45.76373" lon="6.20085">
        <ele>680</ele>
        <time>2000-01-01T11:23:14.000Z</time>
      </trkpt>
      <trkpt lat="45.76383" lon="6.20089">
        <ele>676.9</ele>
        <time>2000-01-01T11:23:24.000Z</time>
      </trkpt>
      <trkpt lat="45.76389" lon="6.20095">
        <ele>674.7</ele>
        <time>2000-01-01T11:23:34.000Z</time>
      </trkpt>
      <trkpt lat="45.76397" lon="6.20106">
        <ele>680</ele>
        <time>2000-01-01T11:23:44.000Z</time>
      </trkpt>
      <trkpt lat="45.76411" lon="6.20119">
        <ele>666</ele>
        <time>2000-01-01T11:23:54.000Z</time>
      </trkpt>
      <trkpt lat="45.76444" lon="6.20153">
        <ele>674</ele>
        <time>2000-01-01T11:24:04.000Z</time>
      </trkpt>
      <trkpt lat="45.76468" lon="6.20167">
        <ele>666</ele>
        <time>2000-01-01T11:24:14.000Z</time>
      </trkpt>
      <trkpt lat="45.76499" lon="6.20184">
        <ele>654</ele>
        <time>2000-01-01T11:24:24.000Z</time>
      </trkpt>
      <trkpt lat="45.76542" lon="6.20196">
        <ele>643</ele>
        <time>2000-01-01T11:24:34.000Z</time>
      </trkpt>
      <trkpt lat="45.76586" lon="6.20212">
        <ele>623</ele>
        <time>2000-01-01T11:24:44.000Z</time>
      </trkpt>
      <trkpt lat="45.7661" lon="6.20233">
        <ele>619</ele>
        <time>2000-01-01T11:24:54.000Z</time>
      </trkpt>
      <trkpt lat="45.7661" lon="6.20233">
        <ele>608</ele>
        <time>2000-01-01T11:25:04.000Z</time>
      </trkpt>
      <trkpt lat="45.76618" lon="6.2024">
        <ele>605.9</ele>
        <time>2000-01-01T11:25:14.000Z</time>
      </trkpt>
      <trkpt lat="45.76624" lon="6.20241">
        <ele>604.8</ele>
        <time>2000-01-01T11:25:24.000Z</time>
      </trkpt>
      <trkpt lat="45.76629" lon="6.20241">
        <ele>614</ele>
        <time>2000-01-01T11:25:34.000Z</time>
      </trkpt>
      <trkpt lat="45.76635" lon="6.20239">
        <ele>603.1</ele>
        <time>2000-01-01T11:25:44.000Z</time>
      </trkpt>
      <trkpt lat="45.76649" lon="6.20231">
        <ele>610</ele>
        <time>2000-01-01T11:25:54.000Z</time>
      </trkpt>
      <trkpt lat="45.76662" lon="6.20218">
        <ele>599</ele>
        <time>2000-01-01T11:26:04.000Z</time>
      </trkpt>
      <trkpt lat="45.76677" lon="6.20206">
        <ele>606</ele>
        <time>2000-01-01T11:26:14.000Z</time>
      </trkpt>
      <trkpt lat="45.76684" lon="6.20202">
        <ele>595.8</ele>
        <time>2000-01-01T11:26:24.000Z</time>
      </trkpt>
      <trkpt lat="45.76691" lon="6.20199">
        <ele>594.6</ele>
        <time>2000-01-01T11:26:34.000Z</time>
      </trkpt>
      <trkpt lat="45.76699" lon="6.20199">
        <ele>606</ele>
        <time>2000-01-01T11:26:44.000Z</time>
      </trkpt>
      <trkpt lat="45.76709" lon="6.20203">
        <ele>593</ele>
        <time>2000-01-01T11:26:54.000Z</time>
      </trkpt>
      <trkpt lat="45.76717" lon="6.20206">
        <ele>592.2</ele>
        <time>2000-01-01T11:27:04.000Z</time>
      </trkpt>
      <trkpt lat="45.76729" lon="6.20214">
        <ele>603</ele>
        <time>2000-01-01T11:27:14.000Z</time>
      </trkpt>
      <trkpt lat="45.76739" lon="6.20223">
        <ele>587</ele>
        <time>2000-01-01T11:27:24.000Z</time>
      </trkpt>
      <trkpt lat="45.76755" lon="6.20233">
        <ele>603</ele>
        <time>2000-01-01T11:27:34.000Z</time>
      </trkpt>
      <trkpt lat="45.76761" lon="6.20236">
        <ele>583.4</ele>
        <time>2000-01-01T11:27:44.000Z</time>
      </trkpt>
      <trkpt lat="45.76766" lon="6.2024">
        <ele>582.5</ele>
        <time>2000-01-01T11:27:54.000Z</time>
      </trkpt>
      <trkpt lat="45.7677" lon="6.20243">
        <ele>581.8</ele>
        <time>2000-01-01T11:28:04.000Z</time>
      </trkpt>
      <trkpt lat="45.76778" lon="6.20252">
        <ele>599</ele>
        <time>2000-01-01T11:28:14.000Z</time>
      </trkpt>
      <trkpt lat="45.76787" lon="6.20263">
        <ele>577.5</ele>
        <time>2000-01-01T11:28:24.000Z</time>
      </trkpt>
      <trkpt lat="45.76796" lon="6.20279">
        <ele>594</ele>
        <time>2000-01-01T11:28:34.000Z</time>
      </trkpt>
      <trkpt lat="45.76807" lon="6.20292">
        <ele>573.1</ele>
        <time>2000-01-01T11:28:44.000Z</time>
      </trkpt>
      <trkpt lat="45.76818" lon="6.20303">
        <ele>587</ele>
        <time>2000-01-01T11:28:54.000Z</time>
      </trkpt>
      <trkpt lat="45.76827" lon="6.20307">
        <ele>568.7</ele>
        <time>2000-01-01T11:29:04.000Z</time>
      </trkpt>
      <trkpt lat="45.76836" lon="6.20308">
        <ele>566.9</ele>
        <time>2000-01-01T11:29:14.000Z</time>
      </trkpt>
      <trkpt lat="45.76845" lon="6.20304">
        <ele>581</ele>
        <time>2000-01-01T11:29:24.000Z</time>
      </trkpt>
      <trkpt lat="45.76851" lon="6.20305">
        <ele>564.4</ele>
        <time>2000-01-01T11:29:34.000Z</time>
      </trkpt>
      <trkpt lat="45.76865" lon="6.20306">
        <ele>573</ele>
        <time>2000-01-01T11:29:44.000Z</time>
      </trkpt>
      <trkpt lat="45.76875" lon="6.20308">
        <ele>561.2</ele>
        <time>2000-01-01T11:29:54.000Z</time>
      </trkpt>
      <trkpt lat="45.76893" lon="6.20318">
        <ele>566</ele>
        <time>2000-01-01T11:30:04.000Z</time>
      </trkpt>
      <trkpt lat="45.76912" lon="6.20331">
        <ele>567</ele>
        <time>2000-01-01T11:30:14.000Z</time>
      </trkpt>
      <trkpt lat="45.76925" lon="6.20342">
        <ele>555.6</ele>
        <time>2000-01-01T11:30:24.000Z</time>
      </trkpt>
      <trkpt lat="45.76937" lon="6.20351">
        <ele>566</ele>
        <time>2000-01-01T11:30:34.000Z</time>
      </trkpt>
      <trkpt lat="45.76948" lon="6.20366">
        <ele>552</ele>
        <time>2000-01-01T11:30:44.000Z</time>
      </trkpt>
      <trkpt lat="45.76964" lon="6.20391">
        <ele>565</ele>
        <time>2000-01-01T11:30:54.000Z</time>
      </trkpt>
      <trkpt lat="45.76977" lon="6.20419">
        <ele>565</ele>
        <time>2000-01-01T11:31:04.000Z</time>
      </trkpt>
      <trkpt lat="45.76985" lon="6.20435">
        <ele>546.8</ele>
        <time>2000-01-01T11:31:14.000Z</time>
      </trkpt>
      <trkpt lat="45.77001" lon="6.20466">
        <ele>555</ele>
        <time>2000-01-01T11:31:24.000Z</time>
      </trkpt>
      <trkpt lat="45.77014" lon="6.20492">
        <ele>552</ele>
        <time>2000-01-01T11:31:34.000Z</time>
      </trkpt>
      <trkpt lat="45.77017" lon="6.20496">
        <ele>542.8</ele>
        <time>2000-01-01T11:31:44.000Z</time>
      </trkpt>
      <trkpt lat="45.77022" lon="6.20505">
        <ele>542</ele>
        <time>2000-01-01T11:31:54.000Z</time>
      </trkpt>
      <trkpt lat="45.77027" lon="6.20516">
        <ele>549</ele>
        <time>2000-01-01T11:32:04.000Z</time>
      </trkpt>
      <trkpt lat="45.77028" lon="6.2052">
        <ele>541</ele>
        <time>2000-01-01T11:32:14.000Z</time>
      </trkpt>
      <trkpt lat="45.77028" lon="6.20522">
        <ele>541</ele>
        <time>2000-01-01T11:32:24.000Z</time>
      </trkpt>
      <trkpt lat="45.77029" lon="6.20532">
        <ele>540.9</ele>
        <time>2000-01-01T11:32:34.000Z</time>
      </trkpt>
      <trkpt lat="45.77032" lon="6.20551">
        <ele>545</ele>
        <time>2000-01-01T11:32:44.000Z</time>
      </trkpt>
      <trkpt lat="45.77039" lon="6.20572">
        <ele>539</ele>
        <time>2000-01-01T11:32:54.000Z</time>
      </trkpt>
      <trkpt lat="45.77046" lon="6.20592">
        <ele>541</ele>
        <time>2000-01-01T11:33:04.000Z</time>
      </trkpt>
      <trkpt lat="45.77058" lon="6.20615">
        <ele>537</ele>
        <time>2000-01-01T11:33:14.000Z</time>
      </trkpt>
      <trkpt lat="45.77064" lon="6.20624">
        <ele>533</ele>
        <time>2000-01-01T11:33:24.000Z</time>
      </trkpt>
      <trkpt lat="45.7707" lon="6.20628">
        <ele>531.7</ele>
        <time>2000-01-01T11:33:34.000Z</time>
      </trkpt>
      <trkpt lat="45.77075" lon="6.20629">
        <ele>535</ele>
        <time>2000-01-01T11:33:44.000Z</time>
      </trkpt>
      <trkpt lat="45.77085" lon="6.20627">
        <ele>528.3</ele>
        <time>2000-01-01T11:33:54.000Z</time>
      </trkpt>
      <trkpt lat="45.77104" lon="6.20622">
        <ele>527</ele>
        <time>2000-01-01T11:34:04.000Z</time>
      </trkpt>
      <trkpt lat="45.77129" lon="6.20615">
        <ele>527</ele>
        <time>2000-01-01T11:34:14.000Z</time>
      </trkpt>
      <trkpt lat="45.7715" lon="6.20611">
        <ele>523</ele>
        <time>2000-01-01T11:34:24.000Z</time>
      </trkpt>
      <trkpt lat="45.77151" lon="6.20609">
        <ele>522.5</ele>
        <time>2000-01-01T11:34:34.000Z</time>
      </trkpt>
      <trkpt lat="45.77154" lon="6.20606">
        <ele>522.1</ele>
        <time>2000-01-01T11:34:44.000Z</time>
      </trkpt>
      <trkpt lat="45.77161" lon="6.20596">
        <ele>521.6</ele>
        <time>2000-01-01T11:34:54.000Z</time>
      </trkpt>
      <trkpt lat="45.77166" lon="6.20585">
        <ele>523</ele>
        <time>2000-01-01T11:35:04.000Z</time>
      </trkpt>
      <trkpt lat="45.77174" lon="6.20568">
        <ele>520.1</ele>
        <time>2000-01-01T11:35:14.000Z</time>
      </trkpt>
      <trkpt lat="45.77178" lon="6.20559">
        <ele>524</ele>
        <time>2000-01-01T11:35:24.000Z</time>
      </trkpt>
      <trkpt lat="45.77183" lon="6.20553">
        <ele>518.5</ele>
        <time>2000-01-01T11:35:34.000Z</time>
      </trkpt>
      <trkpt lat="45.77185" lon="6.2055">
        <ele>518</ele>
        <time>2000-01-01T11:35:44.000Z</time>
      </trkpt>
      <trkpt lat="45.77196" lon="6.20537">
        <ele>524</ele>
        <time>2000-01-01T11:35:54.000Z</time>
      </trkpt>
      <trkpt lat="45.77207" lon="6.20528">
        <ele>515.2</ele>
        <time>2000-01-01T11:36:04.000Z</time>
      </trkpt>
      <trkpt lat="45.77219" lon="6.20519">
        <ele>519</ele>
        <time>2000-01-01T11:36:14.000Z</time>
      </trkpt>
      <trkpt lat="45.7723" lon="6.20516">
        <ele>512.7</ele>
        <time>2000-01-01T11:36:24.000Z</time>
      </trkpt>
      <trkpt lat="45.7724" lon="6.20514">
        <ele>519</ele>
        <time>2000-01-01T11:36:34.000Z</time>
      </trkpt>
      <trkpt lat="45.77248" lon="6.20516">
        <ele>511.2</ele>
        <time>2000-01-01T11:36:44.000Z</time>
      </trkpt>
      <trkpt lat="45.77256" lon="6.20519">
        <ele>510.7</ele>
        <time>2000-01-01T11:36:54.000Z</time>
      </trkpt>
      <trkpt lat="45.77262" lon="6.20523">
        <ele>511</ele>
        <time>2000-01-01T11:37:04.000Z</time>
      </trkpt>
      <trkpt lat="45.77268" lon="6.20527">
        <ele>510.3</ele>
        <time>2000-01-01T11:37:14.000Z</time>
      </trkpt>
      <trkpt lat="45.77273" lon="6.20534">
        <ele>509.7</ele>
        <time>2000-01-01T11:37:24.000Z</time>
      </trkpt>
      <trkpt lat="45.77276" lon="6.2054">
        <ele>512</ele>
        <time>2000-01-01T11:37:34.000Z</time>
      </trkpt>
      <trkpt lat="45.7728" lon="6.2055">
        <ele>508.1</ele>
        <time>2000-01-01T11:37:44.000Z</time>
      </trkpt>
      <trkpt lat="45.77284" lon="6.20562">
        <ele>507.1</ele>
        <time>2000-01-01T11:37:54.000Z</time>
      </trkpt>
      <trkpt lat="45.77286" lon="6.20574">
        <ele>512</ele>
        <time>2000-01-01T11:38:04.000Z</time>
      </trkpt>
      <trkpt lat="45.77286" lon="6.20581">
        <ele>506.5</ele>
        <time>2000-01-01T11:38:14.000Z</time>
      </trkpt>
      <trkpt lat="45.77286" lon="6.20585">
        <ele>506.3</ele>
        <time>2000-01-01T11:38:24.000Z</time>
      </trkpt>
      <trkpt lat="45.77286" lon="6.20588">
        <ele>506.1</ele>
        <time>2000-01-01T11:38:34.000Z</time>
      </trkpt>
      <trkpt lat="45.77285" lon="6.20609">
        <ele>512</ele>
        <time>2000-01-01T11:38:44.000Z</time>
      </trkpt>
      <trkpt lat="45.77286" lon="6.20625">
        <ele>504.1</ele>
        <time>2000-01-01T11:38:54.000Z</time>
      </trkpt>
      <trkpt lat="45.77288" lon="6.20635">
        <ele>503.5</ele>
        <time>2000-01-01T11:39:04.000Z</time>
      </trkpt>
      <trkpt lat="45.77292" lon="6.20648">
        <ele>509</ele>
        <time>2000-01-01T11:39:14.000Z</time>
      </trkpt>
      <trkpt lat="45.77298" lon="6.20661">
        <ele>501.5</ele>
        <time>2000-01-01T11:39:24.000Z</time>
      </trkpt>
      <trkpt lat="45.77302" lon="6.20669">
        <ele>501</ele>
        <time>2000-01-01T11:39:34.000Z</time>
      </trkpt>
      <trkpt lat="45.77307" lon="6.20674">
        <ele>504</ele>
        <time>2000-01-01T11:39:44.000Z</time>
      </trkpt>
      <trkpt lat="45.77316" lon="6.20684">
        <ele>499.9</ele>
        <time>2000-01-01T11:39:54.000Z</time>
      </trkpt>
      <trkpt lat="45.77334" lon="6.20703">
        <ele>498</ele>
        <time>2000-01-01T11:40:04.000Z</time>
      </trkpt>
      <trkpt lat="45.77356" lon="6.20727">
        <ele>495</ele>
        <time>2000-01-01T11:40:14.000Z</time>
      </trkpt>
      <trkpt lat="45.77374" lon="6.20744">
        <ele>496</ele>
        <time>2000-01-01T11:40:24.000Z</time>
      </trkpt>
      <trkpt lat="45.77383" lon="6.20753">
        <ele>493.9</ele>
        <time>2000-01-01T11:40:34.000Z</time>
      </trkpt>
      <trkpt lat="45.77387" lon="6.2076">
        <ele>493.6</ele>
        <time>2000-01-01T11:40:44.000Z</time>
      </trkpt>
      <trkpt lat="45.77395" lon="6.20769">
        <ele>496</ele>
        <time>2000-01-01T11:40:54.000Z</time>
      </trkpt>
      <trkpt lat="45.77398" lon="6.20771">
        <ele>492.8</ele>
        <time>2000-01-01T11:41:04.000Z</time>
      </trkpt>
      <trkpt lat="45.77402" lon="6.20775">
        <ele>492.6</ele>
        <time>2000-01-01T11:41:14.000Z</time>
      </trkpt>
      <trkpt lat="45.77407" lon="6.20781">
        <ele>492.2</ele>
        <time>2000-01-01T11:41:24.000Z</time>
      </trkpt>
      <trkpt lat="45.7741" lon="6.20787">
        <ele>496</ele>
        <time>2000-01-01T11:41:34.000Z</time>
      </trkpt>
      <trkpt lat="45.77411" lon="6.20788">
        <ele>491.8</ele>
        <time>2000-01-01T11:41:44.000Z</time>
      </trkpt>
      <trkpt lat="45.77415" lon="6.20796">
        <ele>491.4</ele>
        <time>2000-01-01T11:41:54.000Z</time>
      </trkpt>
      <trkpt lat="45.77419" lon="6.20804">
        <ele>491</ele>
        <time>2000-01-01T11:42:04.000Z</time>
      </trkpt>
      <trkpt lat="45.77425" lon="6.2082">
        <ele>495</ele>
        <time>2000-01-01T11:42:14.000Z</time>
      </trkpt>
      <trkpt lat="45.77438" lon="6.20851">
        <ele>490</ele>
        <time>2000-01-01T11:42:24.000Z</time>
      </trkpt>
      <trkpt lat="45.77449" lon="6.20876">
        <ele>490</ele>
        <time>2000-01-01T11:42:34.000Z</time>
      </trkpt>
      <trkpt lat="45.77459" lon="6.20892">
        <ele>486.3</ele>
        <time>2000-01-01T11:42:44.000Z</time>
      </trkpt>
      <trkpt lat="45.77466" lon="6.209">
        <ele>490</ele>
        <time>2000-01-01T11:42:54.000Z</time>
      </trkpt>
      <trkpt lat="45.77472" lon="6.20906">
        <ele>485.4</ele>
        <time>2000-01-01T11:43:04.000Z</time>
      </trkpt>
      <trkpt lat="45.77477" lon="6.2091">
        <ele>485.1</ele>
        <time>2000-01-01T11:43:14.000Z</time>
      </trkpt>
      <trkpt lat="45.77485" lon="6.20916">
        <ele>489</ele>
        <time>2000-01-01T11:43:24.000Z</time>
      </trkpt>
      <trkpt lat="45.77486" lon="6.20916">
        <ele>484.5</ele>
        <time>2000-01-01T11:43:34.000Z</time>
      </trkpt>
      <trkpt lat="45.77492" lon="6.2092">
        <ele>484.1</ele>
        <time>2000-01-01T11:43:44.000Z</time>
      </trkpt>
      <trkpt lat="45.77505" lon="6.20929">
        <ele>488</ele>
        <time>2000-01-01T11:43:54.000Z</time>
      </trkpt>
      <trkpt lat="45.77515" lon="6.20936">
        <ele>483.8</ele>
        <time>2000-01-01T11:44:04.000Z</time>
      </trkpt>
      <trkpt lat="45.77522" lon="6.20945">
        <ele>487</ele>
        <time>2000-01-01T11:44:14.000Z</time>
      </trkpt>
      <trkpt lat="45.77527" lon="6.20952">
        <ele>483.7</ele>
        <time>2000-01-01T11:44:24.000Z</time>
      </trkpt>
      <trkpt lat="45.77534" lon="6.20963">
        <ele>483.3</ele>
        <time>2000-01-01T11:44:34.000Z</time>
      </trkpt>
      <trkpt lat="45.77541" lon="6.20973">
        <ele>486</ele>
        <time>2000-01-01T11:44:44.000Z</time>
      </trkpt>
      <trkpt lat="45.77551" lon="6.2099">
        <ele>482.4</ele>
        <time>2000-01-01T11:44:54.000Z</time>
      </trkpt>
      <trkpt lat="45.77563" lon="6.21008">
        <ele>485</ele>
        <time>2000-01-01T11:45:04.000Z</time>
      </trkpt>
      <trkpt lat="45.77571" lon="6.21017">
        <ele>481.2</ele>
        <time>2000-01-01T11:45:14.000Z</time>
      </trkpt>
      <trkpt lat="45.7758" lon="6.21026">
        <ele>485</ele>
        <time>2000-01-01T11:45:24.000Z</time>
      </trkpt>
      <trkpt lat="45.77586" lon="6.21033">
        <ele>480.7</ele>
        <time>2000-01-01T11:45:34.000Z</time>
      </trkpt>
      <trkpt lat="45.77591" lon="6.2104">
        <ele>480.4</ele>
        <time>2000-01-01T11:45:44.000Z</time>
      </trkpt>
      <trkpt lat="45.77597" lon="6.2105">
        <ele>485</ele>
        <time>2000-01-01T11:45:54.000Z</time>
      </trkpt>
      <trkpt lat="45.77613" lon="6.21075">
        <ele>480</ele>
        <time>2000-01-01T11:46:04.000Z</time>
      </trkpt>
      <trkpt lat="45.77628" lon="6.21103">
        <ele>480</ele>
        <time>2000-01-01T11:46:14.000Z</time>
      </trkpt>
      <trkpt lat="45.77646" lon="6.21133">
        <ele>480</ele>
        <time>2000-01-01T11:46:24.000Z</time>
      </trkpt>
      <trkpt lat="45.77673" lon="6.21177">
        <ele>482</ele>
        <time>2000-01-01T11:46:34.000Z</time>
      </trkpt>
      <trkpt lat="45.77689" lon="6.21205">
        <ele>483</ele>
        <time>2000-01-01T11:46:44.000Z</time>
      </trkpt>
      <trkpt lat="45.77705" lon="6.21233">
        <ele>483</ele>
        <time>2000-01-01T11:46:54.000Z</time>
      </trkpt>
      <trkpt lat="45.7773" lon="6.21283">
        <ele>475</ele>
        <time>2000-01-01T11:47:04.000Z</time>
      </trkpt>
      <trkpt lat="45.77745" lon="6.21317">
        <ele>471</ele>
        <time>2000-01-01T11:47:14.000Z</time>
      </trkpt>
      <trkpt lat="45.77767" lon="6.21353">
        <ele>471</ele>
        <time>2000-01-01T11:47:24.000Z</time>
      </trkpt>
      <trkpt lat="45.77782" lon="6.21377">
        <ele>478</ele>
        <time>2000-01-01T11:47:34.000Z</time>
      </trkpt>
      <trkpt lat="45.77792" lon="6.21388">
        <ele>473</ele>
        <time>2000-01-01T11:47:44.000Z</time>
      </trkpt>
      <trkpt lat="45.77801" lon="6.21394">
        <ele>480</ele>
        <time>2000-01-01T11:47:54.000Z</time>
      </trkpt>
      <trkpt lat="45.77802" lon="6.21396">
        <ele>472.7</ele>
        <time>2000-01-01T11:48:04.000Z</time>
      </trkpt>
      <trkpt lat="45.77812" lon="6.21404">
        <ele>472.1</ele>
        <time>2000-01-01T11:48:14.000Z</time>
      </trkpt>
      <trkpt lat="45.7782" lon="6.21412">
        <ele>480</ele>
        <time>2000-01-01T11:48:24.000Z</time>
      </trkpt>
      <trkpt lat="45.7783" lon="6.21425">
        <ele>471.1</ele>
        <time>2000-01-01T11:48:34.000Z</time>
      </trkpt>
      <trkpt lat="45.77847" lon="6.21448">
        <ele>477</ele>
        <time>2000-01-01T11:48:44.000Z</time>
      </trkpt>
      <trkpt lat="45.77875" lon="6.21486">
        <ele>475</ele>
        <time>2000-01-01T11:48:54.000Z</time>
      </trkpt>
      <trkpt lat="45.779" lon="6.21522">
        <ele>474</ele>
        <time>2000-01-01T11:49:04.000Z</time>
      </trkpt>
      <trkpt lat="45.77917" lon="6.21547">
        <ele>472</ele>
        <time>2000-01-01T11:49:14.000Z</time>
      </trkpt>
      <trkpt lat="45.77935" lon="6.21575">
        <ele>471</ele>
        <time>2000-01-01T11:49:24.000Z</time>
      </trkpt>
      <trkpt lat="45.77965" lon="6.21619">
        <ele>471</ele>
        <time>2000-01-01T11:49:34.000Z</time>
      </trkpt>
      <trkpt lat="45.77985" lon="6.21649">
        <ele>471</ele>
        <time>2000-01-01T11:49:44.000Z</time>
      </trkpt>
      <trkpt lat="45.78012" lon="6.21691">
        <ele>471</ele>
        <time>2000-01-01T11:49:54.000Z</time>
      </trkpt>
      <trkpt lat="45.78026" lon="6.21714">
        <ele>469</ele>
        <time>2000-01-01T11:50:04.000Z</time>
      </trkpt>
      <trkpt lat="45.78034" lon="6.21732">
        <ele>468</ele>
        <time>2000-01-01T11:50:14.000Z</time>
      </trkpt>
      <trkpt lat="45.78043" lon="6.21753">
        <ele>468</ele>
        <time>2000-01-01T11:50:24.000Z</time>
      </trkpt>
      <trkpt lat="45.7805" lon="6.21769">
        <ele>467.5</ele>
        <time>2000-01-01T11:50:34.000Z</time>
      </trkpt>
      <trkpt lat="45.78056" lon="6.21788">
        <ele>467</ele>
        <time>2000-01-01T11:50:44.000Z</time>
      </trkpt>
      <trkpt lat="45.78069" lon="6.2183">
        <ele>468</ele>
        <time>2000-01-01T11:50:54.000Z</time>
      </trkpt>
      <trkpt lat="45.78081" lon="6.21868">
        <ele>469</ele>
        <time>2000-01-01T11:51:04.000Z</time>
      </trkpt>
      <trkpt lat="45.78091" lon="6.21891">
        <ele>466.7</ele>
        <time>2000-01-01T11:51:14.000Z</time>
      </trkpt>
      <trkpt lat="45.78097" lon="6.21903">
        <ele>468</ele>
        <time>2000-01-01T11:51:24.000Z</time>
      </trkpt>
      <trkpt lat="45.78106" lon="6.21917">
        <ele>466.2</ele>
        <time>2000-01-01T11:51:34.000Z</time>
      </trkpt>
      <trkpt lat="45.78125" lon="6.21944">
        <ele>468</ele>
        <time>2000-01-01T11:51:44.000Z</time>
      </trkpt>
      <trkpt lat="45.78157" lon="6.21987">
        <ele>466</ele>
        <time>2000-01-01T11:51:54.000Z</time>
      </trkpt>
      <trkpt lat="45.78179" lon="6.22024">
        <ele>463</ele>
        <time>2000-01-01T11:52:04.000Z</time>
      </trkpt>
      <trkpt lat="45.78184" lon="6.22032">
        <ele>465.4</ele>
        <time>2000-01-01T11:52:14.000Z</time>
      </trkpt>
      <trkpt lat="45.78179" lon="6.22024">
        <ele>465.6</ele>
        <time>2000-01-01T11:52:24.000Z</time>
      </trkpt>
      <trkpt lat="45.78169" lon="6.22038">
        <ele>463</ele>
        <time>2000-01-01T11:52:34.000Z</time>
      </trkpt>
      <trkpt lat="45.78159" lon="6.2205">
        <ele>466</ele>
        <time>2000-01-01T11:52:44.000Z</time>
      </trkpt>
      <trkpt lat="45.78149" lon="6.22059">
        <ele>463</ele>
        <time>2000-01-01T11:52:54.000Z</time>
      </trkpt>
      <trkpt lat="45.7814" lon="6.22067">
        <ele>466</ele>
        <time>2000-01-01T11:53:04.000Z</time>
      </trkpt>
      <trkpt lat="45.78133" lon="6.22071">
        <ele>466.2</ele>
        <time>2000-01-01T11:53:14.000Z</time>
      </trkpt>
      <trkpt lat="45.78121" lon="6.22076">
        <ele>463</ele>
        <time>2000-01-01T11:53:24.000Z</time>
      </trkpt>
      <trkpt lat="45.78089" lon="6.22087">
        <ele>463</ele>
        <time>2000-01-01T11:53:34.000Z</time>
      </trkpt>
      <trkpt lat="45.78058" lon="6.22101">
        <ele>463</ele>
        <time>2000-01-01T11:53:44.000Z</time>
      </trkpt>
      <trkpt lat="45.78041" lon="6.22109">
        <ele>468</ele>
        <time>2000-01-01T11:53:54.000Z</time>
      </trkpt>
      <trkpt lat="45.7803" lon="6.22116">
        <ele>463</ele>
        <time>2000-01-01T11:54:04.000Z</time>
      </trkpt>
      <trkpt lat="45.78023" lon="6.22123">
        <ele>468.1</ele>
        <time>2000-01-01T11:54:14.000Z</time>
      </trkpt>
      <trkpt lat="45.78016" lon="6.22131">
        <ele>468.3</ele>
        <time>2000-01-01T11:54:24.000Z</time>
      </trkpt>
      <trkpt lat="45.78009" lon="6.22144">
        <ele>464</ele>
        <time>2000-01-01T11:54:34.000Z</time>
      </trkpt>
      <trkpt lat="45.78" lon="6.22162">
        <ele>469</ele>
        <time>2000-01-01T11:54:44.000Z</time>
      </trkpt>
      <trkpt lat="45.77994" lon="6.22172">
        <ele>465</ele>
        <time>2000-01-01T11:54:54.000Z</time>
      </trkpt>
      <trkpt lat="45.77991" lon="6.22177">
        <ele>469.3</ele>
        <time>2000-01-01T11:55:04.000Z</time>
      </trkpt>
      <trkpt lat="45.77984" lon="6.22184">
        <ele>469.6</ele>
        <time>2000-01-01T11:55:14.000Z</time>
      </trkpt>
      <trkpt lat="45.77973" lon="6.22193">
        <ele>466</ele>
        <time>2000-01-01T11:55:24.000Z</time>
      </trkpt>
      <trkpt lat="45.77951" lon="6.22215">
        <ele>468</ele>
        <time>2000-01-01T11:55:34.000Z</time>
      </trkpt>
      <trkpt lat="45.77927" lon="6.22237">
        <ele>469</ele>
        <time>2000-01-01T11:55:44.000Z</time>
      </trkpt>
      <trkpt lat="45.77907" lon="6.22259">
        <ele>470</ele>
        <time>2000-01-01T11:55:54.000Z</time>
      </trkpt>
      <trkpt lat="45.77888" lon="6.22277">
        <ele>471</ele>
        <time>2000-01-01T11:56:04.000Z</time>
      </trkpt>
      <trkpt lat="45.77882" lon="6.22283">
        <ele>472</ele>
        <time>2000-01-01T11:56:14.000Z</time>
      </trkpt>
      <trkpt lat="45.77876" lon="6.22286">
        <ele>472</ele>
        <time>2000-01-01T11:56:24.000Z</time>
      </trkpt>
      <trkpt lat="45.77868" lon="6.22289">
        <ele>471</ele>
        <time>2000-01-01T11:56:34.000Z</time>
      </trkpt>
      <trkpt lat="45.77871" lon="6.22293">
        <ele>472</ele>
        <time>2000-01-01T11:56:44.000Z</time>
      </trkpt>
      <trkpt lat="45.77877" lon="6.22297">
        <ele>472</ele>
        <time>2000-01-01T11:56:54.000Z</time>
      </trkpt>
      <trkpt lat="45.77881" lon="6.22301">
        <ele>472</ele>
        <time>2000-01-01T11:57:04.000Z</time>
      </trkpt>
      <trkpt lat="45.77885" lon="6.22304">
        <ele>471</ele>
        <time>2000-01-01T11:57:14.000Z</time>
      </trkpt>
      <trkpt lat="45.7791" lon="6.22328">
        <ele>470</ele>
        <time>2000-01-01T11:57:24.000Z</time>
      </trkpt>
      <trkpt lat="45.77931" lon="6.22344">
        <ele>470</ele>
        <time>2000-01-01T11:57:34.000Z</time>
      </trkpt>
      <trkpt lat="45.77932" lon="6.22345">
        <ele>470.7</ele>
        <time>2000-01-01T11:57:44.000Z</time>
      </trkpt>
      <trkpt lat="45.7795" lon="6.22353">
        <ele>470</ele>
        <time>2000-01-01T11:57:54.000Z</time>
      </trkpt>
      <trkpt lat="45.7797" lon="6.22361">
        <ele>468</ele>
        <time>2000-01-01T11:58:04.000Z</time>
      </trkpt>
      <trkpt lat="45.77991" lon="6.22366">
        <ele>467</ele>
        <time>2000-01-01T11:58:14.000Z</time>
      </trkpt>
      <trkpt lat="45.78004" lon="6.22367">
        <ele>469</ele>
        <time>2000-01-01T11:58:24.000Z</time>
      </trkpt>
      <trkpt lat="45.78028" lon="6.22369">
        <ele>469</ele>
        <time>2000-01-01T11:58:34.000Z</time>
      </trkpt>
      <trkpt lat="45.78073" lon="6.2237">
        <ele>471</ele>
        <time>2000-01-01T11:58:44.000Z</time>
      </trkpt>
      <trkpt lat="45.78115" lon="6.22372">
        <ele>471</ele>
        <time>2000-01-01T11:58:54.000Z</time>
      </trkpt>
      <trkpt lat="45.78115" lon="6.22349">
        <ele>473</ele>
        <time>2000-01-01T11:59:04.000Z</time>
      </trkpt>
    </trkseg>
  </trk>
</gpx>